<?xml version="1.0" encoding="UTF-8"?>
<gpx version="1.1" creator="https://www.youtrack.es" xsi:schemaLocation="http://www.topografix.com/GPX/1/1 http://www.topografix.com/GPX/1/1/gpx.xsd http://www.garmin.com/xmlschemas/GpxExtensions/v3 http://www.garmin.com/xmlschemas/GpxExtensionsv3.xsd http://www.garmin.com/xmlschemas/TrackPointExtension/v1 http://www.garmin.com/xmlschemas/TrackPointExtensionv1.xsd" xmlns:gpxtpx="http://www.garmin.com/xmlschemas/TrackPointExtension/v1" xmlns:gpxx="http://www.garmin.com/xmlschemas/GpxExtensions/v3" xmlns:xsi="http://www.w3.org/2001/XMLSchema-instance">
  <metadata>
    <link href="https://www.youtrack.es">
      <text>YouTrack.es</text>
    </link>
    <time>2026-05-08T00:53:58Z</time>
  </metadata>
  <trk>
    <src>https://www.youtrack.es</src>
    <link href="https://www.youtrack.es/ruta/15231-ciclovia-algarve">
      <text>YouTrack.es</text>
    </link>
    <trkseg>
      <trkpt lat="37.19685100" lon="-7.41458100">
        <ele>5.0000000</ele>
        <time>2010-01-01T00:00:00Z</time>
      </trkpt>
      <trkpt lat="37.19676200" lon="-7.41501900">
        <ele>6.0000000</ele>
        <time>2010-01-01T00:00:09Z</time>
      </trkpt>
      <trkpt lat="37.19622500" lon="-7.41485900">
        <ele>5.0000000</ele>
        <time>2010-01-01T00:00:24Z</time>
      </trkpt>
      <trkpt lat="37.19577700" lon="-7.41472700">
        <ele>6.0000000</ele>
        <time>2010-01-01T00:00:36Z</time>
      </trkpt>
      <trkpt lat="37.19507900" lon="-7.41449800">
        <ele>6.0000000</ele>
        <time>2010-01-01T00:00:55Z</time>
      </trkpt>
      <trkpt lat="37.19453100" lon="-7.41433100">
        <ele>6.0000000</ele>
        <time>2010-01-01T00:01:10Z</time>
      </trkpt>
      <trkpt lat="37.19403800" lon="-7.41418500">
        <ele>7.0000000</ele>
        <time>2010-01-01T00:01:24Z</time>
      </trkpt>
      <trkpt lat="37.19342900" lon="-7.41399700">
        <ele>8.0000000</ele>
        <time>2010-01-01T00:01:41Z</time>
      </trkpt>
      <trkpt lat="37.19270400" lon="-7.41376100">
        <ele>7.0000000</ele>
        <time>2010-01-01T00:02:01Z</time>
      </trkpt>
      <trkpt lat="37.19175700" lon="-7.41348300">
        <ele>7.0000000</ele>
        <time>2010-01-01T00:02:27Z</time>
      </trkpt>
      <trkpt lat="37.19129200" lon="-7.41333700">
        <ele>9.0000000</ele>
        <time>2010-01-01T00:02:39Z</time>
      </trkpt>
      <trkpt lat="37.19085400" lon="-7.41314900">
        <ele>8.0000000</ele>
        <time>2010-01-01T00:02:52Z</time>
      </trkpt>
      <trkpt lat="37.19020600" lon="-7.41289200">
        <ele>6.0000000</ele>
        <time>2010-01-01T00:03:10Z</time>
      </trkpt>
      <trkpt lat="37.18922100" lon="-7.41255100">
        <ele>9.0000000</ele>
        <time>2010-01-01T00:03:37Z</time>
      </trkpt>
      <trkpt lat="37.18862500" lon="-7.41236500">
        <ele>9.0000000</ele>
        <time>2010-01-01T00:03:54Z</time>
      </trkpt>
      <trkpt lat="37.18826300" lon="-7.41232900">
        <ele>8.0000000</ele>
        <time>2010-01-01T00:04:03Z</time>
      </trkpt>
      <trkpt lat="37.18811200" lon="-7.41238700">
        <ele>8.0000000</ele>
        <time>2010-01-01T00:04:07Z</time>
      </trkpt>
      <trkpt lat="37.18805200" lon="-7.41269700">
        <ele>10.000000</ele>
        <time>2010-01-01T00:04:14Z</time>
      </trkpt>
      <trkpt lat="37.18792000" lon="-7.41336500">
        <ele>10.000000</ele>
        <time>2010-01-01T00:04:29Z</time>
      </trkpt>
      <trkpt lat="37.18769200" lon="-7.41457400">
        <ele>8.0000000</ele>
        <time>2010-01-01T00:04:55Z</time>
      </trkpt>
      <trkpt lat="37.18751500" lon="-7.41540100">
        <ele>8.0000000</ele>
        <time>2010-01-01T00:05:13Z</time>
      </trkpt>
      <trkpt lat="37.18730500" lon="-7.41638100">
        <ele>9.0000000</ele>
        <time>2010-01-01T00:05:35Z</time>
      </trkpt>
      <trkpt lat="37.18714400" lon="-7.41688900">
        <ele>11.000000</ele>
        <time>2010-01-01T00:05:47Z</time>
      </trkpt>
      <trkpt lat="37.18675100" lon="-7.41827900">
        <ele>10.000000</ele>
        <time>2010-01-01T00:06:18Z</time>
      </trkpt>
      <trkpt lat="37.18633600" lon="-7.41964100">
        <ele>9.0000000</ele>
        <time>2010-01-01T00:06:49Z</time>
      </trkpt>
      <trkpt lat="37.18589800" lon="-7.42114300">
        <ele>11.000000</ele>
        <time>2010-01-01T00:07:23Z</time>
      </trkpt>
      <trkpt lat="37.18578200" lon="-7.42154000">
        <ele>11.000000</ele>
        <time>2010-01-01T00:07:32Z</time>
      </trkpt>
      <trkpt lat="37.18568200" lon="-7.42185200">
        <ele>11.000000</ele>
        <time>2010-01-01T00:07:39Z</time>
      </trkpt>
      <trkpt lat="37.18564900" lon="-7.42205300">
        <ele>12.000000</ele>
        <time>2010-01-01T00:07:44Z</time>
      </trkpt>
      <trkpt lat="37.18507300" lon="-7.42402000">
        <ele>13.000000</ele>
        <time>2010-01-01T00:08:28Z</time>
      </trkpt>
      <trkpt lat="37.18453600" lon="-7.42580000">
        <ele>10.000000</ele>
        <time>2010-01-01T00:09:09Z</time>
      </trkpt>
      <trkpt lat="37.18365600" lon="-7.42870500">
        <ele>10.000000</ele>
        <time>2010-01-01T00:10:15Z</time>
      </trkpt>
      <trkpt lat="37.18305700" lon="-7.43077000">
        <ele>6.0000000</ele>
        <time>2010-01-01T00:11:01Z</time>
      </trkpt>
      <trkpt lat="37.18256500" lon="-7.43236800">
        <ele>11.000000</ele>
        <time>2010-01-01T00:11:38Z</time>
      </trkpt>
      <trkpt lat="37.18211000" lon="-7.43384200">
        <ele>14.000000</ele>
        <time>2010-01-01T00:12:11Z</time>
      </trkpt>
      <trkpt lat="37.18173900" lon="-7.43517700">
        <ele>10.000000</ele>
        <time>2010-01-01T00:12:41Z</time>
      </trkpt>
      <trkpt lat="37.18105300" lon="-7.43741500">
        <ele>9.0000000</ele>
        <time>2010-01-01T00:13:32Z</time>
      </trkpt>
      <trkpt lat="37.18049900" lon="-7.43925000">
        <ele>10.000000</ele>
        <time>2010-01-01T00:14:14Z</time>
      </trkpt>
      <trkpt lat="37.18007300" lon="-7.44068900">
        <ele>10.000000</ele>
        <time>2010-01-01T00:14:47Z</time>
      </trkpt>
      <trkpt lat="37.17977900" lon="-7.44171000">
        <ele>8.0000000</ele>
        <time>2010-01-01T00:15:10Z</time>
      </trkpt>
      <trkpt lat="37.17943000" lon="-7.44293400">
        <ele>7.0000000</ele>
        <time>2010-01-01T00:15:38Z</time>
      </trkpt>
      <trkpt lat="37.17924200" lon="-7.44367700">
        <ele>7.0000000</ele>
        <time>2010-01-01T00:15:54Z</time>
      </trkpt>
      <trkpt lat="37.17916400" lon="-7.44419200">
        <ele>8.0000000</ele>
        <time>2010-01-01T00:16:05Z</time>
      </trkpt>
      <trkpt lat="37.17914800" lon="-7.44464400">
        <ele>14.000000</ele>
        <time>2010-01-01T00:16:15Z</time>
      </trkpt>
      <trkpt lat="37.17914800" lon="-7.44506800">
        <ele>16.000000</ele>
        <time>2010-01-01T00:16:24Z</time>
      </trkpt>
      <trkpt lat="37.17918600" lon="-7.44583200">
        <ele>12.000000</ele>
        <time>2010-01-01T00:16:40Z</time>
      </trkpt>
      <trkpt lat="37.17924200" lon="-7.44673600">
        <ele>10.000000</ele>
        <time>2010-01-01T00:16:59Z</time>
      </trkpt>
      <trkpt lat="37.17930300" lon="-7.44788300">
        <ele>15.000000</ele>
        <time>2010-01-01T00:17:24Z</time>
      </trkpt>
      <trkpt lat="37.17933000" lon="-7.44841100">
        <ele>15.000000</ele>
        <time>2010-01-01T00:17:35Z</time>
      </trkpt>
      <trkpt lat="37.17934700" lon="-7.44892500">
        <ele>18.000000</ele>
        <time>2010-01-01T00:17:46Z</time>
      </trkpt>
      <trkpt lat="37.17936900" lon="-7.44921000">
        <ele>18.000000</ele>
        <time>2010-01-01T00:17:52Z</time>
      </trkpt>
      <trkpt lat="37.17934100" lon="-7.44951600">
        <ele>15.000000</ele>
        <time>2010-01-01T00:17:59Z</time>
      </trkpt>
      <trkpt lat="37.17931400" lon="-7.44986400">
        <ele>11.000000</ele>
        <time>2010-01-01T00:18:06Z</time>
      </trkpt>
      <trkpt lat="37.17913700" lon="-7.45141400">
        <ele>9.0000000</ele>
        <time>2010-01-01T00:18:39Z</time>
      </trkpt>
      <trkpt lat="37.17892100" lon="-7.45335300">
        <ele>13.000000</ele>
        <time>2010-01-01T00:19:21Z</time>
      </trkpt>
      <trkpt lat="37.17879300" lon="-7.45444400">
        <ele>14.000000</ele>
        <time>2010-01-01T00:19:45Z</time>
      </trkpt>
      <trkpt lat="37.17855000" lon="-7.45677300">
        <ele>10.000000</ele>
        <time>2010-01-01T00:20:34Z</time>
      </trkpt>
      <trkpt lat="37.17844400" lon="-7.45767700">
        <ele>7.0000000</ele>
        <time>2010-01-01T00:20:54Z</time>
      </trkpt>
      <trkpt lat="37.17853600" lon="-7.45806900">
        <ele>7.0000000</ele>
        <time>2010-01-01T00:21:03Z</time>
      </trkpt>
      <trkpt lat="37.17855700" lon="-7.45829200">
        <ele>7.0000000</ele>
        <time>2010-01-01T00:21:07Z</time>
      </trkpt>
      <trkpt lat="37.17858300" lon="-7.45844500">
        <ele>8.0000000</ele>
        <time>2010-01-01T00:21:11Z</time>
      </trkpt>
      <trkpt lat="37.17871000" lon="-7.45865700">
        <ele>9.0000000</ele>
        <time>2010-01-01T00:21:16Z</time>
      </trkpt>
      <trkpt lat="37.17884300" lon="-7.45869100">
        <ele>9.0000000</ele>
        <time>2010-01-01T00:21:20Z</time>
      </trkpt>
      <trkpt lat="37.17884300" lon="-7.45881700">
        <ele>9.0000000</ele>
        <time>2010-01-01T00:21:23Z</time>
      </trkpt>
      <trkpt lat="37.17867700" lon="-7.45921300">
        <ele>8.0000000</ele>
        <time>2010-01-01T00:21:32Z</time>
      </trkpt>
      <trkpt lat="37.17851100" lon="-7.45988700">
        <ele>6.0000000</ele>
        <time>2010-01-01T00:21:47Z</time>
      </trkpt>
      <trkpt lat="37.17835000" lon="-7.46061700">
        <ele>6.0000000</ele>
        <time>2010-01-01T00:22:03Z</time>
      </trkpt>
      <trkpt lat="37.17829500" lon="-7.46106900">
        <ele>5.0000000</ele>
        <time>2010-01-01T00:22:13Z</time>
      </trkpt>
      <trkpt lat="37.17822300" lon="-7.46165300">
        <ele>7.0000000</ele>
        <time>2010-01-01T00:22:26Z</time>
      </trkpt>
      <trkpt lat="37.17822300" lon="-7.46239600">
        <ele>9.0000000</ele>
        <time>2010-01-01T00:22:41Z</time>
      </trkpt>
      <trkpt lat="37.17831100" lon="-7.46338300">
        <ele>10.000000</ele>
        <time>2010-01-01T00:23:02Z</time>
      </trkpt>
      <trkpt lat="37.17841100" lon="-7.46444000">
        <ele>11.000000</ele>
        <time>2010-01-01T00:23:25Z</time>
      </trkpt>
      <trkpt lat="37.17855000" lon="-7.46548900">
        <ele>8.0000000</ele>
        <time>2010-01-01T00:23:48Z</time>
      </trkpt>
      <trkpt lat="37.17869500" lon="-7.46628800">
        <ele>7.0000000</ele>
        <time>2010-01-01T00:24:05Z</time>
      </trkpt>
      <trkpt lat="37.17879900" lon="-7.46675400">
        <ele>8.0000000</ele>
        <time>2010-01-01T00:24:15Z</time>
      </trkpt>
      <trkpt lat="37.17919700" lon="-7.46685200">
        <ele>8.0000000</ele>
        <time>2010-01-01T00:24:26Z</time>
      </trkpt>
      <trkpt lat="37.17920300" lon="-7.46716500">
        <ele>7.0000000</ele>
        <time>2010-01-01T00:24:33Z</time>
      </trkpt>
      <trkpt lat="37.17918100" lon="-7.46756100">
        <ele>5.0000000</ele>
        <time>2010-01-01T00:24:41Z</time>
      </trkpt>
      <trkpt lat="37.17918100" lon="-7.46827700">
        <ele>7.0000000</ele>
        <time>2010-01-01T00:24:57Z</time>
      </trkpt>
      <trkpt lat="37.17919200" lon="-7.46875600">
        <ele>6.0000000</ele>
        <time>2010-01-01T00:25:07Z</time>
      </trkpt>
      <trkpt lat="37.17915300" lon="-7.46934000">
        <ele>6.0000000</ele>
        <time>2010-01-01T00:25:19Z</time>
      </trkpt>
      <trkpt lat="37.17880400" lon="-7.46979200">
        <ele>8.0000000</ele>
        <time>2010-01-01T00:25:33Z</time>
      </trkpt>
      <trkpt lat="37.17869400" lon="-7.46991700">
        <ele>8.0000000</ele>
        <time>2010-01-01T00:25:37Z</time>
      </trkpt>
      <trkpt lat="37.17833900" lon="-7.47017400">
        <ele>8.0000000</ele>
        <time>2010-01-01T00:25:48Z</time>
      </trkpt>
      <trkpt lat="37.17841500" lon="-7.47023100">
        <ele>8.0000000</ele>
        <time>2010-01-01T00:25:50Z</time>
      </trkpt>
      <trkpt lat="37.17859200" lon="-7.47030100">
        <ele>8.0000000</ele>
        <time>2010-01-01T00:25:55Z</time>
      </trkpt>
      <trkpt lat="37.17872700" lon="-7.47034800">
        <ele>9.0000000</ele>
        <time>2010-01-01T00:25:59Z</time>
      </trkpt>
      <trkpt lat="37.17884900" lon="-7.47040400">
        <ele>9.0000000</ele>
        <time>2010-01-01T00:26:02Z</time>
      </trkpt>
      <trkpt lat="37.17901800" lon="-7.47049300">
        <ele>9.0000000</ele>
        <time>2010-01-01T00:26:07Z</time>
      </trkpt>
      <trkpt lat="37.17920900" lon="-7.47064000">
        <ele>9.0000000</ele>
        <time>2010-01-01T00:26:13Z</time>
      </trkpt>
      <trkpt lat="37.17940800" lon="-7.47090400">
        <ele>10.000000</ele>
        <time>2010-01-01T00:26:21Z</time>
      </trkpt>
      <trkpt lat="37.17966800" lon="-7.47121000">
        <ele>10.000000</ele>
        <time>2010-01-01T00:26:30Z</time>
      </trkpt>
      <trkpt lat="37.17975700" lon="-7.47137000">
        <ele>11.000000</ele>
        <time>2010-01-01T00:26:34Z</time>
      </trkpt>
      <trkpt lat="37.17987300" lon="-7.47150200">
        <ele>10.000000</ele>
        <time>2010-01-01T00:26:38Z</time>
      </trkpt>
      <trkpt lat="37.17996200" lon="-7.47164100">
        <ele>10.000000</ele>
        <time>2010-01-01T00:26:42Z</time>
      </trkpt>
      <trkpt lat="37.18001200" lon="-7.47180100">
        <ele>11.000000</ele>
        <time>2010-01-01T00:26:46Z</time>
      </trkpt>
      <trkpt lat="37.17999500" lon="-7.47199500">
        <ele>12.000000</ele>
        <time>2010-01-01T00:26:50Z</time>
      </trkpt>
      <trkpt lat="37.17996200" lon="-7.47218300">
        <ele>13.000000</ele>
        <time>2010-01-01T00:26:54Z</time>
      </trkpt>
      <trkpt lat="37.17993400" lon="-7.47252400">
        <ele>14.000000</ele>
        <time>2010-01-01T00:27:01Z</time>
      </trkpt>
      <trkpt lat="37.17990600" lon="-7.47279500">
        <ele>15.000000</ele>
        <time>2010-01-01T00:27:07Z</time>
      </trkpt>
      <trkpt lat="37.17991700" lon="-7.47323300">
        <ele>14.000000</ele>
        <time>2010-01-01T00:27:17Z</time>
      </trkpt>
      <trkpt lat="37.17997300" lon="-7.47336500">
        <ele>13.000000</ele>
        <time>2010-01-01T00:27:20Z</time>
      </trkpt>
      <trkpt lat="37.18011100" lon="-7.47361500">
        <ele>13.000000</ele>
        <time>2010-01-01T00:27:26Z</time>
      </trkpt>
      <trkpt lat="37.18022200" lon="-7.47380300">
        <ele>13.000000</ele>
        <time>2010-01-01T00:27:31Z</time>
      </trkpt>
      <trkpt lat="37.18028800" lon="-7.47398300">
        <ele>14.000000</ele>
        <time>2010-01-01T00:27:35Z</time>
      </trkpt>
      <trkpt lat="37.18051000" lon="-7.47456000">
        <ele>14.000000</ele>
        <time>2010-01-01T00:27:49Z</time>
      </trkpt>
      <trkpt lat="37.18074300" lon="-7.47515800">
        <ele>12.000000</ele>
        <time>2010-01-01T00:28:03Z</time>
      </trkpt>
      <trkpt lat="37.18132400" lon="-7.47662500">
        <ele>17.000000</ele>
        <time>2010-01-01T00:28:38Z</time>
      </trkpt>
      <trkpt lat="37.18152300" lon="-7.47718800">
        <ele>20.000000</ele>
        <time>2010-01-01T00:28:51Z</time>
      </trkpt>
      <trkpt lat="37.18163400" lon="-7.47741000">
        <ele>21.000000</ele>
        <time>2010-01-01T00:28:57Z</time>
      </trkpt>
      <trkpt lat="37.18172300" lon="-7.47753500">
        <ele>21.000000</ele>
        <time>2010-01-01T00:29:00Z</time>
      </trkpt>
      <trkpt lat="37.18188300" lon="-7.47765300">
        <ele>21.000000</ele>
        <time>2010-01-01T00:29:05Z</time>
      </trkpt>
      <trkpt lat="37.18213800" lon="-7.47778600">
        <ele>21.000000</ele>
        <time>2010-01-01T00:29:13Z</time>
      </trkpt>
      <trkpt lat="37.18283000" lon="-7.47821000">
        <ele>25.000000</ele>
        <time>2010-01-01T00:29:33Z</time>
      </trkpt>
      <trkpt lat="37.18334000" lon="-7.47850800">
        <ele>26.000000</ele>
        <time>2010-01-01T00:29:48Z</time>
      </trkpt>
      <trkpt lat="37.18384900" lon="-7.47880700">
        <ele>24.000000</ele>
        <time>2010-01-01T00:30:03Z</time>
      </trkpt>
      <trkpt lat="37.18419300" lon="-7.47901600">
        <ele>20.000000</ele>
        <time>2010-01-01T00:30:13Z</time>
      </trkpt>
      <trkpt lat="37.18438700" lon="-7.47911300">
        <ele>18.000000</ele>
        <time>2010-01-01T00:30:19Z</time>
      </trkpt>
      <trkpt lat="37.18461900" lon="-7.47916900">
        <ele>16.000000</ele>
        <time>2010-01-01T00:30:25Z</time>
      </trkpt>
      <trkpt lat="37.18485200" lon="-7.47919700">
        <ele>14.000000</ele>
        <time>2010-01-01T00:30:31Z</time>
      </trkpt>
      <trkpt lat="37.18500700" lon="-7.47926600">
        <ele>14.000000</ele>
        <time>2010-01-01T00:30:36Z</time>
      </trkpt>
      <trkpt lat="37.18515100" lon="-7.47934900">
        <ele>14.000000</ele>
        <time>2010-01-01T00:30:40Z</time>
      </trkpt>
      <trkpt lat="37.18515100" lon="-7.47941900">
        <ele>14.000000</ele>
        <time>2010-01-01T00:30:42Z</time>
      </trkpt>
      <trkpt lat="37.18511200" lon="-7.47985000">
        <ele>15.000000</ele>
        <time>2010-01-01T00:30:51Z</time>
      </trkpt>
      <trkpt lat="37.18506200" lon="-7.48039900">
        <ele>17.000000</ele>
        <time>2010-01-01T00:31:03Z</time>
      </trkpt>
      <trkpt lat="37.18490200" lon="-7.48124700">
        <ele>19.000000</ele>
        <time>2010-01-01T00:31:21Z</time>
      </trkpt>
      <trkpt lat="37.18475800" lon="-7.48186600">
        <ele>22.000000</ele>
        <time>2010-01-01T00:31:35Z</time>
      </trkpt>
      <trkpt lat="37.18447000" lon="-7.48264400">
        <ele>25.000000</ele>
        <time>2010-01-01T00:31:53Z</time>
      </trkpt>
      <trkpt lat="37.18411000" lon="-7.48354100">
        <ele>25.000000</ele>
        <time>2010-01-01T00:32:14Z</time>
      </trkpt>
      <trkpt lat="37.18388300" lon="-7.48420800">
        <ele>28.000000</ele>
        <time>2010-01-01T00:32:30Z</time>
      </trkpt>
      <trkpt lat="37.18347300" lon="-7.48532700">
        <ele>29.000000</ele>
        <time>2010-01-01T00:32:56Z</time>
      </trkpt>
      <trkpt lat="37.18291300" lon="-7.48689100">
        <ele>24.000000</ele>
        <time>2010-01-01T00:33:32Z</time>
      </trkpt>
      <trkpt lat="37.18252000" lon="-7.48824000">
        <ele>19.000000</ele>
        <time>2010-01-01T00:34:03Z</time>
      </trkpt>
      <trkpt lat="37.18245900" lon="-7.48855900">
        <ele>20.000000</ele>
        <time>2010-01-01T00:34:10Z</time>
      </trkpt>
      <trkpt lat="37.18231000" lon="-7.48960200">
        <ele>20.000000</ele>
        <time>2010-01-01T00:34:32Z</time>
      </trkpt>
      <trkpt lat="37.18224900" lon="-7.49005400">
        <ele>18.000000</ele>
        <time>2010-01-01T00:34:42Z</time>
      </trkpt>
      <trkpt lat="37.18216500" lon="-7.49054000">
        <ele>18.000000</ele>
        <time>2010-01-01T00:34:53Z</time>
      </trkpt>
      <trkpt lat="37.18212700" lon="-7.49095100">
        <ele>16.000000</ele>
        <time>2010-01-01T00:35:02Z</time>
      </trkpt>
      <trkpt lat="37.18207100" lon="-7.49131500">
        <ele>13.000000</ele>
        <time>2010-01-01T00:35:09Z</time>
      </trkpt>
      <trkpt lat="37.18204400" lon="-7.49164300">
        <ele>12.000000</ele>
        <time>2010-01-01T00:35:16Z</time>
      </trkpt>
      <trkpt lat="37.18201200" lon="-7.49198500">
        <ele>12.000000</ele>
        <time>2010-01-01T00:35:24Z</time>
      </trkpt>
      <trkpt lat="37.18195200" lon="-7.49261200">
        <ele>12.000000</ele>
        <time>2010-01-01T00:35:37Z</time>
      </trkpt>
      <trkpt lat="37.18183400" lon="-7.49357100">
        <ele>9.0000000</ele>
        <time>2010-01-01T00:35:58Z</time>
      </trkpt>
      <trkpt lat="37.18175600" lon="-7.49413400">
        <ele>9.0000000</ele>
        <time>2010-01-01T00:36:10Z</time>
      </trkpt>
      <trkpt lat="37.18170200" lon="-7.49440600">
        <ele>10.000000</ele>
        <time>2010-01-01T00:36:16Z</time>
      </trkpt>
      <trkpt lat="37.18164900" lon="-7.49464700">
        <ele>11.000000</ele>
        <time>2010-01-01T00:36:21Z</time>
      </trkpt>
      <trkpt lat="37.18143100" lon="-7.49461300">
        <ele>10.000000</ele>
        <time>2010-01-01T00:36:27Z</time>
      </trkpt>
      <trkpt lat="37.18110000" lon="-7.49452400">
        <ele>10.000000</ele>
        <time>2010-01-01T00:36:36Z</time>
      </trkpt>
      <trkpt lat="37.18044400" lon="-7.49440500">
        <ele>8.0000000</ele>
        <time>2010-01-01T00:36:54Z</time>
      </trkpt>
      <trkpt lat="37.17974600" lon="-7.49428700">
        <ele>7.0000000</ele>
        <time>2010-01-01T00:37:13Z</time>
      </trkpt>
      <trkpt lat="37.17922500" lon="-7.49420400">
        <ele>6.0000000</ele>
        <time>2010-01-01T00:37:27Z</time>
      </trkpt>
      <trkpt lat="37.17903100" lon="-7.49420400">
        <ele>6.0000000</ele>
        <time>2010-01-01T00:37:32Z</time>
      </trkpt>
      <trkpt lat="37.17886000" lon="-7.49423800">
        <ele>6.0000000</ele>
        <time>2010-01-01T00:37:36Z</time>
      </trkpt>
      <trkpt lat="37.17867100" lon="-7.49433600">
        <ele>6.0000000</ele>
        <time>2010-01-01T00:37:42Z</time>
      </trkpt>
      <trkpt lat="37.17853800" lon="-7.49441200">
        <ele>6.0000000</ele>
        <time>2010-01-01T00:37:46Z</time>
      </trkpt>
      <trkpt lat="37.17831100" lon="-7.49457200">
        <ele>6.0000000</ele>
        <time>2010-01-01T00:37:53Z</time>
      </trkpt>
      <trkpt lat="37.17814000" lon="-7.49476000">
        <ele>6.0000000</ele>
        <time>2010-01-01T00:37:59Z</time>
      </trkpt>
      <trkpt lat="37.17801200" lon="-7.49493300">
        <ele>6.0000000</ele>
        <time>2010-01-01T00:38:04Z</time>
      </trkpt>
      <trkpt lat="37.17786800" lon="-7.49507900">
        <ele>5.0000000</ele>
        <time>2010-01-01T00:38:09Z</time>
      </trkpt>
      <trkpt lat="37.17774600" lon="-7.49523900">
        <ele>4.0000000</ele>
        <time>2010-01-01T00:38:14Z</time>
      </trkpt>
      <trkpt lat="37.17759700" lon="-7.49526700">
        <ele>3.0000000</ele>
        <time>2010-01-01T00:38:18Z</time>
      </trkpt>
      <trkpt lat="37.17740300" lon="-7.49533700">
        <ele>3.0000000</ele>
        <time>2010-01-01T00:38:23Z</time>
      </trkpt>
      <trkpt lat="37.17723100" lon="-7.49537100">
        <ele>5.0000000</ele>
        <time>2010-01-01T00:38:28Z</time>
      </trkpt>
      <trkpt lat="37.17702100" lon="-7.49532300">
        <ele>5.0000000</ele>
        <time>2010-01-01T00:38:33Z</time>
      </trkpt>
      <trkpt lat="37.17668900" lon="-7.49516300">
        <ele>5.0000000</ele>
        <time>2010-01-01T00:38:43Z</time>
      </trkpt>
      <trkpt lat="37.17614600" lon="-7.49485000">
        <ele>4.0000000</ele>
        <time>2010-01-01T00:38:59Z</time>
      </trkpt>
      <trkpt lat="37.17579100" lon="-7.49460000">
        <ele>5.0000000</ele>
        <time>2010-01-01T00:39:10Z</time>
      </trkpt>
      <trkpt lat="37.17528200" lon="-7.49435000">
        <ele>5.0000000</ele>
        <time>2010-01-01T00:39:24Z</time>
      </trkpt>
      <trkpt lat="37.17485500" lon="-7.49435600">
        <ele>4.0000000</ele>
        <time>2010-01-01T00:39:36Z</time>
      </trkpt>
      <trkpt lat="37.17461200" lon="-7.49448200">
        <ele>5.0000000</ele>
        <time>2010-01-01T00:39:43Z</time>
      </trkpt>
      <trkpt lat="37.17440100" lon="-7.49466900">
        <ele>5.0000000</ele>
        <time>2010-01-01T00:39:49Z</time>
      </trkpt>
      <trkpt lat="37.17420200" lon="-7.49494000">
        <ele>5.0000000</ele>
        <time>2010-01-01T00:39:57Z</time>
      </trkpt>
      <trkpt lat="37.17413000" lon="-7.49523900">
        <ele>6.0000000</ele>
        <time>2010-01-01T00:40:04Z</time>
      </trkpt>
      <trkpt lat="37.17393100" lon="-7.49628200">
        <ele>7.0000000</ele>
        <time>2010-01-01T00:40:27Z</time>
      </trkpt>
      <trkpt lat="37.17353200" lon="-7.49842300">
        <ele>7.0000000</ele>
        <time>2010-01-01T00:41:14Z</time>
      </trkpt>
      <trkpt lat="37.17343800" lon="-7.49889500">
        <ele>12.000000</ele>
        <time>2010-01-01T00:41:24Z</time>
      </trkpt>
      <trkpt lat="37.17338200" lon="-7.49932600">
        <ele>11.000000</ele>
        <time>2010-01-01T00:41:33Z</time>
      </trkpt>
      <trkpt lat="37.17326600" lon="-7.49982700">
        <ele>8.0000000</ele>
        <time>2010-01-01T00:41:44Z</time>
      </trkpt>
      <trkpt lat="37.17314400" lon="-7.50007000">
        <ele>7.0000000</ele>
        <time>2010-01-01T00:41:50Z</time>
      </trkpt>
      <trkpt lat="37.17295600" lon="-7.50042500">
        <ele>7.0000000</ele>
        <time>2010-01-01T00:41:59Z</time>
      </trkpt>
      <trkpt lat="37.17261800" lon="-7.50098100">
        <ele>7.0000000</ele>
        <time>2010-01-01T00:42:14Z</time>
      </trkpt>
      <trkpt lat="37.17225800" lon="-7.50157200">
        <ele>8.0000000</ele>
        <time>2010-01-01T00:42:30Z</time>
      </trkpt>
      <trkpt lat="37.17185400" lon="-7.50220400">
        <ele>7.0000000</ele>
        <time>2010-01-01T00:42:47Z</time>
      </trkpt>
      <trkpt lat="37.17167600" lon="-7.50258600">
        <ele>8.0000000</ele>
        <time>2010-01-01T00:42:57Z</time>
      </trkpt>
      <trkpt lat="37.17159900" lon="-7.50283700">
        <ele>9.0000000</ele>
        <time>2010-01-01T00:43:02Z</time>
      </trkpt>
      <trkpt lat="37.17155400" lon="-7.50317000">
        <ele>10.000000</ele>
        <time>2010-01-01T00:43:10Z</time>
      </trkpt>
      <trkpt lat="37.17160400" lon="-7.50342700">
        <ele>10.000000</ele>
        <time>2010-01-01T00:43:15Z</time>
      </trkpt>
      <trkpt lat="37.17166000" lon="-7.50362200">
        <ele>10.000000</ele>
        <time>2010-01-01T00:43:20Z</time>
      </trkpt>
      <trkpt lat="37.17183100" lon="-7.50393500">
        <ele>9.0000000</ele>
        <time>2010-01-01T00:43:28Z</time>
      </trkpt>
      <trkpt lat="37.17204200" lon="-7.50417800">
        <ele>9.0000000</ele>
        <time>2010-01-01T00:43:35Z</time>
      </trkpt>
      <trkpt lat="37.17229700" lon="-7.50430300">
        <ele>8.0000000</ele>
        <time>2010-01-01T00:43:43Z</time>
      </trkpt>
      <trkpt lat="37.17264600" lon="-7.50442100">
        <ele>7.0000000</ele>
        <time>2010-01-01T00:43:52Z</time>
      </trkpt>
      <trkpt lat="37.17293400" lon="-7.50452600">
        <ele>8.0000000</ele>
        <time>2010-01-01T00:44:00Z</time>
      </trkpt>
      <trkpt lat="37.17341500" lon="-7.50472000">
        <ele>12.000000</ele>
        <time>2010-01-01T00:44:14Z</time>
      </trkpt>
      <trkpt lat="37.17425200" lon="-7.50506800">
        <ele>14.000000</ele>
        <time>2010-01-01T00:44:37Z</time>
      </trkpt>
      <trkpt lat="37.17482200" lon="-7.50527600">
        <ele>11.000000</ele>
        <time>2010-01-01T00:44:53Z</time>
      </trkpt>
      <trkpt lat="37.17483300" lon="-7.50544300">
        <ele>9.0000000</ele>
        <time>2010-01-01T00:44:57Z</time>
      </trkpt>
      <trkpt lat="37.17472800" lon="-7.50609000">
        <ele>6.0000000</ele>
        <time>2010-01-01T00:45:11Z</time>
      </trkpt>
      <trkpt lat="37.17457300" lon="-7.50701400">
        <ele>7.0000000</ele>
        <time>2010-01-01T00:45:31Z</time>
      </trkpt>
      <trkpt lat="37.17463400" lon="-7.50704200">
        <ele>7.0000000</ele>
        <time>2010-01-01T00:45:33Z</time>
      </trkpt>
      <trkpt lat="37.17481100" lon="-7.50717400">
        <ele>6.0000000</ele>
        <time>2010-01-01T00:45:38Z</time>
      </trkpt>
      <trkpt lat="37.17513200" lon="-7.50738900">
        <ele>6.0000000</ele>
        <time>2010-01-01T00:45:48Z</time>
      </trkpt>
      <trkpt lat="37.17553100" lon="-7.50767400">
        <ele>7.0000000</ele>
        <time>2010-01-01T00:46:00Z</time>
      </trkpt>
      <trkpt lat="37.17620100" lon="-7.50809800">
        <ele>7.0000000</ele>
        <time>2010-01-01T00:46:20Z</time>
      </trkpt>
      <trkpt lat="37.17648400" lon="-7.50825800">
        <ele>5.0000000</ele>
        <time>2010-01-01T00:46:28Z</time>
      </trkpt>
      <trkpt lat="37.17655000" lon="-7.50834200">
        <ele>5.0000000</ele>
        <time>2010-01-01T00:46:31Z</time>
      </trkpt>
      <trkpt lat="37.17653900" lon="-7.50846000">
        <ele>5.0000000</ele>
        <time>2010-01-01T00:46:33Z</time>
      </trkpt>
      <trkpt lat="37.17646700" lon="-7.50858500">
        <ele>6.0000000</ele>
        <time>2010-01-01T00:46:37Z</time>
      </trkpt>
      <trkpt lat="37.17609600" lon="-7.50957900">
        <ele>7.0000000</ele>
        <time>2010-01-01T00:47:00Z</time>
      </trkpt>
      <trkpt lat="37.17595200" lon="-7.50994000">
        <ele>8.0000000</ele>
        <time>2010-01-01T00:47:09Z</time>
      </trkpt>
      <trkpt lat="37.17591700" lon="-7.50997300">
        <ele>8.0000000</ele>
        <time>2010-01-01T00:47:10Z</time>
      </trkpt>
      <trkpt lat="37.17582500" lon="-7.51005900">
        <ele>8.0000000</ele>
        <time>2010-01-01T00:47:13Z</time>
      </trkpt>
      <trkpt lat="37.17557500" lon="-7.51028100">
        <ele>8.0000000</ele>
        <time>2010-01-01T00:47:21Z</time>
      </trkpt>
      <trkpt lat="37.17515500" lon="-7.51065600">
        <ele>9.0000000</ele>
        <time>2010-01-01T00:47:35Z</time>
      </trkpt>
      <trkpt lat="37.17423500" lon="-7.51144900">
        <ele>9.0000000</ele>
        <time>2010-01-01T00:48:05Z</time>
      </trkpt>
      <trkpt lat="37.17375900" lon="-7.51189400">
        <ele>9.0000000</ele>
        <time>2010-01-01T00:48:20Z</time>
      </trkpt>
      <trkpt lat="37.17329400" lon="-7.51233800">
        <ele>12.000000</ele>
        <time>2010-01-01T00:48:36Z</time>
      </trkpt>
      <trkpt lat="37.17267300" lon="-7.51279000">
        <ele>11.000000</ele>
        <time>2010-01-01T00:48:55Z</time>
      </trkpt>
      <trkpt lat="37.17164300" lon="-7.51361700">
        <ele>17.000000</ele>
        <time>2010-01-01T00:49:28Z</time>
      </trkpt>
      <trkpt lat="37.17157700" lon="-7.51377000">
        <ele>17.000000</ele>
        <time>2010-01-01T00:49:31Z</time>
      </trkpt>
      <trkpt lat="37.17156000" lon="-7.51390900">
        <ele>16.000000</ele>
        <time>2010-01-01T00:49:34Z</time>
      </trkpt>
      <trkpt lat="37.17174300" lon="-7.51424300">
        <ele>15.000000</ele>
        <time>2010-01-01T00:49:43Z</time>
      </trkpt>
      <trkpt lat="37.17197000" lon="-7.51450700">
        <ele>16.000000</ele>
        <time>2010-01-01T00:49:51Z</time>
      </trkpt>
      <trkpt lat="37.17198100" lon="-7.51466000">
        <ele>17.000000</ele>
        <time>2010-01-01T00:49:55Z</time>
      </trkpt>
      <trkpt lat="37.17184300" lon="-7.51477100">
        <ele>17.000000</ele>
        <time>2010-01-01T00:49:59Z</time>
      </trkpt>
      <trkpt lat="37.17152700" lon="-7.51504900">
        <ele>17.000000</ele>
        <time>2010-01-01T00:50:09Z</time>
      </trkpt>
      <trkpt lat="37.17091200" lon="-7.51546600">
        <ele>16.000000</ele>
        <time>2010-01-01T00:50:28Z</time>
      </trkpt>
      <trkpt lat="37.17057400" lon="-7.51573700">
        <ele>15.000000</ele>
        <time>2010-01-01T00:50:39Z</time>
      </trkpt>
      <trkpt lat="37.17035300" lon="-7.51657800">
        <ele>16.000000</ele>
        <time>2010-01-01T00:50:57Z</time>
      </trkpt>
      <trkpt lat="37.17016400" lon="-7.51746100">
        <ele>17.000000</ele>
        <time>2010-01-01T00:51:17Z</time>
      </trkpt>
      <trkpt lat="37.17013100" lon="-7.51761400">
        <ele>17.000000</ele>
        <time>2010-01-01T00:51:20Z</time>
      </trkpt>
      <trkpt lat="37.17008700" lon="-7.51771800">
        <ele>17.000000</ele>
        <time>2010-01-01T00:51:23Z</time>
      </trkpt>
      <trkpt lat="37.17006500" lon="-7.51779500">
        <ele>16.000000</ele>
        <time>2010-01-01T00:51:25Z</time>
      </trkpt>
      <trkpt lat="37.16942800" lon="-7.51843400">
        <ele>15.000000</ele>
        <time>2010-01-01T00:51:46Z</time>
      </trkpt>
      <trkpt lat="37.16849700" lon="-7.51935200">
        <ele>12.000000</ele>
        <time>2010-01-01T00:52:18Z</time>
      </trkpt>
      <trkpt lat="37.16820400" lon="-7.51998400">
        <ele>12.000000</ele>
        <time>2010-01-01T00:52:33Z</time>
      </trkpt>
      <trkpt lat="37.16791500" lon="-7.52070000">
        <ele>10.000000</ele>
        <time>2010-01-01T00:52:51Z</time>
      </trkpt>
      <trkpt lat="37.16748300" lon="-7.52195200">
        <ele>10.000000</ele>
        <time>2010-01-01T00:53:20Z</time>
      </trkpt>
      <trkpt lat="37.16758300" lon="-7.52206300">
        <ele>11.000000</ele>
        <time>2010-01-01T00:53:23Z</time>
      </trkpt>
      <trkpt lat="37.16755500" lon="-7.52216000">
        <ele>11.000000</ele>
        <time>2010-01-01T00:53:25Z</time>
      </trkpt>
      <trkpt lat="37.16739500" lon="-7.52235500">
        <ele>10.000000</ele>
        <time>2010-01-01T00:53:31Z</time>
      </trkpt>
      <trkpt lat="37.16731700" lon="-7.52254900">
        <ele>10.000000</ele>
        <time>2010-01-01T00:53:36Z</time>
      </trkpt>
      <trkpt lat="37.16720700" lon="-7.52286900">
        <ele>10.000000</ele>
        <time>2010-01-01T00:53:43Z</time>
      </trkpt>
      <trkpt lat="37.16722900" lon="-7.52320300">
        <ele>11.000000</ele>
        <time>2010-01-01T00:53:50Z</time>
      </trkpt>
      <trkpt lat="37.16729500" lon="-7.52359200">
        <ele>11.000000</ele>
        <time>2010-01-01T00:53:59Z</time>
      </trkpt>
      <trkpt lat="37.16736000" lon="-7.52425500">
        <ele>11.000000</ele>
        <time>2010-01-01T00:54:13Z</time>
      </trkpt>
      <trkpt lat="37.16738400" lon="-7.52499600">
        <ele>11.000000</ele>
        <time>2010-01-01T00:54:29Z</time>
      </trkpt>
      <trkpt lat="37.16730600" lon="-7.52605300">
        <ele>11.000000</ele>
        <time>2010-01-01T00:54:51Z</time>
      </trkpt>
      <trkpt lat="37.16724000" lon="-7.52660900">
        <ele>12.000000</ele>
        <time>2010-01-01T00:55:03Z</time>
      </trkpt>
      <trkpt lat="37.16712900" lon="-7.52730400">
        <ele>13.000000</ele>
        <time>2010-01-01T00:55:18Z</time>
      </trkpt>
      <trkpt lat="37.16686300" lon="-7.52818000">
        <ele>14.000000</ele>
        <time>2010-01-01T00:55:38Z</time>
      </trkpt>
      <trkpt lat="37.16655300" lon="-7.52897200">
        <ele>14.000000</ele>
        <time>2010-01-01T00:55:57Z</time>
      </trkpt>
      <trkpt lat="37.16640000" lon="-7.52999300">
        <ele>14.000000</ele>
        <time>2010-01-01T00:56:19Z</time>
      </trkpt>
      <trkpt lat="37.16623200" lon="-7.53136300">
        <ele>16.000000</ele>
        <time>2010-01-01T00:56:49Z</time>
      </trkpt>
      <trkpt lat="37.16619800" lon="-7.53243300">
        <ele>17.000000</ele>
        <time>2010-01-01T00:57:11Z</time>
      </trkpt>
      <trkpt lat="37.16626900" lon="-7.53322400">
        <ele>17.000000</ele>
        <time>2010-01-01T00:57:28Z</time>
      </trkpt>
      <trkpt lat="37.16647500" lon="-7.53397700">
        <ele>19.000000</ele>
        <time>2010-01-01T00:57:45Z</time>
      </trkpt>
      <trkpt lat="37.16654900" lon="-7.53426200">
        <ele>20.000000</ele>
        <time>2010-01-01T00:57:52Z</time>
      </trkpt>
      <trkpt lat="37.16667500" lon="-7.53444900">
        <ele>20.000000</ele>
        <time>2010-01-01T00:57:57Z</time>
      </trkpt>
      <trkpt lat="37.16766100" lon="-7.53583900">
        <ele>22.000000</ele>
        <time>2010-01-01T00:58:36Z</time>
      </trkpt>
      <trkpt lat="37.16880800" lon="-7.53753000">
        <ele>27.000000</ele>
        <time>2010-01-01T00:59:24Z</time>
      </trkpt>
      <trkpt lat="37.16939200" lon="-7.53843000">
        <ele>30.000000</ele>
        <time>2010-01-01T00:59:48Z</time>
      </trkpt>
      <trkpt lat="37.16962500" lon="-7.53883200">
        <ele>29.000000</ele>
        <time>2010-01-01T00:59:59Z</time>
      </trkpt>
      <trkpt lat="37.16927800" lon="-7.53897900">
        <ele>29.000000</ele>
        <time>2010-01-01T01:00:09Z</time>
      </trkpt>
      <trkpt lat="37.16889800" lon="-7.53917500">
        <ele>31.000000</ele>
        <time>2010-01-01T01:00:20Z</time>
      </trkpt>
      <trkpt lat="37.16841400" lon="-7.53955100">
        <ele>33.000000</ele>
        <time>2010-01-01T01:00:35Z</time>
      </trkpt>
      <trkpt lat="37.16674300" lon="-7.54058400">
        <ele>31.000000</ele>
        <time>2010-01-01T01:01:25Z</time>
      </trkpt>
      <trkpt lat="37.16588500" lon="-7.54115800">
        <ele>31.000000</ele>
        <time>2010-01-01T01:01:51Z</time>
      </trkpt>
      <trkpt lat="37.16522400" lon="-7.54172000">
        <ele>30.000000</ele>
        <time>2010-01-01T01:02:12Z</time>
      </trkpt>
      <trkpt lat="37.16454800" lon="-7.54241500">
        <ele>27.000000</ele>
        <time>2010-01-01T01:02:35Z</time>
      </trkpt>
      <trkpt lat="37.16429300" lon="-7.54267900">
        <ele>28.000000</ele>
        <time>2010-01-01T01:02:44Z</time>
      </trkpt>
      <trkpt lat="37.16320700" lon="-7.54356900">
        <ele>25.000000</ele>
        <time>2010-01-01T01:03:19Z</time>
      </trkpt>
      <trkpt lat="37.16201700" lon="-7.54400000">
        <ele>19.000000</ele>
        <time>2010-01-01T01:03:52Z</time>
      </trkpt>
      <trkpt lat="37.16110200" lon="-7.54461100">
        <ele>17.000000</ele>
        <time>2010-01-01T01:04:19Z</time>
      </trkpt>
      <trkpt lat="37.16016500" lon="-7.54527600">
        <ele>10.000000</ele>
        <time>2010-01-01T01:04:48Z</time>
      </trkpt>
      <trkpt lat="37.15975100" lon="-7.54547300">
        <ele>9.0000000</ele>
        <time>2010-01-01T01:05:00Z</time>
      </trkpt>
      <trkpt lat="37.15939500" lon="-7.54565800">
        <ele>13.000000</ele>
        <time>2010-01-01T01:05:10Z</time>
      </trkpt>
      <trkpt lat="37.15926300" lon="-7.54589000">
        <ele>16.000000</ele>
        <time>2010-01-01T01:05:16Z</time>
      </trkpt>
      <trkpt lat="37.15888600" lon="-7.54657200">
        <ele>21.000000</ele>
        <time>2010-01-01T01:05:34Z</time>
      </trkpt>
      <trkpt lat="37.15881700" lon="-7.54694400">
        <ele>23.000000</ele>
        <time>2010-01-01T01:05:42Z</time>
      </trkpt>
      <trkpt lat="37.15891700" lon="-7.54781800">
        <ele>27.000000</ele>
        <time>2010-01-01T01:06:01Z</time>
      </trkpt>
      <trkpt lat="37.15899600" lon="-7.54844700">
        <ele>27.000000</ele>
        <time>2010-01-01T01:06:14Z</time>
      </trkpt>
      <trkpt lat="37.15889900" lon="-7.54921100">
        <ele>28.000000</ele>
        <time>2010-01-01T01:06:31Z</time>
      </trkpt>
      <trkpt lat="37.15869800" lon="-7.55024200">
        <ele>26.000000</ele>
        <time>2010-01-01T01:06:53Z</time>
      </trkpt>
      <trkpt lat="37.15859800" lon="-7.55125700">
        <ele>23.000000</ele>
        <time>2010-01-01T01:07:15Z</time>
      </trkpt>
      <trkpt lat="37.15852900" lon="-7.55211300">
        <ele>18.000000</ele>
        <time>2010-01-01T01:07:33Z</time>
      </trkpt>
      <trkpt lat="37.15854900" lon="-7.55315100">
        <ele>20.000000</ele>
        <time>2010-01-01T01:07:55Z</time>
      </trkpt>
      <trkpt lat="37.15861300" lon="-7.55427100">
        <ele>20.000000</ele>
        <time>2010-01-01T01:08:19Z</time>
      </trkpt>
      <trkpt lat="37.15865900" lon="-7.55459100">
        <ele>20.000000</ele>
        <time>2010-01-01T01:08:26Z</time>
      </trkpt>
      <trkpt lat="37.15879100" lon="-7.55526600">
        <ele>22.000000</ele>
        <time>2010-01-01T01:08:41Z</time>
      </trkpt>
      <trkpt lat="37.15904200" lon="-7.55633100">
        <ele>24.000000</ele>
        <time>2010-01-01T01:09:05Z</time>
      </trkpt>
      <trkpt lat="37.15911900" lon="-7.55692800">
        <ele>26.000000</ele>
        <time>2010-01-01T01:09:18Z</time>
      </trkpt>
      <trkpt lat="37.15910000" lon="-7.55745600">
        <ele>25.000000</ele>
        <time>2010-01-01T01:09:29Z</time>
      </trkpt>
      <trkpt lat="37.15901200" lon="-7.55811500">
        <ele>25.000000</ele>
        <time>2010-01-01T01:09:43Z</time>
      </trkpt>
      <trkpt lat="37.15879300" lon="-7.55904300">
        <ele>22.000000</ele>
        <time>2010-01-01T01:10:04Z</time>
      </trkpt>
      <trkpt lat="37.15877000" lon="-7.55937500">
        <ele>22.000000</ele>
        <time>2010-01-01T01:10:11Z</time>
      </trkpt>
      <trkpt lat="37.15880400" lon="-7.55961200">
        <ele>22.000000</ele>
        <time>2010-01-01T01:10:16Z</time>
      </trkpt>
      <trkpt lat="37.15890000" lon="-7.56009000">
        <ele>23.000000</ele>
        <time>2010-01-01T01:10:26Z</time>
      </trkpt>
      <trkpt lat="37.15896100" lon="-7.56050000">
        <ele>23.000000</ele>
        <time>2010-01-01T01:10:35Z</time>
      </trkpt>
      <trkpt lat="37.15888100" lon="-7.56101600">
        <ele>23.000000</ele>
        <time>2010-01-01T01:10:46Z</time>
      </trkpt>
      <trkpt lat="37.15873100" lon="-7.56185000">
        <ele>27.000000</ele>
        <time>2010-01-01T01:11:05Z</time>
      </trkpt>
      <trkpt lat="37.15845900" lon="-7.56283700">
        <ele>27.000000</ele>
        <time>2010-01-01T01:11:27Z</time>
      </trkpt>
      <trkpt lat="37.15794500" lon="-7.56463000">
        <ele>31.000000</ele>
        <time>2010-01-01T01:12:07Z</time>
      </trkpt>
      <trkpt lat="37.15733500" lon="-7.56622900">
        <ele>36.000000</ele>
        <time>2010-01-01T01:12:45Z</time>
      </trkpt>
      <trkpt lat="37.15731300" lon="-7.56654800">
        <ele>37.000000</ele>
        <time>2010-01-01T01:12:52Z</time>
      </trkpt>
      <trkpt lat="37.15736000" lon="-7.56695600">
        <ele>37.000000</ele>
        <time>2010-01-01T01:13:01Z</time>
      </trkpt>
      <trkpt lat="37.15744600" lon="-7.56757700">
        <ele>36.000000</ele>
        <time>2010-01-01T01:13:14Z</time>
      </trkpt>
      <trkpt lat="37.15755700" lon="-7.56867500">
        <ele>32.000000</ele>
        <time>2010-01-01T01:13:37Z</time>
      </trkpt>
      <trkpt lat="37.15785600" lon="-7.57092800">
        <ele>30.000000</ele>
        <time>2010-01-01T01:14:26Z</time>
      </trkpt>
      <trkpt lat="37.15785600" lon="-7.57097500">
        <ele>30.000000</ele>
        <time>2010-01-01T01:14:27Z</time>
      </trkpt>
      <trkpt lat="37.15785600" lon="-7.57120600">
        <ele>30.000000</ele>
        <time>2010-01-01T01:14:32Z</time>
      </trkpt>
      <trkpt lat="37.15774500" lon="-7.57197000">
        <ele>32.000000</ele>
        <time>2010-01-01T01:14:48Z</time>
      </trkpt>
      <trkpt lat="37.15705800" lon="-7.57671100">
        <ele>37.000000</ele>
        <time>2010-01-01T01:16:31Z</time>
      </trkpt>
      <trkpt lat="37.15685900" lon="-7.57830900">
        <ele>39.000000</ele>
        <time>2010-01-01T01:17:05Z</time>
      </trkpt>
      <trkpt lat="37.15683700" lon="-7.57896300">
        <ele>40.000000</ele>
        <time>2010-01-01T01:17:19Z</time>
      </trkpt>
      <trkpt lat="37.15658200" lon="-7.57983900">
        <ele>43.000000</ele>
        <time>2010-01-01T01:17:39Z</time>
      </trkpt>
      <trkpt lat="37.15627200" lon="-7.58052000">
        <ele>45.000000</ele>
        <time>2010-01-01T01:17:56Z</time>
      </trkpt>
      <trkpt lat="37.15602800" lon="-7.58106200">
        <ele>44.000000</ele>
        <time>2010-01-01T01:18:09Z</time>
      </trkpt>
      <trkpt lat="37.15561800" lon="-7.58228500">
        <ele>41.000000</ele>
        <time>2010-01-01T01:18:37Z</time>
      </trkpt>
      <trkpt lat="37.15547400" lon="-7.58270200">
        <ele>42.000000</ele>
        <time>2010-01-01T01:18:47Z</time>
      </trkpt>
      <trkpt lat="37.15536300" lon="-7.58289700">
        <ele>43.000000</ele>
        <time>2010-01-01T01:18:52Z</time>
      </trkpt>
      <trkpt lat="37.15520800" lon="-7.58321700">
        <ele>43.000000</ele>
        <time>2010-01-01T01:19:00Z</time>
      </trkpt>
      <trkpt lat="37.15502000" lon="-7.58342500">
        <ele>42.000000</ele>
        <time>2010-01-01T01:19:07Z</time>
      </trkpt>
      <trkpt lat="37.15435500" lon="-7.58419000">
        <ele>43.000000</ele>
        <time>2010-01-01T01:19:31Z</time>
      </trkpt>
      <trkpt lat="37.15403400" lon="-7.58462100">
        <ele>42.000000</ele>
        <time>2010-01-01T01:19:43Z</time>
      </trkpt>
      <trkpt lat="37.15362400" lon="-7.58567700">
        <ele>42.000000</ele>
        <time>2010-01-01T01:20:08Z</time>
      </trkpt>
      <trkpt lat="37.15321400" lon="-7.58699800">
        <ele>40.000000</ele>
        <time>2010-01-01T01:20:38Z</time>
      </trkpt>
      <trkpt lat="37.15258200" lon="-7.58685900">
        <ele>38.000000</ele>
        <time>2010-01-01T01:20:56Z</time>
      </trkpt>
      <trkpt lat="37.15216100" lon="-7.58679000">
        <ele>37.000000</ele>
        <time>2010-01-01T01:21:07Z</time>
      </trkpt>
      <trkpt lat="37.15184000" lon="-7.58681700">
        <ele>36.000000</ele>
        <time>2010-01-01T01:21:15Z</time>
      </trkpt>
      <trkpt lat="37.15143000" lon="-7.58708100">
        <ele>33.000000</ele>
        <time>2010-01-01T01:21:28Z</time>
      </trkpt>
      <trkpt lat="37.15119700" lon="-7.58704000">
        <ele>33.000000</ele>
        <time>2010-01-01T01:21:34Z</time>
      </trkpt>
      <trkpt lat="37.14854900" lon="-7.58651100">
        <ele>28.000000</ele>
        <time>2010-01-01T01:22:46Z</time>
      </trkpt>
      <trkpt lat="37.14784000" lon="-7.58640000">
        <ele>29.000000</ele>
        <time>2010-01-01T01:23:05Z</time>
      </trkpt>
      <trkpt lat="37.14765100" lon="-7.58644200">
        <ele>29.000000</ele>
        <time>2010-01-01T01:23:10Z</time>
      </trkpt>
      <trkpt lat="37.14761800" lon="-7.58699800">
        <ele>28.000000</ele>
        <time>2010-01-01T01:23:22Z</time>
      </trkpt>
      <trkpt lat="37.14762900" lon="-7.58761000">
        <ele>28.000000</ele>
        <time>2010-01-01T01:23:35Z</time>
      </trkpt>
      <trkpt lat="37.14757400" lon="-7.58855500">
        <ele>30.000000</ele>
        <time>2010-01-01T01:23:55Z</time>
      </trkpt>
      <trkpt lat="37.14743000" lon="-7.58968100">
        <ele>26.000000</ele>
        <time>2010-01-01T01:24:19Z</time>
      </trkpt>
      <trkpt lat="37.14721900" lon="-7.59054300">
        <ele>26.000000</ele>
        <time>2010-01-01T01:24:38Z</time>
      </trkpt>
      <trkpt lat="37.14718600" lon="-7.59101600">
        <ele>28.000000</ele>
        <time>2010-01-01T01:24:48Z</time>
      </trkpt>
      <trkpt lat="37.14718600" lon="-7.59215600">
        <ele>27.000000</ele>
        <time>2010-01-01T01:25:13Z</time>
      </trkpt>
      <trkpt lat="37.14728600" lon="-7.59285100">
        <ele>26.000000</ele>
        <time>2010-01-01T01:25:28Z</time>
      </trkpt>
      <trkpt lat="37.14628800" lon="-7.59333700">
        <ele>23.000000</ele>
        <time>2010-01-01T01:25:56Z</time>
      </trkpt>
      <trkpt lat="37.14582300" lon="-7.59349000">
        <ele>23.000000</ele>
        <time>2010-01-01T01:26:09Z</time>
      </trkpt>
      <trkpt lat="37.14556800" lon="-7.59347600">
        <ele>23.000000</ele>
        <time>2010-01-01T01:26:16Z</time>
      </trkpt>
      <trkpt lat="37.14534600" lon="-7.59357400">
        <ele>22.000000</ele>
        <time>2010-01-01T01:26:22Z</time>
      </trkpt>
      <trkpt lat="37.14468200" lon="-7.59385200">
        <ele>19.000000</ele>
        <time>2010-01-01T01:26:41Z</time>
      </trkpt>
      <trkpt lat="37.14372900" lon="-7.59407400">
        <ele>18.000000</ele>
        <time>2010-01-01T01:27:07Z</time>
      </trkpt>
      <trkpt lat="37.14320800" lon="-7.59403200">
        <ele>17.000000</ele>
        <time>2010-01-01T01:27:21Z</time>
      </trkpt>
      <trkpt lat="37.14289700" lon="-7.59401800">
        <ele>17.000000</ele>
        <time>2010-01-01T01:27:29Z</time>
      </trkpt>
      <trkpt lat="37.14264300" lon="-7.59407400">
        <ele>16.000000</ele>
        <time>2010-01-01T01:27:36Z</time>
      </trkpt>
      <trkpt lat="37.14186700" lon="-7.59432400">
        <ele>15.000000</ele>
        <time>2010-01-01T01:27:57Z</time>
      </trkpt>
      <trkpt lat="37.14080300" lon="-7.59433800">
        <ele>17.000000</ele>
        <time>2010-01-01T01:28:26Z</time>
      </trkpt>
      <trkpt lat="37.13999400" lon="-7.59428300">
        <ele>15.000000</ele>
        <time>2010-01-01T01:28:47Z</time>
      </trkpt>
      <trkpt lat="37.13934000" lon="-7.59406000">
        <ele>14.000000</ele>
        <time>2010-01-01T01:29:05Z</time>
      </trkpt>
      <trkpt lat="37.13891900" lon="-7.59396300">
        <ele>13.000000</ele>
        <time>2010-01-01T01:29:17Z</time>
      </trkpt>
      <trkpt lat="37.13838700" lon="-7.59383800">
        <ele>11.000000</ele>
        <time>2010-01-01T01:29:31Z</time>
      </trkpt>
      <trkpt lat="37.13778900" lon="-7.59354600">
        <ele>7.0000000</ele>
        <time>2010-01-01T01:29:48Z</time>
      </trkpt>
      <trkpt lat="37.13765600" lon="-7.59358700">
        <ele>6.0000000</ele>
        <time>2010-01-01T01:29:52Z</time>
      </trkpt>
      <trkpt lat="37.13745600" lon="-7.59390700">
        <ele>5.0000000</ele>
        <time>2010-01-01T01:30:01Z</time>
      </trkpt>
      <trkpt lat="37.13715700" lon="-7.59444900">
        <ele>5.0000000</ele>
        <time>2010-01-01T01:30:15Z</time>
      </trkpt>
      <trkpt lat="37.13698000" lon="-7.59503300">
        <ele>7.0000000</ele>
        <time>2010-01-01T01:30:28Z</time>
      </trkpt>
      <trkpt lat="37.13652500" lon="-7.59641000">
        <ele>7.0000000</ele>
        <time>2010-01-01T01:31:00Z</time>
      </trkpt>
      <trkpt lat="37.13642600" lon="-7.59642300">
        <ele>7.0000000</ele>
        <time>2010-01-01T01:31:02Z</time>
      </trkpt>
      <trkpt lat="37.13617100" lon="-7.59650700">
        <ele>7.0000000</ele>
        <time>2010-01-01T01:31:09Z</time>
      </trkpt>
      <trkpt lat="37.13520600" lon="-7.59978800">
        <ele>7.0000000</ele>
        <time>2010-01-01T01:32:24Z</time>
      </trkpt>
      <trkpt lat="37.13474100" lon="-7.60153900">
        <ele>6.0000000</ele>
        <time>2010-01-01T01:33:03Z</time>
      </trkpt>
      <trkpt lat="37.13455300" lon="-7.60217900">
        <ele>7.0000000</ele>
        <time>2010-01-01T01:33:17Z</time>
      </trkpt>
      <trkpt lat="37.13417600" lon="-7.60265100">
        <ele>7.0000000</ele>
        <time>2010-01-01T01:33:32Z</time>
      </trkpt>
      <trkpt lat="37.13416500" lon="-7.60281800">
        <ele>7.0000000</ele>
        <time>2010-01-01T01:33:35Z</time>
      </trkpt>
      <trkpt lat="37.13434200" lon="-7.60308200">
        <ele>7.0000000</ele>
        <time>2010-01-01T01:33:43Z</time>
      </trkpt>
      <trkpt lat="37.13476300" lon="-7.60359700">
        <ele>8.0000000</ele>
        <time>2010-01-01T01:33:58Z</time>
      </trkpt>
      <trkpt lat="37.13536200" lon="-7.60408300">
        <ele>8.0000000</ele>
        <time>2010-01-01T01:34:17Z</time>
      </trkpt>
      <trkpt lat="37.13586000" lon="-7.60437500">
        <ele>7.0000000</ele>
        <time>2010-01-01T01:34:32Z</time>
      </trkpt>
      <trkpt lat="37.13659200" lon="-7.60462600">
        <ele>8.0000000</ele>
        <time>2010-01-01T01:34:52Z</time>
      </trkpt>
      <trkpt lat="37.13719000" lon="-7.60470900">
        <ele>9.0000000</ele>
        <time>2010-01-01T01:35:08Z</time>
      </trkpt>
      <trkpt lat="37.13832100" lon="-7.60472300">
        <ele>9.0000000</ele>
        <time>2010-01-01T01:35:39Z</time>
      </trkpt>
      <trkpt lat="37.13901900" lon="-7.60468100">
        <ele>9.0000000</ele>
        <time>2010-01-01T01:35:57Z</time>
      </trkpt>
      <trkpt lat="37.13925200" lon="-7.60475100">
        <ele>9.0000000</ele>
        <time>2010-01-01T01:36:04Z</time>
      </trkpt>
      <trkpt lat="37.14008300" lon="-7.60487600">
        <ele>11.000000</ele>
        <time>2010-01-01T01:36:26Z</time>
      </trkpt>
      <trkpt lat="37.14055900" lon="-7.60491700">
        <ele>12.000000</ele>
        <time>2010-01-01T01:36:39Z</time>
      </trkpt>
      <trkpt lat="37.14122400" lon="-7.60487600">
        <ele>14.000000</ele>
        <time>2010-01-01T01:36:56Z</time>
      </trkpt>
      <trkpt lat="37.14147900" lon="-7.60483400">
        <ele>14.000000</ele>
        <time>2010-01-01T01:37:03Z</time>
      </trkpt>
      <trkpt lat="37.14176200" lon="-7.60493100">
        <ele>13.000000</ele>
        <time>2010-01-01T01:37:11Z</time>
      </trkpt>
      <trkpt lat="37.14271000" lon="-7.60427800">
        <ele>16.000000</ele>
        <time>2010-01-01T01:37:40Z</time>
      </trkpt>
      <trkpt lat="37.14337400" lon="-7.60428500">
        <ele>16.000000</ele>
        <time>2010-01-01T01:37:58Z</time>
      </trkpt>
      <trkpt lat="37.14777000" lon="-7.60501200">
        <ele>31.000000</ele>
        <time>2010-01-01T01:39:56Z</time>
      </trkpt>
      <trkpt lat="37.14715900" lon="-7.61350500">
        <ele>21.000000</ele>
        <time>2010-01-01T01:42:57Z</time>
      </trkpt>
      <trkpt lat="37.14666000" lon="-7.61607300">
        <ele>8.0000000</ele>
        <time>2010-01-01T01:43:54Z</time>
      </trkpt>
      <trkpt lat="37.14558100" lon="-7.61829900">
        <ele>3.0000000</ele>
        <time>2010-01-01T01:44:49Z</time>
      </trkpt>
      <trkpt lat="37.14397200" lon="-7.62130400">
        <ele>7.0000000</ele>
        <time>2010-01-01T01:46:06Z</time>
      </trkpt>
      <trkpt lat="37.14276300" lon="-7.62266500">
        <ele>12.000000</ele>
        <time>2010-01-01T01:46:49Z</time>
      </trkpt>
      <trkpt lat="37.13946000" lon="-7.62421600">
        <ele>23.000000</ele>
        <time>2010-01-01T01:48:24Z</time>
      </trkpt>
      <trkpt lat="37.13661900" lon="-7.62558500">
        <ele>27.000000</ele>
        <time>2010-01-01T01:49:45Z</time>
      </trkpt>
      <trkpt lat="37.13587500" lon="-7.62626100">
        <ele>22.000000</ele>
        <time>2010-01-01T01:50:09Z</time>
      </trkpt>
      <trkpt lat="37.13531000" lon="-7.62726000">
        <ele>24.000000</ele>
        <time>2010-01-01T01:50:35Z</time>
      </trkpt>
      <trkpt lat="37.13491800" lon="-7.62839200">
        <ele>19.000000</ele>
        <time>2010-01-01T01:51:02Z</time>
      </trkpt>
      <trkpt lat="37.13474600" lon="-7.63206700">
        <ele>19.000000</ele>
        <time>2010-01-01T01:52:20Z</time>
      </trkpt>
      <trkpt lat="37.13467000" lon="-7.63478400">
        <ele>13.000000</ele>
        <time>2010-01-01T01:53:18Z</time>
      </trkpt>
      <trkpt lat="37.13035300" lon="-7.63663600">
        <ele>5.0000000</ele>
        <time>2010-01-01T01:55:19Z</time>
      </trkpt>
      <trkpt lat="37.13022900" lon="-7.63693400">
        <ele>4.0000000</ele>
        <time>2010-01-01T01:55:27Z</time>
      </trkpt>
      <trkpt lat="37.13011900" lon="-7.63709300">
        <ele>4.0000000</ele>
        <time>2010-01-01T01:55:31Z</time>
      </trkpt>
      <trkpt lat="37.13001400" lon="-7.63737800">
        <ele>5.0000000</ele>
        <time>2010-01-01T01:55:38Z</time>
      </trkpt>
      <trkpt lat="37.12973800" lon="-7.63836700">
        <ele>6.0000000</ele>
        <time>2010-01-01T01:56:00Z</time>
      </trkpt>
      <trkpt lat="37.12960400" lon="-7.63882400">
        <ele>7.0000000</ele>
        <time>2010-01-01T01:56:10Z</time>
      </trkpt>
      <trkpt lat="37.12939900" lon="-7.63979700">
        <ele>6.0000000</ele>
        <time>2010-01-01T01:56:32Z</time>
      </trkpt>
      <trkpt lat="37.12894400" lon="-7.64197300">
        <ele>7.0000000</ele>
        <time>2010-01-01T01:57:20Z</time>
      </trkpt>
      <trkpt lat="37.12888400" lon="-7.64227900">
        <ele>9.0000000</ele>
        <time>2010-01-01T01:57:26Z</time>
      </trkpt>
      <trkpt lat="37.12883900" lon="-7.64250100">
        <ele>8.0000000</ele>
        <time>2010-01-01T01:57:31Z</time>
      </trkpt>
      <trkpt lat="37.12880600" lon="-7.64267500">
        <ele>8.0000000</ele>
        <time>2010-01-01T01:57:35Z</time>
      </trkpt>
      <trkpt lat="37.12875100" lon="-7.64286900">
        <ele>8.0000000</ele>
        <time>2010-01-01T01:57:39Z</time>
      </trkpt>
      <trkpt lat="37.12867300" lon="-7.64306400">
        <ele>8.0000000</ele>
        <time>2010-01-01T01:57:44Z</time>
      </trkpt>
      <trkpt lat="37.12854500" lon="-7.64309200">
        <ele>7.0000000</ele>
        <time>2010-01-01T01:57:48Z</time>
      </trkpt>
      <trkpt lat="37.12844000" lon="-7.64305700">
        <ele>7.0000000</ele>
        <time>2010-01-01T01:57:50Z</time>
      </trkpt>
      <trkpt lat="37.12803000" lon="-7.64287600">
        <ele>7.0000000</ele>
        <time>2010-01-01T01:58:02Z</time>
      </trkpt>
      <trkpt lat="37.12758100" lon="-7.64268200">
        <ele>7.0000000</ele>
        <time>2010-01-01T01:58:15Z</time>
      </trkpt>
      <trkpt lat="37.12691800" lon="-7.64264300">
        <ele>2.0000000</ele>
        <time>2010-01-01T01:58:32Z</time>
      </trkpt>
      <trkpt lat="37.12654500" lon="-7.64275800">
        <ele>2.0000000</ele>
        <time>2010-01-01T01:58:43Z</time>
      </trkpt>
      <trkpt lat="37.12626200" lon="-7.64283500">
        <ele>2.0000000</ele>
        <time>2010-01-01T01:58:50Z</time>
      </trkpt>
      <trkpt lat="37.12549700" lon="-7.64323800">
        <ele>5.0000000</ele>
        <time>2010-01-01T01:59:13Z</time>
      </trkpt>
      <trkpt lat="37.12344700" lon="-7.64426000">
        <ele>7.0000000</ele>
        <time>2010-01-01T02:00:11Z</time>
      </trkpt>
      <trkpt lat="37.12264300" lon="-7.64468400">
        <ele>4.0000000</ele>
        <time>2010-01-01T02:00:35Z</time>
      </trkpt>
      <trkpt lat="37.12223600" lon="-7.64489800">
        <ele>5.0000000</ele>
        <time>2010-01-01T02:00:47Z</time>
      </trkpt>
      <trkpt lat="37.12206100" lon="-7.64555200">
        <ele>10.000000</ele>
        <time>2010-01-01T02:01:01Z</time>
      </trkpt>
      <trkpt lat="37.12172900" lon="-7.64651200">
        <ele>11.000000</ele>
        <time>2010-01-01T02:01:23Z</time>
      </trkpt>
      <trkpt lat="37.12167300" lon="-7.64666500">
        <ele>11.000000</ele>
        <time>2010-01-01T02:01:27Z</time>
      </trkpt>
      <trkpt lat="37.12155700" lon="-7.64693100">
        <ele>10.000000</ele>
        <time>2010-01-01T02:01:34Z</time>
      </trkpt>
      <trkpt lat="37.12148600" lon="-7.64705300">
        <ele>11.000000</ele>
        <time>2010-01-01T02:01:37Z</time>
      </trkpt>
      <trkpt lat="37.12144100" lon="-7.64719300">
        <ele>11.000000</ele>
        <time>2010-01-01T02:01:40Z</time>
      </trkpt>
      <trkpt lat="37.12138000" lon="-7.64736000">
        <ele>12.000000</ele>
        <time>2010-01-01T02:01:44Z</time>
      </trkpt>
      <trkpt lat="37.12107500" lon="-7.64821500">
        <ele>16.000000</ele>
        <time>2010-01-01T02:02:04Z</time>
      </trkpt>
      <trkpt lat="37.12103600" lon="-7.64836800">
        <ele>16.000000</ele>
        <time>2010-01-01T02:02:07Z</time>
      </trkpt>
      <trkpt lat="37.12103600" lon="-7.64856200">
        <ele>16.000000</ele>
        <time>2010-01-01T02:02:11Z</time>
      </trkpt>
      <trkpt lat="37.12103600" lon="-7.64870800">
        <ele>16.000000</ele>
        <time>2010-01-01T02:02:14Z</time>
      </trkpt>
      <trkpt lat="37.12109700" lon="-7.64894400">
        <ele>17.000000</ele>
        <time>2010-01-01T02:02:20Z</time>
      </trkpt>
      <trkpt lat="37.12114700" lon="-7.64910400">
        <ele>18.000000</ele>
        <time>2010-01-01T02:02:23Z</time>
      </trkpt>
      <trkpt lat="37.12120800" lon="-7.64936100">
        <ele>20.000000</ele>
        <time>2010-01-01T02:02:29Z</time>
      </trkpt>
      <trkpt lat="37.12131300" lon="-7.65057800">
        <ele>24.000000</ele>
        <time>2010-01-01T02:02:55Z</time>
      </trkpt>
      <trkpt lat="37.12062000" lon="-7.65066800">
        <ele>25.000000</ele>
        <time>2010-01-01T02:03:14Z</time>
      </trkpt>
      <trkpt lat="37.12007200" lon="-7.65073800">
        <ele>23.000000</ele>
        <time>2010-01-01T02:03:28Z</time>
      </trkpt>
      <trkpt lat="37.11957800" lon="-7.65083500">
        <ele>18.000000</ele>
        <time>2010-01-01T02:03:42Z</time>
      </trkpt>
      <trkpt lat="37.11871400" lon="-7.65096700">
        <ele>18.000000</ele>
        <time>2010-01-01T02:04:05Z</time>
      </trkpt>
      <trkpt lat="37.11831500" lon="-7.65101600">
        <ele>19.000000</ele>
        <time>2010-01-01T02:04:16Z</time>
      </trkpt>
      <trkpt lat="37.11817600" lon="-7.65096000">
        <ele>19.000000</ele>
        <time>2010-01-01T02:04:20Z</time>
      </trkpt>
      <trkpt lat="37.11806500" lon="-7.65095300">
        <ele>19.000000</ele>
        <time>2010-01-01T02:04:23Z</time>
      </trkpt>
      <trkpt lat="37.11804300" lon="-7.65106400">
        <ele>18.000000</ele>
        <time>2010-01-01T02:04:25Z</time>
      </trkpt>
      <trkpt lat="37.11806500" lon="-7.65116200">
        <ele>19.000000</ele>
        <time>2010-01-01T02:04:27Z</time>
      </trkpt>
      <trkpt lat="37.11818700" lon="-7.65131500">
        <ele>19.000000</ele>
        <time>2010-01-01T02:04:32Z</time>
      </trkpt>
      <trkpt lat="37.11818700" lon="-7.65155100">
        <ele>19.000000</ele>
        <time>2010-01-01T02:04:37Z</time>
      </trkpt>
      <trkpt lat="37.11827000" lon="-7.65189900">
        <ele>20.000000</ele>
        <time>2010-01-01T02:04:44Z</time>
      </trkpt>
      <trkpt lat="37.11799300" lon="-7.65199600">
        <ele>20.000000</ele>
        <time>2010-01-01T02:04:52Z</time>
      </trkpt>
      <trkpt lat="37.11788200" lon="-7.65217700">
        <ele>20.000000</ele>
        <time>2010-01-01T02:04:57Z</time>
      </trkpt>
      <trkpt lat="37.11747200" lon="-7.65259400">
        <ele>17.000000</ele>
        <time>2010-01-01T02:05:11Z</time>
      </trkpt>
      <trkpt lat="37.11674000" lon="-7.65328900">
        <ele>15.000000</ele>
        <time>2010-01-01T02:05:36Z</time>
      </trkpt>
      <trkpt lat="37.11555400" lon="-7.65456800">
        <ele>12.000000</ele>
        <time>2010-01-01T02:06:17Z</time>
      </trkpt>
      <trkpt lat="37.11541000" lon="-7.65463700">
        <ele>12.000000</ele>
        <time>2010-01-01T02:06:21Z</time>
      </trkpt>
      <trkpt lat="37.11515500" lon="-7.65473500">
        <ele>13.000000</ele>
        <time>2010-01-01T02:06:29Z</time>
      </trkpt>
      <trkpt lat="37.11488900" lon="-7.65484600">
        <ele>14.000000</ele>
        <time>2010-01-01T02:06:36Z</time>
      </trkpt>
      <trkpt lat="37.11425700" lon="-7.65519300">
        <ele>13.000000</ele>
        <time>2010-01-01T02:06:54Z</time>
      </trkpt>
      <trkpt lat="37.11416900" lon="-7.65533200">
        <ele>13.000000</ele>
        <time>2010-01-01T02:06:58Z</time>
      </trkpt>
      <trkpt lat="37.11404700" lon="-7.65555500">
        <ele>13.000000</ele>
        <time>2010-01-01T02:07:04Z</time>
      </trkpt>
      <trkpt lat="37.11392500" lon="-7.65588800">
        <ele>13.000000</ele>
        <time>2010-01-01T02:07:12Z</time>
      </trkpt>
      <trkpt lat="37.11378100" lon="-7.65618000">
        <ele>12.000000</ele>
        <time>2010-01-01T02:07:19Z</time>
      </trkpt>
      <trkpt lat="37.11361400" lon="-7.65641700">
        <ele>11.000000</ele>
        <time>2010-01-01T02:07:26Z</time>
      </trkpt>
      <trkpt lat="37.11341500" lon="-7.65662500">
        <ele>11.000000</ele>
        <time>2010-01-01T02:07:33Z</time>
      </trkpt>
      <trkpt lat="37.11294900" lon="-7.65702800">
        <ele>14.000000</ele>
        <time>2010-01-01T02:07:48Z</time>
      </trkpt>
      <trkpt lat="37.11221700" lon="-7.65779300">
        <ele>14.000000</ele>
        <time>2010-01-01T02:08:13Z</time>
      </trkpt>
      <trkpt lat="37.11170800" lon="-7.65839100">
        <ele>14.000000</ele>
        <time>2010-01-01T02:08:32Z</time>
      </trkpt>
      <trkpt lat="37.11115300" lon="-7.65869700">
        <ele>15.000000</ele>
        <time>2010-01-01T02:08:48Z</time>
      </trkpt>
      <trkpt lat="37.11085400" lon="-7.65907200">
        <ele>15.000000</ele>
        <time>2010-01-01T02:08:59Z</time>
      </trkpt>
      <trkpt lat="37.11022200" lon="-7.65962800">
        <ele>17.000000</ele>
        <time>2010-01-01T02:09:20Z</time>
      </trkpt>
      <trkpt lat="37.10965700" lon="-7.66018400">
        <ele>18.000000</ele>
        <time>2010-01-01T02:09:39Z</time>
      </trkpt>
      <trkpt lat="37.10918000" lon="-7.66069800">
        <ele>16.000000</ele>
        <time>2010-01-01T02:09:56Z</time>
      </trkpt>
      <trkpt lat="37.10858100" lon="-7.66169900">
        <ele>13.000000</ele>
        <time>2010-01-01T02:10:23Z</time>
      </trkpt>
      <trkpt lat="37.10837100" lon="-7.66167200">
        <ele>13.000000</ele>
        <time>2010-01-01T02:10:28Z</time>
      </trkpt>
      <trkpt lat="37.10808200" lon="-7.66165800">
        <ele>12.000000</ele>
        <time>2010-01-01T02:10:36Z</time>
      </trkpt>
      <trkpt lat="37.10784900" lon="-7.66181100">
        <ele>12.000000</ele>
        <time>2010-01-01T02:10:43Z</time>
      </trkpt>
      <trkpt lat="37.10765000" lon="-7.66226900">
        <ele>13.000000</ele>
        <time>2010-01-01T02:10:54Z</time>
      </trkpt>
      <trkpt lat="37.10745000" lon="-7.66272800">
        <ele>13.000000</ele>
        <time>2010-01-01T02:11:05Z</time>
      </trkpt>
      <trkpt lat="37.10727300" lon="-7.66311700">
        <ele>13.000000</ele>
        <time>2010-01-01T02:11:15Z</time>
      </trkpt>
      <trkpt lat="37.10711800" lon="-7.66374300">
        <ele>14.000000</ele>
        <time>2010-01-01T02:11:29Z</time>
      </trkpt>
      <trkpt lat="37.10649700" lon="-7.66493800">
        <ele>17.000000</ele>
        <time>2010-01-01T02:11:59Z</time>
      </trkpt>
      <trkpt lat="37.10619700" lon="-7.66563400">
        <ele>19.000000</ele>
        <time>2010-01-01T02:12:16Z</time>
      </trkpt>
      <trkpt lat="37.10609800" lon="-7.66581400">
        <ele>19.000000</ele>
        <time>2010-01-01T02:12:21Z</time>
      </trkpt>
      <trkpt lat="37.10587600" lon="-7.66598100">
        <ele>18.000000</ele>
        <time>2010-01-01T02:12:27Z</time>
      </trkpt>
      <trkpt lat="37.10538800" lon="-7.66653700">
        <ele>17.000000</ele>
        <time>2010-01-01T02:12:45Z</time>
      </trkpt>
      <trkpt lat="37.10518900" lon="-7.66688500">
        <ele>16.000000</ele>
        <time>2010-01-01T02:12:54Z</time>
      </trkpt>
      <trkpt lat="37.10478900" lon="-7.66745500">
        <ele>16.000000</ele>
        <time>2010-01-01T02:13:10Z</time>
      </trkpt>
      <trkpt lat="37.10406900" lon="-7.66806600">
        <ele>13.000000</ele>
        <time>2010-01-01T02:13:33Z</time>
      </trkpt>
      <trkpt lat="37.10383600" lon="-7.66803900">
        <ele>13.000000</ele>
        <time>2010-01-01T02:13:40Z</time>
      </trkpt>
      <trkpt lat="37.10372500" lon="-7.66805200">
        <ele>13.000000</ele>
        <time>2010-01-01T02:13:43Z</time>
      </trkpt>
      <trkpt lat="37.10349200" lon="-7.66819100">
        <ele>13.000000</ele>
        <time>2010-01-01T02:13:50Z</time>
      </trkpt>
      <trkpt lat="37.10318200" lon="-7.66858100">
        <ele>13.000000</ele>
        <time>2010-01-01T02:14:01Z</time>
      </trkpt>
      <trkpt lat="37.10291600" lon="-7.66890000">
        <ele>12.000000</ele>
        <time>2010-01-01T02:14:11Z</time>
      </trkpt>
      <trkpt lat="37.10174000" lon="-7.66956800">
        <ele>11.000000</ele>
        <time>2010-01-01T02:14:46Z</time>
      </trkpt>
      <trkpt lat="37.10125300" lon="-7.66983200">
        <ele>10.000000</ele>
        <time>2010-01-01T02:15:00Z</time>
      </trkpt>
      <trkpt lat="37.10098600" lon="-7.67011000">
        <ele>10.000000</ele>
        <time>2010-01-01T02:15:09Z</time>
      </trkpt>
      <trkpt lat="37.10052100" lon="-7.67049900">
        <ele>10.000000</ele>
        <time>2010-01-01T02:15:24Z</time>
      </trkpt>
      <trkpt lat="37.09978900" lon="-7.67172300">
        <ele>17.000000</ele>
        <time>2010-01-01T02:15:56Z</time>
      </trkpt>
      <trkpt lat="37.09943400" lon="-7.67222300">
        <ele>19.000000</ele>
        <time>2010-01-01T02:16:11Z</time>
      </trkpt>
      <trkpt lat="37.09921200" lon="-7.67241800">
        <ele>19.000000</ele>
        <time>2010-01-01T02:16:18Z</time>
      </trkpt>
      <trkpt lat="37.09890200" lon="-7.67277900">
        <ele>18.000000</ele>
        <time>2010-01-01T02:16:29Z</time>
      </trkpt>
      <trkpt lat="37.09872500" lon="-7.67291800">
        <ele>19.000000</ele>
        <time>2010-01-01T02:16:35Z</time>
      </trkpt>
      <trkpt lat="37.09872500" lon="-7.67316800">
        <ele>20.000000</ele>
        <time>2010-01-01T02:16:40Z</time>
      </trkpt>
      <trkpt lat="37.09856900" lon="-7.67344600">
        <ele>22.000000</ele>
        <time>2010-01-01T02:16:47Z</time>
      </trkpt>
      <trkpt lat="37.09828100" lon="-7.67369700">
        <ele>22.000000</ele>
        <time>2010-01-01T02:16:57Z</time>
      </trkpt>
      <trkpt lat="37.09794800" lon="-7.67394700">
        <ele>22.000000</ele>
        <time>2010-01-01T02:17:07Z</time>
      </trkpt>
      <trkpt lat="37.09779300" lon="-7.67416900">
        <ele>22.000000</ele>
        <time>2010-01-01T02:17:13Z</time>
      </trkpt>
      <trkpt lat="37.09761600" lon="-7.67486400">
        <ele>21.000000</ele>
        <time>2010-01-01T02:17:29Z</time>
      </trkpt>
      <trkpt lat="37.09726100" lon="-7.67611500">
        <ele>22.000000</ele>
        <time>2010-01-01T02:17:57Z</time>
      </trkpt>
      <trkpt lat="37.09684000" lon="-7.67770000">
        <ele>25.000000</ele>
        <time>2010-01-01T02:18:33Z</time>
      </trkpt>
      <trkpt lat="37.09644000" lon="-7.67856200">
        <ele>26.000000</ele>
        <time>2010-01-01T02:18:54Z</time>
      </trkpt>
      <trkpt lat="37.09606300" lon="-7.67931300">
        <ele>29.000000</ele>
        <time>2010-01-01T02:19:13Z</time>
      </trkpt>
      <trkpt lat="37.09559800" lon="-7.67989700">
        <ele>27.000000</ele>
        <time>2010-01-01T02:19:30Z</time>
      </trkpt>
      <trkpt lat="37.09464400" lon="-7.68050800">
        <ele>25.000000</ele>
        <time>2010-01-01T02:19:59Z</time>
      </trkpt>
      <trkpt lat="37.09411200" lon="-7.68109200">
        <ele>23.000000</ele>
        <time>2010-01-01T02:20:18Z</time>
      </trkpt>
      <trkpt lat="37.09386800" lon="-7.68120400">
        <ele>23.000000</ele>
        <time>2010-01-01T02:20:25Z</time>
      </trkpt>
      <trkpt lat="37.09384600" lon="-7.68142600">
        <ele>23.000000</ele>
        <time>2010-01-01T02:20:30Z</time>
      </trkpt>
      <trkpt lat="37.09366800" lon="-7.68173200">
        <ele>21.000000</ele>
        <time>2010-01-01T02:20:38Z</time>
      </trkpt>
      <trkpt lat="37.09309200" lon="-7.68253800">
        <ele>14.000000</ele>
        <time>2010-01-01T02:21:01Z</time>
      </trkpt>
      <trkpt lat="37.09222700" lon="-7.68367800">
        <ele>11.000000</ele>
        <time>2010-01-01T02:21:34Z</time>
      </trkpt>
      <trkpt lat="37.09125100" lon="-7.68529100">
        <ele>16.000000</ele>
        <time>2010-01-01T02:22:17Z</time>
      </trkpt>
      <trkpt lat="37.09069600" lon="-7.68568000">
        <ele>16.000000</ele>
        <time>2010-01-01T02:22:34Z</time>
      </trkpt>
      <trkpt lat="37.09056300" lon="-7.68584700">
        <ele>15.000000</ele>
        <time>2010-01-01T02:22:39Z</time>
      </trkpt>
      <trkpt lat="37.09040800" lon="-7.68640300">
        <ele>15.000000</ele>
        <time>2010-01-01T02:22:52Z</time>
      </trkpt>
      <trkpt lat="37.09009800" lon="-7.68723700">
        <ele>16.000000</ele>
        <time>2010-01-01T02:23:11Z</time>
      </trkpt>
      <trkpt lat="37.08967600" lon="-7.68851600">
        <ele>16.000000</ele>
        <time>2010-01-01T02:23:41Z</time>
      </trkpt>
      <trkpt lat="37.08963200" lon="-7.68907200">
        <ele>18.000000</ele>
        <time>2010-01-01T02:23:53Z</time>
      </trkpt>
      <trkpt lat="37.08934300" lon="-7.69021200">
        <ele>23.000000</ele>
        <time>2010-01-01T02:24:18Z</time>
      </trkpt>
      <trkpt lat="37.09038600" lon="-7.69085100">
        <ele>22.000000</ele>
        <time>2010-01-01T02:24:49Z</time>
      </trkpt>
      <trkpt lat="37.08918800" lon="-7.69619000">
        <ele>26.000000</ele>
        <time>2010-01-01T02:26:47Z</time>
      </trkpt>
      <trkpt lat="37.08854500" lon="-7.69680100">
        <ele>26.000000</ele>
        <time>2010-01-01T02:27:09Z</time>
      </trkpt>
      <trkpt lat="37.08890000" lon="-7.69727400">
        <ele>27.000000</ele>
        <time>2010-01-01T02:27:23Z</time>
      </trkpt>
      <trkpt lat="37.08338300" lon="-7.70252900">
        <ele>11.000000</ele>
        <time>2010-01-01T02:30:28Z</time>
      </trkpt>
      <trkpt lat="37.08285600" lon="-7.70299500">
        <ele>12.000000</ele>
        <time>2010-01-01T02:30:45Z</time>
      </trkpt>
      <trkpt lat="37.08255600" lon="-7.70336300">
        <ele>10.000000</ele>
        <time>2010-01-01T02:30:56Z</time>
      </trkpt>
      <trkpt lat="37.08222400" lon="-7.70385700">
        <ele>10.000000</ele>
        <time>2010-01-01T02:31:10Z</time>
      </trkpt>
      <trkpt lat="37.08216300" lon="-7.70405100">
        <ele>10.000000</ele>
        <time>2010-01-01T02:31:14Z</time>
      </trkpt>
      <trkpt lat="37.08211800" lon="-7.70424600">
        <ele>10.000000</ele>
        <time>2010-01-01T02:31:18Z</time>
      </trkpt>
      <trkpt lat="37.08208500" lon="-7.70445400">
        <ele>10.000000</ele>
        <time>2010-01-01T02:31:23Z</time>
      </trkpt>
      <trkpt lat="37.08208500" lon="-7.70462800">
        <ele>10.000000</ele>
        <time>2010-01-01T02:31:27Z</time>
      </trkpt>
      <trkpt lat="37.08208000" lon="-7.70489200">
        <ele>10.000000</ele>
        <time>2010-01-01T02:31:32Z</time>
      </trkpt>
      <trkpt lat="37.08204600" lon="-7.70648400">
        <ele>13.000000</ele>
        <time>2010-01-01T02:32:06Z</time>
      </trkpt>
      <trkpt lat="37.08203000" lon="-7.70670600">
        <ele>13.000000</ele>
        <time>2010-01-01T02:32:11Z</time>
      </trkpt>
      <trkpt lat="37.08201300" lon="-7.70692900">
        <ele>12.000000</ele>
        <time>2010-01-01T02:32:16Z</time>
      </trkpt>
      <trkpt lat="37.08196300" lon="-7.70711600">
        <ele>11.000000</ele>
        <time>2010-01-01T02:32:20Z</time>
      </trkpt>
      <trkpt lat="37.08190800" lon="-7.70727600">
        <ele>11.000000</ele>
        <time>2010-01-01T02:32:24Z</time>
      </trkpt>
      <trkpt lat="37.08180800" lon="-7.70753400">
        <ele>11.000000</ele>
        <time>2010-01-01T02:32:30Z</time>
      </trkpt>
      <trkpt lat="37.08174700" lon="-7.70770700">
        <ele>11.000000</ele>
        <time>2010-01-01T02:32:34Z</time>
      </trkpt>
      <trkpt lat="37.08153100" lon="-7.70822900">
        <ele>10.000000</ele>
        <time>2010-01-01T02:32:46Z</time>
      </trkpt>
      <trkpt lat="37.08148600" lon="-7.70822200">
        <ele>10.000000</ele>
        <time>2010-01-01T02:32:47Z</time>
      </trkpt>
      <trkpt lat="37.08114800" lon="-7.70823600">
        <ele>9.0000000</ele>
        <time>2010-01-01T02:32:57Z</time>
      </trkpt>
      <trkpt lat="37.08056000" lon="-7.70829100">
        <ele>7.0000000</ele>
        <time>2010-01-01T02:33:12Z</time>
      </trkpt>
      <trkpt lat="37.08033800" lon="-7.70829800">
        <ele>7.0000000</ele>
        <time>2010-01-01T02:33:18Z</time>
      </trkpt>
      <trkpt lat="37.08006100" lon="-7.70824900">
        <ele>7.0000000</ele>
        <time>2010-01-01T02:33:26Z</time>
      </trkpt>
      <trkpt lat="37.07989500" lon="-7.70824900">
        <ele>7.0000000</ele>
        <time>2010-01-01T02:33:30Z</time>
      </trkpt>
      <trkpt lat="37.07966700" lon="-7.70815900">
        <ele>8.0000000</ele>
        <time>2010-01-01T02:33:36Z</time>
      </trkpt>
      <trkpt lat="37.07929000" lon="-7.70796500">
        <ele>9.0000000</ele>
        <time>2010-01-01T02:33:47Z</time>
      </trkpt>
      <trkpt lat="37.07870800" lon="-7.70763800">
        <ele>10.000000</ele>
        <time>2010-01-01T02:34:04Z</time>
      </trkpt>
      <trkpt lat="37.07840900" lon="-7.70746400">
        <ele>9.0000000</ele>
        <time>2010-01-01T02:34:13Z</time>
      </trkpt>
      <trkpt lat="37.07812000" lon="-7.70718600">
        <ele>8.0000000</ele>
        <time>2010-01-01T02:34:23Z</time>
      </trkpt>
      <trkpt lat="37.07747700" lon="-7.70653300">
        <ele>8.0000000</ele>
        <time>2010-01-01T02:34:45Z</time>
      </trkpt>
      <trkpt lat="37.07730500" lon="-7.70637300">
        <ele>8.0000000</ele>
        <time>2010-01-01T02:34:51Z</time>
      </trkpt>
      <trkpt lat="37.07717200" lon="-7.70631700">
        <ele>7.0000000</ele>
        <time>2010-01-01T02:34:54Z</time>
      </trkpt>
      <trkpt lat="37.07706100" lon="-7.70632400">
        <ele>7.0000000</ele>
        <time>2010-01-01T02:34:57Z</time>
      </trkpt>
      <trkpt lat="37.07698300" lon="-7.70638000">
        <ele>7.0000000</ele>
        <time>2010-01-01T02:35:00Z</time>
      </trkpt>
      <trkpt lat="37.07663400" lon="-7.70671300">
        <ele>5.0000000</ele>
        <time>2010-01-01T02:35:11Z</time>
      </trkpt>
      <trkpt lat="37.07615700" lon="-7.70741500">
        <ele>5.0000000</ele>
        <time>2010-01-01T02:35:31Z</time>
      </trkpt>
      <trkpt lat="37.07595700" lon="-7.70767300">
        <ele>6.0000000</ele>
        <time>2010-01-01T02:35:39Z</time>
      </trkpt>
      <trkpt lat="37.07580200" lon="-7.70797800">
        <ele>6.0000000</ele>
        <time>2010-01-01T02:35:46Z</time>
      </trkpt>
      <trkpt lat="37.07530900" lon="-7.70888900">
        <ele>8.0000000</ele>
        <time>2010-01-01T02:36:10Z</time>
      </trkpt>
      <trkpt lat="37.07488200" lon="-7.70975800">
        <ele>7.0000000</ele>
        <time>2010-01-01T02:36:32Z</time>
      </trkpt>
      <trkpt lat="37.07439900" lon="-7.71059200">
        <ele>5.0000000</ele>
        <time>2010-01-01T02:36:54Z</time>
      </trkpt>
      <trkpt lat="37.07429900" lon="-7.71080700">
        <ele>5.0000000</ele>
        <time>2010-01-01T02:36:59Z</time>
      </trkpt>
      <trkpt lat="37.07421600" lon="-7.71120400">
        <ele>6.0000000</ele>
        <time>2010-01-01T02:37:08Z</time>
      </trkpt>
      <trkpt lat="37.07413800" lon="-7.71145400">
        <ele>7.0000000</ele>
        <time>2010-01-01T02:37:13Z</time>
      </trkpt>
      <trkpt lat="37.07397800" lon="-7.71193300">
        <ele>4.0000000</ele>
        <time>2010-01-01T02:37:24Z</time>
      </trkpt>
      <trkpt lat="37.07388900" lon="-7.71203800">
        <ele>4.0000000</ele>
        <time>2010-01-01T02:37:28Z</time>
      </trkpt>
      <trkpt lat="37.07377800" lon="-7.71221200">
        <ele>4.0000000</ele>
        <time>2010-01-01T02:37:32Z</time>
      </trkpt>
      <trkpt lat="37.07367800" lon="-7.71256600">
        <ele>6.0000000</ele>
        <time>2010-01-01T02:37:40Z</time>
      </trkpt>
      <trkpt lat="37.07356700" lon="-7.71286500">
        <ele>7.0000000</ele>
        <time>2010-01-01T02:37:47Z</time>
      </trkpt>
      <trkpt lat="37.07351700" lon="-7.71299000">
        <ele>7.0000000</ele>
        <time>2010-01-01T02:37:50Z</time>
      </trkpt>
      <trkpt lat="37.07341200" lon="-7.71308000">
        <ele>6.0000000</ele>
        <time>2010-01-01T02:37:54Z</time>
      </trkpt>
      <trkpt lat="37.07326800" lon="-7.71335100">
        <ele>6.0000000</ele>
        <time>2010-01-01T02:38:01Z</time>
      </trkpt>
      <trkpt lat="37.07316800" lon="-7.71357400">
        <ele>6.0000000</ele>
        <time>2010-01-01T02:38:06Z</time>
      </trkpt>
      <trkpt lat="37.07268500" lon="-7.71450500">
        <ele>6.0000000</ele>
        <time>2010-01-01T02:38:30Z</time>
      </trkpt>
      <trkpt lat="37.07236900" lon="-7.71529100">
        <ele>6.0000000</ele>
        <time>2010-01-01T02:38:49Z</time>
      </trkpt>
      <trkpt lat="37.07222500" lon="-7.71559700">
        <ele>7.0000000</ele>
        <time>2010-01-01T02:38:56Z</time>
      </trkpt>
      <trkpt lat="37.07200900" lon="-7.71612500">
        <ele>9.0000000</ele>
        <time>2010-01-01T02:39:09Z</time>
      </trkpt>
      <trkpt lat="37.07188100" lon="-7.71659800">
        <ele>7.0000000</ele>
        <time>2010-01-01T02:39:19Z</time>
      </trkpt>
      <trkpt lat="37.07175400" lon="-7.71725100">
        <ele>6.0000000</ele>
        <time>2010-01-01T02:39:34Z</time>
      </trkpt>
      <trkpt lat="37.07172000" lon="-7.71729300">
        <ele>6.0000000</ele>
        <time>2010-01-01T02:39:35Z</time>
      </trkpt>
      <trkpt lat="37.07162100" lon="-7.71738300">
        <ele>5.0000000</ele>
        <time>2010-01-01T02:39:38Z</time>
      </trkpt>
      <trkpt lat="37.07147600" lon="-7.71770300">
        <ele>5.0000000</ele>
        <time>2010-01-01T02:39:46Z</time>
      </trkpt>
      <trkpt lat="37.07117700" lon="-7.71816100">
        <ele>4.0000000</ele>
        <time>2010-01-01T02:39:59Z</time>
      </trkpt>
      <trkpt lat="37.07094400" lon="-7.71862700">
        <ele>4.0000000</ele>
        <time>2010-01-01T02:40:10Z</time>
      </trkpt>
      <trkpt lat="37.07064400" lon="-7.71946800">
        <ele>4.0000000</ele>
        <time>2010-01-01T02:40:30Z</time>
      </trkpt>
      <trkpt lat="37.07038400" lon="-7.72061500">
        <ele>3.0000000</ele>
        <time>2010-01-01T02:40:55Z</time>
      </trkpt>
      <trkpt lat="37.07032300" lon="-7.72074000">
        <ele>2.0000000</ele>
        <time>2010-01-01T02:40:59Z</time>
      </trkpt>
      <trkpt lat="37.07036700" lon="-7.72085100">
        <ele>2.0000000</ele>
        <time>2010-01-01T02:41:01Z</time>
      </trkpt>
      <trkpt lat="37.07055600" lon="-7.72101100">
        <ele>4.0000000</ele>
        <time>2010-01-01T02:41:07Z</time>
      </trkpt>
      <trkpt lat="37.07071700" lon="-7.72123400">
        <ele>6.0000000</ele>
        <time>2010-01-01T02:41:14Z</time>
      </trkpt>
      <trkpt lat="37.07086100" lon="-7.72142800">
        <ele>7.0000000</ele>
        <time>2010-01-01T02:41:19Z</time>
      </trkpt>
      <trkpt lat="37.07092200" lon="-7.72160900">
        <ele>7.0000000</ele>
        <time>2010-01-01T02:41:23Z</time>
      </trkpt>
      <trkpt lat="37.07045600" lon="-7.72207500">
        <ele>8.0000000</ele>
        <time>2010-01-01T02:41:39Z</time>
      </trkpt>
      <trkpt lat="37.07015600" lon="-7.72233900">
        <ele>8.0000000</ele>
        <time>2010-01-01T02:41:49Z</time>
      </trkpt>
      <trkpt lat="37.07001800" lon="-7.72263800">
        <ele>7.0000000</ele>
        <time>2010-01-01T02:41:57Z</time>
      </trkpt>
      <trkpt lat="37.06985700" lon="-7.72297100">
        <ele>7.0000000</ele>
        <time>2010-01-01T02:42:05Z</time>
      </trkpt>
      <trkpt lat="37.06950700" lon="-7.72370100">
        <ele>5.0000000</ele>
        <time>2010-01-01T02:42:23Z</time>
      </trkpt>
      <trkpt lat="37.06933600" lon="-7.72407000">
        <ele>4.0000000</ele>
        <time>2010-01-01T02:42:32Z</time>
      </trkpt>
      <trkpt lat="37.06919700" lon="-7.72436200">
        <ele>4.0000000</ele>
        <time>2010-01-01T02:42:39Z</time>
      </trkpt>
      <trkpt lat="37.06889200" lon="-7.72500100">
        <ele>5.0000000</ele>
        <time>2010-01-01T02:42:55Z</time>
      </trkpt>
      <trkpt lat="37.06871400" lon="-7.72524400">
        <ele>6.0000000</ele>
        <time>2010-01-01T02:43:02Z</time>
      </trkpt>
      <trkpt lat="37.06864200" lon="-7.72537600">
        <ele>6.0000000</ele>
        <time>2010-01-01T02:43:06Z</time>
      </trkpt>
      <trkpt lat="37.06853100" lon="-7.72566800">
        <ele>6.0000000</ele>
        <time>2010-01-01T02:43:12Z</time>
      </trkpt>
      <trkpt lat="37.06828700" lon="-7.72614800">
        <ele>6.0000000</ele>
        <time>2010-01-01T02:43:25Z</time>
      </trkpt>
      <trkpt lat="37.06820400" lon="-7.72633600">
        <ele>6.0000000</ele>
        <time>2010-01-01T02:43:29Z</time>
      </trkpt>
      <trkpt lat="37.06818200" lon="-7.72641900">
        <ele>7.0000000</ele>
        <time>2010-01-01T02:43:31Z</time>
      </trkpt>
      <trkpt lat="37.06819900" lon="-7.72651600">
        <ele>7.0000000</ele>
        <time>2010-01-01T02:43:33Z</time>
      </trkpt>
      <trkpt lat="37.06830400" lon="-7.72661400">
        <ele>6.0000000</ele>
        <time>2010-01-01T02:43:37Z</time>
      </trkpt>
      <trkpt lat="37.06881400" lon="-7.72716300">
        <ele>9.0000000</ele>
        <time>2010-01-01T02:43:55Z</time>
      </trkpt>
      <trkpt lat="37.06889700" lon="-7.72719800">
        <ele>9.0000000</ele>
        <time>2010-01-01T02:43:57Z</time>
      </trkpt>
      <trkpt lat="37.06900800" lon="-7.72722500">
        <ele>10.000000</ele>
        <time>2010-01-01T02:44:00Z</time>
      </trkpt>
      <trkpt lat="37.06919100" lon="-7.72726700">
        <ele>11.000000</ele>
        <time>2010-01-01T02:44:05Z</time>
      </trkpt>
      <trkpt lat="37.06948000" lon="-7.72733700">
        <ele>12.000000</ele>
        <time>2010-01-01T02:44:13Z</time>
      </trkpt>
      <trkpt lat="37.06966800" lon="-7.72732300">
        <ele>13.000000</ele>
        <time>2010-01-01T02:44:18Z</time>
      </trkpt>
      <trkpt lat="37.06994000" lon="-7.72735800">
        <ele>12.000000</ele>
        <time>2010-01-01T02:44:25Z</time>
      </trkpt>
      <trkpt lat="37.07115500" lon="-7.72822600">
        <ele>7.0000000</ele>
        <time>2010-01-01T02:45:02Z</time>
      </trkpt>
      <trkpt lat="37.07179200" lon="-7.72865700">
        <ele>9.0000000</ele>
        <time>2010-01-01T02:45:22Z</time>
      </trkpt>
      <trkpt lat="37.07167600" lon="-7.72888000">
        <ele>9.0000000</ele>
        <time>2010-01-01T02:45:27Z</time>
      </trkpt>
      <trkpt lat="37.07149900" lon="-7.72923400">
        <ele>9.0000000</ele>
        <time>2010-01-01T02:45:36Z</time>
      </trkpt>
      <trkpt lat="37.07106600" lon="-7.73001300">
        <ele>8.0000000</ele>
        <time>2010-01-01T02:45:56Z</time>
      </trkpt>
      <trkpt lat="37.07071700" lon="-7.73068000">
        <ele>13.000000</ele>
        <time>2010-01-01T02:46:13Z</time>
      </trkpt>
      <trkpt lat="37.07048900" lon="-7.73108300">
        <ele>16.000000</ele>
        <time>2010-01-01T02:46:24Z</time>
      </trkpt>
      <trkpt lat="37.07033900" lon="-7.73146500">
        <ele>17.000000</ele>
        <time>2010-01-01T02:46:33Z</time>
      </trkpt>
      <trkpt lat="37.07028400" lon="-7.73158400">
        <ele>17.000000</ele>
        <time>2010-01-01T02:46:36Z</time>
      </trkpt>
      <trkpt lat="37.07021200" lon="-7.73172300">
        <ele>18.000000</ele>
        <time>2010-01-01T02:46:39Z</time>
      </trkpt>
      <trkpt lat="37.07007300" lon="-7.73186200">
        <ele>19.000000</ele>
        <time>2010-01-01T02:46:44Z</time>
      </trkpt>
      <trkpt lat="37.06985700" lon="-7.73210500">
        <ele>20.000000</ele>
        <time>2010-01-01T02:46:52Z</time>
      </trkpt>
      <trkpt lat="37.06956800" lon="-7.73237600">
        <ele>20.000000</ele>
        <time>2010-01-01T02:47:02Z</time>
      </trkpt>
      <trkpt lat="37.06935200" lon="-7.73273800">
        <ele>19.000000</ele>
        <time>2010-01-01T02:47:11Z</time>
      </trkpt>
      <trkpt lat="37.06924100" lon="-7.73292500">
        <ele>19.000000</ele>
        <time>2010-01-01T02:47:16Z</time>
      </trkpt>
      <trkpt lat="37.06909200" lon="-7.73321700">
        <ele>17.000000</ele>
        <time>2010-01-01T02:47:24Z</time>
      </trkpt>
      <trkpt lat="37.06893600" lon="-7.73350900">
        <ele>17.000000</ele>
        <time>2010-01-01T02:47:31Z</time>
      </trkpt>
      <trkpt lat="37.06867000" lon="-7.73351600">
        <ele>17.000000</ele>
        <time>2010-01-01T02:47:38Z</time>
      </trkpt>
      <trkpt lat="37.06837600" lon="-7.73349500">
        <ele>17.000000</ele>
        <time>2010-01-01T02:47:46Z</time>
      </trkpt>
      <trkpt lat="37.06769900" lon="-7.73357200">
        <ele>15.000000</ele>
        <time>2010-01-01T02:48:04Z</time>
      </trkpt>
      <trkpt lat="37.06686700" lon="-7.73376600">
        <ele>15.000000</ele>
        <time>2010-01-01T02:48:27Z</time>
      </trkpt>
      <trkpt lat="37.06627400" lon="-7.73384300">
        <ele>13.000000</ele>
        <time>2010-01-01T02:48:43Z</time>
      </trkpt>
      <trkpt lat="37.06595200" lon="-7.73385700">
        <ele>11.000000</ele>
        <time>2010-01-01T02:48:51Z</time>
      </trkpt>
      <trkpt lat="37.06531400" lon="-7.73375900">
        <ele>12.000000</ele>
        <time>2010-01-01T02:49:08Z</time>
      </trkpt>
      <trkpt lat="37.06500900" lon="-7.73374500">
        <ele>11.000000</ele>
        <time>2010-01-01T02:49:17Z</time>
      </trkpt>
      <trkpt lat="37.06445500" lon="-7.73399600">
        <ele>11.000000</ele>
        <time>2010-01-01T02:49:32Z</time>
      </trkpt>
      <trkpt lat="37.06442900" lon="-7.73400200">
        <ele>11.000000</ele>
        <time>2010-01-01T02:49:33Z</time>
      </trkpt>
      <trkpt lat="37.06434400" lon="-7.73402300">
        <ele>11.000000</ele>
        <time>2010-01-01T02:49:35Z</time>
      </trkpt>
      <trkpt lat="37.06385000" lon="-7.73444700">
        <ele>10.000000</ele>
        <time>2010-01-01T02:49:51Z</time>
      </trkpt>
      <trkpt lat="37.06243000" lon="-7.73573300">
        <ele>7.0000000</ele>
        <time>2010-01-01T02:50:38Z</time>
      </trkpt>
      <trkpt lat="37.06190900" lon="-7.73615000">
        <ele>7.0000000</ele>
        <time>2010-01-01T02:50:55Z</time>
      </trkpt>
      <trkpt lat="37.06193700" lon="-7.73640100">
        <ele>6.0000000</ele>
        <time>2010-01-01T02:51:00Z</time>
      </trkpt>
      <trkpt lat="37.06195300" lon="-7.73672700">
        <ele>6.0000000</ele>
        <time>2010-01-01T02:51:07Z</time>
      </trkpt>
      <trkpt lat="37.06198100" lon="-7.73700500">
        <ele>6.0000000</ele>
        <time>2010-01-01T02:51:13Z</time>
      </trkpt>
      <trkpt lat="37.06199200" lon="-7.73718600">
        <ele>6.0000000</ele>
        <time>2010-01-01T02:51:17Z</time>
      </trkpt>
      <trkpt lat="37.06211400" lon="-7.73738100">
        <ele>5.0000000</ele>
        <time>2010-01-01T02:51:22Z</time>
      </trkpt>
      <trkpt lat="37.06243000" lon="-7.73744300">
        <ele>5.0000000</ele>
        <time>2010-01-01T02:51:31Z</time>
      </trkpt>
      <trkpt lat="37.06275700" lon="-7.73753400">
        <ele>3.0000000</ele>
        <time>2010-01-01T02:51:39Z</time>
      </trkpt>
      <trkpt lat="37.06316800" lon="-7.73760300">
        <ele>1.0000000</ele>
        <time>2010-01-01T02:51:51Z</time>
      </trkpt>
      <trkpt lat="37.06325700" lon="-7.73762400">
        <ele>1.0000000</ele>
        <time>2010-01-01T02:51:53Z</time>
      </trkpt>
      <trkpt lat="37.06340600" lon="-7.73771400">
        <ele>1.0000000</ele>
        <time>2010-01-01T02:51:57Z</time>
      </trkpt>
      <trkpt lat="37.06347300" lon="-7.73780500">
        <ele>2.0000000</ele>
        <time>2010-01-01T02:52:00Z</time>
      </trkpt>
      <trkpt lat="37.06351700" lon="-7.73801300">
        <ele>3.0000000</ele>
        <time>2010-01-01T02:52:05Z</time>
      </trkpt>
      <trkpt lat="37.06360100" lon="-7.73836800">
        <ele>4.0000000</ele>
        <time>2010-01-01T02:52:12Z</time>
      </trkpt>
      <trkpt lat="37.06362800" lon="-7.73860400">
        <ele>4.0000000</ele>
        <time>2010-01-01T02:52:18Z</time>
      </trkpt>
      <trkpt lat="37.06365600" lon="-7.73888900">
        <ele>3.0000000</ele>
        <time>2010-01-01T02:52:24Z</time>
      </trkpt>
      <trkpt lat="37.06366700" lon="-7.73913200">
        <ele>3.0000000</ele>
        <time>2010-01-01T02:52:29Z</time>
      </trkpt>
      <trkpt lat="37.06387200" lon="-7.73932000">
        <ele>3.0000000</ele>
        <time>2010-01-01T02:52:36Z</time>
      </trkpt>
      <trkpt lat="37.06398900" lon="-7.73941700">
        <ele>3.0000000</ele>
        <time>2010-01-01T02:52:39Z</time>
      </trkpt>
      <trkpt lat="37.06402200" lon="-7.73951500">
        <ele>3.0000000</ele>
        <time>2010-01-01T02:52:42Z</time>
      </trkpt>
      <trkpt lat="37.06398300" lon="-7.73970200">
        <ele>3.0000000</ele>
        <time>2010-01-01T02:52:46Z</time>
      </trkpt>
      <trkpt lat="37.06388300" lon="-7.73996600">
        <ele>4.0000000</ele>
        <time>2010-01-01T02:52:52Z</time>
      </trkpt>
      <trkpt lat="37.06354000" lon="-7.74108600">
        <ele>5.0000000</ele>
        <time>2010-01-01T02:53:18Z</time>
      </trkpt>
      <trkpt lat="37.06307900" lon="-7.74260100">
        <ele>6.0000000</ele>
        <time>2010-01-01T02:53:52Z</time>
      </trkpt>
      <trkpt lat="37.06299000" lon="-7.74280200">
        <ele>5.0000000</ele>
        <time>2010-01-01T02:53:57Z</time>
      </trkpt>
      <trkpt lat="37.06285200" lon="-7.74300400">
        <ele>5.0000000</ele>
        <time>2010-01-01T02:54:03Z</time>
      </trkpt>
      <trkpt lat="37.06281900" lon="-7.74306000">
        <ele>5.0000000</ele>
        <time>2010-01-01T02:54:04Z</time>
      </trkpt>
      <trkpt lat="37.06280200" lon="-7.74332400">
        <ele>5.0000000</ele>
        <time>2010-01-01T02:54:10Z</time>
      </trkpt>
      <trkpt lat="37.06283000" lon="-7.74352500">
        <ele>5.0000000</ele>
        <time>2010-01-01T02:54:14Z</time>
      </trkpt>
      <trkpt lat="37.06292400" lon="-7.74374800">
        <ele>5.0000000</ele>
        <time>2010-01-01T02:54:19Z</time>
      </trkpt>
      <trkpt lat="37.06310100" lon="-7.74405400">
        <ele>6.0000000</ele>
        <time>2010-01-01T02:54:27Z</time>
      </trkpt>
      <trkpt lat="37.06306800" lon="-7.74417900">
        <ele>6.0000000</ele>
        <time>2010-01-01T02:54:30Z</time>
      </trkpt>
      <trkpt lat="37.06313500" lon="-7.74430400">
        <ele>6.0000000</ele>
        <time>2010-01-01T02:54:33Z</time>
      </trkpt>
      <trkpt lat="37.06331200" lon="-7.74460300">
        <ele>6.0000000</ele>
        <time>2010-01-01T02:54:41Z</time>
      </trkpt>
      <trkpt lat="37.06329000" lon="-7.74474900">
        <ele>5.0000000</ele>
        <time>2010-01-01T02:54:45Z</time>
      </trkpt>
      <trkpt lat="37.06324000" lon="-7.74486700">
        <ele>4.0000000</ele>
        <time>2010-01-01T02:54:47Z</time>
      </trkpt>
      <trkpt lat="37.06315700" lon="-7.74511000">
        <ele>3.0000000</ele>
        <time>2010-01-01T02:54:53Z</time>
      </trkpt>
      <trkpt lat="37.06311200" lon="-7.74530500">
        <ele>2.0000000</ele>
        <time>2010-01-01T02:54:57Z</time>
      </trkpt>
      <trkpt lat="37.06312400" lon="-7.74626400">
        <ele>6.0000000</ele>
        <time>2010-01-01T02:55:18Z</time>
      </trkpt>
      <trkpt lat="37.06314600" lon="-7.74794600">
        <ele>2.0000000</ele>
        <time>2010-01-01T02:55:54Z</time>
      </trkpt>
      <trkpt lat="37.06310100" lon="-7.75023300">
        <ele>4.0000000</ele>
        <time>2010-01-01T02:56:42Z</time>
      </trkpt>
      <trkpt lat="37.06307900" lon="-7.75194300">
        <ele>4.0000000</ele>
        <time>2010-01-01T02:57:19Z</time>
      </trkpt>
      <trkpt lat="37.06305700" lon="-7.75245700">
        <ele>4.0000000</ele>
        <time>2010-01-01T02:57:30Z</time>
      </trkpt>
      <trkpt lat="37.06309000" lon="-7.75256800">
        <ele>5.0000000</ele>
        <time>2010-01-01T02:57:32Z</time>
      </trkpt>
      <trkpt lat="37.06313500" lon="-7.75283900">
        <ele>6.0000000</ele>
        <time>2010-01-01T02:57:38Z</time>
      </trkpt>
      <trkpt lat="37.06278500" lon="-7.75280500">
        <ele>5.0000000</ele>
        <time>2010-01-01T02:57:48Z</time>
      </trkpt>
      <trkpt lat="37.06253600" lon="-7.75278400">
        <ele>4.0000000</ele>
        <time>2010-01-01T02:57:54Z</time>
      </trkpt>
      <trkpt lat="37.06224700" lon="-7.75274200">
        <ele>4.0000000</ele>
        <time>2010-01-01T02:58:02Z</time>
      </trkpt>
      <trkpt lat="37.06185300" lon="-7.75270700">
        <ele>4.0000000</ele>
        <time>2010-01-01T02:58:12Z</time>
      </trkpt>
      <trkpt lat="37.06101600" lon="-7.75251300">
        <ele>6.0000000</ele>
        <time>2010-01-01T02:58:35Z</time>
      </trkpt>
      <trkpt lat="37.06088300" lon="-7.75250600">
        <ele>6.0000000</ele>
        <time>2010-01-01T02:58:39Z</time>
      </trkpt>
      <trkpt lat="37.06072700" lon="-7.75237400">
        <ele>7.0000000</ele>
        <time>2010-01-01T02:58:44Z</time>
      </trkpt>
      <trkpt lat="37.06065000" lon="-7.75224200">
        <ele>8.0000000</ele>
        <time>2010-01-01T02:58:47Z</time>
      </trkpt>
      <trkpt lat="37.06033900" lon="-7.75163000">
        <ele>7.0000000</ele>
        <time>2010-01-01T02:59:03Z</time>
      </trkpt>
      <trkpt lat="37.06012800" lon="-7.75131700">
        <ele>7.0000000</ele>
        <time>2010-01-01T02:59:11Z</time>
      </trkpt>
      <trkpt lat="37.05987900" lon="-7.75081000">
        <ele>9.0000000</ele>
        <time>2010-01-01T02:59:24Z</time>
      </trkpt>
      <trkpt lat="37.05971800" lon="-7.75046900">
        <ele>8.0000000</ele>
        <time>2010-01-01T02:59:33Z</time>
      </trkpt>
      <trkpt lat="37.05962900" lon="-7.75028200">
        <ele>8.0000000</ele>
        <time>2010-01-01T02:59:37Z</time>
      </trkpt>
      <trkpt lat="37.05947900" lon="-7.75008700">
        <ele>8.0000000</ele>
        <time>2010-01-01T02:59:43Z</time>
      </trkpt>
      <trkpt lat="37.05939100" lon="-7.74996200">
        <ele>9.0000000</ele>
        <time>2010-01-01T02:59:46Z</time>
      </trkpt>
      <trkpt lat="37.05930200" lon="-7.74987100">
        <ele>9.0000000</ele>
        <time>2010-01-01T02:59:50Z</time>
      </trkpt>
      <trkpt lat="37.05912400" lon="-7.74973200">
        <ele>10.000000</ele>
        <time>2010-01-01T02:59:55Z</time>
      </trkpt>
      <trkpt lat="37.05892500" lon="-7.74958000">
        <ele>11.000000</ele>
        <time>2010-01-01T03:00:01Z</time>
      </trkpt>
      <trkpt lat="37.05867500" lon="-7.74941300">
        <ele>12.000000</ele>
        <time>2010-01-01T03:00:09Z</time>
      </trkpt>
      <trkpt lat="37.05832000" lon="-7.74912100">
        <ele>10.000000</ele>
        <time>2010-01-01T03:00:20Z</time>
      </trkpt>
      <trkpt lat="37.05828100" lon="-7.74903700">
        <ele>9.0000000</ele>
        <time>2010-01-01T03:00:22Z</time>
      </trkpt>
      <trkpt lat="37.05815700" lon="-7.74887100">
        <ele>7.0000000</ele>
        <time>2010-01-01T03:00:27Z</time>
      </trkpt>
      <trkpt lat="37.05807000" lon="-7.74872300">
        <ele>7.0000000</ele>
        <time>2010-01-01T03:00:31Z</time>
      </trkpt>
      <trkpt lat="37.05810900" lon="-7.74846700">
        <ele>6.0000000</ele>
        <time>2010-01-01T03:00:37Z</time>
      </trkpt>
      <trkpt lat="37.05802600" lon="-7.74824500">
        <ele>6.0000000</ele>
        <time>2010-01-01T03:00:42Z</time>
      </trkpt>
      <trkpt lat="37.05794300" lon="-7.74805700">
        <ele>6.0000000</ele>
        <time>2010-01-01T03:00:46Z</time>
      </trkpt>
      <trkpt lat="37.05771500" lon="-7.74774400">
        <ele>7.0000000</ele>
        <time>2010-01-01T03:00:55Z</time>
      </trkpt>
      <trkpt lat="37.05728800" lon="-7.74707700">
        <ele>7.0000000</ele>
        <time>2010-01-01T03:01:14Z</time>
      </trkpt>
      <trkpt lat="37.05701700" lon="-7.74670200">
        <ele>7.0000000</ele>
        <time>2010-01-01T03:01:24Z</time>
      </trkpt>
      <trkpt lat="37.05698900" lon="-7.74660500">
        <ele>7.0000000</ele>
        <time>2010-01-01T03:01:27Z</time>
      </trkpt>
      <trkpt lat="37.05694400" lon="-7.74648600">
        <ele>7.0000000</ele>
        <time>2010-01-01T03:01:29Z</time>
      </trkpt>
      <trkpt lat="37.05685000" lon="-7.74616000">
        <ele>7.0000000</ele>
        <time>2010-01-01T03:01:37Z</time>
      </trkpt>
      <trkpt lat="37.05681100" lon="-7.74583300">
        <ele>7.0000000</ele>
        <time>2010-01-01T03:01:44Z</time>
      </trkpt>
      <trkpt lat="37.05671700" lon="-7.74552000">
        <ele>7.0000000</ele>
        <time>2010-01-01T03:01:51Z</time>
      </trkpt>
      <trkpt lat="37.05658900" lon="-7.74524200">
        <ele>7.0000000</ele>
        <time>2010-01-01T03:01:58Z</time>
      </trkpt>
      <trkpt lat="37.05639000" lon="-7.74507500">
        <ele>7.0000000</ele>
        <time>2010-01-01T03:02:04Z</time>
      </trkpt>
      <trkpt lat="37.05505800" lon="-7.74447100">
        <ele>7.0000000</ele>
        <time>2010-01-01T03:02:42Z</time>
      </trkpt>
      <trkpt lat="37.05495300" lon="-7.74441500">
        <ele>7.0000000</ele>
        <time>2010-01-01T03:02:45Z</time>
      </trkpt>
      <trkpt lat="37.05485900" lon="-7.74435200">
        <ele>7.0000000</ele>
        <time>2010-01-01T03:02:48Z</time>
      </trkpt>
      <trkpt lat="37.05478700" lon="-7.74439400">
        <ele>7.0000000</ele>
        <time>2010-01-01T03:02:50Z</time>
      </trkpt>
      <trkpt lat="37.05479200" lon="-7.74449800">
        <ele>8.0000000</ele>
        <time>2010-01-01T03:02:52Z</time>
      </trkpt>
      <trkpt lat="37.05475900" lon="-7.74461700">
        <ele>8.0000000</ele>
        <time>2010-01-01T03:02:55Z</time>
      </trkpt>
      <trkpt lat="37.05412100" lon="-7.74518000">
        <ele>10.000000</ele>
        <time>2010-01-01T03:03:16Z</time>
      </trkpt>
      <trkpt lat="37.05381600" lon="-7.74543000">
        <ele>9.0000000</ele>
        <time>2010-01-01T03:03:25Z</time>
      </trkpt>
      <trkpt lat="37.05356600" lon="-7.74566600">
        <ele>8.0000000</ele>
        <time>2010-01-01T03:03:34Z</time>
      </trkpt>
      <trkpt lat="37.05340000" lon="-7.74583300">
        <ele>8.0000000</ele>
        <time>2010-01-01T03:03:40Z</time>
      </trkpt>
      <trkpt lat="37.05317800" lon="-7.74627800">
        <ele>7.0000000</ele>
        <time>2010-01-01T03:03:51Z</time>
      </trkpt>
      <trkpt lat="37.05275600" lon="-7.74710500">
        <ele>7.0000000</ele>
        <time>2010-01-01T03:04:12Z</time>
      </trkpt>
      <trkpt lat="37.05265100" lon="-7.74734100">
        <ele>7.0000000</ele>
        <time>2010-01-01T03:04:17Z</time>
      </trkpt>
      <trkpt lat="37.05271200" lon="-7.74749400">
        <ele>7.0000000</ele>
        <time>2010-01-01T03:04:21Z</time>
      </trkpt>
      <trkpt lat="37.05283900" lon="-7.74757800">
        <ele>8.0000000</ele>
        <time>2010-01-01T03:04:25Z</time>
      </trkpt>
      <trkpt lat="37.05333900" lon="-7.74802900">
        <ele>13.000000</ele>
        <time>2010-01-01T03:04:41Z</time>
      </trkpt>
      <trkpt lat="37.05194600" lon="-7.75019100">
        <ele>11.000000</ele>
        <time>2010-01-01T03:05:40Z</time>
      </trkpt>
      <trkpt lat="37.05144100" lon="-7.75092100">
        <ele>11.000000</ele>
        <time>2010-01-01T03:06:01Z</time>
      </trkpt>
      <trkpt lat="37.05124700" lon="-7.75122700">
        <ele>10.000000</ele>
        <time>2010-01-01T03:06:09Z</time>
      </trkpt>
      <trkpt lat="37.05119200" lon="-7.75144200">
        <ele>10.000000</ele>
        <time>2010-01-01T03:06:14Z</time>
      </trkpt>
      <trkpt lat="37.05095900" lon="-7.75194300">
        <ele>8.0000000</ele>
        <time>2010-01-01T03:06:27Z</time>
      </trkpt>
      <trkpt lat="37.05088700" lon="-7.75223500">
        <ele>9.0000000</ele>
        <time>2010-01-01T03:06:33Z</time>
      </trkpt>
      <trkpt lat="37.05077600" lon="-7.75256800">
        <ele>8.0000000</ele>
        <time>2010-01-01T03:06:41Z</time>
      </trkpt>
      <trkpt lat="37.05069800" lon="-7.75280500">
        <ele>7.0000000</ele>
        <time>2010-01-01T03:06:46Z</time>
      </trkpt>
      <trkpt lat="37.05051000" lon="-7.75297200">
        <ele>5.0000000</ele>
        <time>2010-01-01T03:06:52Z</time>
      </trkpt>
      <trkpt lat="37.05041000" lon="-7.75308300">
        <ele>5.0000000</ele>
        <time>2010-01-01T03:06:56Z</time>
      </trkpt>
      <trkpt lat="37.05036000" lon="-7.75319400">
        <ele>5.0000000</ele>
        <time>2010-01-01T03:06:59Z</time>
      </trkpt>
      <trkpt lat="37.05031500" lon="-7.75322900">
        <ele>5.0000000</ele>
        <time>2010-01-01T03:07:00Z</time>
      </trkpt>
      <trkpt lat="37.05023800" lon="-7.75340900">
        <ele>5.0000000</ele>
        <time>2010-01-01T03:07:04Z</time>
      </trkpt>
      <trkpt lat="37.05017100" lon="-7.75369400">
        <ele>6.0000000</ele>
        <time>2010-01-01T03:07:11Z</time>
      </trkpt>
      <trkpt lat="37.05008800" lon="-7.75384000">
        <ele>7.0000000</ele>
        <time>2010-01-01T03:07:15Z</time>
      </trkpt>
      <trkpt lat="37.05003800" lon="-7.75402100">
        <ele>7.0000000</ele>
        <time>2010-01-01T03:07:19Z</time>
      </trkpt>
      <trkpt lat="37.04998800" lon="-7.75415300">
        <ele>7.0000000</ele>
        <time>2010-01-01T03:07:22Z</time>
      </trkpt>
      <trkpt lat="37.04995500" lon="-7.75421600">
        <ele>7.0000000</ele>
        <time>2010-01-01T03:07:23Z</time>
      </trkpt>
      <trkpt lat="37.04987200" lon="-7.75422300">
        <ele>7.0000000</ele>
        <time>2010-01-01T03:07:26Z</time>
      </trkpt>
      <trkpt lat="37.04982700" lon="-7.75422300">
        <ele>7.0000000</ele>
        <time>2010-01-01T03:07:27Z</time>
      </trkpt>
      <trkpt lat="37.04976100" lon="-7.75424400">
        <ele>7.0000000</ele>
        <time>2010-01-01T03:07:29Z</time>
      </trkpt>
      <trkpt lat="37.04972200" lon="-7.75431300">
        <ele>6.0000000</ele>
        <time>2010-01-01T03:07:30Z</time>
      </trkpt>
      <trkpt lat="37.04970000" lon="-7.75444500">
        <ele>6.0000000</ele>
        <time>2010-01-01T03:07:33Z</time>
      </trkpt>
      <trkpt lat="37.04974400" lon="-7.75473700">
        <ele>7.0000000</ele>
        <time>2010-01-01T03:07:40Z</time>
      </trkpt>
      <trkpt lat="37.04979400" lon="-7.75501500">
        <ele>7.0000000</ele>
        <time>2010-01-01T03:07:46Z</time>
      </trkpt>
      <trkpt lat="37.04975500" lon="-7.75519600">
        <ele>7.0000000</ele>
        <time>2010-01-01T03:07:50Z</time>
      </trkpt>
      <trkpt lat="37.04971600" lon="-7.75537000">
        <ele>7.0000000</ele>
        <time>2010-01-01T03:07:53Z</time>
      </trkpt>
      <trkpt lat="37.04961600" lon="-7.75539700">
        <ele>6.0000000</ele>
        <time>2010-01-01T03:07:56Z</time>
      </trkpt>
      <trkpt lat="37.04942200" lon="-7.75541800">
        <ele>4.0000000</ele>
        <time>2010-01-01T03:08:01Z</time>
      </trkpt>
      <trkpt lat="37.04936700" lon="-7.75543200">
        <ele>3.0000000</ele>
        <time>2010-01-01T03:08:03Z</time>
      </trkpt>
      <trkpt lat="37.04931100" lon="-7.75566900">
        <ele>3.0000000</ele>
        <time>2010-01-01T03:08:08Z</time>
      </trkpt>
      <trkpt lat="37.04913900" lon="-7.75605800">
        <ele>3.0000000</ele>
        <time>2010-01-01T03:08:18Z</time>
      </trkpt>
      <trkpt lat="37.04884500" lon="-7.75657900">
        <ele>4.0000000</ele>
        <time>2010-01-01T03:08:31Z</time>
      </trkpt>
      <trkpt lat="37.04862300" lon="-7.75704500">
        <ele>3.0000000</ele>
        <time>2010-01-01T03:08:43Z</time>
      </trkpt>
      <trkpt lat="37.04850100" lon="-7.75727400">
        <ele>4.0000000</ele>
        <time>2010-01-01T03:08:49Z</time>
      </trkpt>
      <trkpt lat="37.04836800" lon="-7.75753100">
        <ele>2.0000000</ele>
        <time>2010-01-01T03:08:55Z</time>
      </trkpt>
      <trkpt lat="37.04808500" lon="-7.75806000">
        <ele>4.0000000</ele>
        <time>2010-01-01T03:09:09Z</time>
      </trkpt>
      <trkpt lat="37.04803500" lon="-7.75819200">
        <ele>3.0000000</ele>
        <time>2010-01-01T03:09:12Z</time>
      </trkpt>
      <trkpt lat="37.04795200" lon="-7.75833800">
        <ele>4.0000000</ele>
        <time>2010-01-01T03:09:16Z</time>
      </trkpt>
      <trkpt lat="37.04783600" lon="-7.75845600">
        <ele>4.0000000</ele>
        <time>2010-01-01T03:09:20Z</time>
      </trkpt>
      <trkpt lat="37.04753600" lon="-7.75866400">
        <ele>5.0000000</ele>
        <time>2010-01-01T03:09:29Z</time>
      </trkpt>
      <trkpt lat="37.04702000" lon="-7.75906100">
        <ele>3.0000000</ele>
        <time>2010-01-01T03:09:45Z</time>
      </trkpt>
      <trkpt lat="37.04660400" lon="-7.75933900">
        <ele>2.0000000</ele>
        <time>2010-01-01T03:09:58Z</time>
      </trkpt>
      <trkpt lat="37.04628800" lon="-7.76001300">
        <ele>4.0000000</ele>
        <time>2010-01-01T03:10:14Z</time>
      </trkpt>
      <trkpt lat="37.04629900" lon="-7.76008200">
        <ele>4.0000000</ele>
        <time>2010-01-01T03:10:16Z</time>
      </trkpt>
      <trkpt lat="37.04634300" lon="-7.76045100">
        <ele>4.0000000</ele>
        <time>2010-01-01T03:10:24Z</time>
      </trkpt>
      <trkpt lat="37.04638800" lon="-7.76081200">
        <ele>5.0000000</ele>
        <time>2010-01-01T03:10:31Z</time>
      </trkpt>
      <trkpt lat="37.04643200" lon="-7.76118100">
        <ele>7.0000000</ele>
        <time>2010-01-01T03:10:39Z</time>
      </trkpt>
      <trkpt lat="37.04649900" lon="-7.76188300">
        <ele>5.0000000</ele>
        <time>2010-01-01T03:10:54Z</time>
      </trkpt>
      <trkpt lat="37.04654800" lon="-7.76214000">
        <ele>4.0000000</ele>
        <time>2010-01-01T03:11:00Z</time>
      </trkpt>
      <trkpt lat="37.04657100" lon="-7.76225800">
        <ele>4.0000000</ele>
        <time>2010-01-01T03:11:03Z</time>
      </trkpt>
      <trkpt lat="37.04653200" lon="-7.76241800">
        <ele>4.0000000</ele>
        <time>2010-01-01T03:11:06Z</time>
      </trkpt>
      <trkpt lat="37.04638200" lon="-7.76242500">
        <ele>4.0000000</ele>
        <time>2010-01-01T03:11:10Z</time>
      </trkpt>
      <trkpt lat="37.04637100" lon="-7.76257800">
        <ele>4.0000000</ele>
        <time>2010-01-01T03:11:13Z</time>
      </trkpt>
      <trkpt lat="37.04632100" lon="-7.76307800">
        <ele>4.0000000</ele>
        <time>2010-01-01T03:11:24Z</time>
      </trkpt>
      <trkpt lat="37.04624900" lon="-7.76343300">
        <ele>4.0000000</ele>
        <time>2010-01-01T03:11:32Z</time>
      </trkpt>
      <trkpt lat="37.04621600" lon="-7.76399600">
        <ele>5.0000000</ele>
        <time>2010-01-01T03:11:44Z</time>
      </trkpt>
      <trkpt lat="37.04612700" lon="-7.76487100">
        <ele>4.0000000</ele>
        <time>2010-01-01T03:12:03Z</time>
      </trkpt>
      <trkpt lat="37.04609900" lon="-7.76533000">
        <ele>5.0000000</ele>
        <time>2010-01-01T03:12:13Z</time>
      </trkpt>
      <trkpt lat="37.04608200" lon="-7.76566400">
        <ele>6.0000000</ele>
        <time>2010-01-01T03:12:20Z</time>
      </trkpt>
      <trkpt lat="37.04604900" lon="-7.76589300">
        <ele>7.0000000</ele>
        <time>2010-01-01T03:12:25Z</time>
      </trkpt>
      <trkpt lat="37.04592700" lon="-7.76624100">
        <ele>8.0000000</ele>
        <time>2010-01-01T03:12:33Z</time>
      </trkpt>
      <trkpt lat="37.04583800" lon="-7.76659500">
        <ele>9.0000000</ele>
        <time>2010-01-01T03:12:41Z</time>
      </trkpt>
      <trkpt lat="37.04572700" lon="-7.76703300">
        <ele>6.0000000</ele>
        <time>2010-01-01T03:12:51Z</time>
      </trkpt>
      <trkpt lat="37.04562200" lon="-7.76738800">
        <ele>4.0000000</ele>
        <time>2010-01-01T03:12:59Z</time>
      </trkpt>
      <trkpt lat="37.04551100" lon="-7.76772100">
        <ele>4.0000000</ele>
        <time>2010-01-01T03:13:06Z</time>
      </trkpt>
      <trkpt lat="37.04543300" lon="-7.76794400">
        <ele>5.0000000</ele>
        <time>2010-01-01T03:13:11Z</time>
      </trkpt>
      <trkpt lat="37.04522800" lon="-7.76847200">
        <ele>5.0000000</ele>
        <time>2010-01-01T03:13:24Z</time>
      </trkpt>
      <trkpt lat="37.04514500" lon="-7.76868100">
        <ele>5.0000000</ele>
        <time>2010-01-01T03:13:29Z</time>
      </trkpt>
      <trkpt lat="37.04507800" lon="-7.76882700">
        <ele>4.0000000</ele>
        <time>2010-01-01T03:13:33Z</time>
      </trkpt>
      <trkpt lat="37.04502800" lon="-7.76903500">
        <ele>3.0000000</ele>
        <time>2010-01-01T03:13:37Z</time>
      </trkpt>
      <trkpt lat="37.04494000" lon="-7.76927800">
        <ele>3.0000000</ele>
        <time>2010-01-01T03:13:43Z</time>
      </trkpt>
      <trkpt lat="37.04483400" lon="-7.76948000">
        <ele>3.0000000</ele>
        <time>2010-01-01T03:13:48Z</time>
      </trkpt>
      <trkpt lat="37.04475600" lon="-7.76958400">
        <ele>3.0000000</ele>
        <time>2010-01-01T03:13:51Z</time>
      </trkpt>
      <trkpt lat="37.04467300" lon="-7.76968800">
        <ele>4.0000000</ele>
        <time>2010-01-01T03:13:54Z</time>
      </trkpt>
      <trkpt lat="37.04446800" lon="-7.77000800">
        <ele>6.0000000</ele>
        <time>2010-01-01T03:14:03Z</time>
      </trkpt>
      <trkpt lat="37.04440700" lon="-7.77007100">
        <ele>6.0000000</ele>
        <time>2010-01-01T03:14:05Z</time>
      </trkpt>
      <trkpt lat="37.04434000" lon="-7.77030700">
        <ele>6.0000000</ele>
        <time>2010-01-01T03:14:10Z</time>
      </trkpt>
      <trkpt lat="37.04422900" lon="-7.77062700">
        <ele>6.0000000</ele>
        <time>2010-01-01T03:14:18Z</time>
      </trkpt>
      <trkpt lat="37.04413000" lon="-7.77087700">
        <ele>5.0000000</ele>
        <time>2010-01-01T03:14:24Z</time>
      </trkpt>
      <trkpt lat="37.04404100" lon="-7.77124500">
        <ele>5.0000000</ele>
        <time>2010-01-01T03:14:32Z</time>
      </trkpt>
      <trkpt lat="37.04389700" lon="-7.77154400">
        <ele>5.0000000</ele>
        <time>2010-01-01T03:14:39Z</time>
      </trkpt>
      <trkpt lat="37.04368000" lon="-7.77192700">
        <ele>6.0000000</ele>
        <time>2010-01-01T03:14:49Z</time>
      </trkpt>
      <trkpt lat="37.04360300" lon="-7.77221900">
        <ele>6.0000000</ele>
        <time>2010-01-01T03:14:56Z</time>
      </trkpt>
      <trkpt lat="37.04361900" lon="-7.77229500">
        <ele>6.0000000</ele>
        <time>2010-01-01T03:14:58Z</time>
      </trkpt>
      <trkpt lat="37.04366900" lon="-7.77241300">
        <ele>6.0000000</ele>
        <time>2010-01-01T03:15:00Z</time>
      </trkpt>
      <trkpt lat="37.04368000" lon="-7.77252400">
        <ele>6.0000000</ele>
        <time>2010-01-01T03:15:03Z</time>
      </trkpt>
      <trkpt lat="37.04363000" lon="-7.77288600">
        <ele>5.0000000</ele>
        <time>2010-01-01T03:15:11Z</time>
      </trkpt>
      <trkpt lat="37.04339200" lon="-7.77361600">
        <ele>5.0000000</ele>
        <time>2010-01-01T03:15:27Z</time>
      </trkpt>
      <trkpt lat="37.04318100" lon="-7.77455400">
        <ele>3.0000000</ele>
        <time>2010-01-01T03:15:48Z</time>
      </trkpt>
      <trkpt lat="37.04295300" lon="-7.77531200">
        <ele>3.0000000</ele>
        <time>2010-01-01T03:16:05Z</time>
      </trkpt>
      <trkpt lat="37.04270400" lon="-7.77622200">
        <ele>4.0000000</ele>
        <time>2010-01-01T03:16:26Z</time>
      </trkpt>
      <trkpt lat="37.04260900" lon="-7.77661900">
        <ele>4.0000000</ele>
        <time>2010-01-01T03:16:35Z</time>
      </trkpt>
      <trkpt lat="37.04253700" lon="-7.77667400">
        <ele>5.0000000</ele>
        <time>2010-01-01T03:16:37Z</time>
      </trkpt>
      <trkpt lat="37.04246000" lon="-7.77663900">
        <ele>4.0000000</ele>
        <time>2010-01-01T03:16:39Z</time>
      </trkpt>
      <trkpt lat="37.04150000" lon="-7.77580500">
        <ele>5.0000000</ele>
        <time>2010-01-01T03:17:10Z</time>
      </trkpt>
      <trkpt lat="37.04137800" lon="-7.77570100">
        <ele>5.0000000</ele>
        <time>2010-01-01T03:17:14Z</time>
      </trkpt>
      <trkpt lat="37.04129400" lon="-7.77561800">
        <ele>5.0000000</ele>
        <time>2010-01-01T03:17:17Z</time>
      </trkpt>
      <trkpt lat="37.04118400" lon="-7.77560400">
        <ele>5.0000000</ele>
        <time>2010-01-01T03:17:20Z</time>
      </trkpt>
      <trkpt lat="37.04107300" lon="-7.77568700">
        <ele>4.0000000</ele>
        <time>2010-01-01T03:17:24Z</time>
      </trkpt>
      <trkpt lat="37.04101200" lon="-7.77579100">
        <ele>4.0000000</ele>
        <time>2010-01-01T03:17:26Z</time>
      </trkpt>
      <trkpt lat="37.04090600" lon="-7.77606900">
        <ele>3.0000000</ele>
        <time>2010-01-01T03:17:33Z</time>
      </trkpt>
      <trkpt lat="37.04069500" lon="-7.77667400">
        <ele>1.0000000</ele>
        <time>2010-01-01T03:17:47Z</time>
      </trkpt>
      <trkpt lat="37.04055700" lon="-7.77701500">
        <ele>3.0000000</ele>
        <time>2010-01-01T03:17:55Z</time>
      </trkpt>
      <trkpt lat="37.04034000" lon="-7.77762600">
        <ele>5.0000000</ele>
        <time>2010-01-01T03:18:09Z</time>
      </trkpt>
      <trkpt lat="37.04001800" lon="-7.77852300">
        <ele>3.0000000</ele>
        <time>2010-01-01T03:18:30Z</time>
      </trkpt>
      <trkpt lat="37.03972400" lon="-7.77933600">
        <ele>6.0000000</ele>
        <time>2010-01-01T03:18:49Z</time>
      </trkpt>
      <trkpt lat="37.03957500" lon="-7.77983700">
        <ele>6.0000000</ele>
        <time>2010-01-01T03:19:01Z</time>
      </trkpt>
      <trkpt lat="37.03940300" lon="-7.78033700">
        <ele>5.0000000</ele>
        <time>2010-01-01T03:19:12Z</time>
      </trkpt>
      <trkpt lat="37.03930300" lon="-7.78074700">
        <ele>4.0000000</ele>
        <time>2010-01-01T03:19:21Z</time>
      </trkpt>
      <trkpt lat="37.03920800" lon="-7.78108100">
        <ele>4.0000000</ele>
        <time>2010-01-01T03:19:29Z</time>
      </trkpt>
      <trkpt lat="37.03921400" lon="-7.78122000">
        <ele>4.0000000</ele>
        <time>2010-01-01T03:19:32Z</time>
      </trkpt>
      <trkpt lat="37.03920800" lon="-7.78140100">
        <ele>5.0000000</ele>
        <time>2010-01-01T03:19:36Z</time>
      </trkpt>
      <trkpt lat="37.03916400" lon="-7.78157500">
        <ele>6.0000000</ele>
        <time>2010-01-01T03:19:40Z</time>
      </trkpt>
      <trkpt lat="37.03906400" lon="-7.78192900">
        <ele>7.0000000</ele>
        <time>2010-01-01T03:19:48Z</time>
      </trkpt>
      <trkpt lat="37.03889800" lon="-7.78229000">
        <ele>7.0000000</ele>
        <time>2010-01-01T03:19:57Z</time>
      </trkpt>
      <trkpt lat="37.03890300" lon="-7.78238800">
        <ele>7.0000000</ele>
        <time>2010-01-01T03:19:59Z</time>
      </trkpt>
      <trkpt lat="37.03897500" lon="-7.78246400">
        <ele>7.0000000</ele>
        <time>2010-01-01T03:20:01Z</time>
      </trkpt>
      <trkpt lat="37.03910800" lon="-7.78247100">
        <ele>7.0000000</ele>
        <time>2010-01-01T03:20:05Z</time>
      </trkpt>
      <trkpt lat="37.03930300" lon="-7.78247800">
        <ele>7.0000000</ele>
        <time>2010-01-01T03:20:10Z</time>
      </trkpt>
      <trkpt lat="37.03943600" lon="-7.78247800">
        <ele>7.0000000</ele>
        <time>2010-01-01T03:20:13Z</time>
      </trkpt>
      <trkpt lat="37.03960200" lon="-7.78245000">
        <ele>5.0000000</ele>
        <time>2010-01-01T03:20:18Z</time>
      </trkpt>
      <trkpt lat="37.03984100" lon="-7.78243600">
        <ele>3.0000000</ele>
        <time>2010-01-01T03:20:24Z</time>
      </trkpt>
      <trkpt lat="37.03998000" lon="-7.78237400">
        <ele>2.0000000</ele>
        <time>2010-01-01T03:20:28Z</time>
      </trkpt>
      <trkpt lat="37.04009600" lon="-7.78230400">
        <ele>2.0000000</ele>
        <time>2010-01-01T03:20:32Z</time>
      </trkpt>
      <trkpt lat="37.04020100" lon="-7.78214400">
        <ele>2.0000000</ele>
        <time>2010-01-01T03:20:36Z</time>
      </trkpt>
      <trkpt lat="37.04034600" lon="-7.78205400">
        <ele>2.0000000</ele>
        <time>2010-01-01T03:20:40Z</time>
      </trkpt>
      <trkpt lat="37.04039600" lon="-7.78199200">
        <ele>2.0000000</ele>
        <time>2010-01-01T03:20:42Z</time>
      </trkpt>
      <trkpt lat="37.04054000" lon="-7.78199900">
        <ele>3.0000000</ele>
        <time>2010-01-01T03:20:46Z</time>
      </trkpt>
      <trkpt lat="37.04068400" lon="-7.78206800">
        <ele>4.0000000</ele>
        <time>2010-01-01T03:20:50Z</time>
      </trkpt>
      <trkpt lat="37.04076200" lon="-7.78213100">
        <ele>4.0000000</ele>
        <time>2010-01-01T03:20:53Z</time>
      </trkpt>
      <trkpt lat="37.04078400" lon="-7.78220700">
        <ele>4.0000000</ele>
        <time>2010-01-01T03:20:54Z</time>
      </trkpt>
      <trkpt lat="37.04085600" lon="-7.78227000">
        <ele>5.0000000</ele>
        <time>2010-01-01T03:20:57Z</time>
      </trkpt>
      <trkpt lat="37.04114500" lon="-7.78253400">
        <ele>6.0000000</ele>
        <time>2010-01-01T03:21:06Z</time>
      </trkpt>
      <trkpt lat="37.04110000" lon="-7.78265200">
        <ele>7.0000000</ele>
        <time>2010-01-01T03:21:09Z</time>
      </trkpt>
      <trkpt lat="37.04106100" lon="-7.78278400">
        <ele>8.0000000</ele>
        <time>2010-01-01T03:21:12Z</time>
      </trkpt>
      <trkpt lat="37.04101700" lon="-7.78295100">
        <ele>8.0000000</ele>
        <time>2010-01-01T03:21:16Z</time>
      </trkpt>
      <trkpt lat="37.04102300" lon="-7.78304800">
        <ele>8.0000000</ele>
        <time>2010-01-01T03:21:18Z</time>
      </trkpt>
      <trkpt lat="37.04105000" lon="-7.78312500">
        <ele>9.0000000</ele>
        <time>2010-01-01T03:21:20Z</time>
      </trkpt>
      <trkpt lat="37.04110600" lon="-7.78333300">
        <ele>9.0000000</ele>
        <time>2010-01-01T03:21:24Z</time>
      </trkpt>
      <trkpt lat="37.04120600" lon="-7.78363900">
        <ele>11.000000</ele>
        <time>2010-01-01T03:21:31Z</time>
      </trkpt>
      <trkpt lat="37.04130600" lon="-7.78390300">
        <ele>13.000000</ele>
        <time>2010-01-01T03:21:38Z</time>
      </trkpt>
      <trkpt lat="37.04146100" lon="-7.78417400">
        <ele>15.000000</ele>
        <time>2010-01-01T03:21:45Z</time>
      </trkpt>
      <trkpt lat="37.04167700" lon="-7.78457700">
        <ele>17.000000</ele>
        <time>2010-01-01T03:21:55Z</time>
      </trkpt>
      <trkpt lat="37.04182700" lon="-7.78486200">
        <ele>17.000000</ele>
        <time>2010-01-01T03:22:02Z</time>
      </trkpt>
      <trkpt lat="37.04198800" lon="-7.78515400">
        <ele>19.000000</ele>
        <time>2010-01-01T03:22:10Z</time>
      </trkpt>
      <trkpt lat="37.04227100" lon="-7.78568900">
        <ele>23.000000</ele>
        <time>2010-01-01T03:22:24Z</time>
      </trkpt>
      <trkpt lat="37.04268700" lon="-7.78648200">
        <ele>25.000000</ele>
        <time>2010-01-01T03:22:44Z</time>
      </trkpt>
      <trkpt lat="37.04294800" lon="-7.78699600">
        <ele>25.000000</ele>
        <time>2010-01-01T03:22:57Z</time>
      </trkpt>
      <trkpt lat="37.04319200" lon="-7.78746200">
        <ele>26.000000</ele>
        <time>2010-01-01T03:23:09Z</time>
      </trkpt>
      <trkpt lat="37.04312500" lon="-7.78746200">
        <ele>26.000000</ele>
        <time>2010-01-01T03:23:10Z</time>
      </trkpt>
      <trkpt lat="37.04295900" lon="-7.78747600">
        <ele>25.000000</ele>
        <time>2010-01-01T03:23:15Z</time>
      </trkpt>
      <trkpt lat="37.04279200" lon="-7.78752400">
        <ele>24.000000</ele>
        <time>2010-01-01T03:23:19Z</time>
      </trkpt>
      <trkpt lat="37.04259800" lon="-7.78761500">
        <ele>23.000000</ele>
        <time>2010-01-01T03:23:25Z</time>
      </trkpt>
      <trkpt lat="37.04246500" lon="-7.78776800">
        <ele>22.000000</ele>
        <time>2010-01-01T03:23:30Z</time>
      </trkpt>
      <trkpt lat="37.04235400" lon="-7.78801800">
        <ele>24.000000</ele>
        <time>2010-01-01T03:23:36Z</time>
      </trkpt>
      <trkpt lat="37.04225400" lon="-7.78834500">
        <ele>26.000000</ele>
        <time>2010-01-01T03:23:43Z</time>
      </trkpt>
      <trkpt lat="37.04217700" lon="-7.78853900">
        <ele>25.000000</ele>
        <time>2010-01-01T03:23:48Z</time>
      </trkpt>
      <trkpt lat="37.04208200" lon="-7.78874100">
        <ele>25.000000</ele>
        <time>2010-01-01T03:23:53Z</time>
      </trkpt>
      <trkpt lat="37.04193800" lon="-7.78888000">
        <ele>24.000000</ele>
        <time>2010-01-01T03:23:58Z</time>
      </trkpt>
      <trkpt lat="37.04182700" lon="-7.78889400">
        <ele>23.000000</ele>
        <time>2010-01-01T03:24:01Z</time>
      </trkpt>
      <trkpt lat="37.04169400" lon="-7.78894200">
        <ele>22.000000</ele>
        <time>2010-01-01T03:24:05Z</time>
      </trkpt>
      <trkpt lat="37.04158300" lon="-7.78907500">
        <ele>22.000000</ele>
        <time>2010-01-01T03:24:09Z</time>
      </trkpt>
      <trkpt lat="37.04130600" lon="-7.78940800">
        <ele>20.000000</ele>
        <time>2010-01-01T03:24:19Z</time>
      </trkpt>
      <trkpt lat="37.04118900" lon="-7.78960300">
        <ele>19.000000</ele>
        <time>2010-01-01T03:24:24Z</time>
      </trkpt>
      <trkpt lat="37.04111100" lon="-7.78979000">
        <ele>18.000000</ele>
        <time>2010-01-01T03:24:29Z</time>
      </trkpt>
      <trkpt lat="37.04098400" lon="-7.79001300">
        <ele>18.000000</ele>
        <time>2010-01-01T03:24:34Z</time>
      </trkpt>
      <trkpt lat="37.04090100" lon="-7.79015200">
        <ele>17.000000</ele>
        <time>2010-01-01T03:24:38Z</time>
      </trkpt>
      <trkpt lat="37.04085100" lon="-7.79048600">
        <ele>15.000000</ele>
        <time>2010-01-01T03:24:45Z</time>
      </trkpt>
      <trkpt lat="37.04085100" lon="-7.79065900">
        <ele>14.000000</ele>
        <time>2010-01-01T03:24:49Z</time>
      </trkpt>
      <trkpt lat="37.04087800" lon="-7.79091000">
        <ele>14.000000</ele>
        <time>2010-01-01T03:24:54Z</time>
      </trkpt>
      <trkpt lat="37.04088900" lon="-7.79113900">
        <ele>14.000000</ele>
        <time>2010-01-01T03:24:59Z</time>
      </trkpt>
      <trkpt lat="37.04091700" lon="-7.79136100">
        <ele>14.000000</ele>
        <time>2010-01-01T03:25:04Z</time>
      </trkpt>
      <trkpt lat="37.04104500" lon="-7.79201500">
        <ele>15.000000</ele>
        <time>2010-01-01T03:25:18Z</time>
      </trkpt>
      <trkpt lat="37.04111700" lon="-7.79201500">
        <ele>16.000000</ele>
        <time>2010-01-01T03:25:20Z</time>
      </trkpt>
      <trkpt lat="37.04123300" lon="-7.79202200">
        <ele>17.000000</ele>
        <time>2010-01-01T03:25:23Z</time>
      </trkpt>
      <trkpt lat="37.04137800" lon="-7.79205000">
        <ele>18.000000</ele>
        <time>2010-01-01T03:25:27Z</time>
      </trkpt>
      <trkpt lat="37.04148900" lon="-7.79211200">
        <ele>18.000000</ele>
        <time>2010-01-01T03:25:31Z</time>
      </trkpt>
      <trkpt lat="37.04152800" lon="-7.79217500">
        <ele>18.000000</ele>
        <time>2010-01-01T03:25:32Z</time>
      </trkpt>
      <trkpt lat="37.04159400" lon="-7.79231400">
        <ele>18.000000</ele>
        <time>2010-01-01T03:25:36Z</time>
      </trkpt>
      <trkpt lat="37.04177700" lon="-7.79245300">
        <ele>18.000000</ele>
        <time>2010-01-01T03:25:41Z</time>
      </trkpt>
      <trkpt lat="37.04194400" lon="-7.79252900">
        <ele>17.000000</ele>
        <time>2010-01-01T03:25:46Z</time>
      </trkpt>
      <trkpt lat="37.04218200" lon="-7.79260600">
        <ele>19.000000</ele>
        <time>2010-01-01T03:25:53Z</time>
      </trkpt>
      <trkpt lat="37.04204900" lon="-7.79272400">
        <ele>18.000000</ele>
        <time>2010-01-01T03:25:57Z</time>
      </trkpt>
      <trkpt lat="37.04173800" lon="-7.79287000">
        <ele>15.000000</ele>
        <time>2010-01-01T03:26:06Z</time>
      </trkpt>
      <trkpt lat="37.04127800" lon="-7.79309900">
        <ele>15.000000</ele>
        <time>2010-01-01T03:26:19Z</time>
      </trkpt>
      <trkpt lat="37.04075600" lon="-7.79339100">
        <ele>15.000000</ele>
        <time>2010-01-01T03:26:34Z</time>
      </trkpt>
      <trkpt lat="37.04010200" lon="-7.79373900">
        <ele>11.000000</ele>
        <time>2010-01-01T03:26:53Z</time>
      </trkpt>
      <trkpt lat="37.03983500" lon="-7.79387100">
        <ele>10.000000</ele>
        <time>2010-01-01T03:27:01Z</time>
      </trkpt>
      <trkpt lat="37.03948000" lon="-7.79421800">
        <ele>9.0000000</ele>
        <time>2010-01-01T03:27:13Z</time>
      </trkpt>
      <trkpt lat="37.03943000" lon="-7.79425300">
        <ele>9.0000000</ele>
        <time>2010-01-01T03:27:15Z</time>
      </trkpt>
      <trkpt lat="37.03928600" lon="-7.79428100">
        <ele>10.000000</ele>
        <time>2010-01-01T03:27:18Z</time>
      </trkpt>
      <trkpt lat="37.03917500" lon="-7.79432200">
        <ele>10.000000</ele>
        <time>2010-01-01T03:27:22Z</time>
      </trkpt>
      <trkpt lat="37.03901400" lon="-7.79439200">
        <ele>10.000000</ele>
        <time>2010-01-01T03:27:26Z</time>
      </trkpt>
      <trkpt lat="37.03906400" lon="-7.79477400">
        <ele>8.0000000</ele>
        <time>2010-01-01T03:27:34Z</time>
      </trkpt>
      <trkpt lat="37.03912500" lon="-7.79503100">
        <ele>7.0000000</ele>
        <time>2010-01-01T03:27:40Z</time>
      </trkpt>
      <trkpt lat="37.03917500" lon="-7.79576100">
        <ele>7.0000000</ele>
        <time>2010-01-01T03:27:56Z</time>
      </trkpt>
      <trkpt lat="37.03919700" lon="-7.79646300">
        <ele>10.000000</ele>
        <time>2010-01-01T03:28:11Z</time>
      </trkpt>
      <trkpt lat="37.03920300" lon="-7.79676200">
        <ele>11.000000</ele>
        <time>2010-01-01T03:28:17Z</time>
      </trkpt>
      <trkpt lat="37.03916400" lon="-7.79695000">
        <ele>11.000000</ele>
        <time>2010-01-01T03:28:21Z</time>
      </trkpt>
      <trkpt lat="37.03910800" lon="-7.79718600">
        <ele>11.000000</ele>
        <time>2010-01-01T03:28:26Z</time>
      </trkpt>
      <trkpt lat="37.03892500" lon="-7.79756200">
        <ele>9.0000000</ele>
        <time>2010-01-01T03:28:36Z</time>
      </trkpt>
      <trkpt lat="37.03888700" lon="-7.79780500">
        <ele>8.0000000</ele>
        <time>2010-01-01T03:28:41Z</time>
      </trkpt>
      <trkpt lat="37.03894800" lon="-7.79797200">
        <ele>8.0000000</ele>
        <time>2010-01-01T03:28:45Z</time>
      </trkpt>
      <trkpt lat="37.03904200" lon="-7.79818700">
        <ele>8.0000000</ele>
        <time>2010-01-01T03:28:50Z</time>
      </trkpt>
      <trkpt lat="37.03915300" lon="-7.79848600">
        <ele>8.0000000</ele>
        <time>2010-01-01T03:28:57Z</time>
      </trkpt>
      <trkpt lat="37.03916900" lon="-7.79867400">
        <ele>8.0000000</ele>
        <time>2010-01-01T03:29:01Z</time>
      </trkpt>
      <trkpt lat="37.03955200" lon="-7.79870800">
        <ele>9.0000000</ele>
        <time>2010-01-01T03:29:11Z</time>
      </trkpt>
      <trkpt lat="37.03978500" lon="-7.79868800">
        <ele>10.000000</ele>
        <time>2010-01-01T03:29:18Z</time>
      </trkpt>
      <trkpt lat="37.04015200" lon="-7.79878500">
        <ele>11.000000</ele>
        <time>2010-01-01T03:29:28Z</time>
      </trkpt>
      <trkpt lat="37.04029600" lon="-7.79884700">
        <ele>12.000000</ele>
        <time>2010-01-01T03:29:32Z</time>
      </trkpt>
      <trkpt lat="37.04052900" lon="-7.79890300">
        <ele>12.000000</ele>
        <time>2010-01-01T03:29:38Z</time>
      </trkpt>
      <trkpt lat="37.04071700" lon="-7.79894500">
        <ele>13.000000</ele>
        <time>2010-01-01T03:29:43Z</time>
      </trkpt>
      <trkpt lat="37.04098400" lon="-7.79896600">
        <ele>14.000000</ele>
        <time>2010-01-01T03:29:50Z</time>
      </trkpt>
      <trkpt lat="37.04125600" lon="-7.79902800">
        <ele>16.000000</ele>
        <time>2010-01-01T03:29:58Z</time>
      </trkpt>
      <trkpt lat="37.04158900" lon="-7.79902100">
        <ele>18.000000</ele>
        <time>2010-01-01T03:30:07Z</time>
      </trkpt>
      <trkpt lat="37.04175500" lon="-7.79902100">
        <ele>19.000000</ele>
        <time>2010-01-01T03:30:11Z</time>
      </trkpt>
      <trkpt lat="37.04185500" lon="-7.79903500">
        <ele>20.000000</ele>
        <time>2010-01-01T03:30:14Z</time>
      </trkpt>
      <trkpt lat="37.04203800" lon="-7.79918800">
        <ele>20.000000</ele>
        <time>2010-01-01T03:30:20Z</time>
      </trkpt>
      <trkpt lat="37.04213800" lon="-7.79925800">
        <ele>20.000000</ele>
        <time>2010-01-01T03:30:23Z</time>
      </trkpt>
      <trkpt lat="37.04239900" lon="-7.79925100">
        <ele>20.000000</ele>
        <time>2010-01-01T03:30:30Z</time>
      </trkpt>
      <trkpt lat="37.04251000" lon="-7.79929900">
        <ele>21.000000</ele>
        <time>2010-01-01T03:30:33Z</time>
      </trkpt>
      <trkpt lat="37.04275900" lon="-7.79932700">
        <ele>21.000000</ele>
        <time>2010-01-01T03:30:39Z</time>
      </trkpt>
      <trkpt lat="37.04315300" lon="-7.79941700">
        <ele>22.000000</ele>
        <time>2010-01-01T03:30:50Z</time>
      </trkpt>
      <trkpt lat="37.04363600" lon="-7.79956300">
        <ele>21.000000</ele>
        <time>2010-01-01T03:31:03Z</time>
      </trkpt>
      <trkpt lat="37.04400800" lon="-7.79961200">
        <ele>20.000000</ele>
        <time>2010-01-01T03:31:13Z</time>
      </trkpt>
      <trkpt lat="37.04415200" lon="-7.79966800">
        <ele>19.000000</ele>
        <time>2010-01-01T03:31:17Z</time>
      </trkpt>
      <trkpt lat="37.04456800" lon="-7.79979300">
        <ele>19.000000</ele>
        <time>2010-01-01T03:31:29Z</time>
      </trkpt>
      <trkpt lat="37.04456800" lon="-7.79993200">
        <ele>19.000000</ele>
        <time>2010-01-01T03:31:32Z</time>
      </trkpt>
      <trkpt lat="37.04439600" lon="-7.80064800">
        <ele>18.000000</ele>
        <time>2010-01-01T03:31:48Z</time>
      </trkpt>
      <trkpt lat="37.04421300" lon="-7.80165600">
        <ele>16.000000</ele>
        <time>2010-01-01T03:32:10Z</time>
      </trkpt>
      <trkpt lat="37.04395800" lon="-7.80316400">
        <ele>18.000000</ele>
        <time>2010-01-01T03:32:43Z</time>
      </trkpt>
      <trkpt lat="37.04378600" lon="-7.80456800">
        <ele>15.000000</ele>
        <time>2010-01-01T03:33:13Z</time>
      </trkpt>
      <trkpt lat="37.04371300" lon="-7.80539500">
        <ele>14.000000</ele>
        <time>2010-01-01T03:33:31Z</time>
      </trkpt>
      <trkpt lat="37.04373000" lon="-7.80604900">
        <ele>11.000000</ele>
        <time>2010-01-01T03:33:44Z</time>
      </trkpt>
      <trkpt lat="37.04378000" lon="-7.80654900">
        <ele>10.000000</ele>
        <time>2010-01-01T03:33:55Z</time>
      </trkpt>
      <trkpt lat="37.04380200" lon="-7.80709800">
        <ele>9.0000000</ele>
        <time>2010-01-01T03:34:07Z</time>
      </trkpt>
      <trkpt lat="37.04384700" lon="-7.80798100">
        <ele>6.0000000</ele>
        <time>2010-01-01T03:34:26Z</time>
      </trkpt>
      <trkpt lat="37.04389700" lon="-7.80861300">
        <ele>7.0000000</ele>
        <time>2010-01-01T03:34:39Z</time>
      </trkpt>
      <trkpt lat="37.04395200" lon="-7.80928800">
        <ele>7.0000000</ele>
        <time>2010-01-01T03:34:54Z</time>
      </trkpt>
      <trkpt lat="37.04386300" lon="-7.81017000">
        <ele>7.0000000</ele>
        <time>2010-01-01T03:35:13Z</time>
      </trkpt>
      <trkpt lat="37.04386300" lon="-7.81032300">
        <ele>7.0000000</ele>
        <time>2010-01-01T03:35:16Z</time>
      </trkpt>
      <trkpt lat="37.04385200" lon="-7.81057400">
        <ele>7.0000000</ele>
        <time>2010-01-01T03:35:21Z</time>
      </trkpt>
      <trkpt lat="37.04365800" lon="-7.81151200">
        <ele>8.0000000</ele>
        <time>2010-01-01T03:35:42Z</time>
      </trkpt>
      <trkpt lat="37.04354100" lon="-7.81216500">
        <ele>9.0000000</ele>
        <time>2010-01-01T03:35:56Z</time>
      </trkpt>
      <trkpt lat="37.04343600" lon="-7.81277700">
        <ele>10.000000</ele>
        <time>2010-01-01T03:36:10Z</time>
      </trkpt>
      <trkpt lat="37.04340800" lon="-7.81320800">
        <ele>9.0000000</ele>
        <time>2010-01-01T03:36:19Z</time>
      </trkpt>
      <trkpt lat="37.04338600" lon="-7.81407000">
        <ele>12.000000</ele>
        <time>2010-01-01T03:36:37Z</time>
      </trkpt>
      <trkpt lat="37.04338600" lon="-7.81463300">
        <ele>15.000000</ele>
        <time>2010-01-01T03:36:49Z</time>
      </trkpt>
      <trkpt lat="37.04340800" lon="-7.81511300">
        <ele>16.000000</ele>
        <time>2010-01-01T03:36:59Z</time>
      </trkpt>
      <trkpt lat="37.04343100" lon="-7.81589100">
        <ele>17.000000</ele>
        <time>2010-01-01T03:37:16Z</time>
      </trkpt>
      <trkpt lat="37.04343100" lon="-7.81641200">
        <ele>20.000000</ele>
        <time>2010-01-01T03:37:27Z</time>
      </trkpt>
      <trkpt lat="37.04344700" lon="-7.81667700">
        <ele>21.000000</ele>
        <time>2010-01-01T03:37:33Z</time>
      </trkpt>
      <trkpt lat="37.04344700" lon="-7.81686400">
        <ele>21.000000</ele>
        <time>2010-01-01T03:37:37Z</time>
      </trkpt>
      <trkpt lat="37.04331700" lon="-7.81830900">
        <ele>21.000000</ele>
        <time>2010-01-01T03:38:08Z</time>
      </trkpt>
      <trkpt lat="37.04308100" lon="-7.81892200">
        <ele>22.000000</ele>
        <time>2010-01-01T03:38:22Z</time>
      </trkpt>
      <trkpt lat="37.04299800" lon="-7.81913700">
        <ele>23.000000</ele>
        <time>2010-01-01T03:38:27Z</time>
      </trkpt>
      <trkpt lat="37.04286500" lon="-7.81958200">
        <ele>24.000000</ele>
        <time>2010-01-01T03:38:37Z</time>
      </trkpt>
      <trkpt lat="37.04254300" lon="-7.82027700">
        <ele>22.000000</ele>
        <time>2010-01-01T03:38:54Z</time>
      </trkpt>
      <trkpt lat="37.04209900" lon="-7.82104200">
        <ele>21.000000</ele>
        <time>2010-01-01T03:39:15Z</time>
      </trkpt>
      <trkpt lat="37.04147800" lon="-7.82203600">
        <ele>19.000000</ele>
        <time>2010-01-01T03:39:41Z</time>
      </trkpt>
      <trkpt lat="37.04085100" lon="-7.82334900">
        <ele>21.000000</ele>
        <time>2010-01-01T03:40:14Z</time>
      </trkpt>
      <trkpt lat="37.04076200" lon="-7.82350900">
        <ele>21.000000</ele>
        <time>2010-01-01T03:40:18Z</time>
      </trkpt>
      <trkpt lat="37.04064500" lon="-7.82352300">
        <ele>21.000000</ele>
        <time>2010-01-01T03:40:21Z</time>
      </trkpt>
      <trkpt lat="37.04058400" lon="-7.82353000">
        <ele>20.000000</ele>
        <time>2010-01-01T03:40:23Z</time>
      </trkpt>
      <trkpt lat="37.04030100" lon="-7.82344700">
        <ele>20.000000</ele>
        <time>2010-01-01T03:40:31Z</time>
      </trkpt>
      <trkpt lat="37.03958000" lon="-7.82330800">
        <ele>23.000000</ele>
        <time>2010-01-01T03:40:50Z</time>
      </trkpt>
      <trkpt lat="37.03899200" lon="-7.82316900">
        <ele>23.000000</ele>
        <time>2010-01-01T03:41:06Z</time>
      </trkpt>
      <trkpt lat="37.03817600" lon="-7.82312700">
        <ele>20.000000</ele>
        <time>2010-01-01T03:41:28Z</time>
      </trkpt>
      <trkpt lat="37.03737200" lon="-7.82303000">
        <ele>20.000000</ele>
        <time>2010-01-01T03:41:50Z</time>
      </trkpt>
      <trkpt lat="37.03651700" lon="-7.82296700">
        <ele>17.000000</ele>
        <time>2010-01-01T03:42:12Z</time>
      </trkpt>
      <trkpt lat="37.03561300" lon="-7.82286300">
        <ele>16.000000</ele>
        <time>2010-01-01T03:42:37Z</time>
      </trkpt>
      <trkpt lat="37.03503000" lon="-7.82280700">
        <ele>12.000000</ele>
        <time>2010-01-01T03:42:52Z</time>
      </trkpt>
      <trkpt lat="37.03481400" lon="-7.82275200">
        <ele>11.000000</ele>
        <time>2010-01-01T03:42:58Z</time>
      </trkpt>
      <trkpt lat="37.03422600" lon="-7.82255700">
        <ele>12.000000</ele>
        <time>2010-01-01T03:43:14Z</time>
      </trkpt>
      <trkpt lat="37.03321000" lon="-7.82219600">
        <ele>8.0000000</ele>
        <time>2010-01-01T03:43:43Z</time>
      </trkpt>
      <trkpt lat="37.03283900" lon="-7.82205700">
        <ele>8.0000000</ele>
        <time>2010-01-01T03:43:53Z</time>
      </trkpt>
      <trkpt lat="37.03270000" lon="-7.82202200">
        <ele>8.0000000</ele>
        <time>2010-01-01T03:43:57Z</time>
      </trkpt>
      <trkpt lat="37.03264400" lon="-7.82209800">
        <ele>8.0000000</ele>
        <time>2010-01-01T03:43:59Z</time>
      </trkpt>
      <trkpt lat="37.03245600" lon="-7.82320300">
        <ele>8.0000000</ele>
        <time>2010-01-01T03:44:23Z</time>
      </trkpt>
      <trkpt lat="37.03240600" lon="-7.82355800">
        <ele>8.0000000</ele>
        <time>2010-01-01T03:44:31Z</time>
      </trkpt>
      <trkpt lat="37.03205100" lon="-7.82485100">
        <ele>8.0000000</ele>
        <time>2010-01-01T03:45:00Z</time>
      </trkpt>
      <trkpt lat="37.03187900" lon="-7.82546200">
        <ele>9.0000000</ele>
        <time>2010-01-01T03:45:14Z</time>
      </trkpt>
      <trkpt lat="37.03180600" lon="-7.82554600">
        <ele>9.0000000</ele>
        <time>2010-01-01T03:45:16Z</time>
      </trkpt>
      <trkpt lat="37.03103000" lon="-7.82569200">
        <ele>7.0000000</ele>
        <time>2010-01-01T03:45:37Z</time>
      </trkpt>
      <trkpt lat="37.03097400" lon="-7.82576100">
        <ele>7.0000000</ele>
        <time>2010-01-01T03:45:39Z</time>
      </trkpt>
      <trkpt lat="37.03092400" lon="-7.82676900">
        <ele>7.0000000</ele>
        <time>2010-01-01T03:46:01Z</time>
      </trkpt>
      <trkpt lat="37.03086900" lon="-7.82777000">
        <ele>9.0000000</ele>
        <time>2010-01-01T03:46:22Z</time>
      </trkpt>
      <trkpt lat="37.02961500" lon="-7.82764500">
        <ele>7.0000000</ele>
        <time>2010-01-01T03:46:56Z</time>
      </trkpt>
      <trkpt lat="37.02943100" lon="-7.82765200">
        <ele>7.0000000</ele>
        <time>2010-01-01T03:47:01Z</time>
      </trkpt>
      <trkpt lat="37.02934300" lon="-7.82772200">
        <ele>7.0000000</ele>
        <time>2010-01-01T03:47:03Z</time>
      </trkpt>
      <trkpt lat="37.02925400" lon="-7.82834000">
        <ele>6.0000000</ele>
        <time>2010-01-01T03:47:17Z</time>
      </trkpt>
      <trkpt lat="37.02921000" lon="-7.83006400">
        <ele>7.0000000</ele>
        <time>2010-01-01T03:47:54Z</time>
      </trkpt>
      <trkpt lat="37.02919100" lon="-7.83054600">
        <ele>7.0000000</ele>
        <time>2010-01-01T03:48:04Z</time>
      </trkpt>
      <trkpt lat="37.02917600" lon="-7.83090500">
        <ele>6.0000000</ele>
        <time>2010-01-01T03:48:11Z</time>
      </trkpt>
      <trkpt lat="37.02911500" lon="-7.83340700">
        <ele>5.0000000</ele>
        <time>2010-01-01T03:49:05Z</time>
      </trkpt>
      <trkpt lat="37.02901000" lon="-7.83579200">
        <ele>5.0000000</ele>
        <time>2010-01-01T03:49:56Z</time>
      </trkpt>
      <trkpt lat="37.02896900" lon="-7.83608500">
        <ele>5.0000000</ele>
        <time>2010-01-01T03:50:02Z</time>
      </trkpt>
      <trkpt lat="37.02892800" lon="-7.83627500">
        <ele>6.0000000</ele>
        <time>2010-01-01T03:50:06Z</time>
      </trkpt>
      <trkpt lat="37.02888800" lon="-7.83651100">
        <ele>8.0000000</ele>
        <time>2010-01-01T03:50:11Z</time>
      </trkpt>
      <trkpt lat="37.02858100" lon="-7.83648100">
        <ele>5.0000000</ele>
        <time>2010-01-01T03:50:20Z</time>
      </trkpt>
      <trkpt lat="37.02826600" lon="-7.83648000">
        <ele>4.0000000</ele>
        <time>2010-01-01T03:50:28Z</time>
      </trkpt>
      <trkpt lat="37.02750600" lon="-7.83643800">
        <ele>6.0000000</ele>
        <time>2010-01-01T03:50:48Z</time>
      </trkpt>
      <trkpt lat="37.02448700" lon="-7.83622200">
        <ele>6.0000000</ele>
        <time>2010-01-01T03:52:09Z</time>
      </trkpt>
      <trkpt lat="37.02421500" lon="-7.83620200">
        <ele>5.0000000</ele>
        <time>2010-01-01T03:52:16Z</time>
      </trkpt>
      <trkpt lat="37.02412100" lon="-7.83629200">
        <ele>5.0000000</ele>
        <time>2010-01-01T03:52:19Z</time>
      </trkpt>
      <trkpt lat="37.02409900" lon="-7.83638200">
        <ele>5.0000000</ele>
        <time>2010-01-01T03:52:21Z</time>
      </trkpt>
      <trkpt lat="37.02406500" lon="-7.83670900">
        <ele>7.0000000</ele>
        <time>2010-01-01T03:52:28Z</time>
      </trkpt>
      <trkpt lat="37.02403200" lon="-7.83750100">
        <ele>5.0000000</ele>
        <time>2010-01-01T03:52:45Z</time>
      </trkpt>
      <trkpt lat="37.02399300" lon="-7.83907200">
        <ele>6.0000000</ele>
        <time>2010-01-01T03:53:19Z</time>
      </trkpt>
      <trkpt lat="37.02388200" lon="-7.84113000">
        <ele>6.0000000</ele>
        <time>2010-01-01T03:54:03Z</time>
      </trkpt>
      <trkpt lat="37.02382100" lon="-7.84258300">
        <ele>9.0000000</ele>
        <time>2010-01-01T03:54:34Z</time>
      </trkpt>
      <trkpt lat="37.02373200" lon="-7.84423000">
        <ele>6.0000000</ele>
        <time>2010-01-01T03:55:09Z</time>
      </trkpt>
      <trkpt lat="37.02366000" lon="-7.84507100">
        <ele>3.0000000</ele>
        <time>2010-01-01T03:55:27Z</time>
      </trkpt>
      <trkpt lat="37.02360500" lon="-7.84534900">
        <ele>3.0000000</ele>
        <time>2010-01-01T03:55:33Z</time>
      </trkpt>
      <trkpt lat="37.02357200" lon="-7.84580600">
        <ele>2.0000000</ele>
        <time>2010-01-01T03:55:43Z</time>
      </trkpt>
      <trkpt lat="37.02355500" lon="-7.84619000">
        <ele>2.0000000</ele>
        <time>2010-01-01T03:55:51Z</time>
      </trkpt>
      <trkpt lat="37.02349900" lon="-7.84728800">
        <ele>4.0000000</ele>
        <time>2010-01-01T03:56:14Z</time>
      </trkpt>
      <trkpt lat="37.02347700" lon="-7.84770500">
        <ele>5.0000000</ele>
        <time>2010-01-01T03:56:23Z</time>
      </trkpt>
      <trkpt lat="37.02346100" lon="-7.84808400">
        <ele>5.0000000</ele>
        <time>2010-01-01T03:56:31Z</time>
      </trkpt>
      <trkpt lat="37.02346600" lon="-7.84833800">
        <ele>5.0000000</ele>
        <time>2010-01-01T03:56:37Z</time>
      </trkpt>
      <trkpt lat="37.02341600" lon="-7.84869200">
        <ele>5.0000000</ele>
        <time>2010-01-01T03:56:45Z</time>
      </trkpt>
      <trkpt lat="37.02338300" lon="-7.84910900">
        <ele>4.0000000</ele>
        <time>2010-01-01T03:56:53Z</time>
      </trkpt>
      <trkpt lat="37.02341600" lon="-7.84968600">
        <ele>5.0000000</ele>
        <time>2010-01-01T03:57:06Z</time>
      </trkpt>
      <trkpt lat="37.02344900" lon="-7.85011700">
        <ele>7.0000000</ele>
        <time>2010-01-01T03:57:15Z</time>
      </trkpt>
      <trkpt lat="37.02355500" lon="-7.85047900">
        <ele>8.0000000</ele>
        <time>2010-01-01T03:57:23Z</time>
      </trkpt>
      <trkpt lat="37.02372100" lon="-7.85079800">
        <ele>8.0000000</ele>
        <time>2010-01-01T03:57:31Z</time>
      </trkpt>
      <trkpt lat="37.02403800" lon="-7.85110400">
        <ele>6.0000000</ele>
        <time>2010-01-01T03:57:42Z</time>
      </trkpt>
      <trkpt lat="37.02424300" lon="-7.85122900">
        <ele>5.0000000</ele>
        <time>2010-01-01T03:57:48Z</time>
      </trkpt>
      <trkpt lat="37.02448200" lon="-7.85134800">
        <ele>5.0000000</ele>
        <time>2010-01-01T03:57:55Z</time>
      </trkpt>
      <trkpt lat="37.02479800" lon="-7.85141700">
        <ele>6.0000000</ele>
        <time>2010-01-01T03:58:04Z</time>
      </trkpt>
      <trkpt lat="37.02573000" lon="-7.85150700">
        <ele>10.000000</ele>
        <time>2010-01-01T03:58:28Z</time>
      </trkpt>
      <trkpt lat="37.02575200" lon="-7.85142400">
        <ele>11.000000</ele>
        <time>2010-01-01T03:58:30Z</time>
      </trkpt>
      <trkpt lat="37.02582400" lon="-7.85121600">
        <ele>11.000000</ele>
        <time>2010-01-01T03:58:35Z</time>
      </trkpt>
      <trkpt lat="37.02595200" lon="-7.85086100">
        <ele>9.0000000</ele>
        <time>2010-01-01T03:58:43Z</time>
      </trkpt>
      <trkpt lat="37.02614100" lon="-7.85072200">
        <ele>11.000000</ele>
        <time>2010-01-01T03:58:49Z</time>
      </trkpt>
      <trkpt lat="37.02631800" lon="-7.85075700">
        <ele>11.000000</ele>
        <time>2010-01-01T03:58:54Z</time>
      </trkpt>
      <trkpt lat="37.02655100" lon="-7.85096500">
        <ele>9.0000000</ele>
        <time>2010-01-01T03:59:02Z</time>
      </trkpt>
      <trkpt lat="37.02667900" lon="-7.85119500">
        <ele>9.0000000</ele>
        <time>2010-01-01T03:59:08Z</time>
      </trkpt>
      <trkpt lat="37.02677300" lon="-7.85162600">
        <ele>9.0000000</ele>
        <time>2010-01-01T03:59:17Z</time>
      </trkpt>
      <trkpt lat="37.02683400" lon="-7.85207700">
        <ele>7.0000000</ele>
        <time>2010-01-01T03:59:27Z</time>
      </trkpt>
      <trkpt lat="37.02689500" lon="-7.85248800">
        <ele>4.0000000</ele>
        <time>2010-01-01T03:59:36Z</time>
      </trkpt>
      <trkpt lat="37.02697900" lon="-7.85320400">
        <ele>6.0000000</ele>
        <time>2010-01-01T03:59:51Z</time>
      </trkpt>
      <trkpt lat="37.02700100" lon="-7.85363400">
        <ele>5.0000000</ele>
        <time>2010-01-01T04:00:00Z</time>
      </trkpt>
      <trkpt lat="37.02706200" lon="-7.85405800">
        <ele>4.0000000</ele>
        <time>2010-01-01T04:00:10Z</time>
      </trkpt>
      <trkpt lat="37.02706200" lon="-7.85445500">
        <ele>5.0000000</ele>
        <time>2010-01-01T04:00:18Z</time>
      </trkpt>
      <trkpt lat="37.02706200" lon="-7.85461500">
        <ele>5.0000000</ele>
        <time>2010-01-01T04:00:22Z</time>
      </trkpt>
      <trkpt lat="37.02706300" lon="-7.85491500">
        <ele>4.0000000</ele>
        <time>2010-01-01T04:00:28Z</time>
      </trkpt>
      <trkpt lat="37.02706600" lon="-7.85514000">
        <ele>4.0000000</ele>
        <time>2010-01-01T04:00:33Z</time>
      </trkpt>
      <trkpt lat="37.02704600" lon="-7.85540800">
        <ele>4.0000000</ele>
        <time>2010-01-01T04:00:38Z</time>
      </trkpt>
      <trkpt lat="37.02699000" lon="-7.85567800">
        <ele>5.0000000</ele>
        <time>2010-01-01T04:00:44Z</time>
      </trkpt>
      <trkpt lat="37.02690100" lon="-7.85578900">
        <ele>4.0000000</ele>
        <time>2010-01-01T04:00:48Z</time>
      </trkpt>
      <trkpt lat="37.02675700" lon="-7.85601900">
        <ele>4.0000000</ele>
        <time>2010-01-01T04:00:54Z</time>
      </trkpt>
      <trkpt lat="37.02674000" lon="-7.85615100">
        <ele>5.0000000</ele>
        <time>2010-01-01T04:00:57Z</time>
      </trkpt>
      <trkpt lat="37.02675700" lon="-7.85624800">
        <ele>5.0000000</ele>
        <time>2010-01-01T04:00:59Z</time>
      </trkpt>
      <trkpt lat="37.02681800" lon="-7.85645000">
        <ele>5.0000000</ele>
        <time>2010-01-01T04:01:04Z</time>
      </trkpt>
      <trkpt lat="37.02680700" lon="-7.85684600">
        <ele>5.0000000</ele>
        <time>2010-01-01T04:01:12Z</time>
      </trkpt>
      <trkpt lat="37.02668500" lon="-7.85733900">
        <ele>6.0000000</ele>
        <time>2010-01-01T04:01:23Z</time>
      </trkpt>
      <trkpt lat="37.02648500" lon="-7.85811100">
        <ele>6.0000000</ele>
        <time>2010-01-01T04:01:40Z</time>
      </trkpt>
      <trkpt lat="37.02640200" lon="-7.85867400">
        <ele>7.0000000</ele>
        <time>2010-01-01T04:01:52Z</time>
      </trkpt>
      <trkpt lat="37.02637400" lon="-7.85882700">
        <ele>8.0000000</ele>
        <time>2010-01-01T04:01:56Z</time>
      </trkpt>
      <trkpt lat="37.02633500" lon="-7.85909800">
        <ele>8.0000000</ele>
        <time>2010-01-01T04:02:02Z</time>
      </trkpt>
      <trkpt lat="37.02630200" lon="-7.85943200">
        <ele>7.0000000</ele>
        <time>2010-01-01T04:02:09Z</time>
      </trkpt>
      <trkpt lat="37.02625700" lon="-7.86002200">
        <ele>6.0000000</ele>
        <time>2010-01-01T04:02:21Z</time>
      </trkpt>
      <trkpt lat="37.02622400" lon="-7.86050900">
        <ele>8.0000000</ele>
        <time>2010-01-01T04:02:32Z</time>
      </trkpt>
      <trkpt lat="37.02645700" lon="-7.86058500">
        <ele>6.0000000</ele>
        <time>2010-01-01T04:02:38Z</time>
      </trkpt>
      <trkpt lat="37.02654600" lon="-7.86060600">
        <ele>6.0000000</ele>
        <time>2010-01-01T04:02:41Z</time>
      </trkpt>
      <trkpt lat="37.02679000" lon="-7.86066900">
        <ele>6.0000000</ele>
        <time>2010-01-01T04:02:47Z</time>
      </trkpt>
      <trkpt lat="37.02689000" lon="-7.86082200">
        <ele>6.0000000</ele>
        <time>2010-01-01T04:02:52Z</time>
      </trkpt>
      <trkpt lat="37.02689500" lon="-7.86094700">
        <ele>5.0000000</ele>
        <time>2010-01-01T04:02:54Z</time>
      </trkpt>
      <trkpt lat="37.02691200" lon="-7.86131500">
        <ele>5.0000000</ele>
        <time>2010-01-01T04:03:02Z</time>
      </trkpt>
      <trkpt lat="37.02690700" lon="-7.86189900">
        <ele>5.0000000</ele>
        <time>2010-01-01T04:03:15Z</time>
      </trkpt>
      <trkpt lat="37.02687900" lon="-7.86246200">
        <ele>6.0000000</ele>
        <time>2010-01-01T04:03:27Z</time>
      </trkpt>
      <trkpt lat="37.02685100" lon="-7.86279600">
        <ele>7.0000000</ele>
        <time>2010-01-01T04:03:34Z</time>
      </trkpt>
      <trkpt lat="37.02678500" lon="-7.86317100">
        <ele>6.0000000</ele>
        <time>2010-01-01T04:03:42Z</time>
      </trkpt>
      <trkpt lat="37.02671200" lon="-7.86342800">
        <ele>4.0000000</ele>
        <time>2010-01-01T04:03:48Z</time>
      </trkpt>
      <trkpt lat="37.02657400" lon="-7.86363000">
        <ele>4.0000000</ele>
        <time>2010-01-01T04:03:53Z</time>
      </trkpt>
      <trkpt lat="37.02643500" lon="-7.86376200">
        <ele>4.0000000</ele>
        <time>2010-01-01T04:03:58Z</time>
      </trkpt>
      <trkpt lat="37.02629600" lon="-7.86392200">
        <ele>4.0000000</ele>
        <time>2010-01-01T04:04:03Z</time>
      </trkpt>
      <trkpt lat="37.02620700" lon="-7.86408900">
        <ele>4.0000000</ele>
        <time>2010-01-01T04:04:07Z</time>
      </trkpt>
      <trkpt lat="37.02615200" lon="-7.86440800">
        <ele>4.0000000</ele>
        <time>2010-01-01T04:04:14Z</time>
      </trkpt>
      <trkpt lat="37.02609100" lon="-7.86517300">
        <ele>3.0000000</ele>
        <time>2010-01-01T04:04:31Z</time>
      </trkpt>
      <trkpt lat="37.02596300" lon="-7.86594400">
        <ele>4.0000000</ele>
        <time>2010-01-01T04:04:47Z</time>
      </trkpt>
      <trkpt lat="37.02584100" lon="-7.86653500">
        <ele>3.0000000</ele>
        <time>2010-01-01T04:05:00Z</time>
      </trkpt>
      <trkpt lat="37.02576900" lon="-7.86690400">
        <ele>2.0000000</ele>
        <time>2010-01-01T04:05:09Z</time>
      </trkpt>
      <trkpt lat="37.02558000" lon="-7.86760600">
        <ele>5.0000000</ele>
        <time>2010-01-01T04:05:24Z</time>
      </trkpt>
      <trkpt lat="37.02543600" lon="-7.86819000">
        <ele>5.0000000</ele>
        <time>2010-01-01T04:05:37Z</time>
      </trkpt>
      <trkpt lat="37.02542500" lon="-7.86839100">
        <ele>4.0000000</ele>
        <time>2010-01-01T04:05:42Z</time>
      </trkpt>
      <trkpt lat="37.02544200" lon="-7.86878700">
        <ele>4.0000000</ele>
        <time>2010-01-01T04:05:50Z</time>
      </trkpt>
      <trkpt lat="37.02553600" lon="-7.86948300">
        <ele>5.0000000</ele>
        <time>2010-01-01T04:06:05Z</time>
      </trkpt>
      <trkpt lat="37.02564700" lon="-7.87023300">
        <ele>6.0000000</ele>
        <time>2010-01-01T04:06:21Z</time>
      </trkpt>
      <trkpt lat="37.02574700" lon="-7.87083100">
        <ele>7.0000000</ele>
        <time>2010-01-01T04:06:34Z</time>
      </trkpt>
      <trkpt lat="37.02593000" lon="-7.87180400">
        <ele>6.0000000</ele>
        <time>2010-01-01T04:06:56Z</time>
      </trkpt>
      <trkpt lat="37.02603500" lon="-7.87240200">
        <ele>5.0000000</ele>
        <time>2010-01-01T04:07:09Z</time>
      </trkpt>
      <trkpt lat="37.02621800" lon="-7.87309700">
        <ele>5.0000000</ele>
        <time>2010-01-01T04:07:24Z</time>
      </trkpt>
      <trkpt lat="37.02635200" lon="-7.87341000">
        <ele>6.0000000</ele>
        <time>2010-01-01T04:07:32Z</time>
      </trkpt>
      <trkpt lat="37.02644600" lon="-7.87354200">
        <ele>6.0000000</ele>
        <time>2010-01-01T04:07:36Z</time>
      </trkpt>
      <trkpt lat="37.02680700" lon="-7.87372300">
        <ele>5.0000000</ele>
        <time>2010-01-01T04:07:46Z</time>
      </trkpt>
      <trkpt lat="37.02703400" lon="-7.87382800">
        <ele>5.0000000</ele>
        <time>2010-01-01T04:07:53Z</time>
      </trkpt>
      <trkpt lat="37.02713600" lon="-7.87387500">
        <ele>5.0000000</ele>
        <time>2010-01-01T04:07:55Z</time>
      </trkpt>
      <trkpt lat="37.02748900" lon="-7.87398700">
        <ele>6.0000000</ele>
        <time>2010-01-01T04:08:05Z</time>
      </trkpt>
      <trkpt lat="37.02762800" lon="-7.87414000">
        <ele>6.0000000</ele>
        <time>2010-01-01T04:08:10Z</time>
      </trkpt>
      <trkpt lat="37.02767800" lon="-7.87440400">
        <ele>5.0000000</ele>
        <time>2010-01-01T04:08:16Z</time>
      </trkpt>
      <trkpt lat="37.02789700" lon="-7.87480300">
        <ele>3.0000000</ele>
        <time>2010-01-01T04:08:26Z</time>
      </trkpt>
      <trkpt lat="37.02801600" lon="-7.87512000">
        <ele>4.0000000</ele>
        <time>2010-01-01T04:08:34Z</time>
      </trkpt>
      <trkpt lat="37.02809400" lon="-7.87543900">
        <ele>7.0000000</ele>
        <time>2010-01-01T04:08:41Z</time>
      </trkpt>
      <trkpt lat="37.02809400" lon="-7.87582200">
        <ele>9.0000000</ele>
        <time>2010-01-01T04:08:49Z</time>
      </trkpt>
      <trkpt lat="37.02797200" lon="-7.87650300">
        <ele>8.0000000</ele>
        <time>2010-01-01T04:09:04Z</time>
      </trkpt>
      <trkpt lat="37.02753900" lon="-7.87881800">
        <ele>7.0000000</ele>
        <time>2010-01-01T04:09:54Z</time>
      </trkpt>
      <trkpt lat="37.02721200" lon="-7.88075000">
        <ele>8.0000000</ele>
        <time>2010-01-01T04:10:37Z</time>
      </trkpt>
      <trkpt lat="37.02680100" lon="-7.88303700">
        <ele>6.0000000</ele>
        <time>2010-01-01T04:11:26Z</time>
      </trkpt>
      <trkpt lat="37.02645200" lon="-7.88528200">
        <ele>7.0000000</ele>
        <time>2010-01-01T04:12:15Z</time>
      </trkpt>
      <trkpt lat="37.02614600" lon="-7.88750600">
        <ele>6.0000000</ele>
        <time>2010-01-01T04:13:03Z</time>
      </trkpt>
      <trkpt lat="37.02614500" lon="-7.88760500">
        <ele>6.0000000</ele>
        <time>2010-01-01T04:13:05Z</time>
      </trkpt>
      <trkpt lat="37.02613500" lon="-7.88879900">
        <ele>7.0000000</ele>
        <time>2010-01-01T04:13:31Z</time>
      </trkpt>
      <trkpt lat="37.02595800" lon="-7.89196900">
        <ele>6.0000000</ele>
        <time>2010-01-01T04:14:39Z</time>
      </trkpt>
      <trkpt lat="37.02588600" lon="-7.89407500">
        <ele>5.0000000</ele>
        <time>2010-01-01T04:15:23Z</time>
      </trkpt>
      <trkpt lat="37.02588000" lon="-7.89538800">
        <ele>6.0000000</ele>
        <time>2010-01-01T04:15:51Z</time>
      </trkpt>
      <trkpt lat="37.02595800" lon="-7.89595200">
        <ele>8.0000000</ele>
        <time>2010-01-01T04:16:04Z</time>
      </trkpt>
      <trkpt lat="37.02619600" lon="-7.89711900">
        <ele>8.0000000</ele>
        <time>2010-01-01T04:16:29Z</time>
      </trkpt>
      <trkpt lat="37.02627900" lon="-7.89754500">
        <ele>9.0000000</ele>
        <time>2010-01-01T04:16:39Z</time>
      </trkpt>
      <trkpt lat="37.02639100" lon="-7.89791900">
        <ele>8.0000000</ele>
        <time>2010-01-01T04:16:47Z</time>
      </trkpt>
      <trkpt lat="37.02671200" lon="-7.89960800">
        <ele>8.0000000</ele>
        <time>2010-01-01T04:17:24Z</time>
      </trkpt>
      <trkpt lat="37.02689000" lon="-7.90042800">
        <ele>8.0000000</ele>
        <time>2010-01-01T04:17:42Z</time>
      </trkpt>
      <trkpt lat="37.02702300" lon="-7.90109500">
        <ele>9.0000000</ele>
        <time>2010-01-01T04:17:57Z</time>
      </trkpt>
      <trkpt lat="37.02731200" lon="-7.90219300">
        <ele>8.0000000</ele>
        <time>2010-01-01T04:18:21Z</time>
      </trkpt>
      <trkpt lat="37.02741700" lon="-7.90257600">
        <ele>9.0000000</ele>
        <time>2010-01-01T04:18:30Z</time>
      </trkpt>
      <trkpt lat="37.02773300" lon="-7.90366000">
        <ele>7.0000000</ele>
        <time>2010-01-01T04:18:55Z</time>
      </trkpt>
      <trkpt lat="37.02807700" lon="-7.90482100">
        <ele>8.0000000</ele>
        <time>2010-01-01T04:19:21Z</time>
      </trkpt>
      <trkpt lat="37.02819400" lon="-7.90539100">
        <ele>9.0000000</ele>
        <time>2010-01-01T04:19:34Z</time>
      </trkpt>
      <trkpt lat="37.02838300" lon="-7.90591200">
        <ele>10.000000</ele>
        <time>2010-01-01T04:19:46Z</time>
      </trkpt>
      <trkpt lat="37.02871600" lon="-7.90710100">
        <ele>9.0000000</ele>
        <time>2010-01-01T04:20:13Z</time>
      </trkpt>
      <trkpt lat="37.02895400" lon="-7.90792800">
        <ele>9.0000000</ele>
        <time>2010-01-01T04:20:31Z</time>
      </trkpt>
      <trkpt lat="37.02918200" lon="-7.90892900">
        <ele>10.000000</ele>
        <time>2010-01-01T04:20:54Z</time>
      </trkpt>
      <trkpt lat="37.02921500" lon="-7.90925600">
        <ele>10.000000</ele>
        <time>2010-01-01T04:21:01Z</time>
      </trkpt>
      <trkpt lat="37.02921500" lon="-7.90956100">
        <ele>10.000000</ele>
        <time>2010-01-01T04:21:07Z</time>
      </trkpt>
      <trkpt lat="37.02919800" lon="-7.90986700">
        <ele>8.0000000</ele>
        <time>2010-01-01T04:21:14Z</time>
      </trkpt>
      <trkpt lat="37.02914800" lon="-7.91008300">
        <ele>7.0000000</ele>
        <time>2010-01-01T04:21:18Z</time>
      </trkpt>
      <trkpt lat="37.02883200" lon="-7.91118800">
        <ele>9.0000000</ele>
        <time>2010-01-01T04:21:43Z</time>
      </trkpt>
      <trkpt lat="37.02836000" lon="-7.91254300">
        <ele>11.000000</ele>
        <time>2010-01-01T04:22:15Z</time>
      </trkpt>
      <trkpt lat="37.02807600" lon="-7.91330100">
        <ele>10.000000</ele>
        <time>2010-01-01T04:22:33Z</time>
      </trkpt>
      <trkpt lat="37.02787800" lon="-7.91382900">
        <ele>11.000000</ele>
        <time>2010-01-01T04:22:45Z</time>
      </trkpt>
      <trkpt lat="37.02773300" lon="-7.91417000">
        <ele>11.000000</ele>
        <time>2010-01-01T04:22:53Z</time>
      </trkpt>
      <trkpt lat="37.02727300" lon="-7.91485800">
        <ele>9.0000000</ele>
        <time>2010-01-01T04:23:13Z</time>
      </trkpt>
      <trkpt lat="37.02697300" lon="-7.91531000">
        <ele>8.0000000</ele>
        <time>2010-01-01T04:23:25Z</time>
      </trkpt>
      <trkpt lat="37.02674000" lon="-7.91556000">
        <ele>9.0000000</ele>
        <time>2010-01-01T04:23:33Z</time>
      </trkpt>
      <trkpt lat="37.02615200" lon="-7.91648400">
        <ele>9.0000000</ele>
        <time>2010-01-01T04:23:58Z</time>
      </trkpt>
      <trkpt lat="37.02603500" lon="-7.91670400">
        <ele>8.0000000</ele>
        <time>2010-01-01T04:24:04Z</time>
      </trkpt>
      <trkpt lat="37.02592400" lon="-7.91692700">
        <ele>9.0000000</ele>
        <time>2010-01-01T04:24:10Z</time>
      </trkpt>
      <trkpt lat="37.02587500" lon="-7.91704000">
        <ele>9.0000000</ele>
        <time>2010-01-01T04:24:12Z</time>
      </trkpt>
      <trkpt lat="37.02557500" lon="-7.91683200">
        <ele>7.0000000</ele>
        <time>2010-01-01T04:24:22Z</time>
      </trkpt>
      <trkpt lat="37.02548000" lon="-7.91681100">
        <ele>7.0000000</ele>
        <time>2010-01-01T04:24:24Z</time>
      </trkpt>
      <trkpt lat="37.02502000" lon="-7.91683900">
        <ele>11.000000</ele>
        <time>2010-01-01T04:24:36Z</time>
      </trkpt>
      <trkpt lat="37.02468100" lon="-7.91692200">
        <ele>13.000000</ele>
        <time>2010-01-01T04:24:46Z</time>
      </trkpt>
      <trkpt lat="37.02416000" lon="-7.91702700">
        <ele>12.000000</ele>
        <time>2010-01-01T04:25:00Z</time>
      </trkpt>
      <trkpt lat="37.02389900" lon="-7.91706800">
        <ele>12.000000</ele>
        <time>2010-01-01T04:25:07Z</time>
      </trkpt>
      <trkpt lat="37.02355500" lon="-7.91691500">
        <ele>12.000000</ele>
        <time>2010-01-01T04:25:16Z</time>
      </trkpt>
      <trkpt lat="37.02333300" lon="-7.91676300">
        <ele>11.000000</ele>
        <time>2010-01-01T04:25:23Z</time>
      </trkpt>
      <trkpt lat="37.02291100" lon="-7.91640800">
        <ele>9.0000000</ele>
        <time>2010-01-01T04:25:37Z</time>
      </trkpt>
      <trkpt lat="37.02263900" lon="-7.91615100">
        <ele>9.0000000</ele>
        <time>2010-01-01T04:25:46Z</time>
      </trkpt>
      <trkpt lat="37.02203400" lon="-7.91559500">
        <ele>14.000000</ele>
        <time>2010-01-01T04:26:06Z</time>
      </trkpt>
      <trkpt lat="37.02141300" lon="-7.91508700">
        <ele>14.000000</ele>
        <time>2010-01-01T04:26:26Z</time>
      </trkpt>
      <trkpt lat="37.02066900" lon="-7.91464200">
        <ele>13.000000</ele>
        <time>2010-01-01T04:26:48Z</time>
      </trkpt>
      <trkpt lat="37.02010300" lon="-7.91441300">
        <ele>12.000000</ele>
        <time>2010-01-01T04:27:04Z</time>
      </trkpt>
      <trkpt lat="37.01967000" lon="-7.91436400">
        <ele>12.000000</ele>
        <time>2010-01-01T04:27:15Z</time>
      </trkpt>
      <trkpt lat="37.01886000" lon="-7.91432300">
        <ele>12.000000</ele>
        <time>2010-01-01T04:27:37Z</time>
      </trkpt>
      <trkpt lat="37.01853200" lon="-7.91439200">
        <ele>12.000000</ele>
        <time>2010-01-01T04:27:46Z</time>
      </trkpt>
      <trkpt lat="37.01809400" lon="-7.91446900">
        <ele>13.000000</ele>
        <time>2010-01-01T04:27:57Z</time>
      </trkpt>
      <trkpt lat="37.01766100" lon="-7.91460800">
        <ele>13.000000</ele>
        <time>2010-01-01T04:28:09Z</time>
      </trkpt>
      <trkpt lat="37.01725000" lon="-7.91483700">
        <ele>15.000000</ele>
        <time>2010-01-01T04:28:21Z</time>
      </trkpt>
      <trkpt lat="37.01660600" lon="-7.91528900">
        <ele>16.000000</ele>
        <time>2010-01-01T04:28:41Z</time>
      </trkpt>
      <trkpt lat="37.01648400" lon="-7.91531000">
        <ele>14.000000</ele>
        <time>2010-01-01T04:28:44Z</time>
      </trkpt>
      <trkpt lat="37.01626200" lon="-7.91538600">
        <ele>13.000000</ele>
        <time>2010-01-01T04:28:51Z</time>
      </trkpt>
      <trkpt lat="37.01591300" lon="-7.91540700">
        <ele>11.000000</ele>
        <time>2010-01-01T04:29:00Z</time>
      </trkpt>
      <trkpt lat="37.01571300" lon="-7.91537900">
        <ele>9.0000000</ele>
        <time>2010-01-01T04:29:05Z</time>
      </trkpt>
      <trkpt lat="37.01558500" lon="-7.91539300">
        <ele>8.0000000</ele>
        <time>2010-01-01T04:29:09Z</time>
      </trkpt>
      <trkpt lat="37.01547400" lon="-7.91553900">
        <ele>8.0000000</ele>
        <time>2010-01-01T04:29:13Z</time>
      </trkpt>
      <trkpt lat="37.01528600" lon="-7.91573400">
        <ele>8.0000000</ele>
        <time>2010-01-01T04:29:19Z</time>
      </trkpt>
      <trkpt lat="37.01495800" lon="-7.91639400">
        <ele>13.000000</ele>
        <time>2010-01-01T04:29:36Z</time>
      </trkpt>
      <trkpt lat="37.01486400" lon="-7.91674200">
        <ele>13.000000</ele>
        <time>2010-01-01T04:29:44Z</time>
      </trkpt>
      <trkpt lat="37.01472500" lon="-7.91733900">
        <ele>12.000000</ele>
        <time>2010-01-01T04:29:57Z</time>
      </trkpt>
      <trkpt lat="37.01438100" lon="-7.91941100">
        <ele>15.000000</ele>
        <time>2010-01-01T04:30:42Z</time>
      </trkpt>
      <trkpt lat="37.01389800" lon="-7.92245500">
        <ele>13.000000</ele>
        <time>2010-01-01T04:31:48Z</time>
      </trkpt>
      <trkpt lat="37.01352600" lon="-7.92463100">
        <ele>12.000000</ele>
        <time>2010-01-01T04:32:36Z</time>
      </trkpt>
      <trkpt lat="37.01339300" lon="-7.92554100">
        <ele>9.0000000</ele>
        <time>2010-01-01T04:32:56Z</time>
      </trkpt>
      <trkpt lat="37.01341500" lon="-7.92577800">
        <ele>9.0000000</ele>
        <time>2010-01-01T04:33:01Z</time>
      </trkpt>
      <trkpt lat="37.01368600" lon="-7.92625700">
        <ele>11.000000</ele>
        <time>2010-01-01T04:33:13Z</time>
      </trkpt>
      <trkpt lat="37.01346000" lon="-7.92650100">
        <ele>9.0000000</ele>
        <time>2010-01-01T04:33:21Z</time>
      </trkpt>
      <trkpt lat="37.01319900" lon="-7.92688300">
        <ele>7.0000000</ele>
        <time>2010-01-01T04:33:32Z</time>
      </trkpt>
      <trkpt lat="37.01305400" lon="-7.92748100">
        <ele>8.0000000</ele>
        <time>2010-01-01T04:33:45Z</time>
      </trkpt>
      <trkpt lat="37.01293200" lon="-7.92829400">
        <ele>9.0000000</ele>
        <time>2010-01-01T04:34:03Z</time>
      </trkpt>
      <trkpt lat="37.01268200" lon="-7.92910700">
        <ele>6.0000000</ele>
        <time>2010-01-01T04:34:21Z</time>
      </trkpt>
      <trkpt lat="37.01242700" lon="-7.92961500">
        <ele>4.0000000</ele>
        <time>2010-01-01T04:34:34Z</time>
      </trkpt>
      <trkpt lat="37.01206600" lon="-7.93019200">
        <ele>6.0000000</ele>
        <time>2010-01-01T04:34:50Z</time>
      </trkpt>
      <trkpt lat="37.01176100" lon="-7.93069900">
        <ele>6.0000000</ele>
        <time>2010-01-01T04:35:03Z</time>
      </trkpt>
      <trkpt lat="37.01159500" lon="-7.93096300">
        <ele>4.0000000</ele>
        <time>2010-01-01T04:35:10Z</time>
      </trkpt>
      <trkpt lat="37.01156700" lon="-7.93105400">
        <ele>4.0000000</ele>
        <time>2010-01-01T04:35:12Z</time>
      </trkpt>
      <trkpt lat="37.01145000" lon="-7.93121300">
        <ele>2.0000000</ele>
        <time>2010-01-01T04:35:17Z</time>
      </trkpt>
      <trkpt lat="37.01135600" lon="-7.93147100">
        <ele>2.0000000</ele>
        <time>2010-01-01T04:35:23Z</time>
      </trkpt>
      <trkpt lat="37.01136200" lon="-7.93178300">
        <ele>2.0000000</ele>
        <time>2010-01-01T04:35:30Z</time>
      </trkpt>
      <trkpt lat="37.01121200" lon="-7.93245800">
        <ele>5.0000000</ele>
        <time>2010-01-01T04:35:45Z</time>
      </trkpt>
      <trkpt lat="37.01118400" lon="-7.93345200">
        <ele>7.0000000</ele>
        <time>2010-01-01T04:36:06Z</time>
      </trkpt>
      <trkpt lat="37.01124500" lon="-7.93356300">
        <ele>8.0000000</ele>
        <time>2010-01-01T04:36:09Z</time>
      </trkpt>
      <trkpt lat="37.01134500" lon="-7.93367400">
        <ele>9.0000000</ele>
        <time>2010-01-01T04:36:12Z</time>
      </trkpt>
      <trkpt lat="37.01174400" lon="-7.93410500">
        <ele>9.0000000</ele>
        <time>2010-01-01T04:36:26Z</time>
      </trkpt>
      <trkpt lat="37.01184400" lon="-7.93420200">
        <ele>10.000000</ele>
        <time>2010-01-01T04:36:30Z</time>
      </trkpt>
      <trkpt lat="37.01217700" lon="-7.93431400">
        <ele>11.000000</ele>
        <time>2010-01-01T04:36:39Z</time>
      </trkpt>
      <trkpt lat="37.01226600" lon="-7.93456400">
        <ele>11.000000</ele>
        <time>2010-01-01T04:36:45Z</time>
      </trkpt>
      <trkpt lat="37.01277700" lon="-7.93487000">
        <ele>12.000000</ele>
        <time>2010-01-01T04:37:00Z</time>
      </trkpt>
      <trkpt lat="37.01297100" lon="-7.93498800">
        <ele>11.000000</ele>
        <time>2010-01-01T04:37:06Z</time>
      </trkpt>
      <trkpt lat="37.01297700" lon="-7.93514800">
        <ele>11.000000</ele>
        <time>2010-01-01T04:37:09Z</time>
      </trkpt>
      <trkpt lat="37.01294300" lon="-7.93524500">
        <ele>11.000000</ele>
        <time>2010-01-01T04:37:11Z</time>
      </trkpt>
      <trkpt lat="37.01271000" lon="-7.93540500">
        <ele>11.000000</ele>
        <time>2010-01-01T04:37:18Z</time>
      </trkpt>
      <trkpt lat="37.01258800" lon="-7.93558600">
        <ele>9.0000000</ele>
        <time>2010-01-01T04:37:23Z</time>
      </trkpt>
      <trkpt lat="37.01259900" lon="-7.93570400">
        <ele>7.0000000</ele>
        <time>2010-01-01T04:37:26Z</time>
      </trkpt>
      <trkpt lat="37.01279300" lon="-7.93576600">
        <ele>7.0000000</ele>
        <time>2010-01-01T04:37:31Z</time>
      </trkpt>
      <trkpt lat="37.01308800" lon="-7.93587100">
        <ele>7.0000000</ele>
        <time>2010-01-01T04:37:40Z</time>
      </trkpt>
      <trkpt lat="37.01337600" lon="-7.93594000">
        <ele>5.0000000</ele>
        <time>2010-01-01T04:37:47Z</time>
      </trkpt>
      <trkpt lat="37.01363700" lon="-7.93595400">
        <ele>4.0000000</ele>
        <time>2010-01-01T04:37:54Z</time>
      </trkpt>
      <trkpt lat="37.01377600" lon="-7.93596800">
        <ele>4.0000000</ele>
        <time>2010-01-01T04:37:58Z</time>
      </trkpt>
      <trkpt lat="37.01437500" lon="-7.93557900">
        <ele>9.0000000</ele>
        <time>2010-01-01T04:38:16Z</time>
      </trkpt>
      <trkpt lat="37.01446400" lon="-7.93555100">
        <ele>8.0000000</ele>
        <time>2010-01-01T04:38:19Z</time>
      </trkpt>
      <trkpt lat="37.01457000" lon="-7.93554400">
        <ele>7.0000000</ele>
        <time>2010-01-01T04:38:21Z</time>
      </trkpt>
      <trkpt lat="37.01475800" lon="-7.93549500">
        <ele>6.0000000</ele>
        <time>2010-01-01T04:38:26Z</time>
      </trkpt>
      <trkpt lat="37.01488600" lon="-7.93545300">
        <ele>6.0000000</ele>
        <time>2010-01-01T04:38:30Z</time>
      </trkpt>
      <trkpt lat="37.01583500" lon="-7.93534200">
        <ele>4.0000000</ele>
        <time>2010-01-01T04:38:55Z</time>
      </trkpt>
      <trkpt lat="37.01603500" lon="-7.93532100">
        <ele>4.0000000</ele>
        <time>2010-01-01T04:39:01Z</time>
      </trkpt>
      <trkpt lat="37.01613500" lon="-7.93536300">
        <ele>5.0000000</ele>
        <time>2010-01-01T04:39:04Z</time>
      </trkpt>
      <trkpt lat="37.01632900" lon="-7.93565500">
        <ele>4.0000000</ele>
        <time>2010-01-01T04:39:12Z</time>
      </trkpt>
      <trkpt lat="37.01664500" lon="-7.93640600">
        <ele>11.000000</ele>
        <time>2010-01-01T04:39:30Z</time>
      </trkpt>
      <trkpt lat="37.01664500" lon="-7.93647500">
        <ele>12.000000</ele>
        <time>2010-01-01T04:39:31Z</time>
      </trkpt>
      <trkpt lat="37.01661200" lon="-7.93657300">
        <ele>13.000000</ele>
        <time>2010-01-01T04:39:34Z</time>
      </trkpt>
      <trkpt lat="37.01598500" lon="-7.93813000">
        <ele>3.0000000</ele>
        <time>2010-01-01T04:40:11Z</time>
      </trkpt>
      <trkpt lat="37.01636800" lon="-7.93836600">
        <ele>3.0000000</ele>
        <time>2010-01-01T04:40:22Z</time>
      </trkpt>
      <trkpt lat="37.01654500" lon="-7.93843500">
        <ele>4.0000000</ele>
        <time>2010-01-01T04:40:27Z</time>
      </trkpt>
      <trkpt lat="37.01685100" lon="-7.93861600">
        <ele>4.0000000</ele>
        <time>2010-01-01T04:40:36Z</time>
      </trkpt>
      <trkpt lat="37.01718900" lon="-7.93890100">
        <ele>3.0000000</ele>
        <time>2010-01-01T04:40:47Z</time>
      </trkpt>
      <trkpt lat="37.01735600" lon="-7.93921400">
        <ele>4.0000000</ele>
        <time>2010-01-01T04:40:55Z</time>
      </trkpt>
      <trkpt lat="37.01749400" lon="-7.93938800">
        <ele>4.0000000</ele>
        <time>2010-01-01T04:41:00Z</time>
      </trkpt>
      <trkpt lat="37.01803300" lon="-7.93986700">
        <ele>4.0000000</ele>
        <time>2010-01-01T04:41:18Z</time>
      </trkpt>
      <trkpt lat="37.01837100" lon="-7.94020800">
        <ele>2.0000000</ele>
        <time>2010-01-01T04:41:29Z</time>
      </trkpt>
      <trkpt lat="37.01908700" lon="-7.94081300">
        <ele>2.0000000</ele>
        <time>2010-01-01T04:41:52Z</time>
      </trkpt>
      <trkpt lat="37.01942600" lon="-7.94117400">
        <ele>4.0000000</ele>
        <time>2010-01-01T04:42:04Z</time>
      </trkpt>
      <trkpt lat="37.01997500" lon="-7.94154900">
        <ele>6.0000000</ele>
        <time>2010-01-01T04:42:21Z</time>
      </trkpt>
      <trkpt lat="37.02083500" lon="-7.94216800">
        <ele>7.0000000</ele>
        <time>2010-01-01T04:42:47Z</time>
      </trkpt>
      <trkpt lat="37.02105700" lon="-7.94232800">
        <ele>7.0000000</ele>
        <time>2010-01-01T04:42:54Z</time>
      </trkpt>
      <trkpt lat="37.02134600" lon="-7.94257800">
        <ele>8.0000000</ele>
        <time>2010-01-01T04:43:04Z</time>
      </trkpt>
      <trkpt lat="37.02212300" lon="-7.94325900">
        <ele>6.0000000</ele>
        <time>2010-01-01T04:43:29Z</time>
      </trkpt>
      <trkpt lat="37.02276100" lon="-7.94378100">
        <ele>2.0000000</ele>
        <time>2010-01-01T04:43:49Z</time>
      </trkpt>
      <trkpt lat="37.02325500" lon="-7.94419100">
        <ele>3.0000000</ele>
        <time>2010-01-01T04:44:05Z</time>
      </trkpt>
      <trkpt lat="37.02382700" lon="-7.94468400">
        <ele>1.0000000</ele>
        <time>2010-01-01T04:44:24Z</time>
      </trkpt>
      <trkpt lat="37.02437600" lon="-7.94519900">
        <ele>6.0000000</ele>
        <time>2010-01-01T04:44:42Z</time>
      </trkpt>
      <trkpt lat="37.02586300" lon="-7.94664400">
        <ele>8.0000000</ele>
        <time>2010-01-01T04:45:32Z</time>
      </trkpt>
      <trkpt lat="37.02641800" lon="-7.94715900">
        <ele>6.0000000</ele>
        <time>2010-01-01T04:45:51Z</time>
      </trkpt>
      <trkpt lat="37.02707300" lon="-7.94768000">
        <ele>6.0000000</ele>
        <time>2010-01-01T04:46:11Z</time>
      </trkpt>
      <trkpt lat="37.02719500" lon="-7.94778400">
        <ele>6.0000000</ele>
        <time>2010-01-01T04:46:15Z</time>
      </trkpt>
      <trkpt lat="37.02742800" lon="-7.94797900">
        <ele>8.0000000</ele>
        <time>2010-01-01T04:46:23Z</time>
      </trkpt>
      <trkpt lat="37.02756100" lon="-7.94806200">
        <ele>6.0000000</ele>
        <time>2010-01-01T04:46:27Z</time>
      </trkpt>
      <trkpt lat="37.02776700" lon="-7.94822200">
        <ele>3.0000000</ele>
        <time>2010-01-01T04:46:33Z</time>
      </trkpt>
      <trkpt lat="37.02795000" lon="-7.94834700">
        <ele>4.0000000</ele>
        <time>2010-01-01T04:46:39Z</time>
      </trkpt>
      <trkpt lat="37.02818800" lon="-7.94850700">
        <ele>4.0000000</ele>
        <time>2010-01-01T04:46:46Z</time>
      </trkpt>
      <trkpt lat="37.02842200" lon="-7.94867400">
        <ele>4.0000000</ele>
        <time>2010-01-01T04:46:53Z</time>
      </trkpt>
      <trkpt lat="37.02859400" lon="-7.94882700">
        <ele>3.0000000</ele>
        <time>2010-01-01T04:46:59Z</time>
      </trkpt>
      <trkpt lat="37.02877700" lon="-7.94900800">
        <ele>4.0000000</ele>
        <time>2010-01-01T04:47:05Z</time>
      </trkpt>
      <trkpt lat="37.02893200" lon="-7.94918800">
        <ele>4.0000000</ele>
        <time>2010-01-01T04:47:11Z</time>
      </trkpt>
      <trkpt lat="37.02907600" lon="-7.94940400">
        <ele>2.0000000</ele>
        <time>2010-01-01T04:47:17Z</time>
      </trkpt>
      <trkpt lat="37.02917100" lon="-7.94959200">
        <ele>1.0000000</ele>
        <time>2010-01-01T04:47:21Z</time>
      </trkpt>
      <trkpt lat="37.02938200" lon="-7.94984900">
        <ele>1.0000000</ele>
        <time>2010-01-01T04:47:29Z</time>
      </trkpt>
      <trkpt lat="37.02944300" lon="-7.94989000">
        <ele>1.0000000</ele>
        <time>2010-01-01T04:47:31Z</time>
      </trkpt>
      <trkpt lat="37.02950900" lon="-7.94988400">
        <ele>1.0000000</ele>
        <time>2010-01-01T04:47:33Z</time>
      </trkpt>
      <trkpt lat="37.02960300" lon="-7.94982800">
        <ele>2.0000000</ele>
        <time>2010-01-01T04:47:36Z</time>
      </trkpt>
      <trkpt lat="37.02970900" lon="-7.94974500">
        <ele>2.0000000</ele>
        <time>2010-01-01T04:47:39Z</time>
      </trkpt>
      <trkpt lat="37.02982000" lon="-7.94968900">
        <ele>3.0000000</ele>
        <time>2010-01-01T04:47:42Z</time>
      </trkpt>
      <trkpt lat="37.02997500" lon="-7.94969600">
        <ele>4.0000000</ele>
        <time>2010-01-01T04:47:46Z</time>
      </trkpt>
      <trkpt lat="37.03006400" lon="-7.94972400">
        <ele>5.0000000</ele>
        <time>2010-01-01T04:47:49Z</time>
      </trkpt>
      <trkpt lat="37.03020300" lon="-7.94980000">
        <ele>5.0000000</ele>
        <time>2010-01-01T04:47:53Z</time>
      </trkpt>
      <trkpt lat="37.03046400" lon="-7.94998800">
        <ele>5.0000000</ele>
        <time>2010-01-01T04:48:01Z</time>
      </trkpt>
      <trkpt lat="37.03103000" lon="-7.95039800">
        <ele>2.0000000</ele>
        <time>2010-01-01T04:48:18Z</time>
      </trkpt>
      <trkpt lat="37.03184000" lon="-7.95095400">
        <ele>3.0000000</ele>
        <time>2010-01-01T04:48:43Z</time>
      </trkpt>
      <trkpt lat="37.03282700" lon="-7.95164900">
        <ele>1.0000000</ele>
        <time>2010-01-01T04:49:13Z</time>
      </trkpt>
      <trkpt lat="37.03319400" lon="-7.95189900">
        <ele>3.0000000</ele>
        <time>2010-01-01T04:49:24Z</time>
      </trkpt>
      <trkpt lat="37.03314900" lon="-7.95208000">
        <ele>3.0000000</ele>
        <time>2010-01-01T04:49:28Z</time>
      </trkpt>
      <trkpt lat="37.03311000" lon="-7.95225400">
        <ele>3.0000000</ele>
        <time>2010-01-01T04:49:32Z</time>
      </trkpt>
      <trkpt lat="37.03306600" lon="-7.95257400">
        <ele>4.0000000</ele>
        <time>2010-01-01T04:49:39Z</time>
      </trkpt>
      <trkpt lat="37.03308300" lon="-7.95280300">
        <ele>4.0000000</ele>
        <time>2010-01-01T04:49:44Z</time>
      </trkpt>
      <trkpt lat="37.03312200" lon="-7.95299100">
        <ele>5.0000000</ele>
        <time>2010-01-01T04:49:48Z</time>
      </trkpt>
      <trkpt lat="37.03318800" lon="-7.95327600">
        <ele>5.0000000</ele>
        <time>2010-01-01T04:49:54Z</time>
      </trkpt>
      <trkpt lat="37.03324400" lon="-7.95356800">
        <ele>6.0000000</ele>
        <time>2010-01-01T04:50:01Z</time>
      </trkpt>
      <trkpt lat="37.03324400" lon="-7.95381800">
        <ele>6.0000000</ele>
        <time>2010-01-01T04:50:06Z</time>
      </trkpt>
      <trkpt lat="37.03322700" lon="-7.95395700">
        <ele>6.0000000</ele>
        <time>2010-01-01T04:50:09Z</time>
      </trkpt>
      <trkpt lat="37.03319900" lon="-7.95430400">
        <ele>7.0000000</ele>
        <time>2010-01-01T04:50:17Z</time>
      </trkpt>
      <trkpt lat="37.03313800" lon="-7.95466600">
        <ele>6.0000000</ele>
        <time>2010-01-01T04:50:24Z</time>
      </trkpt>
      <trkpt lat="37.03308300" lon="-7.95500600">
        <ele>6.0000000</ele>
        <time>2010-01-01T04:50:32Z</time>
      </trkpt>
      <trkpt lat="37.03302200" lon="-7.95515200">
        <ele>6.0000000</ele>
        <time>2010-01-01T04:50:35Z</time>
      </trkpt>
      <trkpt lat="37.03285000" lon="-7.95531900">
        <ele>7.0000000</ele>
        <time>2010-01-01T04:50:41Z</time>
      </trkpt>
      <trkpt lat="37.03265500" lon="-7.95540300">
        <ele>7.0000000</ele>
        <time>2010-01-01T04:50:47Z</time>
      </trkpt>
      <trkpt lat="37.03212800" lon="-7.95557600">
        <ele>6.0000000</ele>
        <time>2010-01-01T04:51:01Z</time>
      </trkpt>
      <trkpt lat="37.03197800" lon="-7.95568800">
        <ele>6.0000000</ele>
        <time>2010-01-01T04:51:06Z</time>
      </trkpt>
      <trkpt lat="37.03179500" lon="-7.95585400">
        <ele>9.0000000</ele>
        <time>2010-01-01T04:51:12Z</time>
      </trkpt>
      <trkpt lat="37.03164000" lon="-7.95591700">
        <ele>9.0000000</ele>
        <time>2010-01-01T04:51:16Z</time>
      </trkpt>
      <trkpt lat="37.03108000" lon="-7.95610500">
        <ele>5.0000000</ele>
        <time>2010-01-01T04:51:32Z</time>
      </trkpt>
      <trkpt lat="37.03036400" lon="-7.95636200">
        <ele>7.0000000</ele>
        <time>2010-01-01T04:51:52Z</time>
      </trkpt>
      <trkpt lat="37.02947000" lon="-7.95668200">
        <ele>6.0000000</ele>
        <time>2010-01-01T04:52:16Z</time>
      </trkpt>
      <trkpt lat="37.02894900" lon="-7.95686900">
        <ele>8.0000000</ele>
        <time>2010-01-01T04:52:31Z</time>
      </trkpt>
      <trkpt lat="37.02834900" lon="-7.95706400">
        <ele>9.0000000</ele>
        <time>2010-01-01T04:52:47Z</time>
      </trkpt>
      <trkpt lat="37.02761100" lon="-7.95727200">
        <ele>9.0000000</ele>
        <time>2010-01-01T04:53:08Z</time>
      </trkpt>
      <trkpt lat="37.02688400" lon="-7.95753000">
        <ele>8.0000000</ele>
        <time>2010-01-01T04:53:28Z</time>
      </trkpt>
      <trkpt lat="37.02659600" lon="-7.95767500">
        <ele>9.0000000</ele>
        <time>2010-01-01T04:53:36Z</time>
      </trkpt>
      <trkpt lat="37.02616900" lon="-7.95794000">
        <ele>10.000000</ele>
        <time>2010-01-01T04:53:49Z</time>
      </trkpt>
      <trkpt lat="37.02564700" lon="-7.95823900">
        <ele>9.0000000</ele>
        <time>2010-01-01T04:54:04Z</time>
      </trkpt>
      <trkpt lat="37.02554700" lon="-7.95825900">
        <ele>8.0000000</ele>
        <time>2010-01-01T04:54:07Z</time>
      </trkpt>
      <trkpt lat="37.02541400" lon="-7.95828700">
        <ele>6.0000000</ele>
        <time>2010-01-01T04:54:10Z</time>
      </trkpt>
      <trkpt lat="37.02514200" lon="-7.95835000">
        <ele>4.0000000</ele>
        <time>2010-01-01T04:54:18Z</time>
      </trkpt>
      <trkpt lat="37.02491400" lon="-7.95844000">
        <ele>5.0000000</ele>
        <time>2010-01-01T04:54:24Z</time>
      </trkpt>
      <trkpt lat="37.02477000" lon="-7.95853000">
        <ele>6.0000000</ele>
        <time>2010-01-01T04:54:28Z</time>
      </trkpt>
      <trkpt lat="37.02461500" lon="-7.95858600">
        <ele>6.0000000</ele>
        <time>2010-01-01T04:54:33Z</time>
      </trkpt>
      <trkpt lat="37.02420400" lon="-7.95869700">
        <ele>8.0000000</ele>
        <time>2010-01-01T04:54:44Z</time>
      </trkpt>
      <trkpt lat="37.02399300" lon="-7.95879500">
        <ele>8.0000000</ele>
        <time>2010-01-01T04:54:50Z</time>
      </trkpt>
      <trkpt lat="37.02376600" lon="-7.95921200">
        <ele>7.0000000</ele>
        <time>2010-01-01T04:55:01Z</time>
      </trkpt>
      <trkpt lat="37.02363200" lon="-7.95930900">
        <ele>7.0000000</ele>
        <time>2010-01-01T04:55:05Z</time>
      </trkpt>
      <trkpt lat="37.02314400" lon="-7.95937200">
        <ele>7.0000000</ele>
        <time>2010-01-01T04:55:18Z</time>
      </trkpt>
      <trkpt lat="37.02290000" lon="-7.95939200">
        <ele>7.0000000</ele>
        <time>2010-01-01T04:55:25Z</time>
      </trkpt>
      <trkpt lat="37.02275600" lon="-7.95945500">
        <ele>8.0000000</ele>
        <time>2010-01-01T04:55:29Z</time>
      </trkpt>
      <trkpt lat="37.02261700" lon="-7.95951700">
        <ele>9.0000000</ele>
        <time>2010-01-01T04:55:33Z</time>
      </trkpt>
      <trkpt lat="37.02246700" lon="-7.95964300">
        <ele>9.0000000</ele>
        <time>2010-01-01T04:55:37Z</time>
      </trkpt>
      <trkpt lat="37.02211200" lon="-7.95994800">
        <ele>9.0000000</ele>
        <time>2010-01-01T04:55:49Z</time>
      </trkpt>
      <trkpt lat="37.02119600" lon="-7.96079600">
        <ele>6.0000000</ele>
        <time>2010-01-01T04:56:19Z</time>
      </trkpt>
      <trkpt lat="37.02100700" lon="-7.96098400">
        <ele>4.0000000</ele>
        <time>2010-01-01T04:56:26Z</time>
      </trkpt>
      <trkpt lat="37.01981400" lon="-7.96296500">
        <ele>4.0000000</ele>
        <time>2010-01-01T04:57:19Z</time>
      </trkpt>
      <trkpt lat="37.01969200" lon="-7.96320100">
        <ele>3.0000000</ele>
        <time>2010-01-01T04:57:25Z</time>
      </trkpt>
      <trkpt lat="37.01961500" lon="-7.96321500">
        <ele>3.0000000</ele>
        <time>2010-01-01T04:57:27Z</time>
      </trkpt>
      <trkpt lat="37.01879300" lon="-7.96199200">
        <ele>3.0000000</ele>
        <time>2010-01-01T04:58:01Z</time>
      </trkpt>
      <trkpt lat="37.01814900" lon="-7.96082400">
        <ele>3.0000000</ele>
        <time>2010-01-01T04:58:31Z</time>
      </trkpt>
      <trkpt lat="37.01795000" lon="-7.96063000">
        <ele>3.0000000</ele>
        <time>2010-01-01T04:58:38Z</time>
      </trkpt>
      <trkpt lat="37.01775000" lon="-7.96057400">
        <ele>3.0000000</ele>
        <time>2010-01-01T04:58:43Z</time>
      </trkpt>
      <trkpt lat="37.01759400" lon="-7.95997600">
        <ele>3.0000000</ele>
        <time>2010-01-01T04:58:57Z</time>
      </trkpt>
      <trkpt lat="37.01740600" lon="-7.95905900">
        <ele>5.0000000</ele>
        <time>2010-01-01T04:59:17Z</time>
      </trkpt>
      <trkpt lat="37.01727200" lon="-7.95854400">
        <ele>3.0000000</ele>
        <time>2010-01-01T04:59:28Z</time>
      </trkpt>
      <trkpt lat="37.01713900" lon="-7.95783500">
        <ele>0.0000000</ele>
        <time>2010-01-01T04:59:44Z</time>
      </trkpt>
      <trkpt lat="37.01692800" lon="-7.95754300">
        <ele>1.0000000</ele>
        <time>2010-01-01T04:59:52Z</time>
      </trkpt>
      <trkpt lat="37.01678400" lon="-7.95740400">
        <ele>1.0000000</ele>
        <time>2010-01-01T04:59:57Z</time>
      </trkpt>
      <trkpt lat="37.01659500" lon="-7.95768200">
        <ele>1.0000000</ele>
        <time>2010-01-01T05:00:05Z</time>
      </trkpt>
      <trkpt lat="37.01645100" lon="-7.95762700">
        <ele>1.0000000</ele>
        <time>2010-01-01T05:00:09Z</time>
      </trkpt>
      <trkpt lat="37.01626200" lon="-7.95761300">
        <ele>1.0000000</ele>
        <time>2010-01-01T05:00:14Z</time>
      </trkpt>
      <trkpt lat="37.01605100" lon="-7.95762700">
        <ele>1.0000000</ele>
        <time>2010-01-01T05:00:19Z</time>
      </trkpt>
      <trkpt lat="37.01568500" lon="-7.95768200">
        <ele>0.0000000</ele>
        <time>2010-01-01T05:00:29Z</time>
      </trkpt>
      <trkpt lat="37.01547400" lon="-7.95765500">
        <ele>0.0000000</ele>
        <time>2010-01-01T05:00:35Z</time>
      </trkpt>
      <trkpt lat="37.01521900" lon="-7.95743200">
        <ele>2.0000000</ele>
        <time>2010-01-01T05:00:43Z</time>
      </trkpt>
      <trkpt lat="37.01478600" lon="-7.95665400">
        <ele>1.0000000</ele>
        <time>2010-01-01T05:01:03Z</time>
      </trkpt>
      <trkpt lat="37.01454200" lon="-7.95627800">
        <ele>1.0000000</ele>
        <time>2010-01-01T05:01:14Z</time>
      </trkpt>
      <trkpt lat="37.01438600" lon="-7.95613900">
        <ele>2.0000000</ele>
        <time>2010-01-01T05:01:19Z</time>
      </trkpt>
      <trkpt lat="37.01402000" lon="-7.95608400">
        <ele>2.0000000</ele>
        <time>2010-01-01T05:01:29Z</time>
      </trkpt>
      <trkpt lat="37.01370900" lon="-7.95607000">
        <ele>1.0000000</ele>
        <time>2010-01-01T05:01:37Z</time>
      </trkpt>
      <trkpt lat="37.01352100" lon="-7.95593100">
        <ele>1.0000000</ele>
        <time>2010-01-01T05:01:43Z</time>
      </trkpt>
      <trkpt lat="37.01337600" lon="-7.95561100">
        <ele>3.0000000</ele>
        <time>2010-01-01T05:01:51Z</time>
      </trkpt>
      <trkpt lat="37.01326500" lon="-7.95516600">
        <ele>3.0000000</ele>
        <time>2010-01-01T05:02:01Z</time>
      </trkpt>
      <trkpt lat="37.01316500" lon="-7.95427600">
        <ele>0.0000000</ele>
        <time>2010-01-01T05:02:20Z</time>
      </trkpt>
      <trkpt lat="37.01307700" lon="-7.95351200">
        <ele>2.0000000</ele>
        <time>2010-01-01T05:02:36Z</time>
      </trkpt>
      <trkpt lat="37.01294300" lon="-7.95324800">
        <ele>2.0000000</ele>
        <time>2010-01-01T05:02:43Z</time>
      </trkpt>
      <trkpt lat="37.01281000" lon="-7.95315000">
        <ele>2.0000000</ele>
        <time>2010-01-01T05:02:47Z</time>
      </trkpt>
      <trkpt lat="37.01254400" lon="-7.95319200">
        <ele>3.0000000</ele>
        <time>2010-01-01T05:02:54Z</time>
      </trkpt>
      <trkpt lat="37.01239900" lon="-7.95324800">
        <ele>3.0000000</ele>
        <time>2010-01-01T05:02:58Z</time>
      </trkpt>
      <trkpt lat="37.01231100" lon="-7.95348400">
        <ele>3.0000000</ele>
        <time>2010-01-01T05:03:04Z</time>
      </trkpt>
      <trkpt lat="37.01244400" lon="-7.95452700">
        <ele>1.0000000</ele>
        <time>2010-01-01T05:03:26Z</time>
      </trkpt>
      <trkpt lat="37.01253300" lon="-7.95530500">
        <ele>1.0000000</ele>
        <time>2010-01-01T05:03:43Z</time>
      </trkpt>
      <trkpt lat="37.01246600" lon="-7.95536100">
        <ele>1.0000000</ele>
        <time>2010-01-01T05:03:45Z</time>
      </trkpt>
      <trkpt lat="37.01251000" lon="-7.95562500">
        <ele>3.0000000</ele>
        <time>2010-01-01T05:03:51Z</time>
      </trkpt>
      <trkpt lat="37.01257700" lon="-7.95591700">
        <ele>3.0000000</ele>
        <time>2010-01-01T05:03:57Z</time>
      </trkpt>
      <trkpt lat="37.01245500" lon="-7.95616700">
        <ele>3.0000000</ele>
        <time>2010-01-01T05:04:04Z</time>
      </trkpt>
      <trkpt lat="37.01231100" lon="-7.95630600">
        <ele>4.0000000</ele>
        <time>2010-01-01T05:04:09Z</time>
      </trkpt>
      <trkpt lat="37.01212200" lon="-7.95639000">
        <ele>5.0000000</ele>
        <time>2010-01-01T05:04:14Z</time>
      </trkpt>
      <trkpt lat="37.01184400" lon="-7.95651500">
        <ele>4.0000000</ele>
        <time>2010-01-01T05:04:22Z</time>
      </trkpt>
      <trkpt lat="37.01163300" lon="-7.95670900">
        <ele>3.0000000</ele>
        <time>2010-01-01T05:04:29Z</time>
      </trkpt>
      <trkpt lat="37.01155600" lon="-7.95709900">
        <ele>2.0000000</ele>
        <time>2010-01-01T05:04:37Z</time>
      </trkpt>
      <trkpt lat="37.01163300" lon="-7.95741800">
        <ele>3.0000000</ele>
        <time>2010-01-01T05:04:44Z</time>
      </trkpt>
      <trkpt lat="37.01166700" lon="-7.95769600">
        <ele>6.0000000</ele>
        <time>2010-01-01T05:04:50Z</time>
      </trkpt>
      <trkpt lat="37.01176700" lon="-7.95816900">
        <ele>8.0000000</ele>
        <time>2010-01-01T05:05:01Z</time>
      </trkpt>
      <trkpt lat="37.01174400" lon="-7.95844100">
        <ele>7.0000000</ele>
        <time>2010-01-01T05:05:07Z</time>
      </trkpt>
      <trkpt lat="37.01168900" lon="-7.95858600">
        <ele>7.0000000</ele>
        <time>2010-01-01T05:05:10Z</time>
      </trkpt>
      <trkpt lat="37.01135600" lon="-7.95893400">
        <ele>5.0000000</ele>
        <time>2010-01-01T05:05:22Z</time>
      </trkpt>
      <trkpt lat="37.01203300" lon="-7.96015700">
        <ele>3.0000000</ele>
        <time>2010-01-01T05:05:53Z</time>
      </trkpt>
      <trkpt lat="37.01224400" lon="-7.96111600">
        <ele>5.0000000</ele>
        <time>2010-01-01T05:06:15Z</time>
      </trkpt>
      <trkpt lat="37.01204300" lon="-7.96186100">
        <ele>5.0000000</ele>
        <time>2010-01-01T05:06:31Z</time>
      </trkpt>
      <trkpt lat="37.01191100" lon="-7.96260400">
        <ele>5.0000000</ele>
        <time>2010-01-01T05:06:48Z</time>
      </trkpt>
      <trkpt lat="37.01143400" lon="-7.96317400">
        <ele>5.0000000</ele>
        <time>2010-01-01T05:07:05Z</time>
      </trkpt>
      <trkpt lat="37.01177800" lon="-7.96430000">
        <ele>1.0000000</ele>
        <time>2010-01-01T05:07:31Z</time>
      </trkpt>
      <trkpt lat="37.01170700" lon="-7.96484600">
        <ele>1.0000000</ele>
        <time>2010-01-01T05:07:43Z</time>
      </trkpt>
      <trkpt lat="37.01155600" lon="-7.96528700">
        <ele>2.0000000</ele>
        <time>2010-01-01T05:07:53Z</time>
      </trkpt>
      <trkpt lat="37.01226600" lon="-7.96740000">
        <ele>1.0000000</ele>
        <time>2010-01-01T05:08:42Z</time>
      </trkpt>
      <trkpt lat="37.01236600" lon="-7.96741400">
        <ele>1.0000000</ele>
        <time>2010-01-01T05:08:44Z</time>
      </trkpt>
      <trkpt lat="37.01253300" lon="-7.96737200">
        <ele>0.0000000</ele>
        <time>2010-01-01T05:08:49Z</time>
      </trkpt>
      <trkpt lat="37.01273200" lon="-7.96737200">
        <ele>0.0000000</ele>
        <time>2010-01-01T05:08:54Z</time>
      </trkpt>
      <trkpt lat="37.01306500" lon="-7.96727500">
        <ele>2.0000000</ele>
        <time>2010-01-01T05:09:03Z</time>
      </trkpt>
      <trkpt lat="37.01321000" lon="-7.96737200">
        <ele>3.0000000</ele>
        <time>2010-01-01T05:09:08Z</time>
      </trkpt>
      <trkpt lat="37.01325400" lon="-7.96763600">
        <ele>3.0000000</ele>
        <time>2010-01-01T05:09:13Z</time>
      </trkpt>
      <trkpt lat="37.01353200" lon="-7.96930400">
        <ele>3.0000000</ele>
        <time>2010-01-01T05:09:50Z</time>
      </trkpt>
      <trkpt lat="37.01377600" lon="-7.97077800">
        <ele>3.0000000</ele>
        <time>2010-01-01T05:10:22Z</time>
      </trkpt>
      <trkpt lat="37.01370900" lon="-7.97113900">
        <ele>3.0000000</ele>
        <time>2010-01-01T05:10:30Z</time>
      </trkpt>
      <trkpt lat="37.01327600" lon="-7.97141700">
        <ele>4.0000000</ele>
        <time>2010-01-01T05:10:43Z</time>
      </trkpt>
      <trkpt lat="37.01285500" lon="-7.97180700">
        <ele>3.0000000</ele>
        <time>2010-01-01T05:10:57Z</time>
      </trkpt>
      <trkpt lat="37.01168900" lon="-7.97261300">
        <ele>3.0000000</ele>
        <time>2010-01-01T05:11:32Z</time>
      </trkpt>
      <trkpt lat="37.01133400" lon="-7.97286300">
        <ele>2.0000000</ele>
        <time>2010-01-01T05:11:43Z</time>
      </trkpt>
      <trkpt lat="37.01147800" lon="-7.97353000">
        <ele>4.0000000</ele>
        <time>2010-01-01T05:11:58Z</time>
      </trkpt>
      <trkpt lat="37.01181100" lon="-7.97494800">
        <ele>4.0000000</ele>
        <time>2010-01-01T05:12:29Z</time>
      </trkpt>
      <trkpt lat="37.01243300" lon="-7.97756200">
        <ele>0.0000000</ele>
        <time>2010-01-01T05:13:27Z</time>
      </trkpt>
      <trkpt lat="37.01405300" lon="-7.97785400">
        <ele>4.0000000</ele>
        <time>2010-01-01T05:14:11Z</time>
      </trkpt>
      <trkpt lat="37.01416400" lon="-7.97785400">
        <ele>4.0000000</ele>
        <time>2010-01-01T05:14:14Z</time>
      </trkpt>
      <trkpt lat="37.01432000" lon="-7.97774300">
        <ele>4.0000000</ele>
        <time>2010-01-01T05:14:19Z</time>
      </trkpt>
      <trkpt lat="37.01449700" lon="-7.97765900">
        <ele>4.0000000</ele>
        <time>2010-01-01T05:14:24Z</time>
      </trkpt>
      <trkpt lat="37.01456400" lon="-7.97770100">
        <ele>4.0000000</ele>
        <time>2010-01-01T05:14:26Z</time>
      </trkpt>
      <trkpt lat="37.01554100" lon="-7.98451300">
        <ele>5.0000000</ele>
        <time>2010-01-01T05:16:53Z</time>
      </trkpt>
      <trkpt lat="37.01556300" lon="-7.98506900">
        <ele>3.0000000</ele>
        <time>2010-01-01T05:17:05Z</time>
      </trkpt>
      <trkpt lat="37.01558500" lon="-7.98561100">
        <ele>3.0000000</ele>
        <time>2010-01-01T05:17:17Z</time>
      </trkpt>
      <trkpt lat="37.01557400" lon="-7.98612600">
        <ele>4.0000000</ele>
        <time>2010-01-01T05:17:28Z</time>
      </trkpt>
      <trkpt lat="37.01568500" lon="-7.98652900">
        <ele>2.0000000</ele>
        <time>2010-01-01T05:17:37Z</time>
      </trkpt>
      <trkpt lat="37.01564600" lon="-7.98660500">
        <ele>2.0000000</ele>
        <time>2010-01-01T05:17:39Z</time>
      </trkpt>
      <trkpt lat="37.01461700" lon="-7.98769700">
        <ele>0.0000000</ele>
        <time>2010-01-01T05:18:15Z</time>
      </trkpt>
      <trkpt lat="37.01462400" lon="-7.98787700">
        <ele>0.0000000</ele>
        <time>2010-01-01T05:18:19Z</time>
      </trkpt>
      <trkpt lat="37.01463100" lon="-7.98800900">
        <ele>0.0000000</ele>
        <time>2010-01-01T05:18:22Z</time>
      </trkpt>
      <trkpt lat="37.01685600" lon="-7.98823200">
        <ele>1.0000000</ele>
        <time>2010-01-01T05:19:21Z</time>
      </trkpt>
      <trkpt lat="37.01672900" lon="-7.98918400">
        <ele>-2.000000</ele>
        <time>2010-01-01T05:19:42Z</time>
      </trkpt>
      <trkpt lat="37.01651200" lon="-7.99067800">
        <ele>-1.000000</ele>
        <time>2010-01-01T05:20:14Z</time>
      </trkpt>
      <trkpt lat="37.01646800" lon="-7.99126900">
        <ele>0.0000000</ele>
        <time>2010-01-01T05:20:27Z</time>
      </trkpt>
      <trkpt lat="37.01690100" lon="-7.99296500">
        <ele>2.0000000</ele>
        <time>2010-01-01T05:21:05Z</time>
      </trkpt>
      <trkpt lat="37.01734500" lon="-7.99471000">
        <ele>-1.000000</ele>
        <time>2010-01-01T05:21:44Z</time>
      </trkpt>
      <trkpt lat="37.01767200" lon="-7.99600300">
        <ele>4.0000000</ele>
        <time>2010-01-01T05:22:13Z</time>
      </trkpt>
      <trkpt lat="37.01840500" lon="-7.99886700">
        <ele>3.0000000</ele>
        <time>2010-01-01T05:23:17Z</time>
      </trkpt>
      <trkpt lat="37.01874900" lon="-8.00021500">
        <ele>3.0000000</ele>
        <time>2010-01-01T05:23:47Z</time>
      </trkpt>
      <trkpt lat="37.01883800" lon="-8.00075000">
        <ele>1.0000000</ele>
        <time>2010-01-01T05:23:58Z</time>
      </trkpt>
      <trkpt lat="37.01888200" lon="-8.00102600">
        <ele>0.0000000</ele>
        <time>2010-01-01T05:24:04Z</time>
      </trkpt>
      <trkpt lat="37.01915900" lon="-8.00159800">
        <ele>0.0000000</ele>
        <time>2010-01-01T05:24:19Z</time>
      </trkpt>
      <trkpt lat="37.01959200" lon="-8.00268300">
        <ele>1.0000000</ele>
        <time>2010-01-01T05:24:44Z</time>
      </trkpt>
      <trkpt lat="37.02025300" lon="-8.00435800">
        <ele>1.0000000</ele>
        <time>2010-01-01T05:25:24Z</time>
      </trkpt>
      <trkpt lat="37.02145700" lon="-8.00738100">
        <ele>1.0000000</ele>
        <time>2010-01-01T05:26:36Z</time>
      </trkpt>
      <trkpt lat="37.02252800" lon="-8.01003000">
        <ele>-1.000000</ele>
        <time>2010-01-01T05:27:40Z</time>
      </trkpt>
      <trkpt lat="37.02426500" lon="-8.01440900">
        <ele>3.0000000</ele>
        <time>2010-01-01T05:29:24Z</time>
      </trkpt>
      <trkpt lat="37.02467600" lon="-8.01544400">
        <ele>4.0000000</ele>
        <time>2010-01-01T05:29:48Z</time>
      </trkpt>
      <trkpt lat="37.02467600" lon="-8.01544400">
        <ele>4.0000000</ele>
        <time>2010-01-01T00:00:00Z</time>
      </trkpt>
      <trkpt lat="37.02473100" lon="-8.01516600">
        <ele>4.0000000</ele>
        <time>2010-01-01T00:00:09Z</time>
      </trkpt>
      <trkpt lat="37.02484200" lon="-8.01420700">
        <ele>2.0000000</ele>
        <time>2010-01-01T00:00:40Z</time>
      </trkpt>
      <trkpt lat="37.02483100" lon="-8.01384600">
        <ele>2.0000000</ele>
        <time>2010-01-01T00:00:51Z</time>
      </trkpt>
      <trkpt lat="37.02470900" lon="-8.01342900">
        <ele>3.0000000</ele>
        <time>2010-01-01T00:01:05Z</time>
      </trkpt>
      <trkpt lat="37.02460900" lon="-8.01270600">
        <ele>4.0000000</ele>
        <time>2010-01-01T00:01:29Z</time>
      </trkpt>
      <trkpt lat="37.02452000" lon="-8.01226100">
        <ele>3.0000000</ele>
        <time>2010-01-01T00:01:43Z</time>
      </trkpt>
      <trkpt lat="37.02453100" lon="-8.01212200">
        <ele>2.0000000</ele>
        <time>2010-01-01T00:01:48Z</time>
      </trkpt>
      <trkpt lat="37.02456500" lon="-8.01169100">
        <ele>2.0000000</ele>
        <time>2010-01-01T00:02:02Z</time>
      </trkpt>
      <trkpt lat="37.02458700" lon="-8.01050900">
        <ele>2.0000000</ele>
        <time>2010-01-01T00:02:40Z</time>
      </trkpt>
      <trkpt lat="37.02457600" lon="-8.01009200">
        <ele>3.0000000</ele>
        <time>2010-01-01T00:02:53Z</time>
      </trkpt>
      <trkpt lat="37.02453100" lon="-8.00939700">
        <ele>5.0000000</ele>
        <time>2010-01-01T00:03:15Z</time>
      </trkpt>
      <trkpt lat="37.02450900" lon="-8.00896600">
        <ele>4.0000000</ele>
        <time>2010-01-01T00:03:29Z</time>
      </trkpt>
      <trkpt lat="37.02450900" lon="-8.00843800">
        <ele>5.0000000</ele>
        <time>2010-01-01T00:03:46Z</time>
      </trkpt>
      <trkpt lat="37.02446500" lon="-8.00807600">
        <ele>7.0000000</ele>
        <time>2010-01-01T00:03:58Z</time>
      </trkpt>
      <trkpt lat="37.02432100" lon="-8.00771500">
        <ele>8.0000000</ele>
        <time>2010-01-01T00:04:10Z</time>
      </trkpt>
      <trkpt lat="37.02428700" lon="-8.00743700">
        <ele>8.0000000</ele>
        <time>2010-01-01T00:04:19Z</time>
      </trkpt>
      <trkpt lat="37.02455400" lon="-8.00678400">
        <ele>5.0000000</ele>
        <time>2010-01-01T00:04:43Z</time>
      </trkpt>
      <trkpt lat="37.02476500" lon="-8.00640800">
        <ele>4.0000000</ele>
        <time>2010-01-01T00:04:58Z</time>
      </trkpt>
      <trkpt lat="37.02500900" lon="-8.00621400">
        <ele>4.0000000</ele>
        <time>2010-01-01T00:05:09Z</time>
      </trkpt>
      <trkpt lat="37.02520800" lon="-8.00614400">
        <ele>4.0000000</ele>
        <time>2010-01-01T00:05:17Z</time>
      </trkpt>
      <trkpt lat="37.02544200" lon="-8.00606100">
        <ele>5.0000000</ele>
        <time>2010-01-01T00:05:27Z</time>
      </trkpt>
      <trkpt lat="37.02561900" lon="-8.00582400">
        <ele>5.0000000</ele>
        <time>2010-01-01T00:05:38Z</time>
      </trkpt>
      <trkpt lat="37.02570800" lon="-8.00574100">
        <ele>5.0000000</ele>
        <time>2010-01-01T00:05:42Z</time>
      </trkpt>
      <trkpt lat="37.02601900" lon="-8.00567100">
        <ele>7.0000000</ele>
        <time>2010-01-01T00:05:55Z</time>
      </trkpt>
      <trkpt lat="37.02652900" lon="-8.00546300">
        <ele>7.0000000</ele>
        <time>2010-01-01T00:06:16Z</time>
      </trkpt>
      <trkpt lat="37.02739500" lon="-8.00518500">
        <ele>5.0000000</ele>
        <time>2010-01-01T00:06:52Z</time>
      </trkpt>
      <trkpt lat="37.02824400" lon="-8.00492800">
        <ele>8.0000000</ele>
        <time>2010-01-01T00:07:27Z</time>
      </trkpt>
      <trkpt lat="37.02878800" lon="-8.00473300">
        <ele>10.000000</ele>
        <time>2010-01-01T00:07:49Z</time>
      </trkpt>
      <trkpt lat="37.02899900" lon="-8.00466400">
        <ele>10.000000</ele>
        <time>2010-01-01T00:07:58Z</time>
      </trkpt>
      <trkpt lat="37.02910400" lon="-8.00469800">
        <ele>10.000000</ele>
        <time>2010-01-01T00:08:03Z</time>
      </trkpt>
      <trkpt lat="37.02921000" lon="-8.00475600">
        <ele>10.000000</ele>
        <time>2010-01-01T00:08:07Z</time>
      </trkpt>
      <trkpt lat="37.02921000" lon="-8.00506000">
        <ele>11.000000</ele>
        <time>2010-01-01T00:08:17Z</time>
      </trkpt>
      <trkpt lat="37.02929800" lon="-8.00543500">
        <ele>12.000000</ele>
        <time>2010-01-01T00:08:29Z</time>
      </trkpt>
      <trkpt lat="37.02945400" lon="-8.00567100">
        <ele>13.000000</ele>
        <time>2010-01-01T00:08:39Z</time>
      </trkpt>
      <trkpt lat="37.02964800" lon="-8.00586600">
        <ele>12.000000</ele>
        <time>2010-01-01T00:08:49Z</time>
      </trkpt>
      <trkpt lat="37.02998600" lon="-8.00624800">
        <ele>10.000000</ele>
        <time>2010-01-01T00:09:07Z</time>
      </trkpt>
      <trkpt lat="37.02996400" lon="-8.00640100">
        <ele>11.000000</ele>
        <time>2010-01-01T00:09:12Z</time>
      </trkpt>
      <trkpt lat="37.02997500" lon="-8.00656800">
        <ele>11.000000</ele>
        <time>2010-01-01T00:09:18Z</time>
      </trkpt>
      <trkpt lat="37.03010800" lon="-8.00670700">
        <ele>11.000000</ele>
        <time>2010-01-01T00:09:25Z</time>
      </trkpt>
      <trkpt lat="37.03051900" lon="-8.00695700">
        <ele>11.000000</ele>
        <time>2010-01-01T00:09:43Z</time>
      </trkpt>
      <trkpt lat="37.03130500" lon="-8.00748600">
        <ele>11.000000</ele>
        <time>2010-01-01T00:10:19Z</time>
      </trkpt>
      <trkpt lat="37.03175100" lon="-8.00762500">
        <ele>9.0000000</ele>
        <time>2010-01-01T00:10:37Z</time>
      </trkpt>
      <trkpt lat="37.03243900" lon="-8.00775000">
        <ele>6.0000000</ele>
        <time>2010-01-01T00:11:05Z</time>
      </trkpt>
      <trkpt lat="37.03344500" lon="-8.00789200">
        <ele>10.000000</ele>
        <time>2010-01-01T00:11:45Z</time>
      </trkpt>
      <trkpt lat="37.03386000" lon="-8.00794400">
        <ele>7.0000000</ele>
        <time>2010-01-01T00:12:02Z</time>
      </trkpt>
      <trkpt lat="37.03401500" lon="-8.00800000">
        <ele>7.0000000</ele>
        <time>2010-01-01T00:12:09Z</time>
      </trkpt>
      <trkpt lat="37.03422600" lon="-8.00800000">
        <ele>6.0000000</ele>
        <time>2010-01-01T00:12:17Z</time>
      </trkpt>
      <trkpt lat="37.03503600" lon="-8.00809700">
        <ele>6.0000000</ele>
        <time>2010-01-01T00:12:50Z</time>
      </trkpt>
      <trkpt lat="37.03600100" lon="-8.00829200">
        <ele>6.0000000</ele>
        <time>2010-01-01T00:13:29Z</time>
      </trkpt>
      <trkpt lat="37.03673400" lon="-8.00843100">
        <ele>7.0000000</ele>
        <time>2010-01-01T00:13:58Z</time>
      </trkpt>
      <trkpt lat="37.03693300" lon="-8.00847300">
        <ele>7.0000000</ele>
        <time>2010-01-01T00:14:06Z</time>
      </trkpt>
      <trkpt lat="37.03722200" lon="-8.00854200">
        <ele>10.000000</ele>
        <time>2010-01-01T00:14:18Z</time>
      </trkpt>
      <trkpt lat="37.03740800" lon="-8.00879700">
        <ele>10.000000</ele>
        <time>2010-01-01T00:14:29Z</time>
      </trkpt>
      <trkpt lat="37.03768800" lon="-8.00916800">
        <ele>8.0000000</ele>
        <time>2010-01-01T00:14:46Z</time>
      </trkpt>
      <trkpt lat="37.03794300" lon="-8.00961300">
        <ele>11.000000</ele>
        <time>2010-01-01T00:15:03Z</time>
      </trkpt>
      <trkpt lat="37.03807600" lon="-8.00998800">
        <ele>14.000000</ele>
        <time>2010-01-01T00:15:16Z</time>
      </trkpt>
      <trkpt lat="37.03837600" lon="-8.01110000">
        <ele>20.000000</ele>
        <time>2010-01-01T00:15:54Z</time>
      </trkpt>
      <trkpt lat="37.03844300" lon="-8.01108600">
        <ele>20.000000</ele>
        <time>2010-01-01T00:15:56Z</time>
      </trkpt>
      <trkpt lat="37.03850900" lon="-8.01097500">
        <ele>19.000000</ele>
        <time>2010-01-01T00:16:01Z</time>
      </trkpt>
      <trkpt lat="37.03855400" lon="-8.01078000">
        <ele>18.000000</ele>
        <time>2010-01-01T00:16:07Z</time>
      </trkpt>
      <trkpt lat="37.03855400" lon="-8.01057200">
        <ele>17.000000</ele>
        <time>2010-01-01T00:16:14Z</time>
      </trkpt>
      <trkpt lat="37.03860900" lon="-8.01032200">
        <ele>16.000000</ele>
        <time>2010-01-01T00:16:22Z</time>
      </trkpt>
      <trkpt lat="37.03874200" lon="-8.00991800">
        <ele>14.000000</ele>
        <time>2010-01-01T00:16:36Z</time>
      </trkpt>
      <trkpt lat="37.03909700" lon="-8.00927900">
        <ele>13.000000</ele>
        <time>2010-01-01T00:17:01Z</time>
      </trkpt>
      <trkpt lat="37.03925300" lon="-8.00900100">
        <ele>10.000000</ele>
        <time>2010-01-01T00:17:12Z</time>
      </trkpt>
      <trkpt lat="37.03941900" lon="-8.00912600">
        <ele>10.000000</ele>
        <time>2010-01-01T00:17:20Z</time>
      </trkpt>
      <trkpt lat="37.03983000" lon="-8.00922300">
        <ele>12.000000</ele>
        <time>2010-01-01T00:17:36Z</time>
      </trkpt>
      <trkpt lat="37.04012900" lon="-8.00930700">
        <ele>12.000000</ele>
        <time>2010-01-01T00:17:49Z</time>
      </trkpt>
      <trkpt lat="37.04076200" lon="-8.00948700">
        <ele>7.0000000</ele>
        <time>2010-01-01T00:18:15Z</time>
      </trkpt>
      <trkpt lat="37.04140500" lon="-8.00964000">
        <ele>8.0000000</ele>
        <time>2010-01-01T00:18:41Z</time>
      </trkpt>
      <trkpt lat="37.04187100" lon="-8.00982100">
        <ele>6.0000000</ele>
        <time>2010-01-01T00:19:00Z</time>
      </trkpt>
      <trkpt lat="37.04240400" lon="-8.00996000">
        <ele>8.0000000</ele>
        <time>2010-01-01T00:19:22Z</time>
      </trkpt>
      <trkpt lat="37.04280400" lon="-8.00991800">
        <ele>7.0000000</ele>
        <time>2010-01-01T00:19:38Z</time>
      </trkpt>
      <trkpt lat="37.04340300" lon="-8.00997400">
        <ele>6.0000000</ele>
        <time>2010-01-01T00:20:02Z</time>
      </trkpt>
      <trkpt lat="37.04386900" lon="-8.01032200">
        <ele>6.0000000</ele>
        <time>2010-01-01T00:20:24Z</time>
      </trkpt>
      <trkpt lat="37.04447900" lon="-8.01071100">
        <ele>3.0000000</ele>
        <time>2010-01-01T00:20:51Z</time>
      </trkpt>
      <trkpt lat="37.04481200" lon="-8.01075600">
        <ele>2.0000000</ele>
        <time>2010-01-01T00:21:05Z</time>
      </trkpt>
      <trkpt lat="37.04525600" lon="-8.01080800">
        <ele>2.0000000</ele>
        <time>2010-01-01T00:21:23Z</time>
      </trkpt>
      <trkpt lat="37.04566600" lon="-8.01080800">
        <ele>6.0000000</ele>
        <time>2010-01-01T00:21:39Z</time>
      </trkpt>
      <trkpt lat="37.04602100" lon="-8.01082300">
        <ele>5.0000000</ele>
        <time>2010-01-01T00:21:53Z</time>
      </trkpt>
      <trkpt lat="37.04638800" lon="-8.01090500">
        <ele>3.0000000</ele>
        <time>2010-01-01T00:22:08Z</time>
      </trkpt>
      <trkpt lat="37.04692100" lon="-8.01109400">
        <ele>6.0000000</ele>
        <time>2010-01-01T00:22:30Z</time>
      </trkpt>
      <trkpt lat="37.04767500" lon="-8.01146200">
        <ele>6.0000000</ele>
        <time>2010-01-01T00:23:03Z</time>
      </trkpt>
      <trkpt lat="37.04776300" lon="-8.01151700">
        <ele>6.0000000</ele>
        <time>2010-01-01T00:23:07Z</time>
      </trkpt>
      <trkpt lat="37.04793200" lon="-8.01157900">
        <ele>5.0000000</ele>
        <time>2010-01-01T00:23:14Z</time>
      </trkpt>
      <trkpt lat="37.04808500" lon="-8.01164200">
        <ele>4.0000000</ele>
        <time>2010-01-01T00:23:20Z</time>
      </trkpt>
      <trkpt lat="37.04865100" lon="-8.01183700">
        <ele>4.0000000</ele>
        <time>2010-01-01T00:23:44Z</time>
      </trkpt>
      <trkpt lat="37.04917300" lon="-8.01210100">
        <ele>5.0000000</ele>
        <time>2010-01-01T00:24:06Z</time>
      </trkpt>
      <trkpt lat="37.05112500" lon="-8.01279600">
        <ele>12.000000</ele>
        <time>2010-01-01T00:25:28Z</time>
      </trkpt>
      <trkpt lat="37.05188000" lon="-8.01299100">
        <ele>11.000000</ele>
        <time>2010-01-01T00:25:58Z</time>
      </trkpt>
      <trkpt lat="37.05237900" lon="-8.01315800">
        <ele>7.0000000</ele>
        <time>2010-01-01T00:26:19Z</time>
      </trkpt>
      <trkpt lat="37.05346600" lon="-8.01351900">
        <ele>10.000000</ele>
        <time>2010-01-01T00:27:04Z</time>
      </trkpt>
      <trkpt lat="37.05387100" lon="-8.01370000">
        <ele>11.000000</ele>
        <time>2010-01-01T00:27:21Z</time>
      </trkpt>
      <trkpt lat="37.05417600" lon="-8.01386700">
        <ele>12.000000</ele>
        <time>2010-01-01T00:27:35Z</time>
      </trkpt>
      <trkpt lat="37.05459200" lon="-8.01406100">
        <ele>14.000000</ele>
        <time>2010-01-01T00:27:52Z</time>
      </trkpt>
      <trkpt lat="37.05505800" lon="-8.01436000">
        <ele>14.000000</ele>
        <time>2010-01-01T00:28:13Z</time>
      </trkpt>
      <trkpt lat="37.05538000" lon="-8.01452000">
        <ele>14.000000</ele>
        <time>2010-01-01T00:28:27Z</time>
      </trkpt>
      <trkpt lat="37.05597900" lon="-8.01489500">
        <ele>13.000000</ele>
        <time>2010-01-01T00:28:54Z</time>
      </trkpt>
      <trkpt lat="37.05653900" lon="-8.01533300">
        <ele>12.000000</ele>
        <time>2010-01-01T00:29:20Z</time>
      </trkpt>
      <trkpt lat="37.05798700" lon="-8.01641800">
        <ele>13.000000</ele>
        <time>2010-01-01T00:30:28Z</time>
      </trkpt>
      <trkpt lat="37.05814800" lon="-8.01657000">
        <ele>14.000000</ele>
        <time>2010-01-01T00:30:36Z</time>
      </trkpt>
      <trkpt lat="37.05829800" lon="-8.01668900">
        <ele>14.000000</ele>
        <time>2010-01-01T00:30:43Z</time>
      </trkpt>
      <trkpt lat="37.05846400" lon="-8.01683500">
        <ele>15.000000</ele>
        <time>2010-01-01T00:30:51Z</time>
      </trkpt>
      <trkpt lat="37.05856400" lon="-8.01700800">
        <ele>15.000000</ele>
        <time>2010-01-01T00:30:58Z</time>
      </trkpt>
      <trkpt lat="37.05864700" lon="-8.01723800">
        <ele>16.000000</ele>
        <time>2010-01-01T00:31:06Z</time>
      </trkpt>
      <trkpt lat="37.05874200" lon="-8.01751600">
        <ele>16.000000</ele>
        <time>2010-01-01T00:31:16Z</time>
      </trkpt>
      <trkpt lat="37.05880300" lon="-8.01780100">
        <ele>18.000000</ele>
        <time>2010-01-01T00:31:25Z</time>
      </trkpt>
      <trkpt lat="37.05889700" lon="-8.01814100">
        <ele>21.000000</ele>
        <time>2010-01-01T00:31:37Z</time>
      </trkpt>
      <trkpt lat="37.05894700" lon="-8.01850300">
        <ele>24.000000</ele>
        <time>2010-01-01T00:31:48Z</time>
      </trkpt>
      <trkpt lat="37.05902500" lon="-8.01896800">
        <ele>29.000000</ele>
        <time>2010-01-01T00:32:04Z</time>
      </trkpt>
      <trkpt lat="37.05911900" lon="-8.01962900">
        <ele>31.000000</ele>
        <time>2010-01-01T00:32:25Z</time>
      </trkpt>
      <trkpt lat="37.05919700" lon="-8.02008600">
        <ele>29.000000</ele>
        <time>2010-01-01T00:32:40Z</time>
      </trkpt>
      <trkpt lat="37.05929100" lon="-8.02062000">
        <ele>28.000000</ele>
        <time>2010-01-01T00:32:57Z</time>
      </trkpt>
      <trkpt lat="37.05936900" lon="-8.02104700">
        <ele>27.000000</ele>
        <time>2010-01-01T00:33:11Z</time>
      </trkpt>
      <trkpt lat="37.05951800" lon="-8.02214500">
        <ele>34.000000</ele>
        <time>2010-01-01T00:33:47Z</time>
      </trkpt>
      <trkpt lat="37.05974000" lon="-8.02309700">
        <ele>37.000000</ele>
        <time>2010-01-01T00:34:19Z</time>
      </trkpt>
      <trkpt lat="37.05996700" lon="-8.02389000">
        <ele>37.000000</ele>
        <time>2010-01-01T00:34:46Z</time>
      </trkpt>
      <trkpt lat="37.06061600" lon="-8.02633600">
        <ele>42.000000</ele>
        <time>2010-01-01T00:36:08Z</time>
      </trkpt>
      <trkpt lat="37.06060500" lon="-8.02644100">
        <ele>42.000000</ele>
        <time>2010-01-01T00:36:11Z</time>
      </trkpt>
      <trkpt lat="37.06057200" lon="-8.02661400">
        <ele>42.000000</ele>
        <time>2010-01-01T00:36:17Z</time>
      </trkpt>
      <trkpt lat="37.06050000" lon="-8.02675400">
        <ele>41.000000</ele>
        <time>2010-01-01T00:36:22Z</time>
      </trkpt>
      <trkpt lat="37.06053500" lon="-8.02694500">
        <ele>41.000000</ele>
        <time>2010-01-01T00:36:29Z</time>
      </trkpt>
      <trkpt lat="37.06065000" lon="-8.02717800">
        <ele>41.000000</ele>
        <time>2010-01-01T00:36:37Z</time>
      </trkpt>
      <trkpt lat="37.06073300" lon="-8.02721900">
        <ele>41.000000</ele>
        <time>2010-01-01T00:36:41Z</time>
      </trkpt>
      <trkpt lat="37.06086600" lon="-8.02733000">
        <ele>42.000000</ele>
        <time>2010-01-01T00:36:47Z</time>
      </trkpt>
      <trkpt lat="37.06094900" lon="-8.02752500">
        <ele>42.000000</ele>
        <time>2010-01-01T00:36:54Z</time>
      </trkpt>
      <trkpt lat="37.06109900" lon="-8.02793500">
        <ele>44.000000</ele>
        <time>2010-01-01T00:37:09Z</time>
      </trkpt>
      <trkpt lat="37.06129300" lon="-8.02858900">
        <ele>45.000000</ele>
        <time>2010-01-01T00:37:31Z</time>
      </trkpt>
      <trkpt lat="37.06160900" lon="-8.02966600">
        <ele>41.000000</ele>
        <time>2010-01-01T00:38:08Z</time>
      </trkpt>
      <trkpt lat="37.06205300" lon="-8.03163300">
        <ele>45.000000</ele>
        <time>2010-01-01T00:39:13Z</time>
      </trkpt>
      <trkpt lat="37.06205900" lon="-8.03230000">
        <ele>45.000000</ele>
        <time>2010-01-01T00:39:34Z</time>
      </trkpt>
      <trkpt lat="37.06207500" lon="-8.03324600">
        <ele>48.000000</ele>
        <time>2010-01-01T00:40:05Z</time>
      </trkpt>
      <trkpt lat="37.06210900" lon="-8.03463600">
        <ele>48.000000</ele>
        <time>2010-01-01T00:40:49Z</time>
      </trkpt>
      <trkpt lat="37.06213100" lon="-8.03671400">
        <ele>49.000000</ele>
        <time>2010-01-01T00:41:55Z</time>
      </trkpt>
      <trkpt lat="37.06214200" lon="-8.03756200">
        <ele>48.000000</ele>
        <time>2010-01-01T00:42:23Z</time>
      </trkpt>
      <trkpt lat="37.06218100" lon="-8.03861900">
        <ele>46.000000</ele>
        <time>2010-01-01T00:42:56Z</time>
      </trkpt>
      <trkpt lat="37.06215800" lon="-8.03930000">
        <ele>47.000000</ele>
        <time>2010-01-01T00:43:18Z</time>
      </trkpt>
      <trkpt lat="37.06213600" lon="-8.04032900">
        <ele>47.000000</ele>
        <time>2010-01-01T00:43:51Z</time>
      </trkpt>
      <trkpt lat="37.06213100" lon="-8.04117700">
        <ele>48.000000</ele>
        <time>2010-01-01T00:44:18Z</time>
      </trkpt>
      <trkpt lat="37.06208600" lon="-8.04241400">
        <ele>49.000000</ele>
        <time>2010-01-01T00:44:58Z</time>
      </trkpt>
      <trkpt lat="37.06206400" lon="-8.04302600">
        <ele>49.000000</ele>
        <time>2010-01-01T00:45:17Z</time>
      </trkpt>
      <trkpt lat="37.06203600" lon="-8.04340800">
        <ele>48.000000</ele>
        <time>2010-01-01T00:45:29Z</time>
      </trkpt>
      <trkpt lat="37.06174800" lon="-8.04588200">
        <ele>48.000000</ele>
        <time>2010-01-01T00:46:49Z</time>
      </trkpt>
      <trkpt lat="37.06169900" lon="-8.04610100">
        <ele>48.000000</ele>
        <time>2010-01-01T00:46:57Z</time>
      </trkpt>
      <trkpt lat="37.06162600" lon="-8.04640400">
        <ele>47.000000</ele>
        <time>2010-01-01T00:47:07Z</time>
      </trkpt>
      <trkpt lat="37.06160900" lon="-8.04694600">
        <ele>47.000000</ele>
        <time>2010-01-01T00:47:24Z</time>
      </trkpt>
      <trkpt lat="37.06155400" lon="-8.04802300">
        <ele>48.000000</ele>
        <time>2010-01-01T00:47:58Z</time>
      </trkpt>
      <trkpt lat="37.06149800" lon="-8.04907300">
        <ele>45.000000</ele>
        <time>2010-01-01T00:48:32Z</time>
      </trkpt>
      <trkpt lat="37.06149300" lon="-8.04931300">
        <ele>45.000000</ele>
        <time>2010-01-01T00:48:40Z</time>
      </trkpt>
      <trkpt lat="37.06149300" lon="-8.04971200">
        <ele>44.000000</ele>
        <time>2010-01-01T00:48:53Z</time>
      </trkpt>
      <trkpt lat="37.06144300" lon="-8.05007400">
        <ele>44.000000</ele>
        <time>2010-01-01T00:49:04Z</time>
      </trkpt>
      <trkpt lat="37.06141000" lon="-8.05098400">
        <ele>43.000000</ele>
        <time>2010-01-01T00:49:33Z</time>
      </trkpt>
      <trkpt lat="37.06145000" lon="-8.05126800">
        <ele>43.000000</ele>
        <time>2010-01-01T00:49:43Z</time>
      </trkpt>
      <trkpt lat="37.06138200" lon="-8.05160300">
        <ele>43.000000</ele>
        <time>2010-01-01T00:49:54Z</time>
      </trkpt>
      <trkpt lat="37.06134900" lon="-8.05211700">
        <ele>45.000000</ele>
        <time>2010-01-01T00:50:10Z</time>
      </trkpt>
      <trkpt lat="37.06131000" lon="-8.05259000">
        <ele>46.000000</ele>
        <time>2010-01-01T00:50:25Z</time>
      </trkpt>
      <trkpt lat="37.06127100" lon="-8.05338200">
        <ele>47.000000</ele>
        <time>2010-01-01T00:50:51Z</time>
      </trkpt>
      <trkpt lat="37.06123200" lon="-8.05439700">
        <ele>46.000000</ele>
        <time>2010-01-01T00:51:23Z</time>
      </trkpt>
      <trkpt lat="37.06119300" lon="-8.05473100">
        <ele>47.000000</ele>
        <time>2010-01-01T00:51:34Z</time>
      </trkpt>
      <trkpt lat="37.06109900" lon="-8.05509200">
        <ele>46.000000</ele>
        <time>2010-01-01T00:51:46Z</time>
      </trkpt>
      <trkpt lat="37.06098800" lon="-8.05547500">
        <ele>46.000000</ele>
        <time>2010-01-01T00:51:59Z</time>
      </trkpt>
      <trkpt lat="37.06092200" lon="-8.05574600">
        <ele>45.000000</ele>
        <time>2010-01-01T00:52:08Z</time>
      </trkpt>
      <trkpt lat="37.06069400" lon="-8.05672600">
        <ele>45.000000</ele>
        <time>2010-01-01T00:52:41Z</time>
      </trkpt>
      <trkpt lat="37.06061600" lon="-8.05729600">
        <ele>45.000000</ele>
        <time>2010-01-01T00:52:59Z</time>
      </trkpt>
      <trkpt lat="37.06052800" lon="-8.05779600">
        <ele>45.000000</ele>
        <time>2010-01-01T00:53:15Z</time>
      </trkpt>
      <trkpt lat="37.06034500" lon="-8.05808900">
        <ele>46.000000</ele>
        <time>2010-01-01T00:53:27Z</time>
      </trkpt>
      <trkpt lat="37.06026300" lon="-8.05828200">
        <ele>46.000000</ele>
        <time>2010-01-01T00:53:34Z</time>
      </trkpt>
      <trkpt lat="37.06018400" lon="-8.05867200">
        <ele>47.000000</ele>
        <time>2010-01-01T00:53:47Z</time>
      </trkpt>
      <trkpt lat="37.06035000" lon="-8.05893600">
        <ele>48.000000</ele>
        <time>2010-01-01T00:53:58Z</time>
      </trkpt>
      <trkpt lat="37.06053900" lon="-8.05932500">
        <ele>47.000000</ele>
        <time>2010-01-01T00:54:12Z</time>
      </trkpt>
      <trkpt lat="37.06073800" lon="-8.05953400">
        <ele>47.000000</ele>
        <time>2010-01-01T00:54:23Z</time>
      </trkpt>
      <trkpt lat="37.06110500" lon="-8.06000700">
        <ele>47.000000</ele>
        <time>2010-01-01T00:54:44Z</time>
      </trkpt>
      <trkpt lat="37.06124900" lon="-8.06042400">
        <ele>45.000000</ele>
        <time>2010-01-01T00:54:58Z</time>
      </trkpt>
      <trkpt lat="37.06131500" lon="-8.06103500">
        <ele>43.000000</ele>
        <time>2010-01-01T00:55:18Z</time>
      </trkpt>
      <trkpt lat="37.06113800" lon="-8.06145200">
        <ele>44.000000</ele>
        <time>2010-01-01T00:55:33Z</time>
      </trkpt>
      <trkpt lat="37.06089400" lon="-8.06186900">
        <ele>46.000000</ele>
        <time>2010-01-01T00:55:50Z</time>
      </trkpt>
      <trkpt lat="37.06087200" lon="-8.06209200">
        <ele>46.000000</ele>
        <time>2010-01-01T00:55:57Z</time>
      </trkpt>
      <trkpt lat="37.06078300" lon="-8.06257800">
        <ele>45.000000</ele>
        <time>2010-01-01T00:56:13Z</time>
      </trkpt>
      <trkpt lat="37.06067200" lon="-8.06321800">
        <ele>44.000000</ele>
        <time>2010-01-01T00:56:34Z</time>
      </trkpt>
      <trkpt lat="37.06068300" lon="-8.06370400">
        <ele>45.000000</ele>
        <time>2010-01-01T00:56:49Z</time>
      </trkpt>
      <trkpt lat="37.06082700" lon="-8.06474700">
        <ele>47.000000</ele>
        <time>2010-01-01T00:57:23Z</time>
      </trkpt>
      <trkpt lat="37.06075000" lon="-8.06510900">
        <ele>47.000000</ele>
        <time>2010-01-01T00:57:35Z</time>
      </trkpt>
      <trkpt lat="37.06069400" lon="-8.06559500">
        <ele>46.000000</ele>
        <time>2010-01-01T00:57:51Z</time>
      </trkpt>
      <trkpt lat="37.06071600" lon="-8.06608200">
        <ele>42.000000</ele>
        <time>2010-01-01T00:58:06Z</time>
      </trkpt>
      <trkpt lat="37.06078300" lon="-8.06651300">
        <ele>39.000000</ele>
        <time>2010-01-01T00:58:20Z</time>
      </trkpt>
      <trkpt lat="37.06088300" lon="-8.06677700">
        <ele>39.000000</ele>
        <time>2010-01-01T00:58:30Z</time>
      </trkpt>
      <trkpt lat="37.06089400" lon="-8.06709700">
        <ele>38.000000</ele>
        <time>2010-01-01T00:58:40Z</time>
      </trkpt>
      <trkpt lat="37.06022800" lon="-8.06925100">
        <ele>14.000000</ele>
        <time>2010-01-01T00:59:54Z</time>
      </trkpt>
      <trkpt lat="37.06009500" lon="-8.06969600">
        <ele>10.000000</ele>
        <time>2010-01-01T01:00:09Z</time>
      </trkpt>
      <trkpt lat="37.06013900" lon="-8.06984900">
        <ele>9.0000000</ele>
        <time>2010-01-01T01:00:14Z</time>
      </trkpt>
      <trkpt lat="37.06031700" lon="-8.06994600">
        <ele>8.0000000</ele>
        <time>2010-01-01T01:00:22Z</time>
      </trkpt>
      <trkpt lat="37.06050600" lon="-8.06986300">
        <ele>6.0000000</ele>
        <time>2010-01-01T01:00:30Z</time>
      </trkpt>
      <trkpt lat="37.06062800" lon="-8.06966800">
        <ele>6.0000000</ele>
        <time>2010-01-01T01:00:38Z</time>
      </trkpt>
      <trkpt lat="37.06076100" lon="-8.06952900">
        <ele>6.0000000</ele>
        <time>2010-01-01T01:00:45Z</time>
      </trkpt>
      <trkpt lat="37.06092700" lon="-8.06952900">
        <ele>7.0000000</ele>
        <time>2010-01-01T01:00:51Z</time>
      </trkpt>
      <trkpt lat="37.06103800" lon="-8.06978000">
        <ele>6.0000000</ele>
        <time>2010-01-01T01:01:01Z</time>
      </trkpt>
      <trkpt lat="37.06120400" lon="-8.07016900">
        <ele>6.0000000</ele>
        <time>2010-01-01T01:01:15Z</time>
      </trkpt>
      <trkpt lat="37.06154800" lon="-8.07119800">
        <ele>7.0000000</ele>
        <time>2010-01-01T01:01:50Z</time>
      </trkpt>
      <trkpt lat="37.06163700" lon="-8.07162800">
        <ele>8.0000000</ele>
        <time>2010-01-01T01:02:05Z</time>
      </trkpt>
      <trkpt lat="37.06179200" lon="-8.07179500">
        <ele>8.0000000</ele>
        <time>2010-01-01T01:02:13Z</time>
      </trkpt>
      <trkpt lat="37.06293500" lon="-8.07203200">
        <ele>7.0000000</ele>
        <time>2010-01-01T01:02:59Z</time>
      </trkpt>
      <trkpt lat="37.06305700" lon="-8.07207300">
        <ele>7.0000000</ele>
        <time>2010-01-01T01:03:04Z</time>
      </trkpt>
      <trkpt lat="37.06336800" lon="-8.07178100">
        <ele>7.0000000</ele>
        <time>2010-01-01T01:03:20Z</time>
      </trkpt>
      <trkpt lat="37.06371200" lon="-8.07157300">
        <ele>8.0000000</ele>
        <time>2010-01-01T01:03:35Z</time>
      </trkpt>
      <trkpt lat="37.06402200" lon="-8.07139200">
        <ele>9.0000000</ele>
        <time>2010-01-01T01:03:49Z</time>
      </trkpt>
      <trkpt lat="37.06426600" lon="-8.07121100">
        <ele>10.000000</ele>
        <time>2010-01-01T01:04:00Z</time>
      </trkpt>
      <trkpt lat="37.06463200" lon="-8.07154500">
        <ele>9.0000000</ele>
        <time>2010-01-01T01:04:18Z</time>
      </trkpt>
      <trkpt lat="37.06481000" lon="-8.07186500">
        <ele>9.0000000</ele>
        <time>2010-01-01T01:04:31Z</time>
      </trkpt>
      <trkpt lat="37.06493200" lon="-8.07222600">
        <ele>8.0000000</ele>
        <time>2010-01-01T01:04:43Z</time>
      </trkpt>
      <trkpt lat="37.06505400" lon="-8.07322700">
        <ele>11.000000</ele>
        <time>2010-01-01T01:05:15Z</time>
      </trkpt>
      <trkpt lat="37.06516500" lon="-8.07340800">
        <ele>11.000000</ele>
        <time>2010-01-01T01:05:23Z</time>
      </trkpt>
      <trkpt lat="37.06555300" lon="-8.07372800">
        <ele>11.000000</ele>
        <time>2010-01-01T01:05:41Z</time>
      </trkpt>
      <trkpt lat="37.06575300" lon="-8.07385300">
        <ele>11.000000</ele>
        <time>2010-01-01T01:05:50Z</time>
      </trkpt>
      <trkpt lat="37.06615200" lon="-8.07393600">
        <ele>10.000000</ele>
        <time>2010-01-01T01:06:06Z</time>
      </trkpt>
      <trkpt lat="37.06654000" lon="-8.07518700">
        <ele>16.000000</ele>
        <time>2010-01-01T01:06:49Z</time>
      </trkpt>
      <trkpt lat="37.06867000" lon="-8.07598000">
        <ele>21.000000</ele>
        <time>2010-01-01T01:08:18Z</time>
      </trkpt>
      <trkpt lat="37.06880300" lon="-8.07903800">
        <ele>26.000000</ele>
        <time>2010-01-01T01:09:56Z</time>
      </trkpt>
      <trkpt lat="37.06853700" lon="-8.07910800">
        <ele>24.000000</ele>
        <time>2010-01-01T01:10:07Z</time>
      </trkpt>
      <trkpt lat="37.06854800" lon="-8.07916300">
        <ele>24.000000</ele>
        <time>2010-01-01T01:10:09Z</time>
      </trkpt>
      <trkpt lat="37.06862600" lon="-8.07944100">
        <ele>23.000000</ele>
        <time>2010-01-01T01:10:18Z</time>
      </trkpt>
      <trkpt lat="37.06878100" lon="-8.07987200">
        <ele>20.000000</ele>
        <time>2010-01-01T01:10:33Z</time>
      </trkpt>
      <trkpt lat="37.06903600" lon="-8.08037300">
        <ele>19.000000</ele>
        <time>2010-01-01T01:10:52Z</time>
      </trkpt>
      <trkpt lat="37.06916900" lon="-8.08074800">
        <ele>17.000000</ele>
        <time>2010-01-01T01:11:05Z</time>
      </trkpt>
      <trkpt lat="37.06913600" lon="-8.08083100">
        <ele>17.000000</ele>
        <time>2010-01-01T01:11:08Z</time>
      </trkpt>
      <trkpt lat="37.06908000" lon="-8.08101200">
        <ele>15.000000</ele>
        <time>2010-01-01T01:11:15Z</time>
      </trkpt>
      <trkpt lat="37.06896900" lon="-8.08127600">
        <ele>12.000000</ele>
        <time>2010-01-01T01:11:24Z</time>
      </trkpt>
      <trkpt lat="37.06890300" lon="-8.08155400">
        <ele>11.000000</ele>
        <time>2010-01-01T01:11:33Z</time>
      </trkpt>
      <trkpt lat="37.06892500" lon="-8.08194400">
        <ele>10.000000</ele>
        <time>2010-01-01T01:11:46Z</time>
      </trkpt>
      <trkpt lat="37.06899700" lon="-8.08223900">
        <ele>9.0000000</ele>
        <time>2010-01-01T01:11:56Z</time>
      </trkpt>
      <trkpt lat="37.06906900" lon="-8.08294500">
        <ele>8.0000000</ele>
        <time>2010-01-01T01:12:18Z</time>
      </trkpt>
      <trkpt lat="37.06928400" lon="-8.08329300">
        <ele>8.0000000</ele>
        <time>2010-01-01T01:12:32Z</time>
      </trkpt>
      <trkpt lat="37.06926900" lon="-8.08390500">
        <ele>11.000000</ele>
        <time>2010-01-01T01:12:52Z</time>
      </trkpt>
      <trkpt lat="37.06788200" lon="-8.08430700">
        <ele>12.000000</ele>
        <time>2010-01-01T01:13:49Z</time>
      </trkpt>
      <trkpt lat="37.06771600" lon="-8.08407100">
        <ele>12.000000</ele>
        <time>2010-01-01T01:13:59Z</time>
      </trkpt>
      <trkpt lat="37.06753900" lon="-8.08358400">
        <ele>12.000000</ele>
        <time>2010-01-01T01:14:16Z</time>
      </trkpt>
      <trkpt lat="37.06695100" lon="-8.08311100">
        <ele>10.000000</ele>
        <time>2010-01-01T01:14:44Z</time>
      </trkpt>
      <trkpt lat="37.06636500" lon="-8.08312400">
        <ele>13.000000</ele>
        <time>2010-01-01T01:15:08Z</time>
      </trkpt>
      <trkpt lat="37.06583000" lon="-8.08318100">
        <ele>8.0000000</ele>
        <time>2010-01-01T01:15:29Z</time>
      </trkpt>
      <trkpt lat="37.06512000" lon="-8.08370900">
        <ele>7.0000000</ele>
        <time>2010-01-01T01:16:02Z</time>
      </trkpt>
      <trkpt lat="37.06475800" lon="-8.08343700">
        <ele>4.0000000</ele>
        <time>2010-01-01T01:16:19Z</time>
      </trkpt>
      <trkpt lat="37.06445600" lon="-8.08331600">
        <ele>5.0000000</ele>
        <time>2010-01-01T01:16:32Z</time>
      </trkpt>
      <trkpt lat="37.06368900" lon="-8.08343100">
        <ele>8.0000000</ele>
        <time>2010-01-01T01:17:03Z</time>
      </trkpt>
      <trkpt lat="37.06290200" lon="-8.08345900">
        <ele>8.0000000</ele>
        <time>2010-01-01T01:17:34Z</time>
      </trkpt>
      <trkpt lat="37.06282400" lon="-8.08350100">
        <ele>9.0000000</ele>
        <time>2010-01-01T01:17:38Z</time>
      </trkpt>
      <trkpt lat="37.06265800" lon="-8.08361200">
        <ele>9.0000000</ele>
        <time>2010-01-01T01:17:45Z</time>
      </trkpt>
      <trkpt lat="37.06241400" lon="-8.08380600">
        <ele>7.0000000</ele>
        <time>2010-01-01T01:17:57Z</time>
      </trkpt>
      <trkpt lat="37.06208000" lon="-8.08401100">
        <ele>9.0000000</ele>
        <time>2010-01-01T01:18:12Z</time>
      </trkpt>
      <trkpt lat="37.06185900" lon="-8.08411200">
        <ele>12.000000</ele>
        <time>2010-01-01T01:18:21Z</time>
      </trkpt>
      <trkpt lat="37.06160400" lon="-8.08408500">
        <ele>11.000000</ele>
        <time>2010-01-01T01:18:31Z</time>
      </trkpt>
      <trkpt lat="37.06134900" lon="-8.08411200">
        <ele>12.000000</ele>
        <time>2010-01-01T01:18:41Z</time>
      </trkpt>
      <trkpt lat="37.06115200" lon="-8.08404900">
        <ele>12.000000</ele>
        <time>2010-01-01T01:18:50Z</time>
      </trkpt>
      <trkpt lat="37.06092700" lon="-8.08397600">
        <ele>13.000000</ele>
        <time>2010-01-01T01:18:59Z</time>
      </trkpt>
      <trkpt lat="37.06077200" lon="-8.08393200">
        <ele>12.000000</ele>
        <time>2010-01-01T01:19:05Z</time>
      </trkpt>
      <trkpt lat="37.06063900" lon="-8.08386200">
        <ele>12.000000</ele>
        <time>2010-01-01T01:19:11Z</time>
      </trkpt>
      <trkpt lat="37.06046100" lon="-8.08383400">
        <ele>11.000000</ele>
        <time>2010-01-01T01:19:18Z</time>
      </trkpt>
      <trkpt lat="37.06025000" lon="-8.08390400">
        <ele>10.000000</ele>
        <time>2010-01-01T01:19:27Z</time>
      </trkpt>
      <trkpt lat="37.06006200" lon="-8.08384800">
        <ele>9.0000000</ele>
        <time>2010-01-01T01:19:35Z</time>
      </trkpt>
      <trkpt lat="37.05979600" lon="-8.08361200">
        <ele>8.0000000</ele>
        <time>2010-01-01T01:19:48Z</time>
      </trkpt>
      <trkpt lat="37.05969600" lon="-8.08358400">
        <ele>7.0000000</ele>
        <time>2010-01-01T01:19:52Z</time>
      </trkpt>
      <trkpt lat="37.05956300" lon="-8.08365400">
        <ele>4.0000000</ele>
        <time>2010-01-01T01:19:58Z</time>
      </trkpt>
      <trkpt lat="37.05959600" lon="-8.08383400">
        <ele>5.0000000</ele>
        <time>2010-01-01T01:20:04Z</time>
      </trkpt>
      <trkpt lat="37.05965100" lon="-8.08422400">
        <ele>11.000000</ele>
        <time>2010-01-01T01:20:16Z</time>
      </trkpt>
      <trkpt lat="37.05975100" lon="-8.08459900">
        <ele>12.000000</ele>
        <time>2010-01-01T01:20:29Z</time>
      </trkpt>
      <trkpt lat="37.06001700" lon="-8.08522400">
        <ele>13.000000</ele>
        <time>2010-01-01T01:20:51Z</time>
      </trkpt>
      <trkpt lat="37.06029500" lon="-8.08594700">
        <ele>14.000000</ele>
        <time>2010-01-01T01:21:17Z</time>
      </trkpt>
      <trkpt lat="37.06052800" lon="-8.08621100">
        <ele>14.000000</ele>
        <time>2010-01-01T01:21:30Z</time>
      </trkpt>
      <trkpt lat="37.06073800" lon="-8.08650300">
        <ele>12.000000</ele>
        <time>2010-01-01T01:21:42Z</time>
      </trkpt>
      <trkpt lat="37.06089400" lon="-8.08678100">
        <ele>11.000000</ele>
        <time>2010-01-01T01:21:53Z</time>
      </trkpt>
      <trkpt lat="37.06106000" lon="-8.08718500">
        <ele>9.0000000</ele>
        <time>2010-01-01T01:22:08Z</time>
      </trkpt>
      <trkpt lat="37.06143700" lon="-8.08785200">
        <ele>8.0000000</ele>
        <time>2010-01-01T01:22:34Z</time>
      </trkpt>
      <trkpt lat="37.06179200" lon="-8.08788000">
        <ele>7.0000000</ele>
        <time>2010-01-01T01:22:48Z</time>
      </trkpt>
      <trkpt lat="37.06365600" lon="-8.08942300">
        <ele>12.000000</ele>
        <time>2010-01-01T01:24:17Z</time>
      </trkpt>
      <trkpt lat="37.06254700" lon="-8.09016000">
        <ele>10.000000</ele>
        <time>2010-01-01T01:25:08Z</time>
      </trkpt>
      <trkpt lat="37.06251300" lon="-8.09027100">
        <ele>11.000000</ele>
        <time>2010-01-01T01:25:11Z</time>
      </trkpt>
      <trkpt lat="37.06253600" lon="-8.09043800">
        <ele>11.000000</ele>
        <time>2010-01-01T01:25:17Z</time>
      </trkpt>
      <trkpt lat="37.06279100" lon="-8.09130000">
        <ele>10.000000</ele>
        <time>2010-01-01T01:25:46Z</time>
      </trkpt>
      <trkpt lat="37.06324600" lon="-8.09223100">
        <ele>9.0000000</ele>
        <time>2010-01-01T01:26:21Z</time>
      </trkpt>
      <trkpt lat="37.06346700" lon="-8.09307900">
        <ele>6.0000000</ele>
        <time>2010-01-01T01:26:50Z</time>
      </trkpt>
      <trkpt lat="37.06371200" lon="-8.09373200">
        <ele>5.0000000</ele>
        <time>2010-01-01T01:27:13Z</time>
      </trkpt>
      <trkpt lat="37.06481000" lon="-8.09668000">
        <ele>13.000000</ele>
        <time>2010-01-01T01:28:57Z</time>
      </trkpt>
      <trkpt lat="37.06510900" lon="-8.09745800">
        <ele>14.000000</ele>
        <time>2010-01-01T01:29:24Z</time>
      </trkpt>
      <trkpt lat="37.06613000" lon="-8.10011300">
        <ele>17.000000</ele>
        <time>2010-01-01T01:30:58Z</time>
      </trkpt>
      <trkpt lat="37.06743900" lon="-8.10361700">
        <ele>11.000000</ele>
        <time>2010-01-01T01:33:02Z</time>
      </trkpt>
      <trkpt lat="37.06801600" lon="-8.10517400">
        <ele>14.000000</ele>
        <time>2010-01-01T01:33:57Z</time>
      </trkpt>
      <trkpt lat="37.06839300" lon="-8.10607700">
        <ele>15.000000</ele>
        <time>2010-01-01T01:34:29Z</time>
      </trkpt>
      <trkpt lat="37.06860300" lon="-8.10649400">
        <ele>13.000000</ele>
        <time>2010-01-01T01:34:45Z</time>
      </trkpt>
      <trkpt lat="37.06872500" lon="-8.10667500">
        <ele>12.000000</ele>
        <time>2010-01-01T01:34:53Z</time>
      </trkpt>
      <trkpt lat="37.06877000" lon="-8.10678600">
        <ele>11.000000</ele>
        <time>2010-01-01T01:34:56Z</time>
      </trkpt>
      <trkpt lat="37.06896200" lon="-8.10730600">
        <ele>8.0000000</ele>
        <time>2010-01-01T01:35:15Z</time>
      </trkpt>
      <trkpt lat="37.06916900" lon="-8.10803700">
        <ele>5.0000000</ele>
        <time>2010-01-01T01:35:40Z</time>
      </trkpt>
      <trkpt lat="37.06932400" lon="-8.10827400">
        <ele>5.0000000</ele>
        <time>2010-01-01T01:35:49Z</time>
      </trkpt>
      <trkpt lat="37.06995700" lon="-8.10809300">
        <ele>7.0000000</ele>
        <time>2010-01-01T01:36:15Z</time>
      </trkpt>
      <trkpt lat="37.07067800" lon="-8.10787000">
        <ele>14.000000</ele>
        <time>2010-01-01T01:36:45Z</time>
      </trkpt>
      <trkpt lat="37.07170200" lon="-8.10745600">
        <ele>24.000000</ele>
        <time>2010-01-01T01:37:28Z</time>
      </trkpt>
      <trkpt lat="37.07337300" lon="-8.10787000">
        <ele>9.0000000</ele>
        <time>2010-01-01T01:38:36Z</time>
      </trkpt>
      <trkpt lat="37.07359100" lon="-8.10792500">
        <ele>8.0000000</ele>
        <time>2010-01-01T01:38:45Z</time>
      </trkpt>
      <trkpt lat="37.07383900" lon="-8.10798200">
        <ele>9.0000000</ele>
        <time>2010-01-01T01:38:55Z</time>
      </trkpt>
      <trkpt lat="37.07464900" lon="-8.10817600">
        <ele>11.000000</ele>
        <time>2010-01-01T01:39:28Z</time>
      </trkpt>
      <trkpt lat="37.07515900" lon="-8.10821800">
        <ele>9.0000000</ele>
        <time>2010-01-01T01:39:49Z</time>
      </trkpt>
      <trkpt lat="37.07535800" lon="-8.10813500">
        <ele>9.0000000</ele>
        <time>2010-01-01T01:39:57Z</time>
      </trkpt>
      <trkpt lat="37.07565800" lon="-8.10799600">
        <ele>10.000000</ele>
        <time>2010-01-01T01:40:10Z</time>
      </trkpt>
      <trkpt lat="37.07585800" lon="-8.10796800">
        <ele>11.000000</ele>
        <time>2010-01-01T01:40:18Z</time>
      </trkpt>
      <trkpt lat="37.07603500" lon="-8.10796800">
        <ele>12.000000</ele>
        <time>2010-01-01T01:40:25Z</time>
      </trkpt>
      <trkpt lat="37.07632300" lon="-8.10798200">
        <ele>13.000000</ele>
        <time>2010-01-01T01:40:37Z</time>
      </trkpt>
      <trkpt lat="37.07655600" lon="-8.10813500">
        <ele>14.000000</ele>
        <time>2010-01-01T01:40:47Z</time>
      </trkpt>
      <trkpt lat="37.07754300" lon="-8.10877400">
        <ele>13.000000</ele>
        <time>2010-01-01T01:41:32Z</time>
      </trkpt>
      <trkpt lat="37.07803300" lon="-8.10899500">
        <ele>14.000000</ele>
        <time>2010-01-01T01:41:53Z</time>
      </trkpt>
      <trkpt lat="37.07852800" lon="-8.10925100">
        <ele>11.000000</ele>
        <time>2010-01-01T01:42:14Z</time>
      </trkpt>
      <trkpt lat="37.07885200" lon="-8.10952500">
        <ele>10.000000</ele>
        <time>2010-01-01T01:42:30Z</time>
      </trkpt>
      <trkpt lat="37.07901100" lon="-8.10990200">
        <ele>10.000000</ele>
        <time>2010-01-01T01:42:43Z</time>
      </trkpt>
      <trkpt lat="37.07908500" lon="-8.11026200">
        <ele>11.000000</ele>
        <time>2010-01-01T01:42:55Z</time>
      </trkpt>
      <trkpt lat="37.07914500" lon="-8.11045100">
        <ele>11.000000</ele>
        <time>2010-01-01T01:43:02Z</time>
      </trkpt>
      <trkpt lat="37.07924700" lon="-8.11066300">
        <ele>11.000000</ele>
        <time>2010-01-01T01:43:09Z</time>
      </trkpt>
      <trkpt lat="37.07941800" lon="-8.11095700">
        <ele>11.000000</ele>
        <time>2010-01-01T01:43:21Z</time>
      </trkpt>
      <trkpt lat="37.07954000" lon="-8.11104000">
        <ele>11.000000</ele>
        <time>2010-01-01T01:43:27Z</time>
      </trkpt>
      <trkpt lat="37.07987300" lon="-8.11112300">
        <ele>11.000000</ele>
        <time>2010-01-01T01:43:40Z</time>
      </trkpt>
      <trkpt lat="37.08022700" lon="-8.11131800">
        <ele>13.000000</ele>
        <time>2010-01-01T01:43:56Z</time>
      </trkpt>
      <trkpt lat="37.08072700" lon="-8.11168000">
        <ele>15.000000</ele>
        <time>2010-01-01T01:44:19Z</time>
      </trkpt>
      <trkpt lat="37.08115900" lon="-8.11211100">
        <ele>12.000000</ele>
        <time>2010-01-01T01:44:41Z</time>
      </trkpt>
      <trkpt lat="37.08147300" lon="-8.11239200">
        <ele>14.000000</ele>
        <time>2010-01-01T01:44:56Z</time>
      </trkpt>
      <trkpt lat="37.08157900" lon="-8.11253900">
        <ele>15.000000</ele>
        <time>2010-01-01T01:45:03Z</time>
      </trkpt>
      <trkpt lat="37.08152700" lon="-8.11293200">
        <ele>15.000000</ele>
        <time>2010-01-01T01:45:15Z</time>
      </trkpt>
      <trkpt lat="37.08151500" lon="-8.11340900">
        <ele>13.000000</ele>
        <time>2010-01-01T01:45:31Z</time>
      </trkpt>
      <trkpt lat="37.08144500" lon="-8.11499500">
        <ele>11.000000</ele>
        <time>2010-01-01T01:46:21Z</time>
      </trkpt>
      <trkpt lat="37.08142900" lon="-8.11506600">
        <ele>11.000000</ele>
        <time>2010-01-01T01:46:24Z</time>
      </trkpt>
      <trkpt lat="37.09001000" lon="-8.12339600">
        <ele>15.000000</ele>
        <time>2010-01-01T01:53:38Z</time>
      </trkpt>
      <trkpt lat="37.08142900" lon="-8.11506600">
        <ele>11.000000</ele>
        <time>2010-01-01T02:00:53Z</time>
      </trkpt>
      <trkpt lat="37.08142200" lon="-8.11521200">
        <ele>10.000000</ele>
        <time>2010-01-01T02:00:57Z</time>
      </trkpt>
      <trkpt lat="37.08139300" lon="-8.11530700">
        <ele>10.000000</ele>
        <time>2010-01-01T02:01:01Z</time>
      </trkpt>
      <trkpt lat="37.08134200" lon="-8.11543900">
        <ele>10.000000</ele>
        <time>2010-01-01T02:01:05Z</time>
      </trkpt>
      <trkpt lat="37.08123300" lon="-8.11562400">
        <ele>11.000000</ele>
        <time>2010-01-01T02:01:13Z</time>
      </trkpt>
      <trkpt lat="37.08132500" lon="-8.11565600">
        <ele>10.000000</ele>
        <time>2010-01-01T02:01:16Z</time>
      </trkpt>
      <trkpt lat="37.08129200" lon="-8.11571400">
        <ele>11.000000</ele>
        <time>2010-01-01T02:01:19Z</time>
      </trkpt>
      <trkpt lat="37.08122000" lon="-8.11606200">
        <ele>11.000000</ele>
        <time>2010-01-01T02:01:30Z</time>
      </trkpt>
      <trkpt lat="37.08129200" lon="-8.11620500">
        <ele>11.000000</ele>
        <time>2010-01-01T02:01:36Z</time>
      </trkpt>
      <trkpt lat="37.08146400" lon="-8.11653800">
        <ele>11.000000</ele>
        <time>2010-01-01T02:01:48Z</time>
      </trkpt>
      <trkpt lat="37.08154900" lon="-8.11671200">
        <ele>12.000000</ele>
        <time>2010-01-01T02:01:55Z</time>
      </trkpt>
      <trkpt lat="37.08163700" lon="-8.11678100">
        <ele>12.000000</ele>
        <time>2010-01-01T02:01:59Z</time>
      </trkpt>
      <trkpt lat="37.08176400" lon="-8.11683900">
        <ele>12.000000</ele>
        <time>2010-01-01T02:02:04Z</time>
      </trkpt>
      <trkpt lat="37.08188600" lon="-8.11690200">
        <ele>12.000000</ele>
        <time>2010-01-01T02:02:10Z</time>
      </trkpt>
      <trkpt lat="37.08211300" lon="-8.11703400">
        <ele>13.000000</ele>
        <time>2010-01-01T02:02:20Z</time>
      </trkpt>
      <trkpt lat="37.08225700" lon="-8.11724000">
        <ele>13.000000</ele>
        <time>2010-01-01T02:02:28Z</time>
      </trkpt>
      <trkpt lat="37.08243800" lon="-8.11743100">
        <ele>13.000000</ele>
        <time>2010-01-01T02:02:38Z</time>
      </trkpt>
      <trkpt lat="37.08285100" lon="-8.11779500">
        <ele>11.000000</ele>
        <time>2010-01-01T02:02:58Z</time>
      </trkpt>
      <trkpt lat="37.08291800" lon="-8.11786900">
        <ele>10.000000</ele>
        <time>2010-01-01T02:03:02Z</time>
      </trkpt>
      <trkpt lat="37.08304900" lon="-8.11798000">
        <ele>9.0000000</ele>
        <time>2010-01-01T02:03:08Z</time>
      </trkpt>
      <trkpt lat="37.08329300" lon="-8.11808600">
        <ele>10.000000</ele>
        <time>2010-01-01T02:03:18Z</time>
      </trkpt>
      <trkpt lat="37.08346200" lon="-8.11821200">
        <ele>10.000000</ele>
        <time>2010-01-01T02:03:26Z</time>
      </trkpt>
      <trkpt lat="37.08360500" lon="-8.11833900">
        <ele>9.0000000</ele>
        <time>2010-01-01T02:03:33Z</time>
      </trkpt>
      <trkpt lat="37.08371900" lon="-8.11846100">
        <ele>10.000000</ele>
        <time>2010-01-01T02:03:39Z</time>
      </trkpt>
      <trkpt lat="37.08390900" lon="-8.11869800">
        <ele>11.000000</ele>
        <time>2010-01-01T02:03:50Z</time>
      </trkpt>
      <trkpt lat="37.08436400" lon="-8.11892500">
        <ele>12.000000</ele>
        <time>2010-01-01T02:04:10Z</time>
      </trkpt>
      <trkpt lat="37.08480600" lon="-8.11920000">
        <ele>13.000000</ele>
        <time>2010-01-01T02:04:29Z</time>
      </trkpt>
      <trkpt lat="37.08513100" lon="-8.11924800">
        <ele>14.000000</ele>
        <time>2010-01-01T02:04:42Z</time>
      </trkpt>
      <trkpt lat="37.08529100" lon="-8.11930000">
        <ele>15.000000</ele>
        <time>2010-01-01T02:04:49Z</time>
      </trkpt>
      <trkpt lat="37.08541300" lon="-8.11932200">
        <ele>15.000000</ele>
        <time>2010-01-01T02:04:54Z</time>
      </trkpt>
      <trkpt lat="37.08554000" lon="-8.11933700">
        <ele>16.000000</ele>
        <time>2010-01-01T02:04:59Z</time>
      </trkpt>
      <trkpt lat="37.08566200" lon="-8.11933200">
        <ele>16.000000</ele>
        <time>2010-01-01T02:05:04Z</time>
      </trkpt>
      <trkpt lat="37.08610000" lon="-8.11921600">
        <ele>15.000000</ele>
        <time>2010-01-01T02:05:22Z</time>
      </trkpt>
      <trkpt lat="37.08631100" lon="-8.11915800">
        <ele>14.000000</ele>
        <time>2010-01-01T02:05:31Z</time>
      </trkpt>
      <trkpt lat="37.08671900" lon="-8.11904700">
        <ele>14.000000</ele>
        <time>2010-01-01T02:05:47Z</time>
      </trkpt>
      <trkpt lat="37.08678300" lon="-8.11902600">
        <ele>14.000000</ele>
        <time>2010-01-01T02:05:50Z</time>
      </trkpt>
      <trkpt lat="37.08685400" lon="-8.11900500">
        <ele>14.000000</ele>
        <time>2010-01-01T02:05:53Z</time>
      </trkpt>
      <trkpt lat="37.08693900" lon="-8.11900500">
        <ele>14.000000</ele>
        <time>2010-01-01T02:05:56Z</time>
      </trkpt>
      <trkpt lat="37.08699800" lon="-8.11901000">
        <ele>15.000000</ele>
        <time>2010-01-01T02:05:59Z</time>
      </trkpt>
      <trkpt lat="37.08708200" lon="-8.11897300">
        <ele>15.000000</ele>
        <time>2010-01-01T02:06:02Z</time>
      </trkpt>
      <trkpt lat="37.08719100" lon="-8.11894700">
        <ele>15.000000</ele>
        <time>2010-01-01T02:06:07Z</time>
      </trkpt>
      <trkpt lat="37.08728800" lon="-8.11891500">
        <ele>16.000000</ele>
        <time>2010-01-01T02:06:11Z</time>
      </trkpt>
      <trkpt lat="37.08734700" lon="-8.11891500">
        <ele>16.000000</ele>
        <time>2010-01-01T02:06:13Z</time>
      </trkpt>
      <trkpt lat="37.08743200" lon="-8.11892000">
        <ele>17.000000</ele>
        <time>2010-01-01T02:06:16Z</time>
      </trkpt>
      <trkpt lat="37.08751600" lon="-8.11895700">
        <ele>17.000000</ele>
        <time>2010-01-01T02:06:20Z</time>
      </trkpt>
      <trkpt lat="37.08758700" lon="-8.11901500">
        <ele>17.000000</ele>
        <time>2010-01-01T02:06:23Z</time>
      </trkpt>
      <trkpt lat="37.08766800" lon="-8.11905700">
        <ele>18.000000</ele>
        <time>2010-01-01T02:06:27Z</time>
      </trkpt>
      <trkpt lat="37.08772700" lon="-8.11907900">
        <ele>18.000000</ele>
        <time>2010-01-01T02:06:29Z</time>
      </trkpt>
      <trkpt lat="37.08781900" lon="-8.11911600">
        <ele>19.000000</ele>
        <time>2010-01-01T02:06:33Z</time>
      </trkpt>
      <trkpt lat="37.08794600" lon="-8.11922700">
        <ele>19.000000</ele>
        <time>2010-01-01T02:06:39Z</time>
      </trkpt>
      <trkpt lat="37.08800900" lon="-8.11932700">
        <ele>19.000000</ele>
        <time>2010-01-01T02:06:43Z</time>
      </trkpt>
      <trkpt lat="37.08807600" lon="-8.11940100">
        <ele>19.000000</ele>
        <time>2010-01-01T02:06:47Z</time>
      </trkpt>
      <trkpt lat="37.08819800" lon="-8.11948500">
        <ele>19.000000</ele>
        <time>2010-01-01T02:06:53Z</time>
      </trkpt>
      <trkpt lat="37.08833800" lon="-8.11962300">
        <ele>19.000000</ele>
        <time>2010-01-01T02:07:00Z</time>
      </trkpt>
      <trkpt lat="37.08854400" lon="-8.11997100">
        <ele>19.000000</ele>
        <time>2010-01-01T02:07:14Z</time>
      </trkpt>
      <trkpt lat="37.08872500" lon="-8.12034100">
        <ele>20.000000</ele>
        <time>2010-01-01T02:07:27Z</time>
      </trkpt>
      <trkpt lat="37.08880100" lon="-8.12047800">
        <ele>20.000000</ele>
        <time>2010-01-01T02:07:33Z</time>
      </trkpt>
      <trkpt lat="37.08889800" lon="-8.12063200">
        <ele>20.000000</ele>
        <time>2010-01-01T02:07:39Z</time>
      </trkpt>
      <trkpt lat="37.08895300" lon="-8.12070000">
        <ele>20.000000</ele>
        <time>2010-01-01T02:07:42Z</time>
      </trkpt>
      <trkpt lat="37.08897400" lon="-8.12076400">
        <ele>19.000000</ele>
        <time>2010-01-01T02:07:44Z</time>
      </trkpt>
      <trkpt lat="37.08897800" lon="-8.12084800">
        <ele>19.000000</ele>
        <time>2010-01-01T02:07:47Z</time>
      </trkpt>
      <trkpt lat="37.08900300" lon="-8.12094300">
        <ele>18.000000</ele>
        <time>2010-01-01T02:07:50Z</time>
      </trkpt>
      <trkpt lat="37.08902000" lon="-8.12104900">
        <ele>18.000000</ele>
        <time>2010-01-01T02:07:54Z</time>
      </trkpt>
      <trkpt lat="37.08903300" lon="-8.12114400">
        <ele>18.000000</ele>
        <time>2010-01-01T02:07:57Z</time>
      </trkpt>
      <trkpt lat="37.08905800" lon="-8.12121300">
        <ele>18.000000</ele>
        <time>2010-01-01T02:07:59Z</time>
      </trkpt>
      <trkpt lat="37.08907100" lon="-8.12124400">
        <ele>18.000000</ele>
        <time>2010-01-01T02:08:00Z</time>
      </trkpt>
      <trkpt lat="37.08913000" lon="-8.12128700">
        <ele>18.000000</ele>
        <time>2010-01-01T02:08:03Z</time>
      </trkpt>
      <trkpt lat="37.08916800" lon="-8.12135000">
        <ele>17.000000</ele>
        <time>2010-01-01T02:08:05Z</time>
      </trkpt>
      <trkpt lat="37.08925200" lon="-8.12155600">
        <ele>17.000000</ele>
        <time>2010-01-01T02:08:13Z</time>
      </trkpt>
      <trkpt lat="37.08926500" lon="-8.12160900">
        <ele>17.000000</ele>
        <time>2010-01-01T02:08:15Z</time>
      </trkpt>
      <trkpt lat="37.08928100" lon="-8.12168800">
        <ele>17.000000</ele>
        <time>2010-01-01T02:08:17Z</time>
      </trkpt>
      <trkpt lat="37.08932800" lon="-8.12179900">
        <ele>17.000000</ele>
        <time>2010-01-01T02:08:21Z</time>
      </trkpt>
      <trkpt lat="37.08937400" lon="-8.12186200">
        <ele>17.000000</ele>
        <time>2010-01-01T02:08:24Z</time>
      </trkpt>
      <trkpt lat="37.08936600" lon="-8.12198900">
        <ele>16.000000</ele>
        <time>2010-01-01T02:08:28Z</time>
      </trkpt>
      <trkpt lat="37.08939100" lon="-8.12208400">
        <ele>16.000000</ele>
        <time>2010-01-01T02:08:31Z</time>
      </trkpt>
      <trkpt lat="37.08945000" lon="-8.12216900">
        <ele>17.000000</ele>
        <time>2010-01-01T02:08:35Z</time>
      </trkpt>
      <trkpt lat="37.08961000" lon="-8.12233800">
        <ele>17.000000</ele>
        <time>2010-01-01T02:08:43Z</time>
      </trkpt>
      <trkpt lat="37.08967800" lon="-8.12243300">
        <ele>17.000000</ele>
        <time>2010-01-01T02:08:47Z</time>
      </trkpt>
      <trkpt lat="37.08970300" lon="-8.12250200">
        <ele>16.000000</ele>
        <time>2010-01-01T02:08:50Z</time>
      </trkpt>
      <trkpt lat="37.08971500" lon="-8.12258100">
        <ele>16.000000</ele>
        <time>2010-01-01T02:08:52Z</time>
      </trkpt>
      <trkpt lat="37.08973700" lon="-8.12271300">
        <ele>17.000000</ele>
        <time>2010-01-01T02:08:57Z</time>
      </trkpt>
      <trkpt lat="37.08974900" lon="-8.12273900">
        <ele>17.000000</ele>
        <time>2010-01-01T02:08:58Z</time>
      </trkpt>
      <trkpt lat="37.08984200" lon="-8.12287100">
        <ele>16.000000</ele>
        <time>2010-01-01T02:09:03Z</time>
      </trkpt>
      <trkpt lat="37.08987600" lon="-8.12294500">
        <ele>16.000000</ele>
        <time>2010-01-01T02:09:06Z</time>
      </trkpt>
      <trkpt lat="37.08988000" lon="-8.12302500">
        <ele>16.000000</ele>
        <time>2010-01-01T02:09:08Z</time>
      </trkpt>
      <trkpt lat="37.08990500" lon="-8.12310900">
        <ele>16.000000</ele>
        <time>2010-01-01T02:09:11Z</time>
      </trkpt>
      <trkpt lat="37.08992200" lon="-8.12321500">
        <ele>16.000000</ele>
        <time>2010-01-01T02:09:15Z</time>
      </trkpt>
      <trkpt lat="37.08996400" lon="-8.12326200">
        <ele>16.000000</ele>
        <time>2010-01-01T02:09:17Z</time>
      </trkpt>
      <trkpt lat="37.08999400" lon="-8.12331000">
        <ele>16.000000</ele>
        <time>2010-01-01T02:09:19Z</time>
      </trkpt>
      <trkpt lat="37.09001000" lon="-8.12339600">
        <ele>15.000000</ele>
        <time>2010-01-01T02:09:22Z</time>
      </trkpt>
      <trkpt lat="37.08979900" lon="-8.12332500">
        <ele>15.000000</ele>
        <time>2010-01-01T02:09:31Z</time>
      </trkpt>
      <trkpt lat="37.08971200" lon="-8.12339200">
        <ele>14.000000</ele>
        <time>2010-01-01T02:09:35Z</time>
      </trkpt>
      <trkpt lat="37.08981300" lon="-8.12365700">
        <ele>14.000000</ele>
        <time>2010-01-01T02:09:44Z</time>
      </trkpt>
      <trkpt lat="37.08931000" lon="-8.12403900">
        <ele>14.000000</ele>
        <time>2010-01-01T02:10:08Z</time>
      </trkpt>
      <trkpt lat="37.08859500" lon="-8.12446400">
        <ele>12.000000</ele>
        <time>2010-01-01T02:10:39Z</time>
      </trkpt>
      <trkpt lat="37.08757500" lon="-8.12514300">
        <ele>9.0000000</ele>
        <time>2010-01-01T02:11:25Z</time>
      </trkpt>
      <trkpt lat="37.08662800" lon="-8.12566800">
        <ele>5.0000000</ele>
        <time>2010-01-01T02:12:07Z</time>
      </trkpt>
      <trkpt lat="37.08576100" lon="-8.12471400">
        <ele>6.0000000</ele>
        <time>2010-01-01T02:12:53Z</time>
      </trkpt>
      <trkpt lat="37.08535500" lon="-8.12560400">
        <ele>3.0000000</ele>
        <time>2010-01-01T02:13:26Z</time>
      </trkpt>
      <trkpt lat="37.08514000" lon="-8.12602100">
        <ele>2.0000000</ele>
        <time>2010-01-01T02:13:42Z</time>
      </trkpt>
      <trkpt lat="37.08430200" lon="-8.12715100">
        <ele>4.0000000</ele>
        <time>2010-01-01T02:14:31Z</time>
      </trkpt>
      <trkpt lat="37.08398100" lon="-8.12748900">
        <ele>4.0000000</ele>
        <time>2010-01-01T02:14:48Z</time>
      </trkpt>
      <trkpt lat="37.08373500" lon="-8.12762100">
        <ele>3.0000000</ele>
        <time>2010-01-01T02:14:58Z</time>
      </trkpt>
      <trkpt lat="37.08350100" lon="-8.12766500">
        <ele>3.0000000</ele>
        <time>2010-01-01T02:15:08Z</time>
      </trkpt>
      <trkpt lat="37.08269200" lon="-8.12757700">
        <ele>3.0000000</ele>
        <time>2010-01-01T02:15:40Z</time>
      </trkpt>
      <trkpt lat="37.08045500" lon="-8.12732700">
        <ele>4.0000000</ele>
        <time>2010-01-01T02:17:10Z</time>
      </trkpt>
      <trkpt lat="37.07985800" lon="-8.12725400">
        <ele>5.0000000</ele>
        <time>2010-01-01T02:17:34Z</time>
      </trkpt>
      <trkpt lat="37.07923700" lon="-8.12731300">
        <ele>6.0000000</ele>
        <time>2010-01-01T02:17:59Z</time>
      </trkpt>
      <trkpt lat="37.07908500" lon="-8.12737100">
        <ele>6.0000000</ele>
        <time>2010-01-01T02:18:06Z</time>
      </trkpt>
      <trkpt lat="37.07881500" lon="-8.12750300">
        <ele>5.0000000</ele>
        <time>2010-01-01T02:18:17Z</time>
      </trkpt>
      <trkpt lat="37.07851100" lon="-8.12775300">
        <ele>5.0000000</ele>
        <time>2010-01-01T02:18:32Z</time>
      </trkpt>
      <trkpt lat="37.07773800" lon="-8.12835500">
        <ele>4.0000000</ele>
        <time>2010-01-01T02:19:08Z</time>
      </trkpt>
      <trkpt lat="37.07762700" lon="-8.12849200">
        <ele>4.0000000</ele>
        <time>2010-01-01T02:19:14Z</time>
      </trkpt>
      <trkpt lat="37.07752700" lon="-8.12835500">
        <ele>4.0000000</ele>
        <time>2010-01-01T02:19:20Z</time>
      </trkpt>
      <trkpt lat="37.07545400" lon="-8.12544800">
        <ele>4.0000000</ele>
        <time>2010-01-01T02:21:25Z</time>
      </trkpt>
      <trkpt lat="37.07534800" lon="-8.12531600">
        <ele>4.0000000</ele>
        <time>2010-01-01T02:21:31Z</time>
      </trkpt>
      <trkpt lat="37.07524300" lon="-8.12527200">
        <ele>4.0000000</ele>
        <time>2010-01-01T02:21:35Z</time>
      </trkpt>
      <trkpt lat="37.07517200" lon="-8.12544800">
        <ele>4.0000000</ele>
        <time>2010-01-01T02:21:42Z</time>
      </trkpt>
      <trkpt lat="37.07442300" lon="-8.12534500">
        <ele>2.0000000</ele>
        <time>2010-01-01T02:22:12Z</time>
      </trkpt>
      <trkpt lat="37.07432500" lon="-8.12572400">
        <ele>3.0000000</ele>
        <time>2010-01-01T02:22:25Z</time>
      </trkpt>
      <trkpt lat="37.07444300" lon="-8.12575800">
        <ele>2.0000000</ele>
        <time>2010-01-01T02:22:29Z</time>
      </trkpt>
      <trkpt lat="37.07465700" lon="-8.12584400">
        <ele>3.0000000</ele>
        <time>2010-01-01T02:22:38Z</time>
      </trkpt>
      <trkpt lat="37.07483300" lon="-8.12594700">
        <ele>3.0000000</ele>
        <time>2010-01-01T02:22:46Z</time>
      </trkpt>
      <trkpt lat="37.07514400" lon="-8.12612800">
        <ele>3.0000000</ele>
        <time>2010-01-01T02:23:00Z</time>
      </trkpt>
      <trkpt lat="37.07536000" lon="-8.12637300">
        <ele>2.0000000</ele>
        <time>2010-01-01T02:23:12Z</time>
      </trkpt>
      <trkpt lat="37.07545400" lon="-8.12663700">
        <ele>2.0000000</ele>
        <time>2010-01-01T02:23:21Z</time>
      </trkpt>
      <trkpt lat="37.07562900" lon="-8.12718900">
        <ele>3.0000000</ele>
        <time>2010-01-01T02:23:40Z</time>
      </trkpt>
      <trkpt lat="37.07577900" lon="-8.12769300">
        <ele>2.0000000</ele>
        <time>2010-01-01T02:23:57Z</time>
      </trkpt>
      <trkpt lat="37.07605400" lon="-8.12866800">
        <ele>3.0000000</ele>
        <time>2010-01-01T02:24:30Z</time>
      </trkpt>
      <trkpt lat="37.07616000" lon="-8.12901100">
        <ele>3.0000000</ele>
        <time>2010-01-01T02:24:42Z</time>
      </trkpt>
      <trkpt lat="37.07628500" lon="-8.12931600">
        <ele>3.0000000</ele>
        <time>2010-01-01T02:24:53Z</time>
      </trkpt>
      <trkpt lat="37.07643600" lon="-8.12971000">
        <ele>3.0000000</ele>
        <time>2010-01-01T02:25:07Z</time>
      </trkpt>
      <trkpt lat="37.07643600" lon="-8.13006900">
        <ele>4.0000000</ele>
        <time>2010-01-01T02:25:18Z</time>
      </trkpt>
      <trkpt lat="37.07635600" lon="-8.13029300">
        <ele>5.0000000</ele>
        <time>2010-01-01T02:25:26Z</time>
      </trkpt>
      <trkpt lat="37.07635600" lon="-8.13056700">
        <ele>5.0000000</ele>
        <time>2010-01-01T02:25:35Z</time>
      </trkpt>
      <trkpt lat="37.07635400" lon="-8.13097000">
        <ele>3.0000000</ele>
        <time>2010-01-01T02:25:48Z</time>
      </trkpt>
      <trkpt lat="37.07651300" lon="-8.13153700">
        <ele>2.0000000</ele>
        <time>2010-01-01T02:26:07Z</time>
      </trkpt>
      <trkpt lat="37.07663900" lon="-8.13233300">
        <ele>5.0000000</ele>
        <time>2010-01-01T02:26:33Z</time>
      </trkpt>
      <trkpt lat="37.07675100" lon="-8.13307100">
        <ele>4.0000000</ele>
        <time>2010-01-01T02:26:57Z</time>
      </trkpt>
      <trkpt lat="37.07681000" lon="-8.13365500">
        <ele>4.0000000</ele>
        <time>2010-01-01T02:27:15Z</time>
      </trkpt>
      <trkpt lat="37.07686900" lon="-8.13393800">
        <ele>5.0000000</ele>
        <time>2010-01-01T02:27:25Z</time>
      </trkpt>
      <trkpt lat="37.07703500" lon="-8.13419800">
        <ele>5.0000000</ele>
        <time>2010-01-01T02:27:35Z</time>
      </trkpt>
      <trkpt lat="37.07718900" lon="-8.13440600">
        <ele>4.0000000</ele>
        <time>2010-01-01T02:27:44Z</time>
      </trkpt>
      <trkpt lat="37.07744500" lon="-8.13452100">
        <ele>5.0000000</ele>
        <time>2010-01-01T02:27:55Z</time>
      </trkpt>
      <trkpt lat="37.07779100" lon="-8.13466500">
        <ele>5.0000000</ele>
        <time>2010-01-01T02:28:10Z</time>
      </trkpt>
      <trkpt lat="37.07810400" lon="-8.13483700">
        <ele>4.0000000</ele>
        <time>2010-01-01T02:28:24Z</time>
      </trkpt>
      <trkpt lat="37.07843400" lon="-8.13512100">
        <ele>4.0000000</ele>
        <time>2010-01-01T02:28:40Z</time>
      </trkpt>
      <trkpt lat="37.07859300" lon="-8.13519700">
        <ele>4.0000000</ele>
        <time>2010-01-01T02:28:46Z</time>
      </trkpt>
      <trkpt lat="37.07883900" lon="-8.13532900">
        <ele>4.0000000</ele>
        <time>2010-01-01T02:28:57Z</time>
      </trkpt>
      <trkpt lat="37.07908800" lon="-8.13549600">
        <ele>5.0000000</ele>
        <time>2010-01-01T02:29:08Z</time>
      </trkpt>
      <trkpt lat="37.07935100" lon="-8.13581100">
        <ele>5.0000000</ele>
        <time>2010-01-01T02:29:23Z</time>
      </trkpt>
      <trkpt lat="37.07959500" lon="-8.13609800">
        <ele>3.0000000</ele>
        <time>2010-01-01T02:29:36Z</time>
      </trkpt>
      <trkpt lat="37.07981100" lon="-8.13643300">
        <ele>3.0000000</ele>
        <time>2010-01-01T02:29:50Z</time>
      </trkpt>
      <trkpt lat="37.07992400" lon="-8.13674400">
        <ele>3.0000000</ele>
        <time>2010-01-01T02:30:01Z</time>
      </trkpt>
      <trkpt lat="37.07997500" lon="-8.13700300">
        <ele>4.0000000</ele>
        <time>2010-01-01T02:30:10Z</time>
      </trkpt>
      <trkpt lat="37.08002900" lon="-8.13725200">
        <ele>5.0000000</ele>
        <time>2010-01-01T02:30:18Z</time>
      </trkpt>
      <trkpt lat="37.07996300" lon="-8.13760500">
        <ele>6.0000000</ele>
        <time>2010-01-01T02:30:29Z</time>
      </trkpt>
      <trkpt lat="37.07992800" lon="-8.13794200">
        <ele>6.0000000</ele>
        <time>2010-01-01T02:30:40Z</time>
      </trkpt>
      <trkpt lat="37.07986300" lon="-8.13833200">
        <ele>6.0000000</ele>
        <time>2010-01-01T02:30:53Z</time>
      </trkpt>
      <trkpt lat="37.07993900" lon="-8.13891600">
        <ele>6.0000000</ele>
        <time>2010-01-01T02:31:12Z</time>
      </trkpt>
      <trkpt lat="37.08015400" lon="-8.13958800">
        <ele>7.0000000</ele>
        <time>2010-01-01T02:31:35Z</time>
      </trkpt>
      <trkpt lat="37.08025600" lon="-8.13970600">
        <ele>7.0000000</ele>
        <time>2010-01-01T02:31:41Z</time>
      </trkpt>
      <trkpt lat="37.08044400" lon="-8.13982200">
        <ele>6.0000000</ele>
        <time>2010-01-01T02:31:49Z</time>
      </trkpt>
      <trkpt lat="37.08068900" lon="-8.13991000">
        <ele>5.0000000</ele>
        <time>2010-01-01T02:31:59Z</time>
      </trkpt>
      <trkpt lat="37.08088300" lon="-8.14017700">
        <ele>4.0000000</ele>
        <time>2010-01-01T02:32:11Z</time>
      </trkpt>
      <trkpt lat="37.08113400" lon="-8.14055200">
        <ele>5.0000000</ele>
        <time>2010-01-01T02:32:26Z</time>
      </trkpt>
      <trkpt lat="37.08153300" lon="-8.14117200">
        <ele>7.0000000</ele>
        <time>2010-01-01T02:32:52Z</time>
      </trkpt>
      <trkpt lat="37.08215400" lon="-8.14198000">
        <ele>6.0000000</ele>
        <time>2010-01-01T02:33:28Z</time>
      </trkpt>
      <trkpt lat="37.08270900" lon="-8.14259300">
        <ele>5.0000000</ele>
        <time>2010-01-01T02:33:57Z</time>
      </trkpt>
      <trkpt lat="37.08285900" lon="-8.14279500">
        <ele>5.0000000</ele>
        <time>2010-01-01T02:34:06Z</time>
      </trkpt>
      <trkpt lat="37.08301000" lon="-8.14293600">
        <ele>6.0000000</ele>
        <time>2010-01-01T02:34:14Z</time>
      </trkpt>
      <trkpt lat="37.08318900" lon="-8.14308200">
        <ele>6.0000000</ele>
        <time>2010-01-01T02:34:22Z</time>
      </trkpt>
      <trkpt lat="37.08335800" lon="-8.14324600">
        <ele>6.0000000</ele>
        <time>2010-01-01T02:34:31Z</time>
      </trkpt>
      <trkpt lat="37.08352900" lon="-8.14349800">
        <ele>5.0000000</ele>
        <time>2010-01-01T02:34:41Z</time>
      </trkpt>
      <trkpt lat="37.08361800" lon="-8.14372700">
        <ele>5.0000000</ele>
        <time>2010-01-01T02:34:49Z</time>
      </trkpt>
      <trkpt lat="37.08371100" lon="-8.14402100">
        <ele>7.0000000</ele>
        <time>2010-01-01T02:34:59Z</time>
      </trkpt>
      <trkpt lat="37.08379000" lon="-8.14433100">
        <ele>7.0000000</ele>
        <time>2010-01-01T02:35:10Z</time>
      </trkpt>
      <trkpt lat="37.08396600" lon="-8.14494700">
        <ele>8.0000000</ele>
        <time>2010-01-01T02:35:31Z</time>
      </trkpt>
      <trkpt lat="37.08402500" lon="-8.14505000">
        <ele>9.0000000</ele>
        <time>2010-01-01T02:35:35Z</time>
      </trkpt>
      <trkpt lat="37.08421000" lon="-8.14519100">
        <ele>9.0000000</ele>
        <time>2010-01-01T02:35:43Z</time>
      </trkpt>
      <trkpt lat="37.08444800" lon="-8.14537700">
        <ele>9.0000000</ele>
        <time>2010-01-01T02:35:55Z</time>
      </trkpt>
      <trkpt lat="37.08465000" lon="-8.14563700">
        <ele>9.0000000</ele>
        <time>2010-01-01T02:36:06Z</time>
      </trkpt>
      <trkpt lat="37.08487100" lon="-8.14590000">
        <ele>9.0000000</ele>
        <time>2010-01-01T02:36:18Z</time>
      </trkpt>
      <trkpt lat="37.08503200" lon="-8.14610500">
        <ele>9.0000000</ele>
        <time>2010-01-01T02:36:28Z</time>
      </trkpt>
      <trkpt lat="37.08515200" lon="-8.14642800">
        <ele>10.000000</ele>
        <time>2010-01-01T02:36:39Z</time>
      </trkpt>
      <trkpt lat="37.08521400" lon="-8.14669300">
        <ele>8.0000000</ele>
        <time>2010-01-01T02:36:48Z</time>
      </trkpt>
      <trkpt lat="37.08525300" lon="-8.14701300">
        <ele>8.0000000</ele>
        <time>2010-01-01T02:36:58Z</time>
      </trkpt>
      <trkpt lat="37.08544700" lon="-8.14755500">
        <ele>9.0000000</ele>
        <time>2010-01-01T02:37:17Z</time>
      </trkpt>
      <trkpt lat="37.08553000" lon="-8.14791200">
        <ele>12.000000</ele>
        <time>2010-01-01T02:37:29Z</time>
      </trkpt>
      <trkpt lat="37.08564400" lon="-8.14808300">
        <ele>12.000000</ele>
        <time>2010-01-01T02:37:36Z</time>
      </trkpt>
      <trkpt lat="37.08578500" lon="-8.14826300">
        <ele>11.000000</ele>
        <time>2010-01-01T02:37:44Z</time>
      </trkpt>
      <trkpt lat="37.08587900" lon="-8.14836600">
        <ele>9.0000000</ele>
        <time>2010-01-01T02:37:49Z</time>
      </trkpt>
      <trkpt lat="37.08594000" lon="-8.14851900">
        <ele>9.0000000</ele>
        <time>2010-01-01T02:37:55Z</time>
      </trkpt>
      <trkpt lat="37.08597200" lon="-8.14876300">
        <ele>9.0000000</ele>
        <time>2010-01-01T02:38:03Z</time>
      </trkpt>
      <trkpt lat="37.08597800" lon="-8.14924500">
        <ele>7.0000000</ele>
        <time>2010-01-01T02:38:18Z</time>
      </trkpt>
      <trkpt lat="37.08632300" lon="-8.14987900">
        <ele>5.0000000</ele>
        <time>2010-01-01T02:38:42Z</time>
      </trkpt>
      <trkpt lat="37.08663900" lon="-8.15053900">
        <ele>8.0000000</ele>
        <time>2010-01-01T02:39:07Z</time>
      </trkpt>
      <trkpt lat="37.08686200" lon="-8.15103800">
        <ele>10.000000</ele>
        <time>2010-01-01T02:39:25Z</time>
      </trkpt>
      <trkpt lat="37.08704900" lon="-8.15161100">
        <ele>9.0000000</ele>
        <time>2010-01-01T02:39:45Z</time>
      </trkpt>
      <trkpt lat="37.08714300" lon="-8.15208100">
        <ele>8.0000000</ele>
        <time>2010-01-01T02:40:01Z</time>
      </trkpt>
      <trkpt lat="37.08719000" lon="-8.15252100">
        <ele>7.0000000</ele>
        <time>2010-01-01T02:40:15Z</time>
      </trkpt>
      <trkpt lat="37.08718900" lon="-8.15297600">
        <ele>9.0000000</ele>
        <time>2010-01-01T02:40:29Z</time>
      </trkpt>
      <trkpt lat="37.08714300" lon="-8.15343200">
        <ele>8.0000000</ele>
        <time>2010-01-01T02:40:44Z</time>
      </trkpt>
      <trkpt lat="37.08713200" lon="-8.15382800">
        <ele>6.0000000</ele>
        <time>2010-01-01T02:40:57Z</time>
      </trkpt>
      <trkpt lat="37.08720200" lon="-8.15416600">
        <ele>7.0000000</ele>
        <time>2010-01-01T02:41:08Z</time>
      </trkpt>
      <trkpt lat="37.08724800" lon="-8.15437100">
        <ele>6.0000000</ele>
        <time>2010-01-01T02:41:15Z</time>
      </trkpt>
      <trkpt lat="37.08741200" lon="-8.15470900">
        <ele>7.0000000</ele>
        <time>2010-01-01T02:41:27Z</time>
      </trkpt>
      <trkpt lat="37.08768200" lon="-8.15517200">
        <ele>8.0000000</ele>
        <time>2010-01-01T02:41:46Z</time>
      </trkpt>
      <trkpt lat="37.08788100" lon="-8.15550200">
        <ele>8.0000000</ele>
        <time>2010-01-01T02:41:59Z</time>
      </trkpt>
      <trkpt lat="37.08820900" lon="-8.15608900">
        <ele>9.0000000</ele>
        <time>2010-01-01T02:42:22Z</time>
      </trkpt>
      <trkpt lat="37.08822100" lon="-8.15623600">
        <ele>9.0000000</ele>
        <time>2010-01-01T02:42:26Z</time>
      </trkpt>
      <trkpt lat="37.08827900" lon="-8.15677900">
        <ele>9.0000000</ele>
        <time>2010-01-01T02:42:44Z</time>
      </trkpt>
      <trkpt lat="37.08826700" lon="-8.15697000">
        <ele>10.000000</ele>
        <time>2010-01-01T02:42:50Z</time>
      </trkpt>
      <trkpt lat="37.08805600" lon="-8.15729200">
        <ele>11.000000</ele>
        <time>2010-01-01T02:43:03Z</time>
      </trkpt>
      <trkpt lat="37.08824400" lon="-8.15757200">
        <ele>11.000000</ele>
        <time>2010-01-01T02:43:15Z</time>
      </trkpt>
      <trkpt lat="37.08857200" lon="-8.15793900">
        <ele>11.000000</ele>
        <time>2010-01-01T02:43:33Z</time>
      </trkpt>
      <trkpt lat="37.08927500" lon="-8.15890800">
        <ele>11.000000</ele>
        <time>2010-01-01T02:44:14Z</time>
      </trkpt>
      <trkpt lat="37.08991900" lon="-8.15975900">
        <ele>12.000000</ele>
        <time>2010-01-01T02:44:52Z</time>
      </trkpt>
      <trkpt lat="37.09032300" lon="-8.16022500">
        <ele>10.000000</ele>
        <time>2010-01-01T02:45:14Z</time>
      </trkpt>
      <trkpt lat="37.09045900" lon="-8.16037200">
        <ele>9.0000000</ele>
        <time>2010-01-01T02:45:21Z</time>
      </trkpt>
      <trkpt lat="37.09085400" lon="-8.16062800">
        <ele>9.0000000</ele>
        <time>2010-01-01T02:45:39Z</time>
      </trkpt>
      <trkpt lat="37.09122700" lon="-8.16088400">
        <ele>9.0000000</ele>
        <time>2010-01-01T02:45:56Z</time>
      </trkpt>
      <trkpt lat="37.09216700" lon="-8.16155100">
        <ele>10.000000</ele>
        <time>2010-01-01T02:46:39Z</time>
      </trkpt>
      <trkpt lat="37.09250500" lon="-8.16180000">
        <ele>9.0000000</ele>
        <time>2010-01-01T02:46:55Z</time>
      </trkpt>
      <trkpt lat="37.09294000" lon="-8.16216700">
        <ele>10.000000</ele>
        <time>2010-01-01T02:47:16Z</time>
      </trkpt>
      <trkpt lat="37.09319800" lon="-8.16232900">
        <ele>11.000000</ele>
        <time>2010-01-01T02:47:27Z</time>
      </trkpt>
      <trkpt lat="37.09343400" lon="-8.16251700">
        <ele>12.000000</ele>
        <time>2010-01-01T02:47:38Z</time>
      </trkpt>
      <trkpt lat="37.09363100" lon="-8.16269600">
        <ele>12.000000</ele>
        <time>2010-01-01T02:47:48Z</time>
      </trkpt>
      <trkpt lat="37.09374800" lon="-8.16279900">
        <ele>13.000000</ele>
        <time>2010-01-01T02:47:54Z</time>
      </trkpt>
      <trkpt lat="37.09386200" lon="-8.16245900">
        <ele>11.000000</ele>
        <time>2010-01-01T02:48:06Z</time>
      </trkpt>
      <trkpt lat="37.09401200" lon="-8.16206400">
        <ele>9.0000000</ele>
        <time>2010-01-01T02:48:20Z</time>
      </trkpt>
      <trkpt lat="37.09411100" lon="-8.16181500">
        <ele>7.0000000</ele>
        <time>2010-01-01T02:48:29Z</time>
      </trkpt>
      <trkpt lat="37.09426400" lon="-8.16190300">
        <ele>7.0000000</ele>
        <time>2010-01-01T02:48:35Z</time>
      </trkpt>
      <trkpt lat="37.09449900" lon="-8.16198700">
        <ele>6.0000000</ele>
        <time>2010-01-01T02:48:45Z</time>
      </trkpt>
      <trkpt lat="37.09483700" lon="-8.16206400">
        <ele>9.0000000</ele>
        <time>2010-01-01T02:48:59Z</time>
      </trkpt>
      <trkpt lat="37.09508000" lon="-8.16204500">
        <ele>10.000000</ele>
        <time>2010-01-01T02:49:09Z</time>
      </trkpt>
      <trkpt lat="37.09533900" lon="-8.16200100">
        <ele>11.000000</ele>
        <time>2010-01-01T02:49:19Z</time>
      </trkpt>
      <trkpt lat="37.09572700" lon="-8.16183000">
        <ele>11.000000</ele>
        <time>2010-01-01T02:49:35Z</time>
      </trkpt>
      <trkpt lat="37.09611500" lon="-8.16175600">
        <ele>11.000000</ele>
        <time>2010-01-01T02:49:51Z</time>
      </trkpt>
      <trkpt lat="37.09646500" lon="-8.16172700">
        <ele>11.000000</ele>
        <time>2010-01-01T02:50:05Z</time>
      </trkpt>
      <trkpt lat="37.09663000" lon="-8.16168700">
        <ele>11.000000</ele>
        <time>2010-01-01T02:50:12Z</time>
      </trkpt>
      <trkpt lat="37.09675800" lon="-8.16175600">
        <ele>11.000000</ele>
        <time>2010-01-01T02:50:18Z</time>
      </trkpt>
      <trkpt lat="37.09721300" lon="-8.16200400">
        <ele>13.000000</ele>
        <time>2010-01-01T02:50:37Z</time>
      </trkpt>
      <trkpt lat="37.09756900" lon="-8.16219200">
        <ele>14.000000</ele>
        <time>2010-01-01T02:50:53Z</time>
      </trkpt>
      <trkpt lat="37.09794100" lon="-8.16236300">
        <ele>17.000000</ele>
        <time>2010-01-01T02:51:09Z</time>
      </trkpt>
      <trkpt lat="37.09829200" lon="-8.16241700">
        <ele>19.000000</ele>
        <time>2010-01-01T02:51:23Z</time>
      </trkpt>
      <trkpt lat="37.09859700" lon="-8.16268200">
        <ele>19.000000</ele>
        <time>2010-01-01T02:51:38Z</time>
      </trkpt>
      <trkpt lat="37.09858300" lon="-8.16294500">
        <ele>20.000000</ele>
        <time>2010-01-01T02:51:46Z</time>
      </trkpt>
      <trkpt lat="37.09852700" lon="-8.16377800">
        <ele>15.000000</ele>
        <time>2010-01-01T02:52:13Z</time>
      </trkpt>
      <trkpt lat="37.09849300" lon="-8.16528200">
        <ele>22.000000</ele>
        <time>2010-01-01T02:53:01Z</time>
      </trkpt>
      <trkpt lat="37.09844400" lon="-8.16602700">
        <ele>24.000000</ele>
        <time>2010-01-01T02:53:25Z</time>
      </trkpt>
      <trkpt lat="37.09841300" lon="-8.16739500">
        <ele>30.000000</ele>
        <time>2010-01-01T02:54:08Z</time>
      </trkpt>
      <trkpt lat="37.09847400" lon="-8.16849500">
        <ele>32.000000</ele>
        <time>2010-01-01T02:54:44Z</time>
      </trkpt>
      <trkpt lat="37.09841600" lon="-8.16900900">
        <ele>33.000000</ele>
        <time>2010-01-01T02:55:00Z</time>
      </trkpt>
      <trkpt lat="37.09802600" lon="-8.17014300">
        <ele>38.000000</ele>
        <time>2010-01-01T02:55:40Z</time>
      </trkpt>
      <trkpt lat="37.09783500" lon="-8.17034500">
        <ele>37.000000</ele>
        <time>2010-01-01T02:55:50Z</time>
      </trkpt>
      <trkpt lat="37.09761300" lon="-8.17099100">
        <ele>36.000000</ele>
        <time>2010-01-01T02:56:12Z</time>
      </trkpt>
      <trkpt lat="37.09739500" lon="-8.17162900">
        <ele>35.000000</ele>
        <time>2010-01-01T02:56:34Z</time>
      </trkpt>
      <trkpt lat="37.09731500" lon="-8.17196800">
        <ele>34.000000</ele>
        <time>2010-01-01T02:56:46Z</time>
      </trkpt>
      <trkpt lat="37.09722600" lon="-8.17241500">
        <ele>33.000000</ele>
        <time>2010-01-01T02:57:00Z</time>
      </trkpt>
      <trkpt lat="37.09718000" lon="-8.17317900">
        <ele>34.000000</ele>
        <time>2010-01-01T02:57:25Z</time>
      </trkpt>
      <trkpt lat="37.09702600" lon="-8.17361500">
        <ele>36.000000</ele>
        <time>2010-01-01T02:57:40Z</time>
      </trkpt>
      <trkpt lat="37.09675300" lon="-8.17448700">
        <ele>40.000000</ele>
        <time>2010-01-01T02:58:10Z</time>
      </trkpt>
      <trkpt lat="37.09648000" lon="-8.17552100">
        <ele>40.000000</ele>
        <time>2010-01-01T02:58:45Z</time>
      </trkpt>
      <trkpt lat="37.09643000" lon="-8.17583600">
        <ele>39.000000</ele>
        <time>2010-01-01T02:58:55Z</time>
      </trkpt>
      <trkpt lat="37.09653700" lon="-8.17629200">
        <ele>36.000000</ele>
        <time>2010-01-01T02:59:10Z</time>
      </trkpt>
      <trkpt lat="37.09670300" lon="-8.17714400">
        <ele>37.000000</ele>
        <time>2010-01-01T02:59:38Z</time>
      </trkpt>
      <trkpt lat="37.09684700" lon="-8.17790900">
        <ele>40.000000</ele>
        <time>2010-01-01T03:00:03Z</time>
      </trkpt>
      <trkpt lat="37.09720300" lon="-8.18015200">
        <ele>47.000000</ele>
        <time>2010-01-01T03:01:16Z</time>
      </trkpt>
      <trkpt lat="37.09733200" lon="-8.18100400">
        <ele>47.000000</ele>
        <time>2010-01-01T03:01:44Z</time>
      </trkpt>
      <trkpt lat="37.09747200" lon="-8.18144400">
        <ele>48.000000</ele>
        <time>2010-01-01T03:01:59Z</time>
      </trkpt>
      <trkpt lat="37.09769500" lon="-8.18175300">
        <ele>47.000000</ele>
        <time>2010-01-01T03:02:12Z</time>
      </trkpt>
      <trkpt lat="37.09744900" lon="-8.18235500">
        <ele>48.000000</ele>
        <time>2010-01-01T03:02:34Z</time>
      </trkpt>
      <trkpt lat="37.09641800" lon="-8.18192900">
        <ele>48.000000</ele>
        <time>2010-01-01T03:03:17Z</time>
      </trkpt>
      <trkpt lat="37.09572700" lon="-8.18166500">
        <ele>46.000000</ele>
        <time>2010-01-01T03:03:46Z</time>
      </trkpt>
      <trkpt lat="37.09550500" lon="-8.18159100">
        <ele>46.000000</ele>
        <time>2010-01-01T03:03:55Z</time>
      </trkpt>
      <trkpt lat="37.09542300" lon="-8.18187000">
        <ele>46.000000</ele>
        <time>2010-01-01T03:04:05Z</time>
      </trkpt>
      <trkpt lat="37.09525900" lon="-8.18244300">
        <ele>46.000000</ele>
        <time>2010-01-01T03:04:24Z</time>
      </trkpt>
      <trkpt lat="37.09513700" lon="-8.18311800">
        <ele>45.000000</ele>
        <time>2010-01-01T03:04:47Z</time>
      </trkpt>
      <trkpt lat="37.09509000" lon="-8.18357300">
        <ele>43.000000</ele>
        <time>2010-01-01T03:05:01Z</time>
      </trkpt>
      <trkpt lat="37.09504900" lon="-8.18437900">
        <ele>38.000000</ele>
        <time>2010-01-01T03:05:27Z</time>
      </trkpt>
      <trkpt lat="37.09504200" lon="-8.18470900">
        <ele>38.000000</ele>
        <time>2010-01-01T03:05:37Z</time>
      </trkpt>
      <trkpt lat="37.09497800" lon="-8.18493900">
        <ele>38.000000</ele>
        <time>2010-01-01T03:05:45Z</time>
      </trkpt>
      <trkpt lat="37.09488400" lon="-8.18510000">
        <ele>38.000000</ele>
        <time>2010-01-01T03:05:52Z</time>
      </trkpt>
      <trkpt lat="37.09463800" lon="-8.18533500">
        <ele>36.000000</ele>
        <time>2010-01-01T03:06:04Z</time>
      </trkpt>
      <trkpt lat="37.09449800" lon="-8.18577600">
        <ele>35.000000</ele>
        <time>2010-01-01T03:06:19Z</time>
      </trkpt>
      <trkpt lat="37.09422800" lon="-8.18651000">
        <ele>32.000000</ele>
        <time>2010-01-01T03:06:45Z</time>
      </trkpt>
      <trkpt lat="37.09408800" lon="-8.18693500">
        <ele>30.000000</ele>
        <time>2010-01-01T03:07:00Z</time>
      </trkpt>
      <trkpt lat="37.09399400" lon="-8.18706800">
        <ele>30.000000</ele>
        <time>2010-01-01T03:07:05Z</time>
      </trkpt>
      <trkpt lat="37.09365800" lon="-8.18715600">
        <ele>31.000000</ele>
        <time>2010-01-01T03:07:19Z</time>
      </trkpt>
      <trkpt lat="37.09354900" lon="-8.18750800">
        <ele>32.000000</ele>
        <time>2010-01-01T03:07:31Z</time>
      </trkpt>
      <trkpt lat="37.09335700" lon="-8.18823300">
        <ele>34.000000</ele>
        <time>2010-01-01T03:07:56Z</time>
      </trkpt>
      <trkpt lat="37.09340300" lon="-8.18846900">
        <ele>35.000000</ele>
        <time>2010-01-01T03:08:03Z</time>
      </trkpt>
      <trkpt lat="37.09333400" lon="-8.18879200">
        <ele>36.000000</ele>
        <time>2010-01-01T03:08:14Z</time>
      </trkpt>
      <trkpt lat="37.09321700" lon="-8.18924100">
        <ele>37.000000</ele>
        <time>2010-01-01T03:08:29Z</time>
      </trkpt>
      <trkpt lat="37.09318600" lon="-8.18971000">
        <ele>37.000000</ele>
        <time>2010-01-01T03:08:44Z</time>
      </trkpt>
      <trkpt lat="37.09324300" lon="-8.19023900">
        <ele>38.000000</ele>
        <time>2010-01-01T03:09:01Z</time>
      </trkpt>
      <trkpt lat="37.09325600" lon="-8.19065000">
        <ele>38.000000</ele>
        <time>2010-01-01T03:09:14Z</time>
      </trkpt>
      <trkpt lat="37.09334000" lon="-8.19127300">
        <ele>39.000000</ele>
        <time>2010-01-01T03:09:34Z</time>
      </trkpt>
      <trkpt lat="37.09344000" lon="-8.19186200">
        <ele>38.000000</ele>
        <time>2010-01-01T03:09:54Z</time>
      </trkpt>
      <trkpt lat="37.09363100" lon="-8.19276400">
        <ele>40.000000</ele>
        <time>2010-01-01T03:10:23Z</time>
      </trkpt>
      <trkpt lat="37.09374800" lon="-8.19335100">
        <ele>38.000000</ele>
        <time>2010-01-01T03:10:43Z</time>
      </trkpt>
      <trkpt lat="37.09373700" lon="-8.19374800">
        <ele>36.000000</ele>
        <time>2010-01-01T03:10:55Z</time>
      </trkpt>
      <trkpt lat="37.09365300" lon="-8.19437500">
        <ele>34.000000</ele>
        <time>2010-01-01T03:11:16Z</time>
      </trkpt>
      <trkpt lat="37.09366200" lon="-8.19534800">
        <ele>29.000000</ele>
        <time>2010-01-01T03:11:47Z</time>
      </trkpt>
      <trkpt lat="37.09370100" lon="-8.19624400">
        <ele>30.000000</ele>
        <time>2010-01-01T03:12:15Z</time>
      </trkpt>
      <trkpt lat="37.09373700" lon="-8.19689000">
        <ele>31.000000</ele>
        <time>2010-01-01T03:12:36Z</time>
      </trkpt>
      <trkpt lat="37.09378000" lon="-8.19743800">
        <ele>33.000000</ele>
        <time>2010-01-01T03:12:54Z</time>
      </trkpt>
      <trkpt lat="37.09377200" lon="-8.19806400">
        <ele>35.000000</ele>
        <time>2010-01-01T03:13:14Z</time>
      </trkpt>
      <trkpt lat="37.09373700" lon="-8.19856300">
        <ele>35.000000</ele>
        <time>2010-01-01T03:13:30Z</time>
      </trkpt>
      <trkpt lat="37.09365500" lon="-8.19904800">
        <ele>34.000000</ele>
        <time>2010-01-01T03:13:46Z</time>
      </trkpt>
      <trkpt lat="37.09356100" lon="-8.19959100">
        <ele>35.000000</ele>
        <time>2010-01-01T03:14:03Z</time>
      </trkpt>
      <trkpt lat="37.09347900" lon="-8.20019300">
        <ele>32.000000</ele>
        <time>2010-01-01T03:14:23Z</time>
      </trkpt>
      <trkpt lat="37.09344200" lon="-8.20034000">
        <ele>32.000000</ele>
        <time>2010-01-01T03:14:28Z</time>
      </trkpt>
      <trkpt lat="37.09359600" lon="-8.20042800">
        <ele>30.000000</ele>
        <time>2010-01-01T03:14:34Z</time>
      </trkpt>
      <trkpt lat="37.09401800" lon="-8.20067900">
        <ele>28.000000</ele>
        <time>2010-01-01T03:14:53Z</time>
      </trkpt>
      <trkpt lat="37.09426000" lon="-8.20095400">
        <ele>25.000000</ele>
        <time>2010-01-01T03:15:06Z</time>
      </trkpt>
      <trkpt lat="37.09455600" lon="-8.20135300">
        <ele>25.000000</ele>
        <time>2010-01-01T03:15:24Z</time>
      </trkpt>
      <trkpt lat="37.09469700" lon="-8.20173500">
        <ele>26.000000</ele>
        <time>2010-01-01T03:15:37Z</time>
      </trkpt>
      <trkpt lat="37.09488400" lon="-8.20232200">
        <ele>30.000000</ele>
        <time>2010-01-01T03:15:57Z</time>
      </trkpt>
      <trkpt lat="37.09509200" lon="-8.20267800">
        <ele>33.000000</ele>
        <time>2010-01-01T03:16:11Z</time>
      </trkpt>
      <trkpt lat="37.09532900" lon="-8.20301200">
        <ele>35.000000</ele>
        <time>2010-01-01T03:16:26Z</time>
      </trkpt>
      <trkpt lat="37.09569200" lon="-8.20326400">
        <ele>35.000000</ele>
        <time>2010-01-01T03:16:42Z</time>
      </trkpt>
      <trkpt lat="37.09585500" lon="-8.20346100">
        <ele>36.000000</ele>
        <time>2010-01-01T03:16:51Z</time>
      </trkpt>
      <trkpt lat="37.09625100" lon="-8.20385600">
        <ele>38.000000</ele>
        <time>2010-01-01T03:17:12Z</time>
      </trkpt>
      <trkpt lat="37.09677000" lon="-8.20420100">
        <ele>40.000000</ele>
        <time>2010-01-01T03:17:35Z</time>
      </trkpt>
      <trkpt lat="37.09684000" lon="-8.20434800">
        <ele>40.000000</ele>
        <time>2010-01-01T03:17:41Z</time>
      </trkpt>
      <trkpt lat="37.09700400" lon="-8.20470000">
        <ele>39.000000</ele>
        <time>2010-01-01T03:17:54Z</time>
      </trkpt>
      <trkpt lat="37.09720300" lon="-8.20501500">
        <ele>40.000000</ele>
        <time>2010-01-01T03:18:06Z</time>
      </trkpt>
      <trkpt lat="37.09740200" lon="-8.20509700">
        <ele>42.000000</ele>
        <time>2010-01-01T03:18:15Z</time>
      </trkpt>
      <trkpt lat="37.09782600" lon="-8.20524100">
        <ele>43.000000</ele>
        <time>2010-01-01T03:18:32Z</time>
      </trkpt>
      <trkpt lat="37.09784700" lon="-8.20537600">
        <ele>42.000000</ele>
        <time>2010-01-01T03:18:37Z</time>
      </trkpt>
      <trkpt lat="37.09783500" lon="-8.20556700">
        <ele>42.000000</ele>
        <time>2010-01-01T03:18:43Z</time>
      </trkpt>
      <trkpt lat="37.09783500" lon="-8.20578700">
        <ele>41.000000</ele>
        <time>2010-01-01T03:18:50Z</time>
      </trkpt>
      <trkpt lat="37.09790600" lon="-8.20583100">
        <ele>41.000000</ele>
        <time>2010-01-01T03:18:53Z</time>
      </trkpt>
      <trkpt lat="37.09796400" lon="-8.20593400">
        <ele>41.000000</ele>
        <time>2010-01-01T03:18:57Z</time>
      </trkpt>
      <trkpt lat="37.09797300" lon="-8.20619400">
        <ele>40.000000</ele>
        <time>2010-01-01T03:19:05Z</time>
      </trkpt>
      <trkpt lat="37.09800700" lon="-8.20656300">
        <ele>40.000000</ele>
        <time>2010-01-01T03:19:17Z</time>
      </trkpt>
      <trkpt lat="37.09798800" lon="-8.20703500">
        <ele>39.000000</ele>
        <time>2010-01-01T03:19:32Z</time>
      </trkpt>
      <trkpt lat="37.09807000" lon="-8.20707900">
        <ele>39.000000</ele>
        <time>2010-01-01T03:19:36Z</time>
      </trkpt>
      <trkpt lat="37.09819800" lon="-8.20705000">
        <ele>40.000000</ele>
        <time>2010-01-01T03:19:41Z</time>
      </trkpt>
      <trkpt lat="37.09828000" lon="-8.20699100">
        <ele>40.000000</ele>
        <time>2010-01-01T03:19:45Z</time>
      </trkpt>
      <trkpt lat="37.09853800" lon="-8.20698700">
        <ele>40.000000</ele>
        <time>2010-01-01T03:19:55Z</time>
      </trkpt>
      <trkpt lat="37.09885300" lon="-8.20701600">
        <ele>41.000000</ele>
        <time>2010-01-01T03:20:08Z</time>
      </trkpt>
      <trkpt lat="37.09908800" lon="-8.20710800">
        <ele>43.000000</ele>
        <time>2010-01-01T03:20:18Z</time>
      </trkpt>
      <trkpt lat="37.09922000" lon="-8.20713800">
        <ele>44.000000</ele>
        <time>2010-01-01T03:20:23Z</time>
      </trkpt>
      <trkpt lat="37.09928700" lon="-8.20724000">
        <ele>44.000000</ele>
        <time>2010-01-01T03:20:27Z</time>
      </trkpt>
      <trkpt lat="37.09948600" lon="-8.20744600">
        <ele>43.000000</ele>
        <time>2010-01-01T03:20:38Z</time>
      </trkpt>
      <trkpt lat="37.09961500" lon="-8.20765200">
        <ele>41.000000</ele>
        <time>2010-01-01T03:20:46Z</time>
      </trkpt>
      <trkpt lat="37.09961000" lon="-8.20786800">
        <ele>40.000000</ele>
        <time>2010-01-01T03:20:53Z</time>
      </trkpt>
      <trkpt lat="37.09951000" lon="-8.20813600">
        <ele>39.000000</ele>
        <time>2010-01-01T03:21:02Z</time>
      </trkpt>
      <trkpt lat="37.09931900" lon="-8.20844200">
        <ele>40.000000</ele>
        <time>2010-01-01T03:21:15Z</time>
      </trkpt>
      <trkpt lat="37.09914700" lon="-8.20879700">
        <ele>40.000000</ele>
        <time>2010-01-01T03:21:28Z</time>
      </trkpt>
      <trkpt lat="37.09903500" lon="-8.20891400">
        <ele>40.000000</ele>
        <time>2010-01-01T03:21:34Z</time>
      </trkpt>
      <trkpt lat="37.09892400" lon="-8.20895800">
        <ele>40.000000</ele>
        <time>2010-01-01T03:21:39Z</time>
      </trkpt>
      <trkpt lat="37.09884100" lon="-8.20923300">
        <ele>41.000000</ele>
        <time>2010-01-01T03:21:48Z</time>
      </trkpt>
      <trkpt lat="37.09871700" lon="-8.20965000">
        <ele>41.000000</ele>
        <time>2010-01-01T03:22:02Z</time>
      </trkpt>
      <trkpt lat="37.09864200" lon="-8.21003600">
        <ele>44.000000</ele>
        <time>2010-01-01T03:22:15Z</time>
      </trkpt>
      <trkpt lat="37.09860800" lon="-8.21039700">
        <ele>46.000000</ele>
        <time>2010-01-01T03:22:26Z</time>
      </trkpt>
      <trkpt lat="37.09864500" lon="-8.21073800">
        <ele>48.000000</ele>
        <time>2010-01-01T03:22:37Z</time>
      </trkpt>
      <trkpt lat="37.09877200" lon="-8.21107200">
        <ele>50.000000</ele>
        <time>2010-01-01T03:22:49Z</time>
      </trkpt>
      <trkpt lat="37.09885400" lon="-8.21119000">
        <ele>50.000000</ele>
        <time>2010-01-01T03:22:54Z</time>
      </trkpt>
      <trkpt lat="37.09894800" lon="-8.21145400">
        <ele>50.000000</ele>
        <time>2010-01-01T03:23:03Z</time>
      </trkpt>
      <trkpt lat="37.09907100" lon="-8.21184200">
        <ele>51.000000</ele>
        <time>2010-01-01T03:23:17Z</time>
      </trkpt>
      <trkpt lat="37.09929600" lon="-8.21185500">
        <ele>50.000000</ele>
        <time>2010-01-01T03:23:26Z</time>
      </trkpt>
      <trkpt lat="37.09958400" lon="-8.21176900">
        <ele>50.000000</ele>
        <time>2010-01-01T03:23:38Z</time>
      </trkpt>
      <trkpt lat="37.09978400" lon="-8.21161300">
        <ele>51.000000</ele>
        <time>2010-01-01T03:23:47Z</time>
      </trkpt>
      <trkpt lat="37.09996700" lon="-8.21157200">
        <ele>52.000000</ele>
        <time>2010-01-01T03:23:55Z</time>
      </trkpt>
      <trkpt lat="37.10014200" lon="-8.21171800">
        <ele>52.000000</ele>
        <time>2010-01-01T03:24:03Z</time>
      </trkpt>
      <trkpt lat="37.10034100" lon="-8.21211500">
        <ele>53.000000</ele>
        <time>2010-01-01T03:24:18Z</time>
      </trkpt>
      <trkpt lat="37.10055500" lon="-8.21254300">
        <ele>55.000000</ele>
        <time>2010-01-01T03:24:34Z</time>
      </trkpt>
      <trkpt lat="37.10076300" lon="-8.21282000">
        <ele>55.000000</ele>
        <time>2010-01-01T03:24:46Z</time>
      </trkpt>
      <trkpt lat="37.10106100" lon="-8.21309800">
        <ele>55.000000</ele>
        <time>2010-01-01T03:25:01Z</time>
      </trkpt>
      <trkpt lat="37.10147200" lon="-8.21345700">
        <ele>57.000000</ele>
        <time>2010-01-01T03:25:21Z</time>
      </trkpt>
      <trkpt lat="37.10174000" lon="-8.21366200">
        <ele>59.000000</ele>
        <time>2010-01-01T03:25:34Z</time>
      </trkpt>
      <trkpt lat="37.10192200" lon="-8.21375900">
        <ele>59.000000</ele>
        <time>2010-01-01T03:25:42Z</time>
      </trkpt>
      <trkpt lat="37.10222700" lon="-8.21377400">
        <ele>60.000000</ele>
        <time>2010-01-01T03:25:54Z</time>
      </trkpt>
      <trkpt lat="37.10237400" lon="-8.21388700">
        <ele>62.000000</ele>
        <time>2010-01-01T03:26:01Z</time>
      </trkpt>
      <trkpt lat="37.10230900" lon="-8.21425800">
        <ele>62.000000</ele>
        <time>2010-01-01T03:26:13Z</time>
      </trkpt>
      <trkpt lat="37.10220800" lon="-8.21507000">
        <ele>61.000000</ele>
        <time>2010-01-01T03:26:39Z</time>
      </trkpt>
      <trkpt lat="37.10219100" lon="-8.21549200">
        <ele>61.000000</ele>
        <time>2010-01-01T03:26:53Z</time>
      </trkpt>
      <trkpt lat="37.10207400" lon="-8.21568200">
        <ele>60.000000</ele>
        <time>2010-01-01T03:27:00Z</time>
      </trkpt>
      <trkpt lat="37.10174600" lon="-8.21607900">
        <ele>57.000000</ele>
        <time>2010-01-01T03:27:18Z</time>
      </trkpt>
      <trkpt lat="37.10148900" lon="-8.21635800">
        <ele>55.000000</ele>
        <time>2010-01-01T03:27:32Z</time>
      </trkpt>
      <trkpt lat="37.10114100" lon="-8.21662700">
        <ele>53.000000</ele>
        <time>2010-01-01T03:27:48Z</time>
      </trkpt>
      <trkpt lat="37.10095000" lon="-8.21669600">
        <ele>52.000000</ele>
        <time>2010-01-01T03:27:56Z</time>
      </trkpt>
      <trkpt lat="37.10052200" lon="-8.21679000">
        <ele>50.000000</ele>
        <time>2010-01-01T03:28:14Z</time>
      </trkpt>
      <trkpt lat="37.09994300" lon="-8.21691600">
        <ele>49.000000</ele>
        <time>2010-01-01T03:28:37Z</time>
      </trkpt>
      <trkpt lat="37.09956100" lon="-8.21705300">
        <ele>49.000000</ele>
        <time>2010-01-01T03:28:53Z</time>
      </trkpt>
      <trkpt lat="37.09926400" lon="-8.21732700">
        <ele>49.000000</ele>
        <time>2010-01-01T03:29:08Z</time>
      </trkpt>
      <trkpt lat="37.09911900" lon="-8.21748900">
        <ele>49.000000</ele>
        <time>2010-01-01T03:29:16Z</time>
      </trkpt>
      <trkpt lat="37.09877200" lon="-8.21782600">
        <ele>47.000000</ele>
        <time>2010-01-01T03:29:33Z</time>
      </trkpt>
      <trkpt lat="37.09835100" lon="-8.21829600">
        <ele>44.000000</ele>
        <time>2010-01-01T03:29:56Z</time>
      </trkpt>
      <trkpt lat="37.09783500" lon="-8.21897100">
        <ele>41.000000</ele>
        <time>2010-01-01T03:30:26Z</time>
      </trkpt>
      <trkpt lat="37.09757800" lon="-8.21930500">
        <ele>38.000000</ele>
        <time>2010-01-01T03:30:41Z</time>
      </trkpt>
      <trkpt lat="37.09741400" lon="-8.21973500">
        <ele>34.000000</ele>
        <time>2010-01-01T03:30:56Z</time>
      </trkpt>
      <trkpt lat="37.09710900" lon="-8.22048300">
        <ele>32.000000</ele>
        <time>2010-01-01T03:31:23Z</time>
      </trkpt>
      <trkpt lat="37.09612600" lon="-8.22315600">
        <ele>42.000000</ele>
        <time>2010-01-01T03:32:57Z</time>
      </trkpt>
      <trkpt lat="37.09579800" lon="-8.22393200">
        <ele>50.000000</ele>
        <time>2010-01-01T03:33:25Z</time>
      </trkpt>
      <trkpt lat="37.09572700" lon="-8.22429800">
        <ele>52.000000</ele>
        <time>2010-01-01T03:33:37Z</time>
      </trkpt>
      <trkpt lat="37.09564500" lon="-8.22450600">
        <ele>53.000000</ele>
        <time>2010-01-01T03:33:44Z</time>
      </trkpt>
      <trkpt lat="37.09482600" lon="-8.22694300">
        <ele>51.000000</ele>
        <time>2010-01-01T03:35:09Z</time>
      </trkpt>
      <trkpt lat="37.09424700" lon="-8.22845500">
        <ele>50.000000</ele>
        <time>2010-01-01T03:36:02Z</time>
      </trkpt>
      <trkpt lat="37.09418200" lon="-8.22877900">
        <ele>49.000000</ele>
        <time>2010-01-01T03:36:13Z</time>
      </trkpt>
      <trkpt lat="37.09416000" lon="-8.22941500">
        <ele>47.000000</ele>
        <time>2010-01-01T03:36:33Z</time>
      </trkpt>
      <trkpt lat="37.09413100" lon="-8.23040800">
        <ele>49.000000</ele>
        <time>2010-01-01T03:37:05Z</time>
      </trkpt>
      <trkpt lat="37.09400100" lon="-8.23139000">
        <ele>46.000000</ele>
        <time>2010-01-01T03:37:37Z</time>
      </trkpt>
      <trkpt lat="37.09388900" lon="-8.23211100">
        <ele>48.000000</ele>
        <time>2010-01-01T03:38:00Z</time>
      </trkpt>
      <trkpt lat="37.09380700" lon="-8.23269900">
        <ele>45.000000</ele>
        <time>2010-01-01T03:38:19Z</time>
      </trkpt>
      <trkpt lat="37.09381400" lon="-8.23290900">
        <ele>44.000000</ele>
        <time>2010-01-01T03:38:26Z</time>
      </trkpt>
      <trkpt lat="37.09351400" lon="-8.23289000">
        <ele>45.000000</ele>
        <time>2010-01-01T03:38:38Z</time>
      </trkpt>
      <trkpt lat="37.09318500" lon="-8.23291100">
        <ele>43.000000</ele>
        <time>2010-01-01T03:38:51Z</time>
      </trkpt>
      <trkpt lat="37.09272900" lon="-8.23296300">
        <ele>41.000000</ele>
        <time>2010-01-01T03:39:09Z</time>
      </trkpt>
      <trkpt lat="37.09215600" lon="-8.23299500">
        <ele>40.000000</ele>
        <time>2010-01-01T03:39:32Z</time>
      </trkpt>
      <trkpt lat="37.09187800" lon="-8.23317800">
        <ele>40.000000</ele>
        <time>2010-01-01T03:39:45Z</time>
      </trkpt>
      <trkpt lat="37.09176900" lon="-8.23337400">
        <ele>40.000000</ele>
        <time>2010-01-01T03:39:52Z</time>
      </trkpt>
      <trkpt lat="37.09130700" lon="-8.23400800">
        <ele>38.000000</ele>
        <time>2010-01-01T03:40:20Z</time>
      </trkpt>
      <trkpt lat="37.09140600" lon="-8.23416300">
        <ele>38.000000</ele>
        <time>2010-01-01T03:40:26Z</time>
      </trkpt>
      <trkpt lat="37.09166400" lon="-8.23463700">
        <ele>34.000000</ele>
        <time>2010-01-01T03:40:45Z</time>
      </trkpt>
      <trkpt lat="37.09200700" lon="-8.23532000">
        <ele>34.000000</ele>
        <time>2010-01-01T03:41:10Z</time>
      </trkpt>
      <trkpt lat="37.09222600" lon="-8.23573800">
        <ele>35.000000</ele>
        <time>2010-01-01T03:41:26Z</time>
      </trkpt>
      <trkpt lat="37.09237800" lon="-8.23623400">
        <ele>35.000000</ele>
        <time>2010-01-01T03:41:43Z</time>
      </trkpt>
      <trkpt lat="37.09240400" lon="-8.23655800">
        <ele>36.000000</ele>
        <time>2010-01-01T03:41:54Z</time>
      </trkpt>
      <trkpt lat="37.09234300" lon="-8.23689800">
        <ele>37.000000</ele>
        <time>2010-01-01T03:42:05Z</time>
      </trkpt>
      <trkpt lat="37.09223800" lon="-8.23761700">
        <ele>43.000000</ele>
        <time>2010-01-01T03:42:28Z</time>
      </trkpt>
      <trkpt lat="37.09213200" lon="-8.23795500">
        <ele>46.000000</ele>
        <time>2010-01-01T03:42:40Z</time>
      </trkpt>
      <trkpt lat="37.09178500" lon="-8.23884500">
        <ele>48.000000</ele>
        <time>2010-01-01T03:43:11Z</time>
      </trkpt>
      <trkpt lat="37.09158100" lon="-8.23949200">
        <ele>47.000000</ele>
        <time>2010-01-01T03:43:34Z</time>
      </trkpt>
      <trkpt lat="37.09147600" lon="-8.23998100">
        <ele>48.000000</ele>
        <time>2010-01-01T03:43:50Z</time>
      </trkpt>
      <trkpt lat="37.09134800" lon="-8.24050900">
        <ele>46.000000</ele>
        <time>2010-01-01T03:44:07Z</time>
      </trkpt>
      <trkpt lat="37.09119500" lon="-8.24142000">
        <ele>47.000000</ele>
        <time>2010-01-01T03:44:37Z</time>
      </trkpt>
      <trkpt lat="37.09096800" lon="-8.24235900">
        <ele>45.000000</ele>
        <time>2010-01-01T03:45:08Z</time>
      </trkpt>
      <trkpt lat="37.09078200" lon="-8.24325500">
        <ele>45.000000</ele>
        <time>2010-01-01T03:45:38Z</time>
      </trkpt>
      <trkpt lat="37.09059800" lon="-8.24435600">
        <ele>43.000000</ele>
        <time>2010-01-01T03:46:14Z</time>
      </trkpt>
      <trkpt lat="37.09062000" lon="-8.24453000">
        <ele>44.000000</ele>
        <time>2010-01-01T03:46:20Z</time>
      </trkpt>
      <trkpt lat="37.09062300" lon="-8.24489700">
        <ele>43.000000</ele>
        <time>2010-01-01T03:46:31Z</time>
      </trkpt>
      <trkpt lat="37.09066700" lon="-8.24516000">
        <ele>42.000000</ele>
        <time>2010-01-01T03:46:40Z</time>
      </trkpt>
      <trkpt lat="37.09072000" lon="-8.24529200">
        <ele>42.000000</ele>
        <time>2010-01-01T03:46:45Z</time>
      </trkpt>
      <trkpt lat="37.09095000" lon="-8.24518400">
        <ele>42.000000</ele>
        <time>2010-01-01T03:46:54Z</time>
      </trkpt>
      <trkpt lat="37.09122100" lon="-8.24505900">
        <ele>43.000000</ele>
        <time>2010-01-01T03:47:06Z</time>
      </trkpt>
      <trkpt lat="37.09131200" lon="-8.24541300">
        <ele>44.000000</ele>
        <time>2010-01-01T03:47:18Z</time>
      </trkpt>
      <trkpt lat="37.09148800" lon="-8.24582400">
        <ele>46.000000</ele>
        <time>2010-01-01T03:47:33Z</time>
      </trkpt>
      <trkpt lat="37.09178100" lon="-8.24627900">
        <ele>48.000000</ele>
        <time>2010-01-01T03:47:51Z</time>
      </trkpt>
      <trkpt lat="37.09205000" lon="-8.24661700">
        <ele>50.000000</ele>
        <time>2010-01-01T03:48:07Z</time>
      </trkpt>
      <trkpt lat="37.09302200" lon="-8.24773300">
        <ele>57.000000</ele>
        <time>2010-01-01T03:48:59Z</time>
      </trkpt>
      <trkpt lat="37.09357300" lon="-8.24827600">
        <ele>59.000000</ele>
        <time>2010-01-01T03:49:27Z</time>
      </trkpt>
      <trkpt lat="37.09407600" lon="-8.24884900">
        <ele>59.000000</ele>
        <time>2010-01-01T03:49:55Z</time>
      </trkpt>
      <trkpt lat="37.09426400" lon="-8.24906900">
        <ele>59.000000</ele>
        <time>2010-01-01T03:50:05Z</time>
      </trkpt>
      <trkpt lat="37.09446500" lon="-8.24920200">
        <ele>60.000000</ele>
        <time>2010-01-01T03:50:14Z</time>
      </trkpt>
      <trkpt lat="37.09460000" lon="-8.24934300">
        <ele>60.000000</ele>
        <time>2010-01-01T03:50:21Z</time>
      </trkpt>
      <trkpt lat="37.09469700" lon="-8.24955300">
        <ele>58.000000</ele>
        <time>2010-01-01T03:50:29Z</time>
      </trkpt>
      <trkpt lat="37.09483400" lon="-8.24983500">
        <ele>57.000000</ele>
        <time>2010-01-01T03:50:39Z</time>
      </trkpt>
      <trkpt lat="37.09495600" lon="-8.25018500">
        <ele>56.000000</ele>
        <time>2010-01-01T03:50:52Z</time>
      </trkpt>
      <trkpt lat="37.09505200" lon="-8.25068400">
        <ele>55.000000</ele>
        <time>2010-01-01T03:51:08Z</time>
      </trkpt>
      <trkpt lat="37.09502500" lon="-8.25115400">
        <ele>53.000000</ele>
        <time>2010-01-01T03:51:23Z</time>
      </trkpt>
      <trkpt lat="37.09493100" lon="-8.25156500">
        <ele>52.000000</ele>
        <time>2010-01-01T03:51:37Z</time>
      </trkpt>
      <trkpt lat="37.09462300" lon="-8.25218800">
        <ele>48.000000</ele>
        <time>2010-01-01T03:52:00Z</time>
      </trkpt>
      <trkpt lat="37.09385200" lon="-8.25346100">
        <ele>29.000000</ele>
        <time>2010-01-01T03:52:51Z</time>
      </trkpt>
      <trkpt lat="37.09378200" lon="-8.25362300">
        <ele>28.000000</ele>
        <time>2010-01-01T03:52:57Z</time>
      </trkpt>
      <trkpt lat="37.09368400" lon="-8.25377200">
        <ele>28.000000</ele>
        <time>2010-01-01T03:53:03Z</time>
      </trkpt>
      <trkpt lat="37.09341100" lon="-8.25417800">
        <ele>28.000000</ele>
        <time>2010-01-01T03:53:20Z</time>
      </trkpt>
      <trkpt lat="37.09306900" lon="-8.25473600">
        <ele>30.000000</ele>
        <time>2010-01-01T03:53:43Z</time>
      </trkpt>
      <trkpt lat="37.09278400" lon="-8.25513500">
        <ele>30.000000</ele>
        <time>2010-01-01T03:54:00Z</time>
      </trkpt>
      <trkpt lat="37.09253700" lon="-8.25536300">
        <ele>28.000000</ele>
        <time>2010-01-01T03:54:12Z</time>
      </trkpt>
      <trkpt lat="37.09224900" lon="-8.25555800">
        <ele>29.000000</ele>
        <time>2010-01-01T03:54:25Z</time>
      </trkpt>
      <trkpt lat="37.09196900" lon="-8.25567000">
        <ele>32.000000</ele>
        <time>2010-01-01T03:54:37Z</time>
      </trkpt>
      <trkpt lat="37.09144100" lon="-8.25576400">
        <ele>34.000000</ele>
        <time>2010-01-01T03:54:58Z</time>
      </trkpt>
      <trkpt lat="37.09091300" lon="-8.25586100">
        <ele>37.000000</ele>
        <time>2010-01-01T03:55:20Z</time>
      </trkpt>
      <trkpt lat="37.09048400" lon="-8.25598600">
        <ele>47.000000</ele>
        <time>2010-01-01T03:55:37Z</time>
      </trkpt>
      <trkpt lat="37.09017800" lon="-8.25620500">
        <ele>53.000000</ele>
        <time>2010-01-01T03:55:51Z</time>
      </trkpt>
      <trkpt lat="37.08997700" lon="-8.25655700">
        <ele>53.000000</ele>
        <time>2010-01-01T03:56:05Z</time>
      </trkpt>
      <trkpt lat="37.08982500" lon="-8.25729100">
        <ele>55.000000</ele>
        <time>2010-01-01T03:56:29Z</time>
      </trkpt>
      <trkpt lat="37.08976000" lon="-8.25729900">
        <ele>54.000000</ele>
        <time>2010-01-01T03:56:32Z</time>
      </trkpt>
      <trkpt lat="37.08934500" lon="-8.25724700">
        <ele>49.000000</ele>
        <time>2010-01-01T03:56:49Z</time>
      </trkpt>
      <trkpt lat="37.08820600" lon="-8.25708200">
        <ele>50.000000</ele>
        <time>2010-01-01T03:57:35Z</time>
      </trkpt>
      <trkpt lat="37.08811600" lon="-8.25709000">
        <ele>51.000000</ele>
        <time>2010-01-01T03:57:38Z</time>
      </trkpt>
      <trkpt lat="37.08800500" lon="-8.25699300">
        <ele>51.000000</ele>
        <time>2010-01-01T03:57:44Z</time>
      </trkpt>
      <trkpt lat="37.08786000" lon="-8.25700500">
        <ele>52.000000</ele>
        <time>2010-01-01T03:57:49Z</time>
      </trkpt>
      <trkpt lat="37.08756700" lon="-8.25702200">
        <ele>54.000000</ele>
        <time>2010-01-01T03:58:01Z</time>
      </trkpt>
      <trkpt lat="37.08687200" lon="-8.25711100">
        <ele>51.000000</ele>
        <time>2010-01-01T03:58:29Z</time>
      </trkpt>
      <trkpt lat="37.08661900" lon="-8.25714100">
        <ele>48.000000</ele>
        <time>2010-01-01T03:58:39Z</time>
      </trkpt>
      <trkpt lat="37.08625100" lon="-8.25720000">
        <ele>45.000000</ele>
        <time>2010-01-01T03:58:54Z</time>
      </trkpt>
      <trkpt lat="37.08602500" lon="-8.25725900">
        <ele>43.000000</ele>
        <time>2010-01-01T03:59:03Z</time>
      </trkpt>
      <trkpt lat="37.08564400" lon="-8.25733100">
        <ele>41.000000</ele>
        <time>2010-01-01T03:59:19Z</time>
      </trkpt>
      <trkpt lat="37.08542300" lon="-8.25738200">
        <ele>41.000000</ele>
        <time>2010-01-01T03:59:28Z</time>
      </trkpt>
      <trkpt lat="37.08518800" lon="-8.25770900">
        <ele>44.000000</ele>
        <time>2010-01-01T03:59:42Z</time>
      </trkpt>
      <trkpt lat="37.08502200" lon="-8.25786400">
        <ele>44.000000</ele>
        <time>2010-01-01T03:59:50Z</time>
      </trkpt>
      <trkpt lat="37.08455500" lon="-8.25815700">
        <ele>41.000000</ele>
        <time>2010-01-01T04:00:11Z</time>
      </trkpt>
      <trkpt lat="37.08421900" lon="-8.25825500">
        <ele>37.000000</ele>
        <time>2010-01-01T04:00:25Z</time>
      </trkpt>
      <trkpt lat="37.08403500" lon="-8.25839300">
        <ele>35.000000</ele>
        <time>2010-01-01T04:00:33Z</time>
      </trkpt>
      <trkpt lat="37.08362900" lon="-8.25897900">
        <ele>30.000000</ele>
        <time>2010-01-01T04:00:58Z</time>
      </trkpt>
      <trkpt lat="37.08357100" lon="-8.25943400">
        <ele>29.000000</ele>
        <time>2010-01-01T04:01:13Z</time>
      </trkpt>
      <trkpt lat="37.08351800" lon="-8.25977900">
        <ele>25.000000</ele>
        <time>2010-01-01T04:01:24Z</time>
      </trkpt>
      <trkpt lat="37.08338300" lon="-8.26021200">
        <ele>21.000000</ele>
        <time>2010-01-01T04:01:39Z</time>
      </trkpt>
      <trkpt lat="37.08317300" lon="-8.26093200">
        <ele>20.000000</ele>
        <time>2010-01-01T04:02:03Z</time>
      </trkpt>
      <trkpt lat="37.08309000" lon="-8.26141000">
        <ele>21.000000</ele>
        <time>2010-01-01T04:02:19Z</time>
      </trkpt>
      <trkpt lat="37.08311400" lon="-8.26172000">
        <ele>19.000000</ele>
        <time>2010-01-01T04:02:29Z</time>
      </trkpt>
      <trkpt lat="37.08320800" lon="-8.26197400">
        <ele>19.000000</ele>
        <time>2010-01-01T04:02:38Z</time>
      </trkpt>
      <trkpt lat="37.08338700" lon="-8.26213700">
        <ele>19.000000</ele>
        <time>2010-01-01T04:02:47Z</time>
      </trkpt>
      <trkpt lat="37.08401600" lon="-8.26219400">
        <ele>19.000000</ele>
        <time>2010-01-01T04:03:12Z</time>
      </trkpt>
      <trkpt lat="37.08414400" lon="-8.26225300">
        <ele>18.000000</ele>
        <time>2010-01-01T04:03:18Z</time>
      </trkpt>
      <trkpt lat="37.08422700" lon="-8.26229900">
        <ele>18.000000</ele>
        <time>2010-01-01T04:03:21Z</time>
      </trkpt>
      <trkpt lat="37.08434000" lon="-8.26240300">
        <ele>17.000000</ele>
        <time>2010-01-01T04:03:27Z</time>
      </trkpt>
      <trkpt lat="37.08446100" lon="-8.26256200">
        <ele>15.000000</ele>
        <time>2010-01-01T04:03:34Z</time>
      </trkpt>
      <trkpt lat="37.08465000" lon="-8.26286700">
        <ele>14.000000</ele>
        <time>2010-01-01T04:03:46Z</time>
      </trkpt>
      <trkpt lat="37.08501100" lon="-8.26345700">
        <ele>14.000000</ele>
        <time>2010-01-01T04:04:10Z</time>
      </trkpt>
      <trkpt lat="37.08521500" lon="-8.26376300">
        <ele>14.000000</ele>
        <time>2010-01-01T04:04:23Z</time>
      </trkpt>
      <trkpt lat="37.08527400" lon="-8.26408600">
        <ele>15.000000</ele>
        <time>2010-01-01T04:04:33Z</time>
      </trkpt>
      <trkpt lat="37.08529400" lon="-8.26469900">
        <ele>16.000000</ele>
        <time>2010-01-01T04:04:53Z</time>
      </trkpt>
      <trkpt lat="37.08531300" lon="-8.26490700">
        <ele>15.000000</ele>
        <time>2010-01-01T04:04:59Z</time>
      </trkpt>
      <trkpt lat="37.08537500" lon="-8.26498400">
        <ele>15.000000</ele>
        <time>2010-01-01T04:05:03Z</time>
      </trkpt>
      <trkpt lat="37.08560900" lon="-8.26502800">
        <ele>16.000000</ele>
        <time>2010-01-01T04:05:12Z</time>
      </trkpt>
      <trkpt lat="37.08564400" lon="-8.26549800">
        <ele>14.000000</ele>
        <time>2010-01-01T04:05:27Z</time>
      </trkpt>
      <trkpt lat="37.08565600" lon="-8.26636400">
        <ele>11.000000</ele>
        <time>2010-01-01T04:05:55Z</time>
      </trkpt>
      <trkpt lat="37.08573800" lon="-8.26931500">
        <ele>10.000000</ele>
        <time>2010-01-01T04:07:29Z</time>
      </trkpt>
      <trkpt lat="37.08573800" lon="-8.26963800">
        <ele>11.000000</ele>
        <time>2010-01-01T04:07:40Z</time>
      </trkpt>
      <trkpt lat="37.08573900" lon="-8.26971100">
        <ele>11.000000</ele>
        <time>2010-01-01T04:07:42Z</time>
      </trkpt>
      <trkpt lat="37.08560900" lon="-8.26971200">
        <ele>11.000000</ele>
        <time>2010-01-01T04:07:47Z</time>
      </trkpt>
      <trkpt lat="37.08532800" lon="-8.26974100">
        <ele>11.000000</ele>
        <time>2010-01-01T04:07:59Z</time>
      </trkpt>
      <trkpt lat="37.08524300" lon="-8.26974200">
        <ele>10.000000</ele>
        <time>2010-01-01T04:08:02Z</time>
      </trkpt>
      <trkpt lat="37.08523700" lon="-8.26974200">
        <ele>10.000000</ele>
        <time>2010-01-01T04:08:02Z</time>
      </trkpt>
      <trkpt lat="37.08521500" lon="-8.27007600">
        <ele>11.000000</ele>
        <time>2010-01-01T04:08:13Z</time>
      </trkpt>
      <trkpt lat="37.08519100" lon="-8.27085700">
        <ele>11.000000</ele>
        <time>2010-01-01T04:08:38Z</time>
      </trkpt>
      <trkpt lat="37.08515600" lon="-8.27177200">
        <ele>11.000000</ele>
        <time>2010-01-01T04:09:07Z</time>
      </trkpt>
      <trkpt lat="37.08508300" lon="-8.27256600">
        <ele>10.000000</ele>
        <time>2010-01-01T04:09:33Z</time>
      </trkpt>
      <trkpt lat="37.08501100" lon="-8.27331500">
        <ele>9.0000000</ele>
        <time>2010-01-01T04:09:57Z</time>
      </trkpt>
      <trkpt lat="37.08498900" lon="-8.27379200">
        <ele>9.0000000</ele>
        <time>2010-01-01T04:10:12Z</time>
      </trkpt>
      <trkpt lat="37.08502300" lon="-8.27449800">
        <ele>10.000000</ele>
        <time>2010-01-01T04:10:35Z</time>
      </trkpt>
      <trkpt lat="37.08505700" lon="-8.27545800">
        <ele>12.000000</ele>
        <time>2010-01-01T04:11:05Z</time>
      </trkpt>
      <trkpt lat="37.08511000" lon="-8.27604700">
        <ele>12.000000</ele>
        <time>2010-01-01T04:11:24Z</time>
      </trkpt>
      <trkpt lat="37.08505900" lon="-8.27604300">
        <ele>12.000000</ele>
        <time>2010-01-01T04:11:26Z</time>
      </trkpt>
      <trkpt lat="37.08445100" lon="-8.27618800">
        <ele>13.000000</ele>
        <time>2010-01-01T04:11:51Z</time>
      </trkpt>
      <trkpt lat="37.08365300" lon="-8.27639200">
        <ele>15.000000</ele>
        <time>2010-01-01T04:12:24Z</time>
      </trkpt>
      <trkpt lat="37.08342600" lon="-8.27653600">
        <ele>17.000000</ele>
        <time>2010-01-01T04:12:34Z</time>
      </trkpt>
      <trkpt lat="37.08318000" lon="-8.27694900">
        <ele>20.000000</ele>
        <time>2010-01-01T04:12:50Z</time>
      </trkpt>
      <trkpt lat="37.08292300" lon="-8.27739800">
        <ele>24.000000</ele>
        <time>2010-01-01T04:13:08Z</time>
      </trkpt>
      <trkpt lat="37.08271000" lon="-8.27765700">
        <ele>32.000000</ele>
        <time>2010-01-01T04:13:20Z</time>
      </trkpt>
      <trkpt lat="37.08250500" lon="-8.27780100">
        <ele>37.000000</ele>
        <time>2010-01-01T04:13:29Z</time>
      </trkpt>
      <trkpt lat="37.08211700" lon="-8.27795900">
        <ele>41.000000</ele>
        <time>2010-01-01T04:13:46Z</time>
      </trkpt>
      <trkpt lat="37.08171800" lon="-8.27811700">
        <ele>47.000000</ele>
        <time>2010-01-01T04:14:02Z</time>
      </trkpt>
      <trkpt lat="37.08171600" lon="-8.27811800">
        <ele>47.000000</ele>
        <time>2010-01-01T04:14:02Z</time>
      </trkpt>
      <trkpt lat="37.08126300" lon="-8.27846200">
        <ele>51.000000</ele>
        <time>2010-01-01T04:14:24Z</time>
      </trkpt>
      <trkpt lat="37.08106500" lon="-8.27872900">
        <ele>51.000000</ele>
        <time>2010-01-01T04:14:35Z</time>
      </trkpt>
      <trkpt lat="37.08097400" lon="-8.27901500">
        <ele>51.000000</ele>
        <time>2010-01-01T04:14:45Z</time>
      </trkpt>
      <trkpt lat="37.08092400" lon="-8.27934300">
        <ele>50.000000</ele>
        <time>2010-01-01T04:14:56Z</time>
      </trkpt>
      <trkpt lat="37.08093500" lon="-8.27990100">
        <ele>46.000000</ele>
        <time>2010-01-01T04:15:14Z</time>
      </trkpt>
      <trkpt lat="37.08085300" lon="-8.28048800">
        <ele>44.000000</ele>
        <time>2010-01-01T04:15:33Z</time>
      </trkpt>
      <trkpt lat="37.08066600" lon="-8.28113400">
        <ele>41.000000</ele>
        <time>2010-01-01T04:15:55Z</time>
      </trkpt>
      <trkpt lat="37.08053700" lon="-8.28180900">
        <ele>38.000000</ele>
        <time>2010-01-01T04:16:17Z</time>
      </trkpt>
      <trkpt lat="37.08049200" lon="-8.28202200">
        <ele>38.000000</ele>
        <time>2010-01-01T04:16:24Z</time>
      </trkpt>
      <trkpt lat="37.08051400" lon="-8.28227900">
        <ele>39.000000</ele>
        <time>2010-01-01T04:16:32Z</time>
      </trkpt>
      <trkpt lat="37.08060700" lon="-8.28307200">
        <ele>43.000000</ele>
        <time>2010-01-01T04:16:58Z</time>
      </trkpt>
      <trkpt lat="37.08065800" lon="-8.28336700">
        <ele>43.000000</ele>
        <time>2010-01-01T04:17:07Z</time>
      </trkpt>
      <trkpt lat="37.08082900" lon="-8.28387200">
        <ele>45.000000</ele>
        <time>2010-01-01T04:17:25Z</time>
      </trkpt>
      <trkpt lat="37.08087600" lon="-8.28416500">
        <ele>46.000000</ele>
        <time>2010-01-01T04:17:34Z</time>
      </trkpt>
      <trkpt lat="37.08086500" lon="-8.28437900">
        <ele>48.000000</ele>
        <time>2010-01-01T04:17:41Z</time>
      </trkpt>
      <trkpt lat="37.08078200" lon="-8.28461200">
        <ele>49.000000</ele>
        <time>2010-01-01T04:17:49Z</time>
      </trkpt>
      <trkpt lat="37.08061900" lon="-8.28508300">
        <ele>48.000000</ele>
        <time>2010-01-01T04:18:06Z</time>
      </trkpt>
      <trkpt lat="37.08052600" lon="-8.28540600">
        <ele>46.000000</ele>
        <time>2010-01-01T04:18:17Z</time>
      </trkpt>
      <trkpt lat="37.08050300" lon="-8.28598800">
        <ele>45.000000</ele>
        <time>2010-01-01T04:18:35Z</time>
      </trkpt>
      <trkpt lat="37.08054400" lon="-8.28660300">
        <ele>43.000000</ele>
        <time>2010-01-01T04:18:55Z</time>
      </trkpt>
      <trkpt lat="37.08054900" lon="-8.28700700">
        <ele>43.000000</ele>
        <time>2010-01-01T04:19:08Z</time>
      </trkpt>
      <trkpt lat="37.08054900" lon="-8.28728600">
        <ele>44.000000</ele>
        <time>2010-01-01T04:19:17Z</time>
      </trkpt>
      <trkpt lat="37.08062000" lon="-8.28721600">
        <ele>44.000000</ele>
        <time>2010-01-01T04:19:20Z</time>
      </trkpt>
      <trkpt lat="37.08065500" lon="-8.28703000">
        <ele>43.000000</ele>
        <time>2010-01-01T04:19:26Z</time>
      </trkpt>
      <trkpt lat="37.08075100" lon="-8.28681500">
        <ele>43.000000</ele>
        <time>2010-01-01T04:19:34Z</time>
      </trkpt>
      <trkpt lat="37.08098200" lon="-8.28658100">
        <ele>46.000000</ele>
        <time>2010-01-01T04:19:46Z</time>
      </trkpt>
      <trkpt lat="37.08131000" lon="-8.28621400">
        <ele>50.000000</ele>
        <time>2010-01-01T04:20:04Z</time>
      </trkpt>
      <trkpt lat="37.08159100" lon="-8.28593500">
        <ele>52.000000</ele>
        <time>2010-01-01T04:20:18Z</time>
      </trkpt>
      <trkpt lat="37.08180800" lon="-8.28570800">
        <ele>52.000000</ele>
        <time>2010-01-01T04:20:30Z</time>
      </trkpt>
      <trkpt lat="37.08185300" lon="-8.28585500">
        <ele>52.000000</ele>
        <time>2010-01-01T04:20:35Z</time>
      </trkpt>
      <trkpt lat="37.08184100" lon="-8.28620200">
        <ele>52.000000</ele>
        <time>2010-01-01T04:20:46Z</time>
      </trkpt>
      <trkpt lat="37.08185800" lon="-8.28641200">
        <ele>53.000000</ele>
        <time>2010-01-01T04:20:52Z</time>
      </trkpt>
      <trkpt lat="37.08191400" lon="-8.28660700">
        <ele>52.000000</ele>
        <time>2010-01-01T04:20:59Z</time>
      </trkpt>
      <trkpt lat="37.08189500" lon="-8.28679000">
        <ele>51.000000</ele>
        <time>2010-01-01T04:21:05Z</time>
      </trkpt>
      <trkpt lat="37.08194700" lon="-8.28701400">
        <ele>50.000000</ele>
        <time>2010-01-01T04:21:12Z</time>
      </trkpt>
      <trkpt lat="37.08194700" lon="-8.28735300">
        <ele>48.000000</ele>
        <time>2010-01-01T04:21:23Z</time>
      </trkpt>
      <trkpt lat="37.08195500" lon="-8.28749700">
        <ele>48.000000</ele>
        <time>2010-01-01T04:21:28Z</time>
      </trkpt>
      <trkpt lat="37.08223600" lon="-8.28759400">
        <ele>47.000000</ele>
        <time>2010-01-01T04:21:39Z</time>
      </trkpt>
      <trkpt lat="37.08268100" lon="-8.28787300">
        <ele>48.000000</ele>
        <time>2010-01-01T04:21:59Z</time>
      </trkpt>
      <trkpt lat="37.08323100" lon="-8.28837100">
        <ele>42.000000</ele>
        <time>2010-01-01T04:22:27Z</time>
      </trkpt>
      <trkpt lat="37.08318900" lon="-8.28860700">
        <ele>42.000000</ele>
        <time>2010-01-01T04:22:34Z</time>
      </trkpt>
      <trkpt lat="37.08326900" lon="-8.28875300">
        <ele>41.000000</ele>
        <time>2010-01-01T04:22:40Z</time>
      </trkpt>
      <trkpt lat="37.08337200" lon="-8.28893000">
        <ele>42.000000</ele>
        <time>2010-01-01T04:22:47Z</time>
      </trkpt>
      <trkpt lat="37.08368400" lon="-8.28936000">
        <ele>42.000000</ele>
        <time>2010-01-01T04:23:05Z</time>
      </trkpt>
      <trkpt lat="37.08381300" lon="-8.28960900">
        <ele>40.000000</ele>
        <time>2010-01-01T04:23:15Z</time>
      </trkpt>
      <trkpt lat="37.08405100" lon="-8.29022200">
        <ele>39.000000</ele>
        <time>2010-01-01T04:23:37Z</time>
      </trkpt>
      <trkpt lat="37.08415000" lon="-8.29052900">
        <ele>38.000000</ele>
        <time>2010-01-01T04:23:47Z</time>
      </trkpt>
      <trkpt lat="37.08432200" lon="-8.29071000">
        <ele>36.000000</ele>
        <time>2010-01-01T04:23:56Z</time>
      </trkpt>
      <trkpt lat="37.08446100" lon="-8.29123500">
        <ele>33.000000</ele>
        <time>2010-01-01T04:24:14Z</time>
      </trkpt>
      <trkpt lat="37.08460800" lon="-8.29125500">
        <ele>32.000000</ele>
        <time>2010-01-01T04:24:20Z</time>
      </trkpt>
      <trkpt lat="37.08492900" lon="-8.29130900">
        <ele>29.000000</ele>
        <time>2010-01-01T04:24:33Z</time>
      </trkpt>
      <trkpt lat="37.08533900" lon="-8.29138200">
        <ele>28.000000</ele>
        <time>2010-01-01T04:24:49Z</time>
      </trkpt>
      <trkpt lat="37.08565600" lon="-8.29149900">
        <ele>27.000000</ele>
        <time>2010-01-01T04:25:03Z</time>
      </trkpt>
      <trkpt lat="37.08577100" lon="-8.29151800">
        <ele>28.000000</ele>
        <time>2010-01-01T04:25:07Z</time>
      </trkpt>
      <trkpt lat="37.08598300" lon="-8.29144900">
        <ele>29.000000</ele>
        <time>2010-01-01T04:25:16Z</time>
      </trkpt>
      <trkpt lat="37.08599500" lon="-8.29162500">
        <ele>28.000000</ele>
        <time>2010-01-01T04:25:22Z</time>
      </trkpt>
      <trkpt lat="37.08599500" lon="-8.29192500">
        <ele>28.000000</ele>
        <time>2010-01-01T04:25:31Z</time>
      </trkpt>
      <trkpt lat="37.08605400" lon="-8.29230700">
        <ele>27.000000</ele>
        <time>2010-01-01T04:25:44Z</time>
      </trkpt>
      <trkpt lat="37.08613400" lon="-8.29284700">
        <ele>25.000000</ele>
        <time>2010-01-01T04:26:01Z</time>
      </trkpt>
      <trkpt lat="37.08627600" lon="-8.29387800">
        <ele>25.000000</ele>
        <time>2010-01-01T04:26:35Z</time>
      </trkpt>
      <trkpt lat="37.08632900" lon="-8.29402800">
        <ele>25.000000</ele>
        <time>2010-01-01T04:26:40Z</time>
      </trkpt>
      <trkpt lat="37.08644400" lon="-8.29433900">
        <ele>24.000000</ele>
        <time>2010-01-01T04:26:51Z</time>
      </trkpt>
      <trkpt lat="37.08649100" lon="-8.29481300">
        <ele>24.000000</ele>
        <time>2010-01-01T04:27:06Z</time>
      </trkpt>
      <trkpt lat="37.08658800" lon="-8.29520700">
        <ele>24.000000</ele>
        <time>2010-01-01T04:27:19Z</time>
      </trkpt>
      <trkpt lat="37.08646200" lon="-8.29532200">
        <ele>24.000000</ele>
        <time>2010-01-01T04:27:25Z</time>
      </trkpt>
      <trkpt lat="37.08644000" lon="-8.29547000">
        <ele>24.000000</ele>
        <time>2010-01-01T04:27:30Z</time>
      </trkpt>
      <trkpt lat="37.08638600" lon="-8.29587400">
        <ele>21.000000</ele>
        <time>2010-01-01T04:27:43Z</time>
      </trkpt>
      <trkpt lat="37.08642000" lon="-8.29605900">
        <ele>21.000000</ele>
        <time>2010-01-01T04:27:49Z</time>
      </trkpt>
      <trkpt lat="37.08672500" lon="-8.29659500">
        <ele>19.000000</ele>
        <time>2010-01-01T04:28:10Z</time>
      </trkpt>
      <trkpt lat="37.08696600" lon="-8.29710400">
        <ele>20.000000</ele>
        <time>2010-01-01T04:28:29Z</time>
      </trkpt>
      <trkpt lat="37.08723700" lon="-8.29784200">
        <ele>19.000000</ele>
        <time>2010-01-01T04:28:55Z</time>
      </trkpt>
      <trkpt lat="37.08741700" lon="-8.29857200">
        <ele>19.000000</ele>
        <time>2010-01-01T04:29:20Z</time>
      </trkpt>
      <trkpt lat="37.08746500" lon="-8.29874100">
        <ele>20.000000</ele>
        <time>2010-01-01T04:29:25Z</time>
      </trkpt>
      <trkpt lat="37.08750300" lon="-8.29918800">
        <ele>22.000000</ele>
        <time>2010-01-01T04:29:40Z</time>
      </trkpt>
      <trkpt lat="37.08754100" lon="-8.29970200">
        <ele>21.000000</ele>
        <time>2010-01-01T04:29:56Z</time>
      </trkpt>
      <trkpt lat="37.08766200" lon="-8.30019600">
        <ele>18.000000</ele>
        <time>2010-01-01T04:30:13Z</time>
      </trkpt>
      <trkpt lat="37.08809400" lon="-8.30137800">
        <ele>17.000000</ele>
        <time>2010-01-01T04:30:54Z</time>
      </trkpt>
      <trkpt lat="37.08820800" lon="-8.30188200">
        <ele>18.000000</ele>
        <time>2010-01-01T04:31:11Z</time>
      </trkpt>
      <trkpt lat="37.08830300" lon="-8.30235800">
        <ele>17.000000</ele>
        <time>2010-01-01T04:31:27Z</time>
      </trkpt>
      <trkpt lat="37.08834800" lon="-8.30243400">
        <ele>17.000000</ele>
        <time>2010-01-01T04:31:30Z</time>
      </trkpt>
      <trkpt lat="37.08840400" lon="-8.30256000">
        <ele>16.000000</ele>
        <time>2010-01-01T04:31:34Z</time>
      </trkpt>
      <trkpt lat="37.08846100" lon="-8.30310000">
        <ele>12.000000</ele>
        <time>2010-01-01T04:31:52Z</time>
      </trkpt>
      <trkpt lat="37.08851600" lon="-8.30380000">
        <ele>13.000000</ele>
        <time>2010-01-01T04:32:14Z</time>
      </trkpt>
      <trkpt lat="37.08845600" lon="-8.30429000">
        <ele>14.000000</ele>
        <time>2010-01-01T04:32:30Z</time>
      </trkpt>
      <trkpt lat="37.08843600" lon="-8.30448800">
        <ele>14.000000</ele>
        <time>2010-01-01T04:32:36Z</time>
      </trkpt>
      <trkpt lat="37.08845500" lon="-8.30471300">
        <ele>14.000000</ele>
        <time>2010-01-01T04:32:44Z</time>
      </trkpt>
      <trkpt lat="37.08854900" lon="-8.30539700">
        <ele>14.000000</ele>
        <time>2010-01-01T04:33:06Z</time>
      </trkpt>
      <trkpt lat="37.08864200" lon="-8.30574100">
        <ele>14.000000</ele>
        <time>2010-01-01T04:33:17Z</time>
      </trkpt>
      <trkpt lat="37.08881700" lon="-8.30605000">
        <ele>14.000000</ele>
        <time>2010-01-01T04:33:29Z</time>
      </trkpt>
      <trkpt lat="37.08918100" lon="-8.30643100">
        <ele>11.000000</ele>
        <time>2010-01-01T04:33:48Z</time>
      </trkpt>
      <trkpt lat="37.08939400" lon="-8.30674000">
        <ele>11.000000</ele>
        <time>2010-01-01T04:34:01Z</time>
      </trkpt>
      <trkpt lat="37.08946200" lon="-8.30690400">
        <ele>11.000000</ele>
        <time>2010-01-01T04:34:07Z</time>
      </trkpt>
      <trkpt lat="37.08945200" lon="-8.30707400">
        <ele>11.000000</ele>
        <time>2010-01-01T04:34:13Z</time>
      </trkpt>
      <trkpt lat="37.08940300" lon="-8.30767900">
        <ele>12.000000</ele>
        <time>2010-01-01T04:34:32Z</time>
      </trkpt>
      <trkpt lat="37.08940400" lon="-8.30810500">
        <ele>11.000000</ele>
        <time>2010-01-01T04:34:46Z</time>
      </trkpt>
      <trkpt lat="37.08944100" lon="-8.30830600">
        <ele>11.000000</ele>
        <time>2010-01-01T04:34:52Z</time>
      </trkpt>
      <trkpt lat="37.08961400" lon="-8.30858800">
        <ele>12.000000</ele>
        <time>2010-01-01T04:35:04Z</time>
      </trkpt>
      <trkpt lat="37.08961600" lon="-8.30859200">
        <ele>12.000000</ele>
        <time>2010-01-01T04:35:04Z</time>
      </trkpt>
      <trkpt lat="37.08993000" lon="-8.30913200">
        <ele>12.000000</ele>
        <time>2010-01-01T04:35:25Z</time>
      </trkpt>
      <trkpt lat="37.09015400" lon="-8.30943700">
        <ele>11.000000</ele>
        <time>2010-01-01T04:35:39Z</time>
      </trkpt>
      <trkpt lat="37.09038000" lon="-8.30971700">
        <ele>10.000000</ele>
        <time>2010-01-01T04:35:51Z</time>
      </trkpt>
      <trkpt lat="37.09060000" lon="-8.31017500">
        <ele>10.000000</ele>
        <time>2010-01-01T04:36:08Z</time>
      </trkpt>
      <trkpt lat="37.09072100" lon="-8.31037800">
        <ele>10.000000</ele>
        <time>2010-01-01T04:36:16Z</time>
      </trkpt>
      <trkpt lat="37.09084500" lon="-8.31080700">
        <ele>11.000000</ele>
        <time>2010-01-01T04:36:31Z</time>
      </trkpt>
      <trkpt lat="37.09098500" lon="-8.31132200">
        <ele>10.000000</ele>
        <time>2010-01-01T04:36:48Z</time>
      </trkpt>
      <trkpt lat="37.09109000" lon="-8.31148100">
        <ele>9.0000000</ele>
        <time>2010-01-01T04:36:55Z</time>
      </trkpt>
      <trkpt lat="37.09130400" lon="-8.31180000">
        <ele>8.0000000</ele>
        <time>2010-01-01T04:37:08Z</time>
      </trkpt>
      <trkpt lat="37.09150100" lon="-8.31229000">
        <ele>8.0000000</ele>
        <time>2010-01-01T04:37:26Z</time>
      </trkpt>
      <trkpt lat="37.09166000" lon="-8.31259000">
        <ele>9.0000000</ele>
        <time>2010-01-01T04:37:37Z</time>
      </trkpt>
      <trkpt lat="37.09187600" lon="-8.31282100">
        <ele>10.000000</ele>
        <time>2010-01-01T04:37:49Z</time>
      </trkpt>
      <trkpt lat="37.09205300" lon="-8.31295900">
        <ele>11.000000</ele>
        <time>2010-01-01T04:37:57Z</time>
      </trkpt>
      <trkpt lat="37.09241700" lon="-8.31330400">
        <ele>11.000000</ele>
        <time>2010-01-01T04:38:15Z</time>
      </trkpt>
      <trkpt lat="37.09281100" lon="-8.31377200">
        <ele>9.0000000</ele>
        <time>2010-01-01T04:38:37Z</time>
      </trkpt>
      <trkpt lat="37.09312400" lon="-8.31407800">
        <ele>11.000000</ele>
        <time>2010-01-01T04:38:53Z</time>
      </trkpt>
      <trkpt lat="37.09338500" lon="-8.31424200">
        <ele>12.000000</ele>
        <time>2010-01-01T04:39:05Z</time>
      </trkpt>
      <trkpt lat="37.09371300" lon="-8.31444700">
        <ele>10.000000</ele>
        <time>2010-01-01T04:39:19Z</time>
      </trkpt>
      <trkpt lat="37.09408100" lon="-8.31475200">
        <ele>9.0000000</ele>
        <time>2010-01-01T04:39:37Z</time>
      </trkpt>
      <trkpt lat="37.09446600" lon="-8.31507900">
        <ele>8.0000000</ele>
        <time>2010-01-01T04:39:55Z</time>
      </trkpt>
      <trkpt lat="37.09481400" lon="-8.31544500">
        <ele>8.0000000</ele>
        <time>2010-01-01T04:40:14Z</time>
      </trkpt>
      <trkpt lat="37.09469500" lon="-8.31581500">
        <ele>7.0000000</ele>
        <time>2010-01-01T04:40:26Z</time>
      </trkpt>
      <trkpt lat="37.09469200" lon="-8.31582200">
        <ele>7.0000000</ele>
        <time>2010-01-01T04:40:27Z</time>
      </trkpt>
      <trkpt lat="37.09448600" lon="-8.31662000">
        <ele>6.0000000</ele>
        <time>2010-01-01T04:40:53Z</time>
      </trkpt>
      <trkpt lat="37.09438000" lon="-8.31712200">
        <ele>7.0000000</ele>
        <time>2010-01-01T04:41:10Z</time>
      </trkpt>
      <trkpt lat="37.09431000" lon="-8.31750100">
        <ele>6.0000000</ele>
        <time>2010-01-01T04:41:22Z</time>
      </trkpt>
      <trkpt lat="37.09432200" lon="-8.31808800">
        <ele>7.0000000</ele>
        <time>2010-01-01T04:41:41Z</time>
      </trkpt>
      <trkpt lat="37.09419300" lon="-8.31798500">
        <ele>7.0000000</ele>
        <time>2010-01-01T04:41:47Z</time>
      </trkpt>
      <trkpt lat="37.09391200" lon="-8.31779500">
        <ele>10.000000</ele>
        <time>2010-01-01T04:42:00Z</time>
      </trkpt>
      <trkpt lat="37.09318400" lon="-8.31755400">
        <ele>14.000000</ele>
        <time>2010-01-01T04:42:30Z</time>
      </trkpt>
      <trkpt lat="37.09269600" lon="-8.31740900">
        <ele>12.000000</ele>
        <time>2010-01-01T04:42:50Z</time>
      </trkpt>
      <trkpt lat="37.09173200" lon="-8.31738000">
        <ele>7.0000000</ele>
        <time>2010-01-01T04:43:29Z</time>
      </trkpt>
      <trkpt lat="37.09102600" lon="-8.31742700">
        <ele>7.0000000</ele>
        <time>2010-01-01T04:43:57Z</time>
      </trkpt>
      <trkpt lat="37.09044000" lon="-8.31745900">
        <ele>6.0000000</ele>
        <time>2010-01-01T04:44:21Z</time>
      </trkpt>
      <trkpt lat="37.08995100" lon="-8.31745700">
        <ele>9.0000000</ele>
        <time>2010-01-01T04:44:40Z</time>
      </trkpt>
      <trkpt lat="37.08978000" lon="-8.31740300">
        <ele>10.000000</ele>
        <time>2010-01-01T04:44:47Z</time>
      </trkpt>
      <trkpt lat="37.08867700" lon="-8.31698700">
        <ele>16.000000</ele>
        <time>2010-01-01T04:45:33Z</time>
      </trkpt>
      <trkpt lat="37.08797500" lon="-8.31689900">
        <ele>19.000000</ele>
        <time>2010-01-01T04:46:02Z</time>
      </trkpt>
      <trkpt lat="37.08776300" lon="-8.31697000">
        <ele>22.000000</ele>
        <time>2010-01-01T04:46:10Z</time>
      </trkpt>
      <trkpt lat="37.08768100" lon="-8.31711500">
        <ele>23.000000</ele>
        <time>2010-01-01T04:46:16Z</time>
      </trkpt>
      <trkpt lat="37.08762700" lon="-8.31734300">
        <ele>24.000000</ele>
        <time>2010-01-01T04:46:24Z</time>
      </trkpt>
      <trkpt lat="37.08758800" lon="-8.31797100">
        <ele>21.000000</ele>
        <time>2010-01-01T04:46:44Z</time>
      </trkpt>
      <trkpt lat="37.08755400" lon="-8.31897100">
        <ele>19.000000</ele>
        <time>2010-01-01T04:47:16Z</time>
      </trkpt>
      <trkpt lat="37.08759400" lon="-8.31949500">
        <ele>20.000000</ele>
        <time>2010-01-01T04:47:33Z</time>
      </trkpt>
      <trkpt lat="37.08771700" lon="-8.31996700">
        <ele>19.000000</ele>
        <time>2010-01-01T04:47:48Z</time>
      </trkpt>
      <trkpt lat="37.08799900" lon="-8.32061900">
        <ele>15.000000</ele>
        <time>2010-01-01T04:48:12Z</time>
      </trkpt>
      <trkpt lat="37.08804900" lon="-8.32093600">
        <ele>13.000000</ele>
        <time>2010-01-01T04:48:22Z</time>
      </trkpt>
      <trkpt lat="37.08818500" lon="-8.32111300">
        <ele>12.000000</ele>
        <time>2010-01-01T04:48:30Z</time>
      </trkpt>
      <trkpt lat="37.08842300" lon="-8.32149000">
        <ele>9.0000000</ele>
        <time>2010-01-01T04:48:46Z</time>
      </trkpt>
      <trkpt lat="37.08895800" lon="-8.32209600">
        <ele>6.0000000</ele>
        <time>2010-01-01T04:49:15Z</time>
      </trkpt>
      <trkpt lat="37.08943900" lon="-8.32250700">
        <ele>5.0000000</ele>
        <time>2010-01-01T04:49:38Z</time>
      </trkpt>
      <trkpt lat="37.08996900" lon="-8.32288900">
        <ele>5.0000000</ele>
        <time>2010-01-01T04:50:02Z</time>
      </trkpt>
      <trkpt lat="37.09011300" lon="-8.32298000">
        <ele>5.0000000</ele>
        <time>2010-01-01T04:50:09Z</time>
      </trkpt>
      <trkpt lat="37.09024700" lon="-8.32308000">
        <ele>5.0000000</ele>
        <time>2010-01-01T04:50:15Z</time>
      </trkpt>
      <trkpt lat="37.09031700" lon="-8.32318300">
        <ele>5.0000000</ele>
        <time>2010-01-01T04:50:19Z</time>
      </trkpt>
      <trkpt lat="37.09063700" lon="-8.32369700">
        <ele>5.0000000</ele>
        <time>2010-01-01T04:50:40Z</time>
      </trkpt>
      <trkpt lat="37.09081200" lon="-8.32420700">
        <ele>4.0000000</ele>
        <time>2010-01-01T04:50:58Z</time>
      </trkpt>
      <trkpt lat="37.09091400" lon="-8.32473900">
        <ele>5.0000000</ele>
        <time>2010-01-01T04:51:15Z</time>
      </trkpt>
      <trkpt lat="37.09094700" lon="-8.32507900">
        <ele>5.0000000</ele>
        <time>2010-01-01T04:51:26Z</time>
      </trkpt>
      <trkpt lat="37.09092700" lon="-8.32549700">
        <ele>5.0000000</ele>
        <time>2010-01-01T04:51:40Z</time>
      </trkpt>
      <trkpt lat="37.09083700" lon="-8.32604600">
        <ele>5.0000000</ele>
        <time>2010-01-01T04:51:58Z</time>
      </trkpt>
      <trkpt lat="37.09073900" lon="-8.32635400">
        <ele>4.0000000</ele>
        <time>2010-01-01T04:52:08Z</time>
      </trkpt>
      <trkpt lat="37.09060900" lon="-8.32661100">
        <ele>4.0000000</ele>
        <time>2010-01-01T04:52:18Z</time>
      </trkpt>
      <trkpt lat="37.09049600" lon="-8.32684600">
        <ele>4.0000000</ele>
        <time>2010-01-01T04:52:27Z</time>
      </trkpt>
      <trkpt lat="37.09019800" lon="-8.32724100">
        <ele>3.0000000</ele>
        <time>2010-01-01T04:52:44Z</time>
      </trkpt>
      <trkpt lat="37.09033900" lon="-8.32746500">
        <ele>4.0000000</ele>
        <time>2010-01-01T04:52:53Z</time>
      </trkpt>
      <trkpt lat="37.09043900" lon="-8.32764400">
        <ele>5.0000000</ele>
        <time>2010-01-01T04:53:00Z</time>
      </trkpt>
      <trkpt lat="37.09033600" lon="-8.32795000">
        <ele>5.0000000</ele>
        <time>2010-01-01T04:53:11Z</time>
      </trkpt>
      <trkpt lat="37.09025300" lon="-8.32815600">
        <ele>4.0000000</ele>
        <time>2010-01-01T04:53:18Z</time>
      </trkpt>
      <trkpt lat="37.09006900" lon="-8.32833500">
        <ele>4.0000000</ele>
        <time>2010-01-01T04:53:27Z</time>
      </trkpt>
      <trkpt lat="37.08992000" lon="-8.32847600">
        <ele>4.0000000</ele>
        <time>2010-01-01T04:53:35Z</time>
      </trkpt>
      <trkpt lat="37.09024000" lon="-8.32905500">
        <ele>3.0000000</ele>
        <time>2010-01-01T04:53:57Z</time>
      </trkpt>
      <trkpt lat="37.09043600" lon="-8.32941400">
        <ele>3.0000000</ele>
        <time>2010-01-01T04:54:11Z</time>
      </trkpt>
      <trkpt lat="37.09078000" lon="-8.32921400">
        <ele>4.0000000</ele>
        <time>2010-01-01T04:54:26Z</time>
      </trkpt>
      <trkpt lat="37.09096200" lon="-8.32918100">
        <ele>4.0000000</ele>
        <time>2010-01-01T04:54:34Z</time>
      </trkpt>
      <trkpt lat="37.09110900" lon="-8.32922700">
        <ele>4.0000000</ele>
        <time>2010-01-01T04:54:40Z</time>
      </trkpt>
      <trkpt lat="37.09124400" lon="-8.32933600">
        <ele>4.0000000</ele>
        <time>2010-01-01T04:54:46Z</time>
      </trkpt>
      <trkpt lat="37.09139700" lon="-8.32944500">
        <ele>3.0000000</ele>
        <time>2010-01-01T04:54:53Z</time>
      </trkpt>
      <trkpt lat="37.09148600" lon="-8.32954200">
        <ele>3.0000000</ele>
        <time>2010-01-01T04:54:58Z</time>
      </trkpt>
      <trkpt lat="37.09165200" lon="-8.32996600">
        <ele>3.0000000</ele>
        <time>2010-01-01T04:55:13Z</time>
      </trkpt>
      <trkpt lat="37.09171100" lon="-8.33015700">
        <ele>3.0000000</ele>
        <time>2010-01-01T04:55:20Z</time>
      </trkpt>
      <trkpt lat="37.09199200" lon="-8.33034800">
        <ele>3.0000000</ele>
        <time>2010-01-01T04:55:32Z</time>
      </trkpt>
      <trkpt lat="37.09227300" lon="-8.33056800">
        <ele>3.0000000</ele>
        <time>2010-01-01T04:55:46Z</time>
      </trkpt>
      <trkpt lat="37.09235500" lon="-8.33070000">
        <ele>3.0000000</ele>
        <time>2010-01-01T04:55:51Z</time>
      </trkpt>
      <trkpt lat="37.09251000" lon="-8.33096300">
        <ele>3.0000000</ele>
        <time>2010-01-01T04:56:01Z</time>
      </trkpt>
      <trkpt lat="37.09267500" lon="-8.33126500">
        <ele>3.0000000</ele>
        <time>2010-01-01T04:56:13Z</time>
      </trkpt>
      <trkpt lat="37.09290500" lon="-8.33178600">
        <ele>4.0000000</ele>
        <time>2010-01-01T04:56:32Z</time>
      </trkpt>
      <trkpt lat="37.09322300" lon="-8.33241700">
        <ele>5.0000000</ele>
        <time>2010-01-01T04:56:56Z</time>
      </trkpt>
      <trkpt lat="37.09384800" lon="-8.33359100">
        <ele>5.0000000</ele>
        <time>2010-01-01T04:57:41Z</time>
      </trkpt>
      <trkpt lat="37.09456200" lon="-8.33456100">
        <ele>4.0000000</ele>
        <time>2010-01-01T04:58:23Z</time>
      </trkpt>
      <trkpt lat="37.09506000" lon="-8.33560400">
        <ele>6.0000000</ele>
        <time>2010-01-01T04:59:02Z</time>
      </trkpt>
      <trkpt lat="37.09537600" lon="-8.33629400">
        <ele>7.0000000</ele>
        <time>2010-01-01T04:59:27Z</time>
      </trkpt>
      <trkpt lat="37.09549500" lon="-8.33649300">
        <ele>8.0000000</ele>
        <time>2010-01-01T04:59:35Z</time>
      </trkpt>
      <trkpt lat="37.09578600" lon="-8.33651400">
        <ele>7.0000000</ele>
        <time>2010-01-01T04:59:47Z</time>
      </trkpt>
      <trkpt lat="37.09610200" lon="-8.33651400">
        <ele>6.0000000</ele>
        <time>2010-01-01T05:00:00Z</time>
      </trkpt>
      <trkpt lat="37.09669900" lon="-8.33651400">
        <ele>4.0000000</ele>
        <time>2010-01-01T05:00:24Z</time>
      </trkpt>
      <trkpt lat="37.09719100" lon="-8.33651400">
        <ele>5.0000000</ele>
        <time>2010-01-01T05:00:43Z</time>
      </trkpt>
      <trkpt lat="37.09771800" lon="-8.33655800">
        <ele>6.0000000</ele>
        <time>2010-01-01T05:01:04Z</time>
      </trkpt>
      <trkpt lat="37.09816300" lon="-8.33667500">
        <ele>6.0000000</ele>
        <time>2010-01-01T05:01:23Z</time>
      </trkpt>
      <trkpt lat="37.09908800" lon="-8.33686600">
        <ele>7.0000000</ele>
        <time>2010-01-01T05:02:00Z</time>
      </trkpt>
      <trkpt lat="37.09983800" lon="-8.33708600">
        <ele>8.0000000</ele>
        <time>2010-01-01T05:02:31Z</time>
      </trkpt>
      <trkpt lat="37.10044700" lon="-8.33720400">
        <ele>9.0000000</ele>
        <time>2010-01-01T05:02:56Z</time>
      </trkpt>
      <trkpt lat="37.10123100" lon="-8.33738000">
        <ele>10.000000</ele>
        <time>2010-01-01T05:03:28Z</time>
      </trkpt>
      <trkpt lat="37.10139500" lon="-8.33738000">
        <ele>11.000000</ele>
        <time>2010-01-01T05:03:34Z</time>
      </trkpt>
      <trkpt lat="37.10162900" lon="-8.33736500">
        <ele>11.000000</ele>
        <time>2010-01-01T05:03:43Z</time>
      </trkpt>
      <trkpt lat="37.10181700" lon="-8.33748300">
        <ele>12.000000</ele>
        <time>2010-01-01T05:03:52Z</time>
      </trkpt>
      <trkpt lat="37.10202800" lon="-8.33754200">
        <ele>11.000000</ele>
        <time>2010-01-01T05:04:01Z</time>
      </trkpt>
      <trkpt lat="37.10276500" lon="-8.33789400">
        <ele>10.000000</ele>
        <time>2010-01-01T05:04:32Z</time>
      </trkpt>
      <trkpt lat="37.10325700" lon="-8.33817300">
        <ele>12.000000</ele>
        <time>2010-01-01T05:04:54Z</time>
      </trkpt>
      <trkpt lat="37.10378400" lon="-8.33837800">
        <ele>12.000000</ele>
        <time>2010-01-01T05:05:16Z</time>
      </trkpt>
      <trkpt lat="37.10452200" lon="-8.33877500">
        <ele>12.000000</ele>
        <time>2010-01-01T05:05:48Z</time>
      </trkpt>
      <trkpt lat="37.10657100" lon="-8.33942100">
        <ele>12.000000</ele>
        <time>2010-01-01T05:07:13Z</time>
      </trkpt>
      <trkpt lat="37.10783500" lon="-8.33984700">
        <ele>7.0000000</ele>
        <time>2010-01-01T05:08:05Z</time>
      </trkpt>
      <trkpt lat="37.10840900" lon="-8.34006700">
        <ele>6.0000000</ele>
        <time>2010-01-01T05:08:29Z</time>
      </trkpt>
      <trkpt lat="37.10913500" lon="-8.34040500">
        <ele>5.0000000</ele>
        <time>2010-01-01T05:09:00Z</time>
      </trkpt>
      <trkpt lat="37.11062200" lon="-8.34102100">
        <ele>2.0000000</ele>
        <time>2010-01-01T05:10:03Z</time>
      </trkpt>
      <trkpt lat="37.11083300" lon="-8.34097700">
        <ele>2.0000000</ele>
        <time>2010-01-01T05:10:11Z</time>
      </trkpt>
      <trkpt lat="37.11110200" lon="-8.34083000">
        <ele>3.0000000</ele>
        <time>2010-01-01T05:10:23Z</time>
      </trkpt>
      <trkpt lat="37.11144100" lon="-8.34068400">
        <ele>2.0000000</ele>
        <time>2010-01-01T05:10:37Z</time>
      </trkpt>
      <trkpt lat="37.11164100" lon="-8.34063900">
        <ele>2.0000000</ele>
        <time>2010-01-01T05:10:45Z</time>
      </trkpt>
      <trkpt lat="37.11210900" lon="-8.34063900">
        <ele>3.0000000</ele>
        <time>2010-01-01T05:11:04Z</time>
      </trkpt>
      <trkpt lat="37.11247200" lon="-8.34065400">
        <ele>4.0000000</ele>
        <time>2010-01-01T05:11:19Z</time>
      </trkpt>
      <trkpt lat="37.11312700" lon="-8.34068400">
        <ele>4.0000000</ele>
        <time>2010-01-01T05:11:45Z</time>
      </trkpt>
      <trkpt lat="37.11373600" lon="-8.34084500">
        <ele>4.0000000</ele>
        <time>2010-01-01T05:12:10Z</time>
      </trkpt>
      <trkpt lat="37.11388800" lon="-8.34087400">
        <ele>4.0000000</ele>
        <time>2010-01-01T05:12:16Z</time>
      </trkpt>
      <trkpt lat="37.11413400" lon="-8.34080100">
        <ele>4.0000000</ele>
        <time>2010-01-01T05:12:26Z</time>
      </trkpt>
      <trkpt lat="37.11447400" lon="-8.34072800">
        <ele>4.0000000</ele>
        <time>2010-01-01T05:12:40Z</time>
      </trkpt>
      <trkpt lat="37.11467300" lon="-8.34050700">
        <ele>5.0000000</ele>
        <time>2010-01-01T05:12:51Z</time>
      </trkpt>
      <trkpt lat="37.11522300" lon="-8.34108000">
        <ele>7.0000000</ele>
        <time>2010-01-01T05:13:19Z</time>
      </trkpt>
      <trkpt lat="37.11522300" lon="-8.34127100">
        <ele>7.0000000</ele>
        <time>2010-01-01T05:13:25Z</time>
      </trkpt>
      <trkpt lat="37.11517600" lon="-8.34146200">
        <ele>6.0000000</ele>
        <time>2010-01-01T05:13:32Z</time>
      </trkpt>
      <trkpt lat="37.11527000" lon="-8.34163800">
        <ele>6.0000000</ele>
        <time>2010-01-01T05:13:38Z</time>
      </trkpt>
      <trkpt lat="37.11537500" lon="-8.34177000">
        <ele>5.0000000</ele>
        <time>2010-01-01T05:13:44Z</time>
      </trkpt>
      <trkpt lat="37.11570900" lon="-8.34325300">
        <ele>3.0000000</ele>
        <time>2010-01-01T05:14:34Z</time>
      </trkpt>
      <trkpt lat="37.11598400" lon="-8.34450800">
        <ele>4.0000000</ele>
        <time>2010-01-01T05:15:15Z</time>
      </trkpt>
      <trkpt lat="37.11611300" lon="-8.34517600">
        <ele>3.0000000</ele>
        <time>2010-01-01T05:15:37Z</time>
      </trkpt>
      <trkpt lat="37.11624200" lon="-8.34610100">
        <ele>4.0000000</ele>
        <time>2010-01-01T05:16:07Z</time>
      </trkpt>
      <trkpt lat="37.11617100" lon="-8.34610800">
        <ele>4.0000000</ele>
        <time>2010-01-01T05:16:10Z</time>
      </trkpt>
      <trkpt lat="37.11591400" lon="-8.34615200">
        <ele>4.0000000</ele>
        <time>2010-01-01T05:16:20Z</time>
      </trkpt>
      <trkpt lat="37.11563300" lon="-8.34621100">
        <ele>4.0000000</ele>
        <time>2010-01-01T05:16:32Z</time>
      </trkpt>
      <trkpt lat="37.11539900" lon="-8.34649000">
        <ele>4.0000000</ele>
        <time>2010-01-01T05:16:45Z</time>
      </trkpt>
      <trkpt lat="37.11523500" lon="-8.34672500">
        <ele>3.0000000</ele>
        <time>2010-01-01T05:16:55Z</time>
      </trkpt>
      <trkpt lat="37.11490700" lon="-8.34694500">
        <ele>3.0000000</ele>
        <time>2010-01-01T05:17:09Z</time>
      </trkpt>
      <trkpt lat="37.11455600" lon="-8.34707700">
        <ele>3.0000000</ele>
        <time>2010-01-01T05:17:24Z</time>
      </trkpt>
      <trkpt lat="37.11393500" lon="-8.34726800">
        <ele>4.0000000</ele>
        <time>2010-01-01T05:17:50Z</time>
      </trkpt>
      <trkpt lat="37.11244800" lon="-8.34794400">
        <ele>3.0000000</ele>
        <time>2010-01-01T05:18:53Z</time>
      </trkpt>
      <trkpt lat="37.11134800" lon="-8.34848700">
        <ele>4.0000000</ele>
        <time>2010-01-01T05:19:40Z</time>
      </trkpt>
      <trkpt lat="37.11072700" lon="-8.34888300">
        <ele>6.0000000</ele>
        <time>2010-01-01T05:20:08Z</time>
      </trkpt>
      <trkpt lat="37.11037600" lon="-8.34914800">
        <ele>7.0000000</ele>
        <time>2010-01-01T05:20:25Z</time>
      </trkpt>
      <trkpt lat="37.10903000" lon="-8.34961700">
        <ele>5.0000000</ele>
        <time>2010-01-01T05:21:21Z</time>
      </trkpt>
      <trkpt lat="37.10870200" lon="-8.34967600">
        <ele>5.0000000</ele>
        <time>2010-01-01T05:21:34Z</time>
      </trkpt>
      <trkpt lat="37.10833900" lon="-8.34998400">
        <ele>5.0000000</ele>
        <time>2010-01-01T05:21:51Z</time>
      </trkpt>
      <trkpt lat="37.10817500" lon="-8.35035100">
        <ele>5.0000000</ele>
        <time>2010-01-01T05:22:05Z</time>
      </trkpt>
      <trkpt lat="37.10788200" lon="-8.35061600">
        <ele>5.0000000</ele>
        <time>2010-01-01T05:22:19Z</time>
      </trkpt>
      <trkpt lat="37.10743700" lon="-8.35099700">
        <ele>5.0000000</ele>
        <time>2010-01-01T05:22:41Z</time>
      </trkpt>
      <trkpt lat="37.10734400" lon="-8.35120300">
        <ele>5.0000000</ele>
        <time>2010-01-01T05:22:48Z</time>
      </trkpt>
      <trkpt lat="37.10706200" lon="-8.35174600">
        <ele>7.0000000</ele>
        <time>2010-01-01T05:23:09Z</time>
      </trkpt>
      <trkpt lat="37.10629000" lon="-8.35334700">
        <ele>10.000000</ele>
        <time>2010-01-01T05:24:09Z</time>
      </trkpt>
      <trkpt lat="37.10543500" lon="-8.35377200">
        <ele>8.0000000</ele>
        <time>2010-01-01T05:24:46Z</time>
      </trkpt>
      <trkpt lat="37.10511900" lon="-8.35411000">
        <ele>10.000000</ele>
        <time>2010-01-01T05:25:02Z</time>
      </trkpt>
      <trkpt lat="37.10474400" lon="-8.35463900">
        <ele>10.000000</ele>
        <time>2010-01-01T05:25:25Z</time>
      </trkpt>
      <trkpt lat="37.10419400" lon="-8.35568100">
        <ele>9.0000000</ele>
        <time>2010-01-01T05:26:05Z</time>
      </trkpt>
      <trkpt lat="37.10136000" lon="-8.35644400">
        <ele>13.000000</ele>
        <time>2010-01-01T05:28:01Z</time>
      </trkpt>
      <trkpt lat="37.10123100" lon="-8.35638600">
        <ele>14.000000</ele>
        <time>2010-01-01T05:28:06Z</time>
      </trkpt>
      <trkpt lat="37.10103400" lon="-8.35642200">
        <ele>16.000000</ele>
        <time>2010-01-01T05:28:14Z</time>
      </trkpt>
      <trkpt lat="37.10096200" lon="-8.35654700">
        <ele>18.000000</ele>
        <time>2010-01-01T05:28:19Z</time>
      </trkpt>
      <trkpt lat="37.10099700" lon="-8.35704600">
        <ele>19.000000</ele>
        <time>2010-01-01T05:28:35Z</time>
      </trkpt>
      <trkpt lat="37.10097400" lon="-8.35757500">
        <ele>13.000000</ele>
        <time>2010-01-01T05:28:52Z</time>
      </trkpt>
      <trkpt lat="37.10085700" lon="-8.35819200">
        <ele>13.000000</ele>
        <time>2010-01-01T05:29:12Z</time>
      </trkpt>
      <trkpt lat="37.10077500" lon="-8.35852900">
        <ele>12.000000</ele>
        <time>2010-01-01T05:29:24Z</time>
      </trkpt>
      <trkpt lat="37.10095000" lon="-8.35876400">
        <ele>13.000000</ele>
        <time>2010-01-01T05:29:34Z</time>
      </trkpt>
      <trkpt lat="37.10114900" lon="-8.35892600">
        <ele>16.000000</ele>
        <time>2010-01-01T05:29:43Z</time>
      </trkpt>
      <trkpt lat="37.10110200" lon="-8.35908700">
        <ele>16.000000</ele>
        <time>2010-01-01T05:29:49Z</time>
      </trkpt>
      <trkpt lat="37.10103200" lon="-8.35933700">
        <ele>16.000000</ele>
        <time>2010-01-01T05:29:57Z</time>
      </trkpt>
      <trkpt lat="37.10106700" lon="-8.35967400">
        <ele>14.000000</ele>
        <time>2010-01-01T05:30:08Z</time>
      </trkpt>
      <trkpt lat="37.10107900" lon="-8.36011500">
        <ele>11.000000</ele>
        <time>2010-01-01T05:30:22Z</time>
      </trkpt>
      <trkpt lat="37.10117300" lon="-8.36049700">
        <ele>12.000000</ele>
        <time>2010-01-01T05:30:35Z</time>
      </trkpt>
      <trkpt lat="37.10117300" lon="-8.36074600">
        <ele>12.000000</ele>
        <time>2010-01-01T05:30:43Z</time>
      </trkpt>
      <trkpt lat="37.10116100" lon="-8.36115700">
        <ele>14.000000</ele>
        <time>2010-01-01T05:30:56Z</time>
      </trkpt>
      <trkpt lat="37.10111400" lon="-8.36167100">
        <ele>20.000000</ele>
        <time>2010-01-01T05:31:13Z</time>
      </trkpt>
      <trkpt lat="37.10106700" lon="-8.36212600">
        <ele>18.000000</ele>
        <time>2010-01-01T05:31:27Z</time>
      </trkpt>
      <trkpt lat="37.10129000" lon="-8.36268400">
        <ele>19.000000</ele>
        <time>2010-01-01T05:31:47Z</time>
      </trkpt>
      <trkpt lat="37.10170000" lon="-8.36337400">
        <ele>15.000000</ele>
        <time>2010-01-01T05:32:15Z</time>
      </trkpt>
      <trkpt lat="37.10189900" lon="-8.36422600">
        <ele>16.000000</ele>
        <time>2010-01-01T05:32:43Z</time>
      </trkpt>
      <trkpt lat="37.10227300" lon="-8.36528300">
        <ele>19.000000</ele>
        <time>2010-01-01T05:33:20Z</time>
      </trkpt>
      <trkpt lat="37.10295300" lon="-8.36789600">
        <ele>29.000000</ele>
        <time>2010-01-01T05:34:48Z</time>
      </trkpt>
      <trkpt lat="37.10315200" lon="-8.36858600">
        <ele>18.000000</ele>
        <time>2010-01-01T05:35:11Z</time>
      </trkpt>
      <trkpt lat="37.10323400" lon="-8.36902700">
        <ele>15.000000</ele>
        <time>2010-01-01T05:35:26Z</time>
      </trkpt>
      <trkpt lat="37.10336200" lon="-8.36995200">
        <ele>16.000000</ele>
        <time>2010-01-01T05:35:55Z</time>
      </trkpt>
      <trkpt lat="37.10339900" lon="-8.37009600">
        <ele>15.000000</ele>
        <time>2010-01-01T05:36:00Z</time>
      </trkpt>
      <trkpt lat="37.10355500" lon="-8.37007800">
        <ele>15.000000</ele>
        <time>2010-01-01T05:36:07Z</time>
      </trkpt>
      <trkpt lat="37.10380900" lon="-8.37006200">
        <ele>14.000000</ele>
        <time>2010-01-01T05:36:17Z</time>
      </trkpt>
      <trkpt lat="37.10372500" lon="-8.37023100">
        <ele>13.000000</ele>
        <time>2010-01-01T05:36:23Z</time>
      </trkpt>
      <trkpt lat="37.10370200" lon="-8.37029000">
        <ele>13.000000</ele>
        <time>2010-01-01T05:36:25Z</time>
      </trkpt>
      <trkpt lat="37.10359700" lon="-8.37055400">
        <ele>12.000000</ele>
        <time>2010-01-01T05:36:35Z</time>
      </trkpt>
      <trkpt lat="37.10358500" lon="-8.37120000">
        <ele>15.000000</ele>
        <time>2010-01-01T05:36:55Z</time>
      </trkpt>
      <trkpt lat="37.10367900" lon="-8.37200700">
        <ele>18.000000</ele>
        <time>2010-01-01T05:37:21Z</time>
      </trkpt>
      <trkpt lat="37.10385400" lon="-8.37327000">
        <ele>25.000000</ele>
        <time>2010-01-01T05:38:02Z</time>
      </trkpt>
      <trkpt lat="37.10394800" lon="-8.37388600">
        <ele>28.000000</ele>
        <time>2010-01-01T05:38:22Z</time>
      </trkpt>
      <trkpt lat="37.10407700" lon="-8.37444400">
        <ele>32.000000</ele>
        <time>2010-01-01T05:38:41Z</time>
      </trkpt>
      <trkpt lat="37.10425200" lon="-8.37487000">
        <ele>36.000000</ele>
        <time>2010-01-01T05:38:56Z</time>
      </trkpt>
      <trkpt lat="37.10438100" lon="-8.37514900">
        <ele>38.000000</ele>
        <time>2010-01-01T05:39:06Z</time>
      </trkpt>
      <trkpt lat="37.10462800" lon="-8.37562200">
        <ele>40.000000</ele>
        <time>2010-01-01T05:39:24Z</time>
      </trkpt>
      <trkpt lat="37.10486100" lon="-8.37617400">
        <ele>45.000000</ele>
        <time>2010-01-01T05:39:44Z</time>
      </trkpt>
      <trkpt lat="37.10504900" lon="-8.37682300">
        <ele>46.000000</ele>
        <time>2010-01-01T05:40:06Z</time>
      </trkpt>
      <trkpt lat="37.10529400" lon="-8.37779200">
        <ele>49.000000</ele>
        <time>2010-01-01T05:40:39Z</time>
      </trkpt>
      <trkpt lat="37.10555100" lon="-8.37880500">
        <ele>47.000000</ele>
        <time>2010-01-01T05:41:13Z</time>
      </trkpt>
      <trkpt lat="37.10567600" lon="-8.37945700">
        <ele>52.000000</ele>
        <time>2010-01-01T05:41:34Z</time>
      </trkpt>
      <trkpt lat="37.10577500" lon="-8.38022900">
        <ele>52.000000</ele>
        <time>2010-01-01T05:41:59Z</time>
      </trkpt>
      <trkpt lat="37.10586800" lon="-8.38105100">
        <ele>59.000000</ele>
        <time>2010-01-01T05:42:26Z</time>
      </trkpt>
      <trkpt lat="37.10595000" lon="-8.38181500">
        <ele>59.000000</ele>
        <time>2010-01-01T05:42:50Z</time>
      </trkpt>
      <trkpt lat="37.10604400" lon="-8.38279800">
        <ele>60.000000</ele>
        <time>2010-01-01T05:43:22Z</time>
      </trkpt>
      <trkpt lat="37.10578600" lon="-8.38296000">
        <ele>59.000000</ele>
        <time>2010-01-01T05:43:33Z</time>
      </trkpt>
      <trkpt lat="37.10517700" lon="-8.38337100">
        <ele>58.000000</ele>
        <time>2010-01-01T05:44:01Z</time>
      </trkpt>
      <trkpt lat="37.10468600" lon="-8.38372300">
        <ele>62.000000</ele>
        <time>2010-01-01T05:44:24Z</time>
      </trkpt>
      <trkpt lat="37.10419200" lon="-8.38406800">
        <ele>63.000000</ele>
        <time>2010-01-01T05:44:46Z</time>
      </trkpt>
      <trkpt lat="37.10410000" lon="-8.38431100">
        <ele>62.000000</ele>
        <time>2010-01-01T05:44:55Z</time>
      </trkpt>
      <trkpt lat="37.10385500" lon="-8.38584000">
        <ele>62.000000</ele>
        <time>2010-01-01T05:45:45Z</time>
      </trkpt>
      <trkpt lat="37.10374900" lon="-8.38636600">
        <ele>61.000000</ele>
        <time>2010-01-01T05:46:02Z</time>
      </trkpt>
      <trkpt lat="37.10369000" lon="-8.38668900">
        <ele>62.000000</ele>
        <time>2010-01-01T05:46:13Z</time>
      </trkpt>
      <trkpt lat="37.10351500" lon="-8.38708500">
        <ele>62.000000</ele>
        <time>2010-01-01T05:46:27Z</time>
      </trkpt>
      <trkpt lat="37.10316300" lon="-8.38737900">
        <ele>61.000000</ele>
        <time>2010-01-01T05:46:44Z</time>
      </trkpt>
      <trkpt lat="37.10229700" lon="-8.38805400">
        <ele>57.000000</ele>
        <time>2010-01-01T05:47:25Z</time>
      </trkpt>
      <trkpt lat="37.10111400" lon="-8.38889100">
        <ele>49.000000</ele>
        <time>2010-01-01T05:48:19Z</time>
      </trkpt>
      <trkpt lat="37.10100900" lon="-8.38900900">
        <ele>48.000000</ele>
        <time>2010-01-01T05:48:25Z</time>
      </trkpt>
      <trkpt lat="37.10105600" lon="-8.38924400">
        <ele>48.000000</ele>
        <time>2010-01-01T05:48:33Z</time>
      </trkpt>
      <trkpt lat="37.10118400" lon="-8.38951500">
        <ele>50.000000</ele>
        <time>2010-01-01T05:48:43Z</time>
      </trkpt>
      <trkpt lat="37.10100900" lon="-8.39015400">
        <ele>51.000000</ele>
        <time>2010-01-01T05:49:04Z</time>
      </trkpt>
      <trkpt lat="37.10049400" lon="-8.39168100">
        <ele>48.000000</ele>
        <time>2010-01-01T05:49:57Z</time>
      </trkpt>
      <trkpt lat="37.10075100" lon="-8.39182800">
        <ele>50.000000</ele>
        <time>2010-01-01T05:50:09Z</time>
      </trkpt>
      <trkpt lat="37.10181400" lon="-8.39277400">
        <ele>56.000000</ele>
        <time>2010-01-01T05:51:01Z</time>
      </trkpt>
      <trkpt lat="37.10203900" lon="-8.39328100">
        <ele>54.000000</ele>
        <time>2010-01-01T05:51:19Z</time>
      </trkpt>
      <trkpt lat="37.10224100" lon="-8.39361200">
        <ele>52.000000</ele>
        <time>2010-01-01T05:51:33Z</time>
      </trkpt>
      <trkpt lat="37.10246100" lon="-8.39388300">
        <ele>50.000000</ele>
        <time>2010-01-01T05:51:45Z</time>
      </trkpt>
      <trkpt lat="37.10253100" lon="-8.39458800">
        <ele>48.000000</ele>
        <time>2010-01-01T05:52:08Z</time>
      </trkpt>
      <trkpt lat="37.10262500" lon="-8.39467600">
        <ele>48.000000</ele>
        <time>2010-01-01T05:52:12Z</time>
      </trkpt>
      <trkpt lat="37.10279400" lon="-8.39479400">
        <ele>50.000000</ele>
        <time>2010-01-01T05:52:20Z</time>
      </trkpt>
      <trkpt lat="37.10292600" lon="-8.39508100">
        <ele>51.000000</ele>
        <time>2010-01-01T05:52:31Z</time>
      </trkpt>
      <trkpt lat="37.10317500" lon="-8.39533700">
        <ele>53.000000</ele>
        <time>2010-01-01T05:52:43Z</time>
      </trkpt>
      <trkpt lat="37.10337400" lon="-8.39558600">
        <ele>55.000000</ele>
        <time>2010-01-01T05:52:55Z</time>
      </trkpt>
      <trkpt lat="37.10357300" lon="-8.39592400">
        <ele>57.000000</ele>
        <time>2010-01-01T05:53:08Z</time>
      </trkpt>
      <trkpt lat="37.10374900" lon="-8.39646700">
        <ele>61.000000</ele>
        <time>2010-01-01T05:53:27Z</time>
      </trkpt>
      <trkpt lat="37.10433400" lon="-8.39661400">
        <ele>65.000000</ele>
        <time>2010-01-01T05:53:51Z</time>
      </trkpt>
      <trkpt lat="37.10482600" lon="-8.39665800">
        <ele>65.000000</ele>
        <time>2010-01-01T05:54:10Z</time>
      </trkpt>
      <trkpt lat="37.10563400" lon="-8.39668700">
        <ele>66.000000</ele>
        <time>2010-01-01T05:54:43Z</time>
      </trkpt>
      <trkpt lat="37.10693400" lon="-8.39721600">
        <ele>69.000000</ele>
        <time>2010-01-01T05:55:38Z</time>
      </trkpt>
      <trkpt lat="37.10706200" lon="-8.39717200">
        <ele>70.000000</ele>
        <time>2010-01-01T05:55:43Z</time>
      </trkpt>
      <trkpt lat="37.10740200" lon="-8.39712800">
        <ele>71.000000</ele>
        <time>2010-01-01T05:55:57Z</time>
      </trkpt>
      <trkpt lat="37.10784700" lon="-8.39712800">
        <ele>70.000000</ele>
        <time>2010-01-01T05:56:14Z</time>
      </trkpt>
      <trkpt lat="37.10828000" lon="-8.39715700">
        <ele>69.000000</ele>
        <time>2010-01-01T05:56:32Z</time>
      </trkpt>
      <trkpt lat="37.10911200" lon="-8.39724500">
        <ele>72.000000</ele>
        <time>2010-01-01T05:57:05Z</time>
      </trkpt>
      <trkpt lat="37.10932200" lon="-8.39727500">
        <ele>74.000000</ele>
        <time>2010-01-01T05:57:14Z</time>
      </trkpt>
      <trkpt lat="37.10952100" lon="-8.39739200">
        <ele>75.000000</ele>
        <time>2010-01-01T05:57:22Z</time>
      </trkpt>
      <trkpt lat="37.10979100" lon="-8.39743600">
        <ele>75.000000</ele>
        <time>2010-01-01T05:57:33Z</time>
      </trkpt>
      <trkpt lat="37.11006000" lon="-8.39734800">
        <ele>76.000000</ele>
        <time>2010-01-01T05:57:44Z</time>
      </trkpt>
      <trkpt lat="37.11068600" lon="-8.39761400">
        <ele>76.000000</ele>
        <time>2010-01-01T05:58:11Z</time>
      </trkpt>
      <trkpt lat="37.11166400" lon="-8.39827300">
        <ele>79.000000</ele>
        <time>2010-01-01T05:58:55Z</time>
      </trkpt>
      <trkpt lat="37.11162900" lon="-8.39852300">
        <ele>79.000000</ele>
        <time>2010-01-01T05:59:03Z</time>
      </trkpt>
      <trkpt lat="37.11186300" lon="-8.39875700">
        <ele>77.000000</ele>
        <time>2010-01-01T05:59:15Z</time>
      </trkpt>
      <trkpt lat="37.11223800" lon="-8.39905100">
        <ele>77.000000</ele>
        <time>2010-01-01T05:59:33Z</time>
      </trkpt>
      <trkpt lat="37.11271800" lon="-8.39966800">
        <ele>75.000000</ele>
        <time>2010-01-01T06:00:01Z</time>
      </trkpt>
      <trkpt lat="37.11323300" lon="-8.40035800">
        <ele>77.000000</ele>
        <time>2010-01-01T06:00:31Z</time>
      </trkpt>
      <trkpt lat="37.11357200" lon="-8.40062200">
        <ele>79.000000</ele>
        <time>2010-01-01T06:00:47Z</time>
      </trkpt>
      <trkpt lat="37.11383000" lon="-8.40090100">
        <ele>81.000000</ele>
        <time>2010-01-01T06:01:00Z</time>
      </trkpt>
      <trkpt lat="37.11425100" lon="-8.40147400">
        <ele>83.000000</ele>
        <time>2010-01-01T06:01:25Z</time>
      </trkpt>
      <trkpt lat="37.11497700" lon="-8.40214900">
        <ele>85.000000</ele>
        <time>2010-01-01T06:02:01Z</time>
      </trkpt>
      <trkpt lat="37.11541600" lon="-8.40259100">
        <ele>87.000000</ele>
        <time>2010-01-01T06:02:24Z</time>
      </trkpt>
      <trkpt lat="37.11597200" lon="-8.40297100">
        <ele>90.000000</ele>
        <time>2010-01-01T06:02:49Z</time>
      </trkpt>
      <trkpt lat="37.11655800" lon="-8.40348500">
        <ele>88.000000</ele>
        <time>2010-01-01T06:03:18Z</time>
      </trkpt>
      <trkpt lat="37.11693200" lon="-8.40391100">
        <ele>86.000000</ele>
        <time>2010-01-01T06:03:38Z</time>
      </trkpt>
      <trkpt lat="37.11717800" lon="-8.40414600">
        <ele>87.000000</ele>
        <time>2010-01-01T06:03:51Z</time>
      </trkpt>
      <trkpt lat="37.11754100" lon="-8.40452700">
        <ele>89.000000</ele>
        <time>2010-01-01T06:04:10Z</time>
      </trkpt>
      <trkpt lat="37.11818500" lon="-8.40526100">
        <ele>87.000000</ele>
        <time>2010-01-01T06:04:44Z</time>
      </trkpt>
      <trkpt lat="37.11847300" lon="-8.40569900">
        <ele>85.000000</ele>
        <time>2010-01-01T06:05:02Z</time>
      </trkpt>
      <trkpt lat="37.11852500" lon="-8.40609800">
        <ele>84.000000</ele>
        <time>2010-01-01T06:05:15Z</time>
      </trkpt>
      <trkpt lat="37.11863800" lon="-8.40654000">
        <ele>82.000000</ele>
        <time>2010-01-01T06:05:30Z</time>
      </trkpt>
      <trkpt lat="37.11901900" lon="-8.40682300">
        <ele>77.000000</ele>
        <time>2010-01-01T06:05:48Z</time>
      </trkpt>
      <trkpt lat="37.11936800" lon="-8.40706700">
        <ele>73.000000</ele>
        <time>2010-01-01T06:06:04Z</time>
      </trkpt>
      <trkpt lat="37.11959000" lon="-8.40755200">
        <ele>69.000000</ele>
        <time>2010-01-01T06:06:22Z</time>
      </trkpt>
      <trkpt lat="37.11991300" lon="-8.40838700">
        <ele>62.000000</ele>
        <time>2010-01-01T06:06:51Z</time>
      </trkpt>
      <trkpt lat="37.12030400" lon="-8.40882900">
        <ele>60.000000</ele>
        <time>2010-01-01T06:07:12Z</time>
      </trkpt>
      <trkpt lat="37.12062000" lon="-8.40956300">
        <ele>57.000000</ele>
        <time>2010-01-01T06:07:39Z</time>
      </trkpt>
      <trkpt lat="37.12084300" lon="-8.41000400">
        <ele>57.000000</ele>
        <time>2010-01-01T06:07:56Z</time>
      </trkpt>
      <trkpt lat="37.12083100" lon="-8.41028300">
        <ele>57.000000</ele>
        <time>2010-01-01T06:08:05Z</time>
      </trkpt>
      <trkpt lat="37.12072600" lon="-8.41129600">
        <ele>59.000000</ele>
        <time>2010-01-01T06:08:37Z</time>
      </trkpt>
      <trkpt lat="37.12067900" lon="-8.41211800">
        <ele>59.000000</ele>
        <time>2010-01-01T06:09:04Z</time>
      </trkpt>
      <trkpt lat="37.12073700" lon="-8.41239700">
        <ele>59.000000</ele>
        <time>2010-01-01T06:09:13Z</time>
      </trkpt>
      <trkpt lat="37.12129900" lon="-8.41385000">
        <ele>63.000000</ele>
        <time>2010-01-01T06:10:04Z</time>
      </trkpt>
      <trkpt lat="37.12170900" lon="-8.41474600">
        <ele>67.000000</ele>
        <time>2010-01-01T06:10:37Z</time>
      </trkpt>
      <trkpt lat="37.12232900" lon="-8.41567100">
        <ele>69.000000</ele>
        <time>2010-01-01T06:11:16Z</time>
      </trkpt>
      <trkpt lat="37.12275100" lon="-8.41637600">
        <ele>74.000000</ele>
        <time>2010-01-01T06:11:44Z</time>
      </trkpt>
      <trkpt lat="37.12292600" lon="-8.41680100">
        <ele>76.000000</ele>
        <time>2010-01-01T06:11:59Z</time>
      </trkpt>
      <trkpt lat="37.12299600" lon="-8.41731900">
        <ele>77.000000</ele>
        <time>2010-01-01T06:12:16Z</time>
      </trkpt>
      <trkpt lat="37.12298500" lon="-8.41831400">
        <ele>81.000000</ele>
        <time>2010-01-01T06:12:48Z</time>
      </trkpt>
      <trkpt lat="37.12346500" lon="-8.41850400">
        <ele>84.000000</ele>
        <time>2010-01-01T06:13:08Z</time>
      </trkpt>
      <trkpt lat="37.12348800" lon="-8.41871000">
        <ele>85.000000</ele>
        <time>2010-01-01T06:13:15Z</time>
      </trkpt>
      <trkpt lat="37.12374900" lon="-8.41893900">
        <ele>86.000000</ele>
        <time>2010-01-01T06:13:27Z</time>
      </trkpt>
      <trkpt lat="37.12367700" lon="-8.41915200">
        <ele>86.000000</ele>
        <time>2010-01-01T06:13:35Z</time>
      </trkpt>
      <trkpt lat="37.12346500" lon="-8.41972300">
        <ele>86.000000</ele>
        <time>2010-01-01T06:13:55Z</time>
      </trkpt>
      <trkpt lat="37.12327800" lon="-8.42031000">
        <ele>85.000000</ele>
        <time>2010-01-01T06:14:15Z</time>
      </trkpt>
      <trkpt lat="37.12296200" lon="-8.42120600">
        <ele>85.000000</ele>
        <time>2010-01-01T06:14:46Z</time>
      </trkpt>
      <trkpt lat="37.12188500" lon="-8.42361400">
        <ele>80.000000</ele>
        <time>2010-01-01T06:16:14Z</time>
      </trkpt>
      <trkpt lat="37.12190800" lon="-8.42370200">
        <ele>79.000000</ele>
        <time>2010-01-01T06:16:17Z</time>
      </trkpt>
      <trkpt lat="37.12199000" lon="-8.42380500">
        <ele>79.000000</ele>
        <time>2010-01-01T06:16:22Z</time>
      </trkpt>
      <trkpt lat="37.12202500" lon="-8.42406500">
        <ele>77.000000</ele>
        <time>2010-01-01T06:16:30Z</time>
      </trkpt>
      <trkpt lat="37.12187300" lon="-8.42449500">
        <ele>75.000000</ele>
        <time>2010-01-01T06:16:45Z</time>
      </trkpt>
      <trkpt lat="37.12160400" lon="-8.42505300">
        <ele>75.000000</ele>
        <time>2010-01-01T06:17:06Z</time>
      </trkpt>
      <trkpt lat="37.12121900" lon="-8.42618300">
        <ele>73.000000</ele>
        <time>2010-01-01T06:17:45Z</time>
      </trkpt>
      <trkpt lat="37.12109600" lon="-8.42673700">
        <ele>72.000000</ele>
        <time>2010-01-01T06:18:04Z</time>
      </trkpt>
      <trkpt lat="37.12107700" lon="-8.42721100">
        <ele>71.000000</ele>
        <time>2010-01-01T06:18:19Z</time>
      </trkpt>
      <trkpt lat="37.12115900" lon="-8.42807700">
        <ele>64.000000</ele>
        <time>2010-01-01T06:18:47Z</time>
      </trkpt>
      <trkpt lat="37.12128700" lon="-8.42882600">
        <ele>57.000000</ele>
        <time>2010-01-01T06:19:11Z</time>
      </trkpt>
      <trkpt lat="37.12078200" lon="-8.42947900">
        <ele>54.000000</ele>
        <time>2010-01-01T06:19:40Z</time>
      </trkpt>
      <trkpt lat="37.12081900" lon="-8.42963300">
        <ele>54.000000</ele>
        <time>2010-01-01T06:19:45Z</time>
      </trkpt>
      <trkpt lat="37.12079600" lon="-8.43014700">
        <ele>56.000000</ele>
        <time>2010-01-01T06:20:02Z</time>
      </trkpt>
      <trkpt lat="37.12070200" lon="-8.43063200">
        <ele>55.000000</ele>
        <time>2010-01-01T06:20:18Z</time>
      </trkpt>
      <trkpt lat="37.12086300" lon="-8.43104800">
        <ele>52.000000</ele>
        <time>2010-01-01T06:20:33Z</time>
      </trkpt>
      <trkpt lat="37.12106200" lon="-8.43130300">
        <ele>50.000000</ele>
        <time>2010-01-01T06:20:44Z</time>
      </trkpt>
      <trkpt lat="37.12140500" lon="-8.43165900">
        <ele>50.000000</ele>
        <time>2010-01-01T06:21:02Z</time>
      </trkpt>
      <trkpt lat="37.12175600" lon="-8.43204100">
        <ele>50.000000</ele>
        <time>2010-01-01T06:21:20Z</time>
      </trkpt>
      <trkpt lat="37.12210700" lon="-8.43245200">
        <ele>49.000000</ele>
        <time>2010-01-01T06:21:40Z</time>
      </trkpt>
      <trkpt lat="37.12228300" lon="-8.43274600">
        <ele>49.000000</ele>
        <time>2010-01-01T06:21:51Z</time>
      </trkpt>
      <trkpt lat="37.12228300" lon="-8.43299500">
        <ele>48.000000</ele>
        <time>2010-01-01T06:21:59Z</time>
      </trkpt>
      <trkpt lat="37.12238800" lon="-8.43328900">
        <ele>47.000000</ele>
        <time>2010-01-01T06:22:10Z</time>
      </trkpt>
      <trkpt lat="37.12284400" lon="-8.43405300">
        <ele>46.000000</ele>
        <time>2010-01-01T06:22:40Z</time>
      </trkpt>
      <trkpt lat="37.12337100" lon="-8.43468400">
        <ele>45.000000</ele>
        <time>2010-01-01T06:23:09Z</time>
      </trkpt>
      <trkpt lat="37.12412000" lon="-8.43585800">
        <ele>45.000000</ele>
        <time>2010-01-01T06:23:57Z</time>
      </trkpt>
      <trkpt lat="37.12382800" lon="-8.43632800">
        <ele>45.000000</ele>
        <time>2010-01-01T06:24:16Z</time>
      </trkpt>
      <trkpt lat="37.12519700" lon="-8.43844200">
        <ele>42.000000</ele>
        <time>2010-01-01T06:25:43Z</time>
      </trkpt>
      <trkpt lat="37.12567000" lon="-8.43919100">
        <ele>39.000000</ele>
        <time>2010-01-01T06:26:14Z</time>
      </trkpt>
      <trkpt lat="37.12592700" lon="-8.43970300">
        <ele>39.000000</ele>
        <time>2010-01-01T06:26:33Z</time>
      </trkpt>
      <trkpt lat="37.12623800" lon="-8.44043000">
        <ele>40.000000</ele>
        <time>2010-01-01T06:26:59Z</time>
      </trkpt>
      <trkpt lat="37.12647900" lon="-8.44095600">
        <ele>38.000000</ele>
        <time>2010-01-01T06:27:19Z</time>
      </trkpt>
      <trkpt lat="37.12666100" lon="-8.44154000">
        <ele>38.000000</ele>
        <time>2010-01-01T06:27:39Z</time>
      </trkpt>
      <trkpt lat="37.12683600" lon="-8.44201000">
        <ele>40.000000</ele>
        <time>2010-01-01T06:27:55Z</time>
      </trkpt>
      <trkpt lat="37.12700000" lon="-8.44239200">
        <ele>40.000000</ele>
        <time>2010-01-01T06:28:09Z</time>
      </trkpt>
      <trkpt lat="37.12731600" lon="-8.44308200">
        <ele>41.000000</ele>
        <time>2010-01-01T06:28:34Z</time>
      </trkpt>
      <trkpt lat="37.12766900" lon="-8.44377300">
        <ele>40.000000</ele>
        <time>2010-01-01T06:29:01Z</time>
      </trkpt>
      <trkpt lat="37.12797200" lon="-8.44427100">
        <ele>37.000000</ele>
        <time>2010-01-01T06:29:21Z</time>
      </trkpt>
      <trkpt lat="37.12856900" lon="-8.44519600">
        <ele>37.000000</ele>
        <time>2010-01-01T06:29:59Z</time>
      </trkpt>
      <trkpt lat="37.12933000" lon="-8.44603300">
        <ele>38.000000</ele>
        <time>2010-01-01T06:30:39Z</time>
      </trkpt>
      <trkpt lat="37.12945800" lon="-8.44612100">
        <ele>38.000000</ele>
        <time>2010-01-01T06:30:45Z</time>
      </trkpt>
      <trkpt lat="37.12960000" lon="-8.44626100">
        <ele>38.000000</ele>
        <time>2010-01-01T06:30:52Z</time>
      </trkpt>
      <trkpt lat="37.12984900" lon="-8.44647300">
        <ele>37.000000</ele>
        <time>2010-01-01T06:31:04Z</time>
      </trkpt>
      <trkpt lat="37.13047700" lon="-8.44701700">
        <ele>37.000000</ele>
        <time>2010-01-01T06:31:35Z</time>
      </trkpt>
      <trkpt lat="37.13114400" lon="-8.44745700">
        <ele>39.000000</ele>
        <time>2010-01-01T06:32:05Z</time>
      </trkpt>
      <trkpt lat="37.13117900" lon="-8.44750100">
        <ele>39.000000</ele>
        <time>2010-01-01T06:32:07Z</time>
      </trkpt>
      <trkpt lat="37.13134300" lon="-8.44767700">
        <ele>39.000000</ele>
        <time>2010-01-01T06:32:16Z</time>
      </trkpt>
      <trkpt lat="37.13160000" lon="-8.44785300">
        <ele>39.000000</ele>
        <time>2010-01-01T06:32:27Z</time>
      </trkpt>
      <trkpt lat="37.13169400" lon="-8.44801500">
        <ele>38.000000</ele>
        <time>2010-01-01T06:32:34Z</time>
      </trkpt>
      <trkpt lat="37.13191600" lon="-8.44825000">
        <ele>39.000000</ele>
        <time>2010-01-01T06:32:45Z</time>
      </trkpt>
      <trkpt lat="37.13224400" lon="-8.44829400">
        <ele>37.000000</ele>
        <time>2010-01-01T06:32:59Z</time>
      </trkpt>
      <trkpt lat="37.13234900" lon="-8.44839700">
        <ele>37.000000</ele>
        <time>2010-01-01T06:33:04Z</time>
      </trkpt>
      <trkpt lat="37.13281800" lon="-8.44883700">
        <ele>36.000000</ele>
        <time>2010-01-01T06:33:27Z</time>
      </trkpt>
      <trkpt lat="37.13346100" lon="-8.44930700">
        <ele>38.000000</ele>
        <time>2010-01-01T06:33:57Z</time>
      </trkpt>
      <trkpt lat="37.13398800" lon="-8.44954200">
        <ele>41.000000</ele>
        <time>2010-01-01T06:34:20Z</time>
      </trkpt>
      <trkpt lat="37.13466700" lon="-8.44967400">
        <ele>40.000000</ele>
        <time>2010-01-01T06:34:47Z</time>
      </trkpt>
      <trkpt lat="37.13545100" lon="-8.44989400">
        <ele>41.000000</ele>
        <time>2010-01-01T06:35:19Z</time>
      </trkpt>
      <trkpt lat="37.13604800" lon="-8.45008500">
        <ele>44.000000</ele>
        <time>2010-01-01T06:35:44Z</time>
      </trkpt>
      <trkpt lat="37.13648100" lon="-8.45024700">
        <ele>46.000000</ele>
        <time>2010-01-01T06:36:02Z</time>
      </trkpt>
      <trkpt lat="37.13664500" lon="-8.45067200">
        <ele>51.000000</ele>
        <time>2010-01-01T06:36:17Z</time>
      </trkpt>
      <trkpt lat="37.13674500" lon="-8.45095800">
        <ele>54.000000</ele>
        <time>2010-01-01T06:36:27Z</time>
      </trkpt>
      <trkpt lat="37.13694900" lon="-8.45108300">
        <ele>54.000000</ele>
        <time>2010-01-01T06:36:36Z</time>
      </trkpt>
      <trkpt lat="37.13718300" lon="-8.45121600">
        <ele>54.000000</ele>
        <time>2010-01-01T06:36:46Z</time>
      </trkpt>
      <trkpt lat="37.13758200" lon="-8.45154700">
        <ele>54.000000</ele>
        <time>2010-01-01T06:37:05Z</time>
      </trkpt>
      <trkpt lat="37.13803800" lon="-8.45175900">
        <ele>54.000000</ele>
        <time>2010-01-01T06:37:25Z</time>
      </trkpt>
      <trkpt lat="37.13836800" lon="-8.45193400">
        <ele>53.000000</ele>
        <time>2010-01-01T06:37:39Z</time>
      </trkpt>
      <trkpt lat="37.13854100" lon="-8.45217200">
        <ele>52.000000</ele>
        <time>2010-01-01T06:37:50Z</time>
      </trkpt>
      <trkpt lat="37.13820200" lon="-8.45225800">
        <ele>55.000000</ele>
        <time>2010-01-01T06:38:03Z</time>
      </trkpt>
      <trkpt lat="37.13789700" lon="-8.45230200">
        <ele>57.000000</ele>
        <time>2010-01-01T06:38:16Z</time>
      </trkpt>
      <trkpt lat="37.13756400" lon="-8.45252400">
        <ele>58.000000</ele>
        <time>2010-01-01T06:38:31Z</time>
      </trkpt>
      <trkpt lat="37.13705500" lon="-8.45333000">
        <ele>58.000000</ele>
        <time>2010-01-01T06:39:04Z</time>
      </trkpt>
      <trkpt lat="37.13674000" lon="-8.45382600">
        <ele>58.000000</ele>
        <time>2010-01-01T06:39:24Z</time>
      </trkpt>
      <trkpt lat="37.13658800" lon="-8.45398300">
        <ele>59.000000</ele>
        <time>2010-01-01T06:39:32Z</time>
      </trkpt>
      <trkpt lat="37.13650500" lon="-8.45437200">
        <ele>60.000000</ele>
        <time>2010-01-01T06:39:45Z</time>
      </trkpt>
      <trkpt lat="37.13632900" lon="-8.45481300">
        <ele>60.000000</ele>
        <time>2010-01-01T06:40:00Z</time>
      </trkpt>
      <trkpt lat="37.13615400" lon="-8.45507700">
        <ele>60.000000</ele>
        <time>2010-01-01T06:40:11Z</time>
      </trkpt>
      <trkpt lat="37.13534400" lon="-8.45565700">
        <ele>58.000000</ele>
        <time>2010-01-01T06:40:49Z</time>
      </trkpt>
      <trkpt lat="37.13553400" lon="-8.45600800">
        <ele>58.000000</ele>
        <time>2010-01-01T06:41:02Z</time>
      </trkpt>
      <trkpt lat="37.13569300" lon="-8.45646100">
        <ele>59.000000</ele>
        <time>2010-01-01T06:41:18Z</time>
      </trkpt>
      <trkpt lat="37.13566900" lon="-8.45671800">
        <ele>58.000000</ele>
        <time>2010-01-01T06:41:26Z</time>
      </trkpt>
      <trkpt lat="37.13590800" lon="-8.45902600">
        <ele>51.000000</ele>
        <time>2010-01-01T06:42:40Z</time>
      </trkpt>
      <trkpt lat="37.13689100" lon="-8.45893800">
        <ele>45.000000</ele>
        <time>2010-01-01T06:43:20Z</time>
      </trkpt>
      <trkpt lat="37.13731200" lon="-8.45907000">
        <ele>47.000000</ele>
        <time>2010-01-01T06:43:37Z</time>
      </trkpt>
      <trkpt lat="37.13717200" lon="-8.45981900">
        <ele>47.000000</ele>
        <time>2010-01-01T06:44:02Z</time>
      </trkpt>
      <trkpt lat="37.13698500" lon="-8.45974600">
        <ele>48.000000</ele>
        <time>2010-01-01T06:44:10Z</time>
      </trkpt>
      <trkpt lat="37.13691400" lon="-8.46002500">
        <ele>49.000000</ele>
        <time>2010-01-01T06:44:19Z</time>
      </trkpt>
      <trkpt lat="37.13678600" lon="-8.46058300">
        <ele>47.000000</ele>
        <time>2010-01-01T06:44:38Z</time>
      </trkpt>
      <trkpt lat="37.13677400" lon="-8.46084700">
        <ele>46.000000</ele>
        <time>2010-01-01T06:44:46Z</time>
      </trkpt>
      <trkpt lat="37.13677400" lon="-8.46115500">
        <ele>45.000000</ele>
        <time>2010-01-01T06:44:56Z</time>
      </trkpt>
      <trkpt lat="37.13691400" lon="-8.46131700">
        <ele>45.000000</ele>
        <time>2010-01-01T06:45:03Z</time>
      </trkpt>
      <trkpt lat="37.13615400" lon="-8.46190400">
        <ele>43.000000</ele>
        <time>2010-01-01T06:45:39Z</time>
      </trkpt>
      <trkpt lat="37.13615400" lon="-8.46202100">
        <ele>43.000000</ele>
        <time>2010-01-01T06:45:43Z</time>
      </trkpt>
      <trkpt lat="37.13631700" lon="-8.46227100">
        <ele>44.000000</ele>
        <time>2010-01-01T06:45:53Z</time>
      </trkpt>
      <trkpt lat="37.13643400" lon="-8.46247700">
        <ele>44.000000</ele>
        <time>2010-01-01T06:46:01Z</time>
      </trkpt>
      <trkpt lat="37.13644600" lon="-8.46294600">
        <ele>44.000000</ele>
        <time>2010-01-01T06:46:16Z</time>
      </trkpt>
      <trkpt lat="37.13631200" lon="-8.46325500">
        <ele>45.000000</ele>
        <time>2010-01-01T06:46:27Z</time>
      </trkpt>
      <trkpt lat="37.13623500" lon="-8.46354800">
        <ele>44.000000</ele>
        <time>2010-01-01T06:46:37Z</time>
      </trkpt>
      <trkpt lat="37.13621200" lon="-8.46403300">
        <ele>41.000000</ele>
        <time>2010-01-01T06:46:53Z</time>
      </trkpt>
      <trkpt lat="37.13628800" lon="-8.46711600">
        <ele>43.000000</ele>
        <time>2010-01-01T06:48:31Z</time>
      </trkpt>
      <trkpt lat="37.13632900" lon="-8.46833500">
        <ele>43.000000</ele>
        <time>2010-01-01T06:49:10Z</time>
      </trkpt>
      <trkpt lat="37.13638800" lon="-8.46912700">
        <ele>44.000000</ele>
        <time>2010-01-01T06:49:36Z</time>
      </trkpt>
      <trkpt lat="37.13655100" lon="-8.46975900">
        <ele>43.000000</ele>
        <time>2010-01-01T06:49:57Z</time>
      </trkpt>
      <trkpt lat="37.13678400" lon="-8.47028600">
        <ele>44.000000</ele>
        <time>2010-01-01T06:50:16Z</time>
      </trkpt>
      <trkpt lat="37.13660700" lon="-8.47048700">
        <ele>42.000000</ele>
        <time>2010-01-01T06:50:26Z</time>
      </trkpt>
      <trkpt lat="37.13636400" lon="-8.47080100">
        <ele>40.000000</ele>
        <time>2010-01-01T06:50:40Z</time>
      </trkpt>
      <trkpt lat="37.13574400" lon="-8.47144700">
        <ele>38.000000</ele>
        <time>2010-01-01T06:51:12Z</time>
      </trkpt>
      <trkpt lat="37.13555700" lon="-8.47175500">
        <ele>36.000000</ele>
        <time>2010-01-01T06:51:24Z</time>
      </trkpt>
      <trkpt lat="37.13526400" lon="-8.47269500">
        <ele>36.000000</ele>
        <time>2010-01-01T06:51:56Z</time>
      </trkpt>
      <trkpt lat="37.13511800" lon="-8.47320000">
        <ele>36.000000</ele>
        <time>2010-01-01T06:52:14Z</time>
      </trkpt>
      <trkpt lat="37.13504200" lon="-8.47369300">
        <ele>35.000000</ele>
        <time>2010-01-01T06:52:30Z</time>
      </trkpt>
      <trkpt lat="37.13481600" lon="-8.47468100">
        <ele>33.000000</ele>
        <time>2010-01-01T06:53:02Z</time>
      </trkpt>
      <trkpt lat="37.13455000" lon="-8.47570500">
        <ele>32.000000</ele>
        <time>2010-01-01T06:53:37Z</time>
      </trkpt>
      <trkpt lat="37.13456200" lon="-8.47596900">
        <ele>32.000000</ele>
        <time>2010-01-01T06:53:45Z</time>
      </trkpt>
      <trkpt lat="37.13451500" lon="-8.47676200">
        <ele>31.000000</ele>
        <time>2010-01-01T06:54:11Z</time>
      </trkpt>
      <trkpt lat="37.13450300" lon="-8.47734900">
        <ele>31.000000</ele>
        <time>2010-01-01T06:54:29Z</time>
      </trkpt>
      <trkpt lat="37.13448000" lon="-8.47774600">
        <ele>32.000000</ele>
        <time>2010-01-01T06:54:42Z</time>
      </trkpt>
      <trkpt lat="37.13439600" lon="-8.47823900">
        <ele>32.000000</ele>
        <time>2010-01-01T06:54:58Z</time>
      </trkpt>
      <trkpt lat="37.13418700" lon="-8.47881700">
        <ele>32.000000</ele>
        <time>2010-01-01T06:55:18Z</time>
      </trkpt>
      <trkpt lat="37.13407000" lon="-8.47922800">
        <ele>32.000000</ele>
        <time>2010-01-01T06:55:32Z</time>
      </trkpt>
      <trkpt lat="37.13389500" lon="-8.47974200">
        <ele>30.000000</ele>
        <time>2010-01-01T06:55:50Z</time>
      </trkpt>
      <trkpt lat="37.13355500" lon="-8.48097600">
        <ele>30.000000</ele>
        <time>2010-01-01T06:56:32Z</time>
      </trkpt>
      <trkpt lat="37.13354300" lon="-8.48102000">
        <ele>30.000000</ele>
        <time>2010-01-01T06:56:33Z</time>
      </trkpt>
      <trkpt lat="37.13349200" lon="-8.48116600">
        <ele>30.000000</ele>
        <time>2010-01-01T06:56:38Z</time>
      </trkpt>
      <trkpt lat="37.13342900" lon="-8.48133800">
        <ele>29.000000</ele>
        <time>2010-01-01T06:56:44Z</time>
      </trkpt>
      <trkpt lat="37.13336800" lon="-8.48159200">
        <ele>29.000000</ele>
        <time>2010-01-01T06:56:53Z</time>
      </trkpt>
      <trkpt lat="37.13329800" lon="-8.48210600">
        <ele>28.000000</ele>
        <time>2010-01-01T06:57:09Z</time>
      </trkpt>
      <trkpt lat="37.13329900" lon="-8.48265100">
        <ele>26.000000</ele>
        <time>2010-01-01T06:57:27Z</time>
      </trkpt>
      <trkpt lat="37.13331300" lon="-8.48316700">
        <ele>24.000000</ele>
        <time>2010-01-01T06:57:43Z</time>
      </trkpt>
      <trkpt lat="37.13314500" lon="-8.48356000">
        <ele>24.000000</ele>
        <time>2010-01-01T06:57:58Z</time>
      </trkpt>
      <trkpt lat="37.13290000" lon="-8.48373600">
        <ele>23.000000</ele>
        <time>2010-01-01T06:58:09Z</time>
      </trkpt>
      <trkpt lat="37.13292100" lon="-8.48378100">
        <ele>23.000000</ele>
        <time>2010-01-01T06:58:11Z</time>
      </trkpt>
      <trkpt lat="37.13263000" lon="-8.48401500">
        <ele>23.000000</ele>
        <time>2010-01-01T06:58:24Z</time>
      </trkpt>
      <trkpt lat="37.13238500" lon="-8.48466100">
        <ele>23.000000</ele>
        <time>2010-01-01T06:58:47Z</time>
      </trkpt>
      <trkpt lat="37.13218600" lon="-8.48532100">
        <ele>22.000000</ele>
        <time>2010-01-01T06:59:10Z</time>
      </trkpt>
      <trkpt lat="37.13170600" lon="-8.48601100">
        <ele>21.000000</ele>
        <time>2010-01-01T06:59:39Z</time>
      </trkpt>
      <trkpt lat="37.13154200" lon="-8.48634900">
        <ele>20.000000</ele>
        <time>2010-01-01T06:59:52Z</time>
      </trkpt>
      <trkpt lat="37.13144800" lon="-8.48662800">
        <ele>21.000000</ele>
        <time>2010-01-01T07:00:01Z</time>
      </trkpt>
      <trkpt lat="37.13131900" lon="-8.48698000">
        <ele>23.000000</ele>
        <time>2010-01-01T07:00:14Z</time>
      </trkpt>
      <trkpt lat="37.13103800" lon="-8.48778400">
        <ele>23.000000</ele>
        <time>2010-01-01T07:00:42Z</time>
      </trkpt>
      <trkpt lat="37.13088600" lon="-8.48852200">
        <ele>22.000000</ele>
        <time>2010-01-01T07:01:06Z</time>
      </trkpt>
      <trkpt lat="37.13084000" lon="-8.48899200">
        <ele>21.000000</ele>
        <time>2010-01-01T07:01:21Z</time>
      </trkpt>
      <trkpt lat="37.13041800" lon="-8.49261800">
        <ele>18.000000</ele>
        <time>2010-01-01T07:03:18Z</time>
      </trkpt>
      <trkpt lat="37.13041800" lon="-8.49314700">
        <ele>18.000000</ele>
        <time>2010-01-01T07:03:35Z</time>
      </trkpt>
      <trkpt lat="37.13039500" lon="-8.49349500">
        <ele>16.000000</ele>
        <time>2010-01-01T07:03:46Z</time>
      </trkpt>
      <trkpt lat="37.13045300" lon="-8.49411600">
        <ele>16.000000</ele>
        <time>2010-01-01T07:04:06Z</time>
      </trkpt>
      <trkpt lat="37.13045300" lon="-8.49457100">
        <ele>17.000000</ele>
        <time>2010-01-01T07:04:20Z</time>
      </trkpt>
      <trkpt lat="37.13039500" lon="-8.49508500">
        <ele>15.000000</ele>
        <time>2010-01-01T07:04:37Z</time>
      </trkpt>
      <trkpt lat="37.12973900" lon="-8.49649400">
        <ele>14.000000</ele>
        <time>2010-01-01T07:05:29Z</time>
      </trkpt>
      <trkpt lat="37.12955200" lon="-8.49705200">
        <ele>15.000000</ele>
        <time>2010-01-01T07:05:48Z</time>
      </trkpt>
      <trkpt lat="37.12912600" lon="-8.49799000">
        <ele>13.000000</ele>
        <time>2010-01-01T07:06:23Z</time>
      </trkpt>
      <trkpt lat="37.12906800" lon="-8.49857000">
        <ele>13.000000</ele>
        <time>2010-01-01T07:06:42Z</time>
      </trkpt>
      <trkpt lat="37.12900900" lon="-8.49917100">
        <ele>12.000000</ele>
        <time>2010-01-01T07:07:01Z</time>
      </trkpt>
      <trkpt lat="37.12878400" lon="-8.50023100">
        <ele>11.000000</ele>
        <time>2010-01-01T07:07:36Z</time>
      </trkpt>
      <trkpt lat="37.12844000" lon="-8.50119200">
        <ele>10.000000</ele>
        <time>2010-01-01T07:08:10Z</time>
      </trkpt>
      <trkpt lat="37.12774900" lon="-8.50352700">
        <ele>8.0000000</ele>
        <time>2010-01-01T07:09:29Z</time>
      </trkpt>
      <trkpt lat="37.12723700" lon="-8.50454500">
        <ele>10.000000</ele>
        <time>2010-01-01T07:10:07Z</time>
      </trkpt>
      <trkpt lat="37.12707800" lon="-8.50531400">
        <ele>11.000000</ele>
        <time>2010-01-01T07:10:33Z</time>
      </trkpt>
      <trkpt lat="37.12677200" lon="-8.50686900">
        <ele>9.0000000</ele>
        <time>2010-01-01T07:11:24Z</time>
      </trkpt>
      <trkpt lat="37.12648100" lon="-8.50824000">
        <ele>7.0000000</ele>
        <time>2010-01-01T07:12:09Z</time>
      </trkpt>
      <trkpt lat="37.12643300" lon="-8.50902200">
        <ele>6.0000000</ele>
        <time>2010-01-01T07:12:34Z</time>
      </trkpt>
      <trkpt lat="37.12640900" lon="-8.50923300">
        <ele>6.0000000</ele>
        <time>2010-01-01T07:12:41Z</time>
      </trkpt>
      <trkpt lat="37.12632200" lon="-8.50951200">
        <ele>5.0000000</ele>
        <time>2010-01-01T07:12:51Z</time>
      </trkpt>
      <trkpt lat="37.12594700" lon="-8.51058900">
        <ele>4.0000000</ele>
        <time>2010-01-01T07:13:28Z</time>
      </trkpt>
      <trkpt lat="37.12567600" lon="-8.51144200">
        <ele>4.0000000</ele>
        <time>2010-01-01T07:13:57Z</time>
      </trkpt>
      <trkpt lat="37.12548700" lon="-8.51234900">
        <ele>4.0000000</ele>
        <time>2010-01-01T07:14:27Z</time>
      </trkpt>
      <trkpt lat="37.12503600" lon="-8.51405400">
        <ele>6.0000000</ele>
        <time>2010-01-01T07:15:25Z</time>
      </trkpt>
      <trkpt lat="37.12530400" lon="-8.51985100">
        <ele>9.0000000</ele>
        <time>2010-01-01T07:18:30Z</time>
      </trkpt>
      <trkpt lat="37.12546000" lon="-8.51937400">
        <ele>9.0000000</ele>
        <time>2010-01-01T07:18:46Z</time>
      </trkpt>
      <trkpt lat="37.12546000" lon="-8.51923100">
        <ele>8.0000000</ele>
        <time>2010-01-01T07:18:51Z</time>
      </trkpt>
      <trkpt lat="37.12543400" lon="-8.51890700">
        <ele>8.0000000</ele>
        <time>2010-01-01T07:19:01Z</time>
      </trkpt>
      <trkpt lat="37.12539100" lon="-8.51861600">
        <ele>7.0000000</ele>
        <time>2010-01-01T07:19:11Z</time>
      </trkpt>
      <trkpt lat="37.12532300" lon="-8.51826800">
        <ele>7.0000000</ele>
        <time>2010-01-01T07:19:22Z</time>
      </trkpt>
      <trkpt lat="37.12526100" lon="-8.51802200">
        <ele>7.0000000</ele>
        <time>2010-01-01T07:19:31Z</time>
      </trkpt>
      <trkpt lat="37.12514900" lon="-8.51765700">
        <ele>6.0000000</ele>
        <time>2010-01-01T07:19:43Z</time>
      </trkpt>
      <trkpt lat="37.12509100" lon="-8.51746500">
        <ele>6.0000000</ele>
        <time>2010-01-01T07:19:50Z</time>
      </trkpt>
      <trkpt lat="37.12508100" lon="-8.51736600">
        <ele>6.0000000</ele>
        <time>2010-01-01T07:19:53Z</time>
      </trkpt>
      <trkpt lat="37.12509100" lon="-8.51687100">
        <ele>5.0000000</ele>
        <time>2010-01-01T07:20:09Z</time>
      </trkpt>
      <trkpt lat="37.12509700" lon="-8.51566600">
        <ele>6.0000000</ele>
        <time>2010-01-01T07:20:47Z</time>
      </trkpt>
      <trkpt lat="37.12509400" lon="-8.51482600">
        <ele>6.0000000</ele>
        <time>2010-01-01T07:21:14Z</time>
      </trkpt>
      <trkpt lat="37.12509200" lon="-8.51419700">
        <ele>6.0000000</ele>
        <time>2010-01-01T07:21:34Z</time>
      </trkpt>
      <trkpt lat="37.12503600" lon="-8.51405400">
        <ele>6.0000000</ele>
        <time>2010-01-01T07:21:39Z</time>
      </trkpt>
      <trkpt lat="37.12503600" lon="-8.51405900">
        <ele>6.0000000</ele>
        <time>2010-01-01T07:21:39Z</time>
      </trkpt>
      <trkpt lat="37.12530400" lon="-8.51985100">
        <ele>9.0000000</ele>
        <time>2010-01-01T07:24:44Z</time>
      </trkpt>
      <trkpt lat="37.12523900" lon="-8.52036800">
        <ele>8.0000000</ele>
        <time>2010-01-01T07:25:01Z</time>
      </trkpt>
      <trkpt lat="37.12527200" lon="-8.52067900">
        <ele>7.0000000</ele>
        <time>2010-01-01T07:25:11Z</time>
      </trkpt>
      <trkpt lat="37.12543400" lon="-8.52113400">
        <ele>10.000000</ele>
        <time>2010-01-01T07:25:27Z</time>
      </trkpt>
      <trkpt lat="37.12566700" lon="-8.52149900">
        <ele>10.000000</ele>
        <time>2010-01-01T07:25:42Z</time>
      </trkpt>
      <trkpt lat="37.12592300" lon="-8.52176200">
        <ele>8.0000000</ele>
        <time>2010-01-01T07:25:55Z</time>
      </trkpt>
      <trkpt lat="37.12626300" lon="-8.52183300">
        <ele>8.0000000</ele>
        <time>2010-01-01T07:26:09Z</time>
      </trkpt>
      <trkpt lat="37.12658200" lon="-8.52184900">
        <ele>9.0000000</ele>
        <time>2010-01-01T07:26:22Z</time>
      </trkpt>
      <trkpt lat="37.12690100" lon="-8.52181300">
        <ele>10.000000</ele>
        <time>2010-01-01T07:26:34Z</time>
      </trkpt>
      <trkpt lat="37.12708700" lon="-8.52165000">
        <ele>11.000000</ele>
        <time>2010-01-01T07:26:44Z</time>
      </trkpt>
      <trkpt lat="37.12734900" lon="-8.52139000">
        <ele>10.000000</ele>
        <time>2010-01-01T07:26:57Z</time>
      </trkpt>
      <trkpt lat="37.12759300" lon="-8.52133300">
        <ele>9.0000000</ele>
        <time>2010-01-01T07:27:07Z</time>
      </trkpt>
      <trkpt lat="37.12928300" lon="-8.52183500">
        <ele>6.0000000</ele>
        <time>2010-01-01T07:28:16Z</time>
      </trkpt>
      <trkpt lat="37.12951900" lon="-8.52191300">
        <ele>6.0000000</ele>
        <time>2010-01-01T07:28:26Z</time>
      </trkpt>
      <trkpt lat="37.12968100" lon="-8.52185000">
        <ele>6.0000000</ele>
        <time>2010-01-01T07:28:33Z</time>
      </trkpt>
      <trkpt lat="37.13098000" lon="-8.52089500">
        <ele>5.0000000</ele>
        <time>2010-01-01T07:29:33Z</time>
      </trkpt>
      <trkpt lat="37.13125200" lon="-8.52064200">
        <ele>5.0000000</ele>
        <time>2010-01-01T07:29:47Z</time>
      </trkpt>
      <trkpt lat="37.13155300" lon="-8.52050900">
        <ele>4.0000000</ele>
        <time>2010-01-01T07:30:00Z</time>
      </trkpt>
      <trkpt lat="37.13172900" lon="-8.52085100">
        <ele>5.0000000</ele>
        <time>2010-01-01T07:30:13Z</time>
      </trkpt>
      <trkpt lat="37.13191600" lon="-8.52107200">
        <ele>5.0000000</ele>
        <time>2010-01-01T07:30:23Z</time>
      </trkpt>
      <trkpt lat="37.13213900" lon="-8.52120400">
        <ele>5.0000000</ele>
        <time>2010-01-01T07:30:33Z</time>
      </trkpt>
      <trkpt lat="37.13342600" lon="-8.52140900">
        <ele>3.0000000</ele>
        <time>2010-01-01T07:31:25Z</time>
      </trkpt>
      <trkpt lat="37.13390600" lon="-8.52152700">
        <ele>6.0000000</ele>
        <time>2010-01-01T07:31:44Z</time>
      </trkpt>
      <trkpt lat="37.13452700" lon="-8.52160300">
        <ele>3.0000000</ele>
        <time>2010-01-01T07:32:09Z</time>
      </trkpt>
      <trkpt lat="37.13481000" lon="-8.52154300">
        <ele>1.0000000</ele>
        <time>2010-01-01T07:32:21Z</time>
      </trkpt>
      <trkpt lat="37.13514900" lon="-8.52131000">
        <ele>3.0000000</ele>
        <time>2010-01-01T07:32:36Z</time>
      </trkpt>
      <trkpt lat="37.13538400" lon="-8.52167400">
        <ele>4.0000000</ele>
        <time>2010-01-01T07:32:51Z</time>
      </trkpt>
      <trkpt lat="37.13572900" lon="-8.52242600">
        <ele>7.0000000</ele>
        <time>2010-01-01T07:33:19Z</time>
      </trkpt>
      <trkpt lat="37.13589300" lon="-8.52279300">
        <ele>5.0000000</ele>
        <time>2010-01-01T07:33:32Z</time>
      </trkpt>
      <trkpt lat="37.13603900" lon="-8.52333500">
        <ele>4.0000000</ele>
        <time>2010-01-01T07:33:50Z</time>
      </trkpt>
      <trkpt lat="37.13628400" lon="-8.52403700">
        <ele>8.0000000</ele>
        <time>2010-01-01T07:34:15Z</time>
      </trkpt>
      <trkpt lat="37.13697300" lon="-8.52550600">
        <ele>8.0000000</ele>
        <time>2010-01-01T07:35:09Z</time>
      </trkpt>
      <trkpt lat="37.13833100" lon="-8.52836000">
        <ele>4.0000000</ele>
        <time>2010-01-01T07:36:55Z</time>
      </trkpt>
      <trkpt lat="37.13834200" lon="-8.52838300">
        <ele>4.0000000</ele>
        <time>2010-01-01T07:36:56Z</time>
      </trkpt>
      <trkpt lat="37.13919700" lon="-8.53024400">
        <ele>1.0000000</ele>
        <time>2010-01-01T07:38:05Z</time>
      </trkpt>
      <trkpt lat="37.13928140" lon="-8.53045454">
        <ele>1.0000000</ele>
        <time>2010-01-01T00:00:00Z</time>
      </trkpt>
      <trkpt lat="37.13943630" lon="-8.53079165">
        <ele>1.0000000</ele>
        <time>2010-01-01T00:00:12Z</time>
      </trkpt>
      <trkpt lat="37.13950180" lon="-8.53093418">
        <ele>1.0000000</ele>
        <time>2010-01-01T00:00:17Z</time>
      </trkpt>
      <trkpt lat="37.13993250" lon="-8.53187134">
        <ele>2.0000000</ele>
        <time>2010-01-01T00:00:52Z</time>
      </trkpt>
      <trkpt lat="37.14003020" lon="-8.53178428">
        <ele>2.0000000</ele>
        <time>2010-01-01T00:00:56Z</time>
      </trkpt>
      <trkpt lat="37.14003190" lon="-8.53178279">
        <ele>2.0000000</ele>
        <time>2010-01-01T00:00:57Z</time>
      </trkpt>
      <trkpt lat="37.14021080" lon="-8.53162337">
        <ele>2.0000000</ele>
        <time>2010-01-01T00:01:05Z</time>
      </trkpt>
      <trkpt lat="37.14097400" lon="-8.53094354">
        <ele>2.0000000</ele>
        <time>2010-01-01T00:01:43Z</time>
      </trkpt>
      <trkpt lat="37.14152450" lon="-8.53045309">
        <ele>1.0000000</ele>
        <time>2010-01-01T00:02:10Z</time>
      </trkpt>
      <trkpt lat="37.14201660" lon="-8.53001475">
        <ele>1.0000000</ele>
        <time>2010-01-01T00:02:34Z</time>
      </trkpt>
      <trkpt lat="37.14210110" lon="-8.53009687">
        <ele>2.0000000</ele>
        <time>2010-01-01T00:02:38Z</time>
      </trkpt>
      <trkpt lat="37.14284620" lon="-8.53082071">
        <ele>3.0000000</ele>
        <time>2010-01-01T00:03:16Z</time>
      </trkpt>
      <trkpt lat="37.14368430" lon="-8.53163480">
        <ele>3.0000000</ele>
        <time>2010-01-01T00:03:58Z</time>
      </trkpt>
      <trkpt lat="37.14381050" lon="-8.53175152">
        <ele>3.0000000</ele>
        <time>2010-01-01T00:04:05Z</time>
      </trkpt>
      <trkpt lat="37.14392830" lon="-8.53186034">
        <ele>3.0000000</ele>
        <time>2010-01-01T00:04:11Z</time>
      </trkpt>
      <trkpt lat="37.14400930" lon="-8.53193521">
        <ele>3.0000000</ele>
        <time>2010-01-01T00:04:15Z</time>
      </trkpt>
      <trkpt lat="37.14404350" lon="-8.53234291">
        <ele>2.0000000</ele>
        <time>2010-01-01T00:04:28Z</time>
      </trkpt>
      <trkpt lat="37.14396650" lon="-8.53233218">
        <ele>3.0000000</ele>
        <time>2010-01-01T00:04:31Z</time>
      </trkpt>
      <trkpt lat="37.14391520" lon="-8.53267550">
        <ele>3.0000000</ele>
        <time>2010-01-01T00:04:42Z</time>
      </trkpt>
      <trkpt lat="37.14397510" lon="-8.53267550">
        <ele>2.0000000</ele>
        <time>2010-01-01T00:04:44Z</time>
      </trkpt>
      <trkpt lat="37.14397510" lon="-8.53327631">
        <ele>1.0000000</ele>
        <time>2010-01-01T00:05:04Z</time>
      </trkpt>
      <trkpt lat="37.14421570" lon="-8.53343144">
        <ele>1.0000000</ele>
        <time>2010-01-01T00:05:14Z</time>
      </trkpt>
      <trkpt lat="37.14426000" lon="-8.53346000">
        <ele>1.0000000</ele>
        <time>2010-01-01T00:05:16Z</time>
      </trkpt>
      <trkpt lat="37.14419000" lon="-8.53362000">
        <ele>1.0000000</ele>
        <time>2010-01-01T00:05:22Z</time>
      </trkpt>
      <trkpt lat="37.14424000" lon="-8.53376000">
        <ele>2.0000000</ele>
        <time>2010-01-01T00:05:27Z</time>
      </trkpt>
      <trkpt lat="37.14472000" lon="-8.53409000">
        <ele>4.0000000</ele>
        <time>2010-01-01T00:05:49Z</time>
      </trkpt>
      <trkpt lat="37.14502280" lon="-8.53433800">
        <ele>4.0000000</ele>
        <time>2010-01-01T00:06:03Z</time>
      </trkpt>
      <trkpt lat="37.14509620" lon="-8.53439819">
        <ele>4.0000000</ele>
        <time>2010-01-01T00:06:07Z</time>
      </trkpt>
      <trkpt lat="37.14537150" lon="-8.53462361">
        <ele>3.0000000</ele>
        <time>2010-01-01T00:06:20Z</time>
      </trkpt>
      <trkpt lat="37.14560180" lon="-8.53481226">
        <ele>3.0000000</ele>
        <time>2010-01-01T00:06:31Z</time>
      </trkpt>
      <trkpt lat="37.14565440" lon="-8.53485537">
        <ele>4.0000000</ele>
        <time>2010-01-01T00:06:34Z</time>
      </trkpt>
      <trkpt lat="37.14577000" lon="-8.53495000">
        <ele>4.0000000</ele>
        <time>2010-01-01T00:06:39Z</time>
      </trkpt>
      <trkpt lat="37.14588050" lon="-8.53506052">
        <ele>5.0000000</ele>
        <time>2010-01-01T00:06:45Z</time>
      </trkpt>
      <trkpt lat="37.14590720" lon="-8.53508723">
        <ele>5.0000000</ele>
        <time>2010-01-01T00:06:46Z</time>
      </trkpt>
      <trkpt lat="37.14601000" lon="-8.53519000">
        <ele>6.0000000</ele>
        <time>2010-01-01T00:06:51Z</time>
      </trkpt>
      <trkpt lat="37.14601080" lon="-8.53519650">
        <ele>6.0000000</ele>
        <time>2010-01-01T00:06:52Z</time>
      </trkpt>
      <trkpt lat="37.14603000" lon="-8.53535000">
        <ele>6.0000000</ele>
        <time>2010-01-01T00:06:57Z</time>
      </trkpt>
      <trkpt lat="37.14595000" lon="-8.53538000">
        <ele>6.0000000</ele>
        <time>2010-01-01T00:07:00Z</time>
      </trkpt>
      <trkpt lat="37.14583000" lon="-8.53554000">
        <ele>6.0000000</ele>
        <time>2010-01-01T00:07:07Z</time>
      </trkpt>
      <trkpt lat="37.14562840" lon="-8.53629838">
        <ele>7.0000000</ele>
        <time>2010-01-01T00:07:32Z</time>
      </trkpt>
      <trkpt lat="37.14545000" lon="-8.53697000">
        <ele>6.0000000</ele>
        <time>2010-01-01T00:07:55Z</time>
      </trkpt>
      <trkpt lat="37.14539000" lon="-8.53715000">
        <ele>5.0000000</ele>
        <time>2010-01-01T00:08:01Z</time>
      </trkpt>
      <trkpt lat="37.14534000" lon="-8.53746000">
        <ele>5.0000000</ele>
        <time>2010-01-01T00:08:11Z</time>
      </trkpt>
      <trkpt lat="37.14534000" lon="-8.53765000">
        <ele>5.0000000</ele>
        <time>2010-01-01T00:08:17Z</time>
      </trkpt>
      <trkpt lat="37.14539000" lon="-8.53794000">
        <ele>6.0000000</ele>
        <time>2010-01-01T00:08:27Z</time>
      </trkpt>
      <trkpt lat="37.14581000" lon="-8.53963000">
        <ele>8.0000000</ele>
        <time>2010-01-01T00:09:23Z</time>
      </trkpt>
      <trkpt lat="37.14601000" lon="-8.54073000">
        <ele>7.0000000</ele>
        <time>2010-01-01T00:09:59Z</time>
      </trkpt>
      <trkpt lat="37.14599000" lon="-8.54073000">
        <ele>7.0000000</ele>
        <time>2010-01-01T00:10:00Z</time>
      </trkpt>
      <trkpt lat="37.14542550" lon="-8.54065214">
        <ele>7.0000000</ele>
        <time>2010-01-01T00:10:23Z</time>
      </trkpt>
      <trkpt lat="37.14541000" lon="-8.54065000">
        <ele>8.0000000</ele>
        <time>2010-01-01T00:10:24Z</time>
      </trkpt>
      <trkpt lat="37.14496780" lon="-8.54060219">
        <ele>13.000000</ele>
        <time>2010-01-01T00:10:41Z</time>
      </trkpt>
      <trkpt lat="37.14491460" lon="-8.54059645">
        <ele>14.000000</ele>
        <time>2010-01-01T00:10:43Z</time>
      </trkpt>
      <trkpt lat="37.14471250" lon="-8.54057459">
        <ele>16.000000</ele>
        <time>2010-01-01T00:10:52Z</time>
      </trkpt>
      <trkpt lat="37.14457650" lon="-8.54055989">
        <ele>15.000000</ele>
        <time>2010-01-01T00:10:57Z</time>
      </trkpt>
      <trkpt lat="37.14434740" lon="-8.54053513">
        <ele>14.000000</ele>
        <time>2010-01-01T00:11:06Z</time>
      </trkpt>
      <trkpt lat="37.14430000" lon="-8.54053000">
        <ele>14.000000</ele>
        <time>2010-01-01T00:11:08Z</time>
      </trkpt>
      <trkpt lat="37.14423310" lon="-8.54051327">
        <ele>13.000000</ele>
        <time>2010-01-01T00:11:11Z</time>
      </trkpt>
      <trkpt lat="37.14414000" lon="-8.54049000">
        <ele>13.000000</ele>
        <time>2010-01-01T00:11:15Z</time>
      </trkpt>
      <trkpt lat="37.14403950" lon="-8.54040211">
        <ele>12.000000</ele>
        <time>2010-01-01T00:11:20Z</time>
      </trkpt>
      <trkpt lat="37.14401450" lon="-8.54038020">
        <ele>11.000000</ele>
        <time>2010-01-01T00:11:21Z</time>
      </trkpt>
      <trkpt lat="37.14401400" lon="-8.54037979">
        <ele>11.000000</ele>
        <time>2010-01-01T00:11:21Z</time>
      </trkpt>
      <trkpt lat="37.14401450" lon="-8.54038020">
        <ele>11.000000</ele>
        <time>2010-01-01T00:11:21Z</time>
      </trkpt>
      <trkpt lat="37.14397240" lon="-8.54042155">
        <ele>12.000000</ele>
        <time>2010-01-01T00:11:23Z</time>
      </trkpt>
      <trkpt lat="37.14373000" lon="-8.54069000">
        <ele>14.000000</ele>
        <time>2010-01-01T00:11:36Z</time>
      </trkpt>
      <trkpt lat="37.14353000" lon="-8.54099000">
        <ele>13.000000</ele>
        <time>2010-01-01T00:11:48Z</time>
      </trkpt>
      <trkpt lat="37.14341230" lon="-8.54132242">
        <ele>12.000000</ele>
        <time>2010-01-01T00:12:00Z</time>
      </trkpt>
      <trkpt lat="37.14313000" lon="-8.54212000">
        <ele>11.000000</ele>
        <time>2010-01-01T00:12:28Z</time>
      </trkpt>
      <trkpt lat="37.14310000" lon="-8.54227000">
        <ele>11.000000</ele>
        <time>2010-01-01T00:12:33Z</time>
      </trkpt>
      <trkpt lat="37.14311000" lon="-8.54246000">
        <ele>11.000000</ele>
        <time>2010-01-01T00:12:39Z</time>
      </trkpt>
      <trkpt lat="37.14318000" lon="-8.54261000">
        <ele>10.000000</ele>
        <time>2010-01-01T00:12:44Z</time>
      </trkpt>
      <trkpt lat="37.14326520" lon="-8.54276597">
        <ele>9.0000000</ele>
        <time>2010-01-01T00:12:50Z</time>
      </trkpt>
      <trkpt lat="37.14347100" lon="-8.54314689">
        <ele>6.0000000</ele>
        <time>2010-01-01T00:13:05Z</time>
      </trkpt>
      <trkpt lat="37.14370120" lon="-8.54357270">
        <ele>5.0000000</ele>
        <time>2010-01-01T00:13:22Z</time>
      </trkpt>
      <trkpt lat="37.14376820" lon="-8.54369672">
        <ele>6.0000000</ele>
        <time>2010-01-01T00:13:26Z</time>
      </trkpt>
      <trkpt lat="37.14372000" lon="-8.54378000">
        <ele>6.0000000</ele>
        <time>2010-01-01T00:13:30Z</time>
      </trkpt>
      <trkpt lat="37.14372000" lon="-8.54383000">
        <ele>6.0000000</ele>
        <time>2010-01-01T00:13:31Z</time>
      </trkpt>
      <trkpt lat="37.14381000" lon="-8.54394000">
        <ele>6.0000000</ele>
        <time>2010-01-01T00:13:36Z</time>
      </trkpt>
      <trkpt lat="37.14379000" lon="-8.54399000">
        <ele>6.0000000</ele>
        <time>2010-01-01T00:13:38Z</time>
      </trkpt>
      <trkpt lat="37.14396000" lon="-8.54432000">
        <ele>6.0000000</ele>
        <time>2010-01-01T00:13:51Z</time>
      </trkpt>
      <trkpt lat="37.14409000" lon="-8.54442000">
        <ele>6.0000000</ele>
        <time>2010-01-01T00:13:57Z</time>
      </trkpt>
      <trkpt lat="37.14430000" lon="-8.54425000">
        <ele>5.0000000</ele>
        <time>2010-01-01T00:14:07Z</time>
      </trkpt>
      <trkpt lat="37.14447000" lon="-8.54424000">
        <ele>5.0000000</ele>
        <time>2010-01-01T00:14:13Z</time>
      </trkpt>
      <trkpt lat="37.14449000" lon="-8.54432000">
        <ele>6.0000000</ele>
        <time>2010-01-01T00:14:16Z</time>
      </trkpt>
      <trkpt lat="37.14456000" lon="-8.54435000">
        <ele>6.0000000</ele>
        <time>2010-01-01T00:14:19Z</time>
      </trkpt>
      <trkpt lat="37.14462440" lon="-8.54525797">
        <ele>12.000000</ele>
        <time>2010-01-01T00:14:48Z</time>
      </trkpt>
      <trkpt lat="37.14463830" lon="-8.54545391">
        <ele>12.000000</ele>
        <time>2010-01-01T00:14:54Z</time>
      </trkpt>
      <trkpt lat="37.14466860" lon="-8.54588062">
        <ele>14.000000</ele>
        <time>2010-01-01T00:15:08Z</time>
      </trkpt>
      <trkpt lat="37.14468000" lon="-8.54604000">
        <ele>15.000000</ele>
        <time>2010-01-01T00:15:13Z</time>
      </trkpt>
      <trkpt lat="37.14474380" lon="-8.54628268">
        <ele>17.000000</ele>
        <time>2010-01-01T00:15:21Z</time>
      </trkpt>
      <trkpt lat="37.14476960" lon="-8.54638054">
        <ele>17.000000</ele>
        <time>2010-01-01T00:15:25Z</time>
      </trkpt>
      <trkpt lat="37.14483000" lon="-8.54661000">
        <ele>19.000000</ele>
        <time>2010-01-01T00:15:32Z</time>
      </trkpt>
      <trkpt lat="37.14486000" lon="-8.54665000">
        <ele>19.000000</ele>
        <time>2010-01-01T00:15:34Z</time>
      </trkpt>
      <trkpt lat="37.14495000" lon="-8.54668000">
        <ele>20.000000</ele>
        <time>2010-01-01T00:15:38Z</time>
      </trkpt>
      <trkpt lat="37.14502700" lon="-8.54668736">
        <ele>19.000000</ele>
        <time>2010-01-01T00:15:41Z</time>
      </trkpt>
      <trkpt lat="37.14503000" lon="-8.54680000">
        <ele>20.000000</ele>
        <time>2010-01-01T00:15:45Z</time>
      </trkpt>
      <trkpt lat="37.14505990" lon="-8.54725389">
        <ele>21.000000</ele>
        <time>2010-01-01T00:15:59Z</time>
      </trkpt>
      <trkpt lat="37.14506270" lon="-8.54729641">
        <ele>22.000000</ele>
        <time>2010-01-01T00:16:00Z</time>
      </trkpt>
      <trkpt lat="37.14507760" lon="-8.54752275">
        <ele>23.000000</ele>
        <time>2010-01-01T00:16:08Z</time>
      </trkpt>
      <trkpt lat="37.14508410" lon="-8.54762092">
        <ele>24.000000</ele>
        <time>2010-01-01T00:16:11Z</time>
      </trkpt>
      <trkpt lat="37.14508420" lon="-8.54762230">
        <ele>24.000000</ele>
        <time>2010-01-01T00:16:11Z</time>
      </trkpt>
      <trkpt lat="37.14508000" lon="-8.54775000">
        <ele>24.000000</ele>
        <time>2010-01-01T00:16:15Z</time>
      </trkpt>
      <trkpt lat="37.14501000" lon="-8.54785000">
        <ele>25.000000</ele>
        <time>2010-01-01T00:16:19Z</time>
      </trkpt>
      <trkpt lat="37.14446000" lon="-8.54812000">
        <ele>28.000000</ele>
        <time>2010-01-01T00:16:43Z</time>
      </trkpt>
      <trkpt lat="37.14434000" lon="-8.54820000">
        <ele>27.000000</ele>
        <time>2010-01-01T00:16:48Z</time>
      </trkpt>
      <trkpt lat="37.14424000" lon="-8.54832000">
        <ele>26.000000</ele>
        <time>2010-01-01T00:16:54Z</time>
      </trkpt>
      <trkpt lat="37.14402000" lon="-8.54880000">
        <ele>20.000000</ele>
        <time>2010-01-01T00:17:11Z</time>
      </trkpt>
      <trkpt lat="37.14396000" lon="-8.54888000">
        <ele>20.000000</ele>
        <time>2010-01-01T00:17:15Z</time>
      </trkpt>
      <trkpt lat="37.14383820" lon="-8.54905843">
        <ele>20.000000</ele>
        <time>2010-01-01T00:17:22Z</time>
      </trkpt>
      <trkpt lat="37.14378690" lon="-8.54934275">
        <ele>21.000000</ele>
        <time>2010-01-01T00:17:32Z</time>
      </trkpt>
      <trkpt lat="37.14384000" lon="-8.55033000">
        <ele>17.000000</ele>
        <time>2010-01-01T00:18:03Z</time>
      </trkpt>
      <trkpt lat="37.14390000" lon="-8.55081000">
        <ele>17.000000</ele>
        <time>2010-01-01T00:18:19Z</time>
      </trkpt>
      <trkpt lat="37.14406000" lon="-8.55134000">
        <ele>19.000000</ele>
        <time>2010-01-01T00:18:37Z</time>
      </trkpt>
      <trkpt lat="37.14425000" lon="-8.55206000">
        <ele>19.000000</ele>
        <time>2010-01-01T00:19:01Z</time>
      </trkpt>
      <trkpt lat="37.14440000" lon="-8.55232000">
        <ele>19.000000</ele>
        <time>2010-01-01T00:19:11Z</time>
      </trkpt>
      <trkpt lat="37.14459000" lon="-8.55257000">
        <ele>20.000000</ele>
        <time>2010-01-01T00:19:22Z</time>
      </trkpt>
      <trkpt lat="37.14483000" lon="-8.55283000">
        <ele>20.000000</ele>
        <time>2010-01-01T00:19:35Z</time>
      </trkpt>
      <trkpt lat="37.14488000" lon="-8.55295000">
        <ele>19.000000</ele>
        <time>2010-01-01T00:19:39Z</time>
      </trkpt>
      <trkpt lat="37.14491000" lon="-8.55308000">
        <ele>19.000000</ele>
        <time>2010-01-01T00:19:44Z</time>
      </trkpt>
      <trkpt lat="37.14493000" lon="-8.55324000">
        <ele>19.000000</ele>
        <time>2010-01-01T00:19:49Z</time>
      </trkpt>
      <trkpt lat="37.14497000" lon="-8.55469000">
        <ele>27.000000</ele>
        <time>2010-01-01T00:20:35Z</time>
      </trkpt>
      <trkpt lat="37.14502000" lon="-8.55561000">
        <ele>32.000000</ele>
        <time>2010-01-01T00:21:05Z</time>
      </trkpt>
      <trkpt lat="37.14511000" lon="-8.55614000">
        <ele>32.000000</ele>
        <time>2010-01-01T00:21:22Z</time>
      </trkpt>
      <trkpt lat="37.14535000" lon="-8.55639000">
        <ele>33.000000</ele>
        <time>2010-01-01T00:21:34Z</time>
      </trkpt>
      <trkpt lat="37.14581000" lon="-8.55679000">
        <ele>34.000000</ele>
        <time>2010-01-01T00:21:57Z</time>
      </trkpt>
      <trkpt lat="37.14591000" lon="-8.55701000">
        <ele>35.000000</ele>
        <time>2010-01-01T00:22:05Z</time>
      </trkpt>
      <trkpt lat="37.14627000" lon="-8.55765000">
        <ele>37.000000</ele>
        <time>2010-01-01T00:22:30Z</time>
      </trkpt>
      <trkpt lat="37.14646000" lon="-8.55776000">
        <ele>38.000000</ele>
        <time>2010-01-01T00:22:38Z</time>
      </trkpt>
      <trkpt lat="37.14676000" lon="-8.55783000">
        <ele>39.000000</ele>
        <time>2010-01-01T00:22:50Z</time>
      </trkpt>
      <trkpt lat="37.14708000" lon="-8.55788000">
        <ele>41.000000</ele>
        <time>2010-01-01T00:23:03Z</time>
      </trkpt>
      <trkpt lat="37.14731000" lon="-8.55792000">
        <ele>41.000000</ele>
        <time>2010-01-01T00:23:13Z</time>
      </trkpt>
      <trkpt lat="37.14752000" lon="-8.55809000">
        <ele>40.000000</ele>
        <time>2010-01-01T00:23:23Z</time>
      </trkpt>
      <trkpt lat="37.14758400" lon="-8.55816849">
        <ele>40.000000</ele>
        <time>2010-01-01T00:23:26Z</time>
      </trkpt>
      <trkpt lat="37.14792000" lon="-8.55858000">
        <ele>42.000000</ele>
        <time>2010-01-01T00:23:45Z</time>
      </trkpt>
      <trkpt lat="37.14826000" lon="-8.55911000">
        <ele>45.000000</ele>
        <time>2010-01-01T00:24:07Z</time>
      </trkpt>
      <trkpt lat="37.14859000" lon="-8.55940000">
        <ele>44.000000</ele>
        <time>2010-01-01T00:24:23Z</time>
      </trkpt>
      <trkpt lat="37.14868000" lon="-8.55955000">
        <ele>44.000000</ele>
        <time>2010-01-01T00:24:29Z</time>
      </trkpt>
      <trkpt lat="37.14892000" lon="-8.56093000">
        <ele>46.000000</ele>
        <time>2010-01-01T00:25:14Z</time>
      </trkpt>
      <trkpt lat="37.14867000" lon="-8.56132000">
        <ele>47.000000</ele>
        <time>2010-01-01T00:25:30Z</time>
      </trkpt>
      <trkpt lat="37.14841000" lon="-8.56161000">
        <ele>47.000000</ele>
        <time>2010-01-01T00:25:44Z</time>
      </trkpt>
      <trkpt lat="37.14823000" lon="-8.56177000">
        <ele>46.000000</ele>
        <time>2010-01-01T00:25:53Z</time>
      </trkpt>
      <trkpt lat="37.14824000" lon="-8.56177000">
        <ele>46.000000</ele>
        <time>2010-01-01T00:25:53Z</time>
      </trkpt>
      <trkpt lat="37.14817000" lon="-8.56183000">
        <ele>46.000000</ele>
        <time>2010-01-01T00:25:56Z</time>
      </trkpt>
      <trkpt lat="37.14831000" lon="-8.56189000">
        <ele>46.000000</ele>
        <time>2010-01-01T00:26:02Z</time>
      </trkpt>
      <trkpt lat="37.14858000" lon="-8.56183000">
        <ele>45.000000</ele>
        <time>2010-01-01T00:26:13Z</time>
      </trkpt>
      <trkpt lat="37.14917000" lon="-8.56142000">
        <ele>45.000000</ele>
        <time>2010-01-01T00:26:40Z</time>
      </trkpt>
      <trkpt lat="37.14944000" lon="-8.56131000">
        <ele>47.000000</ele>
        <time>2010-01-01T00:26:52Z</time>
      </trkpt>
      <trkpt lat="37.14971000" lon="-8.56126000">
        <ele>48.000000</ele>
        <time>2010-01-01T00:27:03Z</time>
      </trkpt>
      <trkpt lat="37.14987000" lon="-8.56130000">
        <ele>49.000000</ele>
        <time>2010-01-01T00:27:09Z</time>
      </trkpt>
      <trkpt lat="37.15001000" lon="-8.56136000">
        <ele>49.000000</ele>
        <time>2010-01-01T00:27:15Z</time>
      </trkpt>
      <trkpt lat="37.15026000" lon="-8.56163000">
        <ele>46.000000</ele>
        <time>2010-01-01T00:27:28Z</time>
      </trkpt>
      <trkpt lat="37.15049000" lon="-8.56180000">
        <ele>45.000000</ele>
        <time>2010-01-01T00:27:39Z</time>
      </trkpt>
      <trkpt lat="37.15092000" lon="-8.56190000">
        <ele>42.000000</ele>
        <time>2010-01-01T00:27:57Z</time>
      </trkpt>
      <trkpt lat="37.15153000" lon="-8.56181000">
        <ele>38.000000</ele>
        <time>2010-01-01T00:28:21Z</time>
      </trkpt>
      <trkpt lat="37.15173000" lon="-8.56184000">
        <ele>38.000000</ele>
        <time>2010-01-01T00:28:29Z</time>
      </trkpt>
      <trkpt lat="37.15186000" lon="-8.56191000">
        <ele>38.000000</ele>
        <time>2010-01-01T00:28:35Z</time>
      </trkpt>
      <trkpt lat="37.15269000" lon="-8.56269000">
        <ele>43.000000</ele>
        <time>2010-01-01T00:29:16Z</time>
      </trkpt>
      <trkpt lat="37.15274000" lon="-8.56280000">
        <ele>42.000000</ele>
        <time>2010-01-01T00:29:20Z</time>
      </trkpt>
      <trkpt lat="37.15279000" lon="-8.56293000">
        <ele>43.000000</ele>
        <time>2010-01-01T00:29:25Z</time>
      </trkpt>
      <trkpt lat="37.15288000" lon="-8.56327000">
        <ele>43.000000</ele>
        <time>2010-01-01T00:29:36Z</time>
      </trkpt>
      <trkpt lat="37.15300000" lon="-8.56389000">
        <ele>45.000000</ele>
        <time>2010-01-01T00:29:57Z</time>
      </trkpt>
      <trkpt lat="37.15327000" lon="-8.56479000">
        <ele>47.000000</ele>
        <time>2010-01-01T00:30:27Z</time>
      </trkpt>
      <trkpt lat="37.15339000" lon="-8.56538000">
        <ele>46.000000</ele>
        <time>2010-01-01T00:30:47Z</time>
      </trkpt>
      <trkpt lat="37.15366000" lon="-8.56589000">
        <ele>47.000000</ele>
        <time>2010-01-01T00:31:06Z</time>
      </trkpt>
      <trkpt lat="37.15377000" lon="-8.56599000">
        <ele>47.000000</ele>
        <time>2010-01-01T00:31:12Z</time>
      </trkpt>
      <trkpt lat="37.15389000" lon="-8.56602000">
        <ele>47.000000</ele>
        <time>2010-01-01T00:31:17Z</time>
      </trkpt>
      <trkpt lat="37.15405000" lon="-8.56602000">
        <ele>48.000000</ele>
        <time>2010-01-01T00:31:23Z</time>
      </trkpt>
      <trkpt lat="37.15414000" lon="-8.56605000">
        <ele>48.000000</ele>
        <time>2010-01-01T00:31:27Z</time>
      </trkpt>
      <trkpt lat="37.15425000" lon="-8.56617000">
        <ele>47.000000</ele>
        <time>2010-01-01T00:31:33Z</time>
      </trkpt>
      <trkpt lat="37.15512000" lon="-8.56692000">
        <ele>38.000000</ele>
        <time>2010-01-01T00:32:15Z</time>
      </trkpt>
      <trkpt lat="37.15521000" lon="-8.56707000">
        <ele>37.000000</ele>
        <time>2010-01-01T00:32:21Z</time>
      </trkpt>
      <trkpt lat="37.15530000" lon="-8.56725000">
        <ele>36.000000</ele>
        <time>2010-01-01T00:32:28Z</time>
      </trkpt>
      <trkpt lat="37.15531740" lon="-8.56733710">
        <ele>36.000000</ele>
        <time>2010-01-01T00:32:31Z</time>
      </trkpt>
      <trkpt lat="37.15535000" lon="-8.56750000">
        <ele>34.000000</ele>
        <time>2010-01-01T00:32:36Z</time>
      </trkpt>
      <trkpt lat="37.15546000" lon="-8.56840000">
        <ele>28.000000</ele>
        <time>2010-01-01T00:33:05Z</time>
      </trkpt>
      <trkpt lat="37.15554000" lon="-8.56885000">
        <ele>27.000000</ele>
        <time>2010-01-01T00:33:20Z</time>
      </trkpt>
      <trkpt lat="37.15570000" lon="-8.56908000">
        <ele>25.000000</ele>
        <time>2010-01-01T00:33:29Z</time>
      </trkpt>
      <trkpt lat="37.15577000" lon="-8.56932000">
        <ele>25.000000</ele>
        <time>2010-01-01T00:33:38Z</time>
      </trkpt>
      <trkpt lat="37.15580000" lon="-8.56952000">
        <ele>26.000000</ele>
        <time>2010-01-01T00:33:44Z</time>
      </trkpt>
      <trkpt lat="37.15580000" lon="-8.56973000">
        <ele>27.000000</ele>
        <time>2010-01-01T00:33:51Z</time>
      </trkpt>
      <trkpt lat="37.15624000" lon="-8.57028000">
        <ele>22.000000</ele>
        <time>2010-01-01T00:34:16Z</time>
      </trkpt>
      <trkpt lat="37.15644720" lon="-8.57050734">
        <ele>17.000000</ele>
        <time>2010-01-01T00:34:27Z</time>
      </trkpt>
      <trkpt lat="37.15655000" lon="-8.57062000">
        <ele>15.000000</ele>
        <time>2010-01-01T00:34:32Z</time>
      </trkpt>
      <trkpt lat="37.15696000" lon="-8.57100000">
        <ele>11.000000</ele>
        <time>2010-01-01T00:34:53Z</time>
      </trkpt>
      <trkpt lat="37.15735000" lon="-8.57141000">
        <ele>6.0000000</ele>
        <time>2010-01-01T00:35:13Z</time>
      </trkpt>
      <trkpt lat="37.15771000" lon="-8.57200000">
        <ele>2.0000000</ele>
        <time>2010-01-01T00:35:37Z</time>
      </trkpt>
      <trkpt lat="37.15782000" lon="-8.57218000">
        <ele>2.0000000</ele>
        <time>2010-01-01T00:35:44Z</time>
      </trkpt>
      <trkpt lat="37.16009640" lon="-8.57022028">
        <ele>3.0000000</ele>
        <time>2010-01-01T00:37:34Z</time>
      </trkpt>
      <trkpt lat="37.16015000" lon="-8.57016000">
        <ele>2.0000000</ele>
        <time>2010-01-01T00:37:37Z</time>
      </trkpt>
      <trkpt lat="37.16022780" lon="-8.57010157">
        <ele>2.0000000</ele>
        <time>2010-01-01T00:37:41Z</time>
      </trkpt>
      <trkpt lat="37.16055590" lon="-8.56968998">
        <ele>0.0000000</ele>
        <time>2010-01-01T00:37:59Z</time>
      </trkpt>
      <trkpt lat="37.16166740" lon="-8.56899261">
        <ele>6.0000000</ele>
        <time>2010-01-01T00:38:49Z</time>
      </trkpt>
      <trkpt lat="37.16212910" lon="-8.56916427">
        <ele>6.0000000</ele>
        <time>2010-01-01T00:39:08Z</time>
      </trkpt>
      <trkpt lat="37.16259940" lon="-8.56944322">
        <ele>5.0000000</ele>
        <time>2010-01-01T00:39:29Z</time>
      </trkpt>
      <trkpt lat="37.16227450" lon="-8.56997966">
        <ele>1.0000000</ele>
        <time>2010-01-01T00:39:51Z</time>
      </trkpt>
      <trkpt lat="37.16190680" lon="-8.57040882">
        <ele>1.0000000</ele>
        <time>2010-01-01T00:40:11Z</time>
      </trkpt>
      <trkpt lat="37.16147080" lon="-8.57105255">
        <ele>2.0000000</ele>
        <time>2010-01-01T00:40:38Z</time>
      </trkpt>
      <trkpt lat="37.16144000" lon="-8.57213000">
        <ele>1.0000000</ele>
        <time>2010-01-01T00:41:12Z</time>
      </trkpt>
      <trkpt lat="37.16172000" lon="-8.57531000">
        <ele>5.0000000</ele>
        <time>2010-01-01T00:42:54Z</time>
      </trkpt>
      <trkpt lat="37.16181000" lon="-8.57674000">
        <ele>5.0000000</ele>
        <time>2010-01-01T00:43:40Z</time>
      </trkpt>
      <trkpt lat="37.16206000" lon="-8.57968000">
        <ele>6.0000000</ele>
        <time>2010-01-01T00:45:14Z</time>
      </trkpt>
      <trkpt lat="37.16208000" lon="-8.58012000">
        <ele>6.0000000</ele>
        <time>2010-01-01T00:45:28Z</time>
      </trkpt>
      <trkpt lat="37.16206000" lon="-8.58120000">
        <ele>5.0000000</ele>
        <time>2010-01-01T00:46:03Z</time>
      </trkpt>
      <trkpt lat="37.16197000" lon="-8.58325000">
        <ele>2.0000000</ele>
        <time>2010-01-01T00:47:08Z</time>
      </trkpt>
      <trkpt lat="37.16175280" lon="-8.58692295">
        <ele>5.0000000</ele>
        <time>2010-01-01T00:49:06Z</time>
      </trkpt>
      <trkpt lat="37.16151000" lon="-8.59103000">
        <ele>7.0000000</ele>
        <time>2010-01-01T00:51:17Z</time>
      </trkpt>
      <trkpt lat="37.16151000" lon="-8.59145000">
        <ele>7.0000000</ele>
        <time>2010-01-01T00:51:31Z</time>
      </trkpt>
      <trkpt lat="37.16165000" lon="-8.59273000">
        <ele>13.000000</ele>
        <time>2010-01-01T00:52:12Z</time>
      </trkpt>
      <trkpt lat="37.16187000" lon="-8.59427000">
        <ele>23.000000</ele>
        <time>2010-01-01T00:53:02Z</time>
      </trkpt>
      <trkpt lat="37.16208520" lon="-8.59563755">
        <ele>18.000000</ele>
        <time>2010-01-01T00:53:46Z</time>
      </trkpt>
      <trkpt lat="37.16235000" lon="-8.59732000">
        <ele>15.000000</ele>
        <time>2010-01-01T00:54:41Z</time>
      </trkpt>
      <trkpt lat="37.16235400" lon="-8.59736761">
        <ele>14.000000</ele>
        <time>2010-01-01T00:54:43Z</time>
      </trkpt>
      <trkpt lat="37.16238000" lon="-8.59767000">
        <ele>13.000000</ele>
        <time>2010-01-01T00:54:52Z</time>
      </trkpt>
      <trkpt lat="37.16239000" lon="-8.59809000">
        <ele>13.000000</ele>
        <time>2010-01-01T00:55:06Z</time>
      </trkpt>
      <trkpt lat="37.16235000" lon="-8.59840000">
        <ele>14.000000</ele>
        <time>2010-01-01T00:55:16Z</time>
      </trkpt>
      <trkpt lat="37.16231000" lon="-8.59857000">
        <ele>14.000000</ele>
        <time>2010-01-01T00:55:21Z</time>
      </trkpt>
      <trkpt lat="37.16220000" lon="-8.59889000">
        <ele>14.000000</ele>
        <time>2010-01-01T00:55:32Z</time>
      </trkpt>
      <trkpt lat="37.16206000" lon="-8.59915000">
        <ele>15.000000</ele>
        <time>2010-01-01T00:55:42Z</time>
      </trkpt>
      <trkpt lat="37.16196000" lon="-8.59930000">
        <ele>16.000000</ele>
        <time>2010-01-01T00:55:49Z</time>
      </trkpt>
      <trkpt lat="37.16169000" lon="-8.59959000">
        <ele>17.000000</ele>
        <time>2010-01-01T00:56:03Z</time>
      </trkpt>
      <trkpt lat="37.15994000" lon="-8.60116000">
        <ele>7.0000000</ele>
        <time>2010-01-01T00:57:29Z</time>
      </trkpt>
      <trkpt lat="37.15982000" lon="-8.60129000">
        <ele>7.0000000</ele>
        <time>2010-01-01T00:57:35Z</time>
      </trkpt>
      <trkpt lat="37.15960000" lon="-8.60160000">
        <ele>5.0000000</ele>
        <time>2010-01-01T00:57:49Z</time>
      </trkpt>
      <trkpt lat="37.15940000" lon="-8.60198000">
        <ele>3.0000000</ele>
        <time>2010-01-01T00:58:03Z</time>
      </trkpt>
      <trkpt lat="37.15902000" lon="-8.60303000">
        <ele>-1.000000</ele>
        <time>2010-01-01T00:58:40Z</time>
      </trkpt>
      <trkpt lat="37.15866000" lon="-8.60398000">
        <ele>3.0000000</ele>
        <time>2010-01-01T00:59:13Z</time>
      </trkpt>
      <trkpt lat="37.15847000" lon="-8.60443000">
        <ele>5.0000000</ele>
        <time>2010-01-01T00:59:30Z</time>
      </trkpt>
      <trkpt lat="37.15824000" lon="-8.60482000">
        <ele>5.0000000</ele>
        <time>2010-01-01T00:59:45Z</time>
      </trkpt>
      <trkpt lat="37.15667000" lon="-8.60719000">
        <ele>13.000000</ele>
        <time>2010-01-01T01:01:24Z</time>
      </trkpt>
      <trkpt lat="37.15627000" lon="-8.60783000">
        <ele>16.000000</ele>
        <time>2010-01-01T01:01:49Z</time>
      </trkpt>
      <trkpt lat="37.15615000" lon="-8.60807000">
        <ele>17.000000</ele>
        <time>2010-01-01T01:01:59Z</time>
      </trkpt>
      <trkpt lat="37.15592000" lon="-8.60862000">
        <ele>16.000000</ele>
        <time>2010-01-01T01:02:18Z</time>
      </trkpt>
      <trkpt lat="37.15521510" lon="-8.61050369">
        <ele>12.000000</ele>
        <time>2010-01-01T01:03:25Z</time>
      </trkpt>
      <trkpt lat="37.15476000" lon="-8.61172000">
        <ele>14.000000</ele>
        <time>2010-01-01T01:04:08Z</time>
      </trkpt>
      <trkpt lat="37.15430730" lon="-8.61284184">
        <ele>15.000000</ele>
        <time>2010-01-01T01:04:48Z</time>
      </trkpt>
      <trkpt lat="37.15407000" lon="-8.61343000">
        <ele>15.000000</ele>
        <time>2010-01-01T01:05:09Z</time>
      </trkpt>
      <trkpt lat="37.15382000" lon="-8.61404000">
        <ele>14.000000</ele>
        <time>2010-01-01T01:05:31Z</time>
      </trkpt>
      <trkpt lat="37.15356730" lon="-8.61458200">
        <ele>14.000000</ele>
        <time>2010-01-01T01:05:51Z</time>
      </trkpt>
      <trkpt lat="37.15320000" lon="-8.61537000">
        <ele>14.000000</ele>
        <time>2010-01-01T01:06:20Z</time>
      </trkpt>
      <trkpt lat="37.15287000" lon="-8.61637000">
        <ele>14.000000</ele>
        <time>2010-01-01T01:06:54Z</time>
      </trkpt>
      <trkpt lat="37.15272000" lon="-8.61693000">
        <ele>14.000000</ele>
        <time>2010-01-01T01:07:13Z</time>
      </trkpt>
      <trkpt lat="37.15264890" lon="-8.61726606">
        <ele>14.000000</ele>
        <time>2010-01-01T01:07:24Z</time>
      </trkpt>
      <trkpt lat="37.15261000" lon="-8.61745000">
        <ele>14.000000</ele>
        <time>2010-01-01T01:07:30Z</time>
      </trkpt>
      <trkpt lat="37.15252000" lon="-8.61799000">
        <ele>14.000000</ele>
        <time>2010-01-01T01:07:48Z</time>
      </trkpt>
      <trkpt lat="37.15244000" lon="-8.61853000">
        <ele>12.000000</ele>
        <time>2010-01-01T01:08:05Z</time>
      </trkpt>
      <trkpt lat="37.15241000" lon="-8.61905000">
        <ele>12.000000</ele>
        <time>2010-01-01T01:08:22Z</time>
      </trkpt>
      <trkpt lat="37.15240000" lon="-8.61998000">
        <ele>9.0000000</ele>
        <time>2010-01-01T01:08:52Z</time>
      </trkpt>
      <trkpt lat="37.15243000" lon="-8.62046000">
        <ele>7.0000000</ele>
        <time>2010-01-01T01:09:07Z</time>
      </trkpt>
      <trkpt lat="37.15248000" lon="-8.62100000">
        <ele>4.0000000</ele>
        <time>2010-01-01T01:09:24Z</time>
      </trkpt>
      <trkpt lat="37.15253000" lon="-8.62134000">
        <ele>3.0000000</ele>
        <time>2010-01-01T01:09:36Z</time>
      </trkpt>
      <trkpt lat="37.15262000" lon="-8.62177000">
        <ele>1.0000000</ele>
        <time>2010-01-01T01:09:50Z</time>
      </trkpt>
      <trkpt lat="37.15274780" lon="-8.62227130">
        <ele>2.0000000</ele>
        <time>2010-01-01T01:10:06Z</time>
      </trkpt>
      <trkpt lat="37.15286680" lon="-8.62273759">
        <ele>4.0000000</ele>
        <time>2010-01-01T01:10:22Z</time>
      </trkpt>
      <trkpt lat="37.15287000" lon="-8.62275000">
        <ele>4.0000000</ele>
        <time>2010-01-01T01:10:23Z</time>
      </trkpt>
      <trkpt lat="37.15327000" lon="-8.62428000">
        <ele>6.0000000</ele>
        <time>2010-01-01T01:11:14Z</time>
      </trkpt>
      <trkpt lat="37.15366000" lon="-8.62565000">
        <ele>3.0000000</ele>
        <time>2010-01-01T01:12:00Z</time>
      </trkpt>
      <trkpt lat="37.15391680" lon="-8.62629695">
        <ele>5.0000000</ele>
        <time>2010-01-01T01:12:23Z</time>
      </trkpt>
      <trkpt lat="37.15393000" lon="-8.62633000">
        <ele>5.0000000</ele>
        <time>2010-01-01T01:12:25Z</time>
      </trkpt>
      <trkpt lat="37.15411000" lon="-8.62667000">
        <ele>7.0000000</ele>
        <time>2010-01-01T01:12:38Z</time>
      </trkpt>
      <trkpt lat="37.15425000" lon="-8.62691000">
        <ele>8.0000000</ele>
        <time>2010-01-01T01:12:47Z</time>
      </trkpt>
      <trkpt lat="37.15459000" lon="-8.62742000">
        <ele>10.000000</ele>
        <time>2010-01-01T01:13:08Z</time>
      </trkpt>
      <trkpt lat="37.15477000" lon="-8.62763000">
        <ele>8.0000000</ele>
        <time>2010-01-01T01:13:18Z</time>
      </trkpt>
      <trkpt lat="37.15490730" lon="-8.62776737">
        <ele>7.0000000</ele>
        <time>2010-01-01T01:13:25Z</time>
      </trkpt>
      <trkpt lat="37.15507000" lon="-8.62793000">
        <ele>7.0000000</ele>
        <time>2010-01-01T01:13:33Z</time>
      </trkpt>
      <trkpt lat="37.15534000" lon="-8.62817000">
        <ele>8.0000000</ele>
        <time>2010-01-01T01:13:47Z</time>
      </trkpt>
      <trkpt lat="37.15566870" lon="-8.62842479">
        <ele>7.0000000</ele>
        <time>2010-01-01T01:14:02Z</time>
      </trkpt>
      <trkpt lat="37.15654000" lon="-8.62910000">
        <ele>4.0000000</ele>
        <time>2010-01-01T01:14:43Z</time>
      </trkpt>
      <trkpt lat="37.15682000" lon="-8.62936000">
        <ele>4.0000000</ele>
        <time>2010-01-01T01:14:57Z</time>
      </trkpt>
      <trkpt lat="37.15706000" lon="-8.62960000">
        <ele>4.0000000</ele>
        <time>2010-01-01T01:15:09Z</time>
      </trkpt>
      <trkpt lat="37.15712490" lon="-8.62968262">
        <ele>3.0000000</ele>
        <time>2010-01-01T01:15:13Z</time>
      </trkpt>
      <trkpt lat="37.15728000" lon="-8.62988000">
        <ele>3.0000000</ele>
        <time>2010-01-01T01:15:22Z</time>
      </trkpt>
      <trkpt lat="37.15758000" lon="-8.63030000">
        <ele>5.0000000</ele>
        <time>2010-01-01T01:15:40Z</time>
      </trkpt>
      <trkpt lat="37.15760770" lon="-8.63034400">
        <ele>5.0000000</ele>
        <time>2010-01-01T01:15:42Z</time>
      </trkpt>
      <trkpt lat="37.15782000" lon="-8.63068000">
        <ele>6.0000000</ele>
        <time>2010-01-01T01:15:55Z</time>
      </trkpt>
      <trkpt lat="37.15818000" lon="-8.63150000">
        <ele>5.0000000</ele>
        <time>2010-01-01T01:16:25Z</time>
      </trkpt>
      <trkpt lat="37.15824000" lon="-8.63171000">
        <ele>6.0000000</ele>
        <time>2010-01-01T01:16:32Z</time>
      </trkpt>
      <trkpt lat="37.15828000" lon="-8.63189000">
        <ele>6.0000000</ele>
        <time>2010-01-01T01:16:38Z</time>
      </trkpt>
      <trkpt lat="37.15828000" lon="-8.63233000">
        <ele>4.0000000</ele>
        <time>2010-01-01T01:16:52Z</time>
      </trkpt>
      <trkpt lat="37.15830000" lon="-8.63250000">
        <ele>3.0000000</ele>
        <time>2010-01-01T01:16:58Z</time>
      </trkpt>
      <trkpt lat="37.15836000" lon="-8.63262000">
        <ele>3.0000000</ele>
        <time>2010-01-01T01:17:02Z</time>
      </trkpt>
      <trkpt lat="37.15851000" lon="-8.63277000">
        <ele>3.0000000</ele>
        <time>2010-01-01T01:17:10Z</time>
      </trkpt>
      <trkpt lat="37.15857000" lon="-8.63287000">
        <ele>3.0000000</ele>
        <time>2010-01-01T01:17:14Z</time>
      </trkpt>
      <trkpt lat="37.15861000" lon="-8.63303000">
        <ele>2.0000000</ele>
        <time>2010-01-01T01:17:19Z</time>
      </trkpt>
      <trkpt lat="37.15868000" lon="-8.63354000">
        <ele>2.0000000</ele>
        <time>2010-01-01T01:17:36Z</time>
      </trkpt>
      <trkpt lat="37.15872000" lon="-8.63424000">
        <ele>-1.000000</ele>
        <time>2010-01-01T01:17:58Z</time>
      </trkpt>
      <trkpt lat="37.15871000" lon="-8.63476000">
        <ele>-1.000000</ele>
        <time>2010-01-01T01:18:15Z</time>
      </trkpt>
      <trkpt lat="37.15863000" lon="-8.63548000">
        <ele>0.0000000</ele>
        <time>2010-01-01T01:18:38Z</time>
      </trkpt>
      <trkpt lat="37.15850000" lon="-8.63625000">
        <ele>1.0000000</ele>
        <time>2010-01-01T01:19:03Z</time>
      </trkpt>
      <trkpt lat="37.15827890" lon="-8.63718787">
        <ele>3.0000000</ele>
        <time>2010-01-01T01:19:34Z</time>
      </trkpt>
      <trkpt lat="37.15794510" lon="-8.63860460">
        <ele>2.0000000</ele>
        <time>2010-01-01T01:20:22Z</time>
      </trkpt>
      <trkpt lat="37.15778480" lon="-8.63928476">
        <ele>2.0000000</ele>
        <time>2010-01-01T01:20:44Z</time>
      </trkpt>
      <trkpt lat="37.15776000" lon="-8.63939000">
        <ele>2.0000000</ele>
        <time>2010-01-01T01:20:48Z</time>
      </trkpt>
      <trkpt lat="37.15734000" lon="-8.64069000">
        <ele>10.000000</ele>
        <time>2010-01-01T01:21:32Z</time>
      </trkpt>
      <trkpt lat="37.15692000" lon="-8.64168000">
        <ele>6.0000000</ele>
        <time>2010-01-01T01:22:08Z</time>
      </trkpt>
      <trkpt lat="37.15630420" lon="-8.64279598">
        <ele>2.0000000</ele>
        <time>2010-01-01T01:22:52Z</time>
      </trkpt>
      <trkpt lat="37.15628000" lon="-8.64284000">
        <ele>2.0000000</ele>
        <time>2010-01-01T01:22:53Z</time>
      </trkpt>
      <trkpt lat="37.15571000" lon="-8.64372000">
        <ele>3.0000000</ele>
        <time>2010-01-01T01:23:29Z</time>
      </trkpt>
      <trkpt lat="37.15536980" lon="-8.64419975">
        <ele>1.0000000</ele>
        <time>2010-01-01T01:23:50Z</time>
      </trkpt>
      <trkpt lat="37.15493000" lon="-8.64482000">
        <ele>2.0000000</ele>
        <time>2010-01-01T01:24:16Z</time>
      </trkpt>
      <trkpt lat="37.15283000" lon="-8.64796000">
        <ele>1.0000000</ele>
        <time>2010-01-01T01:26:27Z</time>
      </trkpt>
      <trkpt lat="37.15269640" lon="-8.64815242">
        <ele>1.0000000</ele>
        <time>2010-01-01T01:26:35Z</time>
      </trkpt>
      <trkpt lat="37.15165000" lon="-8.64966000">
        <ele>4.0000000</ele>
        <time>2010-01-01T01:27:39Z</time>
      </trkpt>
      <trkpt lat="37.15123000" lon="-8.65038000">
        <ele>3.0000000</ele>
        <time>2010-01-01T01:28:08Z</time>
      </trkpt>
      <trkpt lat="37.15124000" lon="-8.65038000">
        <ele>2.0000000</ele>
        <time>2010-01-01T01:28:08Z</time>
      </trkpt>
      <trkpt lat="37.15110000" lon="-8.65063000">
        <ele>3.0000000</ele>
        <time>2010-01-01T01:28:18Z</time>
      </trkpt>
      <trkpt lat="37.15013000" lon="-8.64973000">
        <ele>4.0000000</ele>
        <time>2010-01-01T01:29:06Z</time>
      </trkpt>
      <trkpt lat="37.15002000" lon="-8.64946000">
        <ele>4.0000000</ele>
        <time>2010-01-01T01:29:16Z</time>
      </trkpt>
      <trkpt lat="37.14988000" lon="-8.64924000">
        <ele>3.0000000</ele>
        <time>2010-01-01T01:29:25Z</time>
      </trkpt>
      <trkpt lat="37.14935000" lon="-8.64875000">
        <ele>6.0000000</ele>
        <time>2010-01-01T01:29:51Z</time>
      </trkpt>
      <trkpt lat="37.14922000" lon="-8.64842000">
        <ele>5.0000000</ele>
        <time>2010-01-01T01:30:03Z</time>
      </trkpt>
      <trkpt lat="37.14922000" lon="-8.64782000">
        <ele>4.0000000</ele>
        <time>2010-01-01T01:30:22Z</time>
      </trkpt>
      <trkpt lat="37.14914000" lon="-8.64680000">
        <ele>4.0000000</ele>
        <time>2010-01-01T01:30:55Z</time>
      </trkpt>
      <trkpt lat="37.14906000" lon="-8.64609000">
        <ele>3.0000000</ele>
        <time>2010-01-01T01:31:17Z</time>
      </trkpt>
      <trkpt lat="37.14885000" lon="-8.64475000">
        <ele>1.0000000</ele>
        <time>2010-01-01T01:32:01Z</time>
      </trkpt>
      <trkpt lat="37.14821360" lon="-8.64322754">
        <ele>0.0000000</ele>
        <time>2010-01-01T01:32:56Z</time>
      </trkpt>
      <trkpt lat="37.14806000" lon="-8.64286000">
        <ele>1.0000000</ele>
        <time>2010-01-01T01:33:09Z</time>
      </trkpt>
      <trkpt lat="37.14804000" lon="-8.64273000">
        <ele>2.0000000</ele>
        <time>2010-01-01T01:33:13Z</time>
      </trkpt>
      <trkpt lat="37.14768280" lon="-8.64168910">
        <ele>1.0000000</ele>
        <time>2010-01-01T01:33:50Z</time>
      </trkpt>
      <trkpt lat="37.14731660" lon="-8.64062171">
        <ele>2.0000000</ele>
        <time>2010-01-01T01:34:27Z</time>
      </trkpt>
      <trkpt lat="37.14722000" lon="-8.64034000">
        <ele>2.0000000</ele>
        <time>2010-01-01T01:34:36Z</time>
      </trkpt>
      <trkpt lat="37.14707000" lon="-8.64008000">
        <ele>4.0000000</ele>
        <time>2010-01-01T01:34:47Z</time>
      </trkpt>
      <trkpt lat="37.14630170" lon="-8.63901753">
        <ele>16.000000</ele>
        <time>2010-01-01T01:35:32Z</time>
      </trkpt>
      <trkpt lat="37.14613000" lon="-8.63878000">
        <ele>18.000000</ele>
        <time>2010-01-01T01:35:43Z</time>
      </trkpt>
      <trkpt lat="37.14605000" lon="-8.63858000">
        <ele>20.000000</ele>
        <time>2010-01-01T01:35:50Z</time>
      </trkpt>
      <trkpt lat="37.14604000" lon="-8.63847000">
        <ele>19.000000</ele>
        <time>2010-01-01T01:35:53Z</time>
      </trkpt>
      <trkpt lat="37.14616000" lon="-8.63780000">
        <ele>19.000000</ele>
        <time>2010-01-01T01:36:15Z</time>
      </trkpt>
      <trkpt lat="37.14619000" lon="-8.63767000">
        <ele>20.000000</ele>
        <time>2010-01-01T01:36:20Z</time>
      </trkpt>
      <trkpt lat="37.14626000" lon="-8.63759000">
        <ele>20.000000</ele>
        <time>2010-01-01T01:36:23Z</time>
      </trkpt>
      <trkpt lat="37.14648000" lon="-8.63745000">
        <ele>21.000000</ele>
        <time>2010-01-01T01:36:33Z</time>
      </trkpt>
      <trkpt lat="37.14655000" lon="-8.63732000">
        <ele>21.000000</ele>
        <time>2010-01-01T01:36:38Z</time>
      </trkpt>
      <trkpt lat="37.14658000" lon="-8.63715000">
        <ele>22.000000</ele>
        <time>2010-01-01T01:36:44Z</time>
      </trkpt>
      <trkpt lat="37.14666000" lon="-8.63656000">
        <ele>23.000000</ele>
        <time>2010-01-01T01:37:03Z</time>
      </trkpt>
      <trkpt lat="37.14664000" lon="-8.63640000">
        <ele>23.000000</ele>
        <time>2010-01-01T01:37:08Z</time>
      </trkpt>
      <trkpt lat="37.14654000" lon="-8.63620000">
        <ele>23.000000</ele>
        <time>2010-01-01T01:37:16Z</time>
      </trkpt>
      <trkpt lat="37.14653370" lon="-8.63618306">
        <ele>23.000000</ele>
        <time>2010-01-01T01:37:16Z</time>
      </trkpt>
      <trkpt lat="37.14610000" lon="-8.63501000">
        <ele>20.000000</ele>
        <time>2010-01-01T01:37:57Z</time>
      </trkpt>
      <trkpt lat="37.14600340" lon="-8.63479425">
        <ele>19.000000</ele>
        <time>2010-01-01T01:38:05Z</time>
      </trkpt>
      <trkpt lat="37.14563000" lon="-8.63396000">
        <ele>18.000000</ele>
        <time>2010-01-01T01:38:36Z</time>
      </trkpt>
      <trkpt lat="37.14552000" lon="-8.63377000">
        <ele>17.000000</ele>
        <time>2010-01-01T01:38:43Z</time>
      </trkpt>
      <trkpt lat="37.14470100" lon="-8.63278650">
        <ele>15.000000</ele>
        <time>2010-01-01T01:39:29Z</time>
      </trkpt>
      <trkpt lat="37.14412390" lon="-8.63209339">
        <ele>13.000000</ele>
        <time>2010-01-01T01:40:01Z</time>
      </trkpt>
      <trkpt lat="37.14364850" lon="-8.63152243">
        <ele>11.000000</ele>
        <time>2010-01-01T01:40:27Z</time>
      </trkpt>
      <trkpt lat="37.14343000" lon="-8.63126000">
        <ele>9.0000000</ele>
        <time>2010-01-01T01:40:39Z</time>
      </trkpt>
      <trkpt lat="37.14324000" lon="-8.63101000">
        <ele>7.0000000</ele>
        <time>2010-01-01T01:40:50Z</time>
      </trkpt>
      <trkpt lat="37.14284390" lon="-8.63026036">
        <ele>7.0000000</ele>
        <time>2010-01-01T01:41:19Z</time>
      </trkpt>
      <trkpt lat="37.14279640" lon="-8.63017034">
        <ele>7.0000000</ele>
        <time>2010-01-01T01:41:22Z</time>
      </trkpt>
      <trkpt lat="37.14268000" lon="-8.62995000">
        <ele>5.0000000</ele>
        <time>2010-01-01T01:41:31Z</time>
      </trkpt>
      <trkpt lat="37.14259000" lon="-8.62983000">
        <ele>4.0000000</ele>
        <time>2010-01-01T01:41:36Z</time>
      </trkpt>
      <trkpt lat="37.14249000" lon="-8.62976000">
        <ele>3.0000000</ele>
        <time>2010-01-01T01:41:41Z</time>
      </trkpt>
      <trkpt lat="37.14188000" lon="-8.62941000">
        <ele>1.0000000</ele>
        <time>2010-01-01T01:42:07Z</time>
      </trkpt>
      <trkpt lat="37.14175000" lon="-8.62935000">
        <ele>1.0000000</ele>
        <time>2010-01-01T01:42:13Z</time>
      </trkpt>
      <trkpt lat="37.14163000" lon="-8.62935000">
        <ele>0.0000000</ele>
        <time>2010-01-01T01:42:18Z</time>
      </trkpt>
      <trkpt lat="37.14150000" lon="-8.62930000">
        <ele>0.0000000</ele>
        <time>2010-01-01T01:42:23Z</time>
      </trkpt>
      <trkpt lat="37.14103350" lon="-8.62905745">
        <ele>0.0000000</ele>
        <time>2010-01-01T01:42:43Z</time>
      </trkpt>
      <trkpt lat="37.14088220" lon="-8.62897879">
        <ele>1.0000000</ele>
        <time>2010-01-01T01:42:50Z</time>
      </trkpt>
      <trkpt lat="37.14050000" lon="-8.62878000">
        <ele>2.0000000</ele>
        <time>2010-01-01T01:43:07Z</time>
      </trkpt>
      <trkpt lat="37.14027000" lon="-8.62854000">
        <ele>1.0000000</ele>
        <time>2010-01-01T01:43:19Z</time>
      </trkpt>
      <trkpt lat="37.13997000" lon="-8.62818000">
        <ele>1.0000000</ele>
        <time>2010-01-01T01:43:35Z</time>
      </trkpt>
      <trkpt lat="37.13973000" lon="-8.62776000">
        <ele>0.0000000</ele>
        <time>2010-01-01T01:43:52Z</time>
      </trkpt>
      <trkpt lat="37.13971930" lon="-8.62773860">
        <ele>1.0000000</ele>
        <time>2010-01-01T01:43:52Z</time>
      </trkpt>
      <trkpt lat="37.13971870" lon="-8.62773756">
        <ele>1.0000000</ele>
        <time>2010-01-01T01:43:52Z</time>
      </trkpt>
      <trkpt lat="37.13958000" lon="-8.62746000">
        <ele>0.0000000</ele>
        <time>2010-01-01T01:44:03Z</time>
      </trkpt>
      <trkpt lat="37.13949000" lon="-8.62720000">
        <ele>-1.000000</ele>
        <time>2010-01-01T01:44:12Z</time>
      </trkpt>
      <trkpt lat="37.13948000" lon="-8.62694000">
        <ele>-2.000000</ele>
        <time>2010-01-01T01:44:20Z</time>
      </trkpt>
      <trkpt lat="37.13946000" lon="-8.62676000">
        <ele>-2.000000</ele>
        <time>2010-01-01T01:44:26Z</time>
      </trkpt>
      <trkpt lat="37.13941000" lon="-8.62666000">
        <ele>-1.000000</ele>
        <time>2010-01-01T01:44:30Z</time>
      </trkpt>
      <trkpt lat="37.13929000" lon="-8.62654000">
        <ele>-1.000000</ele>
        <time>2010-01-01T01:44:36Z</time>
      </trkpt>
      <trkpt lat="37.13886000" lon="-8.62623000">
        <ele>1.0000000</ele>
        <time>2010-01-01T01:44:56Z</time>
      </trkpt>
      <trkpt lat="37.13854000" lon="-8.62604000">
        <ele>2.0000000</ele>
        <time>2010-01-01T01:45:10Z</time>
      </trkpt>
      <trkpt lat="37.13836000" lon="-8.62599000">
        <ele>2.0000000</ele>
        <time>2010-01-01T01:45:17Z</time>
      </trkpt>
      <trkpt lat="37.13825000" lon="-8.62599000">
        <ele>2.0000000</ele>
        <time>2010-01-01T01:45:22Z</time>
      </trkpt>
      <trkpt lat="37.13767530" lon="-8.62622179">
        <ele>2.0000000</ele>
        <time>2010-01-01T01:45:46Z</time>
      </trkpt>
      <trkpt lat="37.13740070" lon="-8.62633254">
        <ele>3.0000000</ele>
        <time>2010-01-01T01:45:57Z</time>
      </trkpt>
      <trkpt lat="37.13739850" lon="-8.62633345">
        <ele>3.0000000</ele>
        <time>2010-01-01T01:45:58Z</time>
      </trkpt>
      <trkpt lat="37.13714050" lon="-8.62643751">
        <ele>3.0000000</ele>
        <time>2010-01-01T01:46:08Z</time>
      </trkpt>
      <trkpt lat="37.13713850" lon="-8.62643831">
        <ele>3.0000000</ele>
        <time>2010-01-01T01:46:08Z</time>
      </trkpt>
      <trkpt lat="37.13703870" lon="-8.62644664">
        <ele>3.0000000</ele>
        <time>2010-01-01T01:46:12Z</time>
      </trkpt>
      <trkpt lat="37.13699000" lon="-8.62637000">
        <ele>3.0000000</ele>
        <time>2010-01-01T01:46:16Z</time>
      </trkpt>
      <trkpt lat="37.13693000" lon="-8.62616000">
        <ele>2.0000000</ele>
        <time>2010-01-01T01:46:23Z</time>
      </trkpt>
      <trkpt lat="37.13686000" lon="-8.62599000">
        <ele>2.0000000</ele>
        <time>2010-01-01T01:46:29Z</time>
      </trkpt>
      <trkpt lat="37.13672000" lon="-8.62589000">
        <ele>1.0000000</ele>
        <time>2010-01-01T01:46:35Z</time>
      </trkpt>
      <trkpt lat="37.13608460" lon="-8.62550717">
        <ele>1.0000000</ele>
        <time>2010-01-01T01:47:04Z</time>
      </trkpt>
      <trkpt lat="37.13594000" lon="-8.62542000">
        <ele>0.0000000</ele>
        <time>2010-01-01T01:47:10Z</time>
      </trkpt>
      <trkpt lat="37.13590470" lon="-8.62541693">
        <ele>0.0000000</ele>
        <time>2010-01-01T01:47:11Z</time>
      </trkpt>
      <trkpt lat="37.13571000" lon="-8.62540000">
        <ele>-1.000000</ele>
        <time>2010-01-01T01:47:19Z</time>
      </trkpt>
      <trkpt lat="37.13531000" lon="-8.62548000">
        <ele>-1.000000</ele>
        <time>2010-01-01T01:47:35Z</time>
      </trkpt>
      <trkpt lat="37.13500000" lon="-8.62559000">
        <ele>0.0000000</ele>
        <time>2010-01-01T01:47:48Z</time>
      </trkpt>
      <trkpt lat="37.13488000" lon="-8.62566000">
        <ele>0.0000000</ele>
        <time>2010-01-01T01:47:54Z</time>
      </trkpt>
      <trkpt lat="37.13475000" lon="-8.62569000">
        <ele>0.0000000</ele>
        <time>2010-01-01T01:47:59Z</time>
      </trkpt>
      <trkpt lat="37.13457000" lon="-8.62569000">
        <ele>0.0000000</ele>
        <time>2010-01-01T01:48:06Z</time>
      </trkpt>
      <trkpt lat="37.13439000" lon="-8.62561000">
        <ele>0.0000000</ele>
        <time>2010-01-01T01:48:14Z</time>
      </trkpt>
      <trkpt lat="37.13424000" lon="-8.62545000">
        <ele>1.0000000</ele>
        <time>2010-01-01T01:48:22Z</time>
      </trkpt>
      <trkpt lat="37.13414400" lon="-8.62526920">
        <ele>0.0000000</ele>
        <time>2010-01-01T01:48:29Z</time>
      </trkpt>
      <trkpt lat="37.13412810" lon="-8.62523926">
        <ele>0.0000000</ele>
        <time>2010-01-01T01:48:30Z</time>
      </trkpt>
      <trkpt lat="37.13381000" lon="-8.62464000">
        <ele>0.0000000</ele>
        <time>2010-01-01T01:48:53Z</time>
      </trkpt>
      <trkpt lat="37.13372000" lon="-8.62454000">
        <ele>0.0000000</ele>
        <time>2010-01-01T01:48:57Z</time>
      </trkpt>
      <trkpt lat="37.13363000" lon="-8.62451000">
        <ele>0.0000000</ele>
        <time>2010-01-01T01:49:01Z</time>
      </trkpt>
      <trkpt lat="37.13353000" lon="-8.62456000">
        <ele>1.0000000</ele>
        <time>2010-01-01T01:49:06Z</time>
      </trkpt>
      <trkpt lat="37.13342930" lon="-8.62464237">
        <ele>1.0000000</ele>
        <time>2010-01-01T01:49:10Z</time>
      </trkpt>
      <trkpt lat="37.13342000" lon="-8.62465000">
        <ele>1.0000000</ele>
        <time>2010-01-01T01:49:11Z</time>
      </trkpt>
      <trkpt lat="37.13329000" lon="-8.62483000">
        <ele>1.0000000</ele>
        <time>2010-01-01T01:49:19Z</time>
      </trkpt>
      <trkpt lat="37.13296000" lon="-8.62512000">
        <ele>1.0000000</ele>
        <time>2010-01-01T01:49:35Z</time>
      </trkpt>
      <trkpt lat="37.13241900" lon="-8.62555128">
        <ele>0.0000000</ele>
        <time>2010-01-01T01:50:00Z</time>
      </trkpt>
      <trkpt lat="37.13222000" lon="-8.62571000">
        <ele>0.0000000</ele>
        <time>2010-01-01T01:50:10Z</time>
      </trkpt>
      <trkpt lat="37.13206000" lon="-8.62587000">
        <ele>-1.000000</ele>
        <time>2010-01-01T01:50:18Z</time>
      </trkpt>
      <trkpt lat="37.13153420" lon="-8.62653986">
        <ele>0.0000000</ele>
        <time>2010-01-01T01:50:48Z</time>
      </trkpt>
      <trkpt lat="37.13091490" lon="-8.62732900">
        <ele>0.0000000</ele>
        <time>2010-01-01T01:51:23Z</time>
      </trkpt>
      <trkpt lat="37.13082000" lon="-8.62745000">
        <ele>0.0000000</ele>
        <time>2010-01-01T01:51:29Z</time>
      </trkpt>
      <trkpt lat="37.13053000" lon="-8.62779000">
        <ele>0.0000000</ele>
        <time>2010-01-01T01:51:45Z</time>
      </trkpt>
      <trkpt lat="37.12988290" lon="-8.62834284">
        <ele>-1.000000</ele>
        <time>2010-01-01T01:52:16Z</time>
      </trkpt>
      <trkpt lat="37.12971720" lon="-8.62848437">
        <ele>0.0000000</ele>
        <time>2010-01-01T01:52:24Z</time>
      </trkpt>
      <trkpt lat="37.12960950" lon="-8.62857644">
        <ele>1.0000000</ele>
        <time>2010-01-01T01:52:29Z</time>
      </trkpt>
      <trkpt lat="37.12950000" lon="-8.62867000">
        <ele>1.0000000</ele>
        <time>2010-01-01T01:52:34Z</time>
      </trkpt>
      <trkpt lat="37.12920000" lon="-8.62898000">
        <ele>1.0000000</ele>
        <time>2010-01-01T01:52:50Z</time>
      </trkpt>
      <trkpt lat="37.12914270" lon="-8.62902650">
        <ele>1.0000000</ele>
        <time>2010-01-01T01:52:53Z</time>
      </trkpt>
      <trkpt lat="37.12914210" lon="-8.62902699">
        <ele>1.0000000</ele>
        <time>2010-01-01T01:52:53Z</time>
      </trkpt>
      <trkpt lat="37.12898080" lon="-8.62910036">
        <ele>1.0000000</ele>
        <time>2010-01-01T01:53:00Z</time>
      </trkpt>
      <trkpt lat="37.12729100" lon="-8.62995323">
        <ele>1.0000000</ele>
        <time>2010-01-01T01:54:13Z</time>
      </trkpt>
      <trkpt lat="37.12625190" lon="-8.63047764">
        <ele>3.0000000</ele>
        <time>2010-01-01T01:54:57Z</time>
      </trkpt>
      <trkpt lat="37.12618440" lon="-8.63051176">
        <ele>3.0000000</ele>
        <time>2010-01-01T01:55:00Z</time>
      </trkpt>
      <trkpt lat="37.12588500" lon="-8.63084435">
        <ele>2.0000000</ele>
        <time>2010-01-01T01:55:16Z</time>
      </trkpt>
      <trkpt lat="37.12575670" lon="-8.63086581">
        <ele>1.0000000</ele>
        <time>2010-01-01T01:55:21Z</time>
      </trkpt>
      <trkpt lat="37.12476440" lon="-8.63217473">
        <ele>1.0000000</ele>
        <time>2010-01-01T01:56:19Z</time>
      </trkpt>
      <trkpt lat="37.12437490" lon="-8.63276273">
        <ele>1.0000000</ele>
        <time>2010-01-01T01:56:44Z</time>
      </trkpt>
      <trkpt lat="37.12430250" lon="-8.63287210">
        <ele>1.0000000</ele>
        <time>2010-01-01T01:56:48Z</time>
      </trkpt>
      <trkpt lat="37.12421380" lon="-8.63326445">
        <ele>1.0000000</ele>
        <time>2010-01-01T01:57:01Z</time>
      </trkpt>
      <trkpt lat="37.12414000" lon="-8.63359093">
        <ele>1.0000000</ele>
        <time>2010-01-01T01:57:12Z</time>
      </trkpt>
      <trkpt lat="37.12423400" lon="-8.63362312">
        <ele>1.0000000</ele>
        <time>2010-01-01T01:57:16Z</time>
      </trkpt>
      <trkpt lat="37.12410570" lon="-8.63413810">
        <ele>1.0000000</ele>
        <time>2010-01-01T01:57:33Z</time>
      </trkpt>
      <trkpt lat="37.12378920" lon="-8.63451361">
        <ele>1.0000000</ele>
        <time>2010-01-01T01:57:50Z</time>
      </trkpt>
      <trkpt lat="37.12307920" lon="-8.63591909">
        <ele>2.0000000</ele>
        <time>2010-01-01T01:58:44Z</time>
      </trkpt>
      <trkpt lat="37.12296130" lon="-8.63616275">
        <ele>2.0000000</ele>
        <time>2010-01-01T01:58:53Z</time>
      </trkpt>
      <trkpt lat="37.12293070" lon="-8.63622605">
        <ele>2.0000000</ele>
        <time>2010-01-01T01:58:55Z</time>
      </trkpt>
      <trkpt lat="37.12183880" lon="-8.63848328">
        <ele>3.0000000</ele>
        <time>2010-01-01T02:00:19Z</time>
      </trkpt>
      <trkpt lat="37.12188940" lon="-8.63879395">
        <ele>2.0000000</ele>
        <time>2010-01-01T02:00:29Z</time>
      </trkpt>
      <trkpt lat="37.12191000" lon="-8.63892000">
        <ele>2.0000000</ele>
        <time>2010-01-01T02:00:34Z</time>
      </trkpt>
      <trkpt lat="37.12177000" lon="-8.63909000">
        <ele>2.0000000</ele>
        <time>2010-01-01T02:00:41Z</time>
      </trkpt>
      <trkpt lat="37.12167600" lon="-8.63927794">
        <ele>1.0000000</ele>
        <time>2010-01-01T02:00:48Z</time>
      </trkpt>
      <trkpt lat="37.12157000" lon="-8.63949000">
        <ele>1.0000000</ele>
        <time>2010-01-01T02:00:56Z</time>
      </trkpt>
      <trkpt lat="37.12139000" lon="-8.63991000">
        <ele>1.0000000</ele>
        <time>2010-01-01T02:01:12Z</time>
      </trkpt>
      <trkpt lat="37.12053880" lon="-8.64226120">
        <ele>4.0000000</ele>
        <time>2010-01-01T02:02:34Z</time>
      </trkpt>
      <trkpt lat="37.12053670" lon="-8.64226702">
        <ele>4.0000000</ele>
        <time>2010-01-01T02:02:34Z</time>
      </trkpt>
      <trkpt lat="37.12038000" lon="-8.64270000">
        <ele>4.0000000</ele>
        <time>2010-01-01T02:02:49Z</time>
      </trkpt>
      <trkpt lat="37.12028000" lon="-8.64305000">
        <ele>3.0000000</ele>
        <time>2010-01-01T02:03:01Z</time>
      </trkpt>
      <trkpt lat="37.12023000" lon="-8.64338000">
        <ele>3.0000000</ele>
        <time>2010-01-01T02:03:12Z</time>
      </trkpt>
      <trkpt lat="37.12016000" lon="-8.64414000">
        <ele>3.0000000</ele>
        <time>2010-01-01T02:03:36Z</time>
      </trkpt>
      <trkpt lat="37.12011000" lon="-8.64438000">
        <ele>3.0000000</ele>
        <time>2010-01-01T02:03:44Z</time>
      </trkpt>
      <trkpt lat="37.12003480" lon="-8.64458666">
        <ele>3.0000000</ele>
        <time>2010-01-01T02:03:52Z</time>
      </trkpt>
      <trkpt lat="37.11991160" lon="-8.64492542">
        <ele>2.0000000</ele>
        <time>2010-01-01T02:04:03Z</time>
      </trkpt>
      <trkpt lat="37.11915000" lon="-8.64702000">
        <ele>2.0000000</ele>
        <time>2010-01-01T02:05:17Z</time>
      </trkpt>
      <trkpt lat="37.11909000" lon="-8.64708000">
        <ele>2.0000000</ele>
        <time>2010-01-01T02:05:20Z</time>
      </trkpt>
      <trkpt lat="37.11899000" lon="-8.64707000">
        <ele>2.0000000</ele>
        <time>2010-01-01T02:05:24Z</time>
      </trkpt>
      <trkpt lat="37.11895000" lon="-8.64714000">
        <ele>2.0000000</ele>
        <time>2010-01-01T02:05:27Z</time>
      </trkpt>
      <trkpt lat="37.11894000" lon="-8.64721000">
        <ele>2.0000000</ele>
        <time>2010-01-01T02:05:29Z</time>
      </trkpt>
      <trkpt lat="37.11902000" lon="-8.64731000">
        <ele>2.0000000</ele>
        <time>2010-01-01T02:05:34Z</time>
      </trkpt>
      <trkpt lat="37.11907000" lon="-8.64732000">
        <ele>2.0000000</ele>
        <time>2010-01-01T02:05:36Z</time>
      </trkpt>
      <trkpt lat="37.11912000" lon="-8.64736000">
        <ele>3.0000000</ele>
        <time>2010-01-01T02:05:38Z</time>
      </trkpt>
      <trkpt lat="37.11915000" lon="-8.64740000">
        <ele>3.0000000</ele>
        <time>2010-01-01T02:05:40Z</time>
      </trkpt>
      <trkpt lat="37.11915900" lon="-8.64747225">
        <ele>3.0000000</ele>
        <time>2010-01-01T02:05:42Z</time>
      </trkpt>
      <trkpt lat="37.11916000" lon="-8.64748000">
        <ele>3.0000000</ele>
        <time>2010-01-01T02:05:42Z</time>
      </trkpt>
      <trkpt lat="37.11913000" lon="-8.64756000">
        <ele>3.0000000</ele>
        <time>2010-01-01T02:05:45Z</time>
      </trkpt>
      <trkpt lat="37.11914000" lon="-8.64756000">
        <ele>4.0000000</ele>
        <time>2010-01-01T02:05:46Z</time>
      </trkpt>
      <trkpt lat="37.11892000" lon="-8.64782000">
        <ele>4.0000000</ele>
        <time>2010-01-01T02:05:58Z</time>
      </trkpt>
      <trkpt lat="37.11862000" lon="-8.64854000">
        <ele>6.0000000</ele>
        <time>2010-01-01T02:06:24Z</time>
      </trkpt>
      <trkpt lat="37.11792660" lon="-8.64999268">
        <ele>4.0000000</ele>
        <time>2010-01-01T02:07:18Z</time>
      </trkpt>
      <trkpt lat="37.11778330" lon="-8.65029307">
        <ele>6.0000000</ele>
        <time>2010-01-01T02:07:29Z</time>
      </trkpt>
      <trkpt lat="37.11757000" lon="-8.65074000">
        <ele>6.0000000</ele>
        <time>2010-01-01T02:07:45Z</time>
      </trkpt>
      <trkpt lat="37.11755280" lon="-8.65071952">
        <ele>6.0000000</ele>
        <time>2010-01-01T02:07:46Z</time>
      </trkpt>
      <trkpt lat="37.11710360" lon="-8.65109503">
        <ele>5.0000000</ele>
        <time>2010-01-01T02:08:08Z</time>
      </trkpt>
      <trkpt lat="37.11663350" lon="-8.65184722">
        <ele>3.0000000</ele>
        <time>2010-01-01T02:08:38Z</time>
      </trkpt>
      <trkpt lat="37.11620740" lon="-8.65252901">
        <ele>4.0000000</ele>
        <time>2010-01-01T02:09:06Z</time>
      </trkpt>
      <trkpt lat="37.11506670" lon="-8.65435419">
        <ele>5.0000000</ele>
        <time>2010-01-01T02:10:20Z</time>
      </trkpt>
      <trkpt lat="37.11434820" lon="-8.65550388">
        <ele>5.0000000</ele>
        <time>2010-01-01T02:11:07Z</time>
      </trkpt>
      <trkpt lat="37.11293600" lon="-8.65776313">
        <ele>5.0000000</ele>
        <time>2010-01-01T02:12:38Z</time>
      </trkpt>
      <trkpt lat="37.11277810" lon="-8.65801574">
        <ele>5.0000000</ele>
        <time>2010-01-01T02:12:49Z</time>
      </trkpt>
      <trkpt lat="37.11206950" lon="-8.65914944">
        <ele>5.0000000</ele>
        <time>2010-01-01T02:13:35Z</time>
      </trkpt>
      <trkpt lat="37.11194740" lon="-8.65934485">
        <ele>5.0000000</ele>
        <time>2010-01-01T02:13:43Z</time>
      </trkpt>
      <trkpt lat="37.11186300" lon="-8.65947982">
        <ele>4.0000000</ele>
        <time>2010-01-01T02:13:48Z</time>
      </trkpt>
      <trkpt lat="37.11174900" lon="-8.65966218">
        <ele>4.0000000</ele>
        <time>2010-01-01T02:13:55Z</time>
      </trkpt>
      <trkpt lat="37.11156060" lon="-8.65996362">
        <ele>4.0000000</ele>
        <time>2010-01-01T02:14:08Z</time>
      </trkpt>
      <trkpt lat="37.11127300" lon="-8.66042375">
        <ele>6.0000000</ele>
        <time>2010-01-01T02:14:26Z</time>
      </trkpt>
      <trkpt lat="37.11139140" lon="-8.66057223">
        <ele>5.0000000</ele>
        <time>2010-01-01T02:14:33Z</time>
      </trkpt>
      <trkpt lat="37.11155540" lon="-8.66077780">
        <ele>5.0000000</ele>
        <time>2010-01-01T02:14:42Z</time>
      </trkpt>
      <trkpt lat="37.11145540" lon="-8.66093792">
        <ele>5.0000000</ele>
        <time>2010-01-01T02:14:49Z</time>
      </trkpt>
      <trkpt lat="37.11138370" lon="-8.66105293">
        <ele>6.0000000</ele>
        <time>2010-01-01T02:14:53Z</time>
      </trkpt>
      <trkpt lat="37.11123400" lon="-8.66129288">
        <ele>5.0000000</ele>
        <time>2010-01-01T02:15:03Z</time>
      </trkpt>
      <trkpt lat="37.11119510" lon="-8.66135518">
        <ele>5.0000000</ele>
        <time>2010-01-01T02:15:06Z</time>
      </trkpt>
      <trkpt lat="37.11114010" lon="-8.66144338">
        <ele>5.0000000</ele>
        <time>2010-01-01T02:15:09Z</time>
      </trkpt>
      <trkpt lat="37.11106340" lon="-8.66156637">
        <ele>5.0000000</ele>
        <time>2010-01-01T02:15:14Z</time>
      </trkpt>
      <trkpt lat="37.11094440" lon="-8.66145451">
        <ele>5.0000000</ele>
        <time>2010-01-01T02:15:20Z</time>
      </trkpt>
      <trkpt lat="37.11073830" lon="-8.66126060">
        <ele>6.0000000</ele>
        <time>2010-01-01T02:15:31Z</time>
      </trkpt>
      <trkpt lat="37.11066700" lon="-8.66138412">
        <ele>6.0000000</ele>
        <time>2010-01-01T02:15:35Z</time>
      </trkpt>
      <trkpt lat="37.11063910" lon="-8.66143244">
        <ele>5.0000000</ele>
        <time>2010-01-01T02:15:37Z</time>
      </trkpt>
      <trkpt lat="37.11050390" lon="-8.66166672">
        <ele>4.0000000</ele>
        <time>2010-01-01T02:15:47Z</time>
      </trkpt>
      <trkpt lat="37.11018260" lon="-8.66222332">
        <ele>2.0000000</ele>
        <time>2010-01-01T02:16:08Z</time>
      </trkpt>
      <trkpt lat="37.11013780" lon="-8.66230092">
        <ele>2.0000000</ele>
        <time>2010-01-01T02:16:12Z</time>
      </trkpt>
      <trkpt lat="37.11003240" lon="-8.66248369">
        <ele>2.0000000</ele>
        <time>2010-01-01T02:16:19Z</time>
      </trkpt>
      <trkpt lat="37.11011130" lon="-8.66326763">
        <ele>4.0000000</ele>
        <time>2010-01-01T02:16:44Z</time>
      </trkpt>
      <trkpt lat="37.11012670" lon="-8.66342048">
        <ele>4.0000000</ele>
        <time>2010-01-01T02:16:49Z</time>
      </trkpt>
      <trkpt lat="37.11019260" lon="-8.66407534">
        <ele>2.0000000</ele>
        <time>2010-01-01T02:17:10Z</time>
      </trkpt>
      <trkpt lat="37.11022800" lon="-8.66442697">
        <ele>1.0000000</ele>
        <time>2010-01-01T02:17:21Z</time>
      </trkpt>
      <trkpt lat="37.11031000" lon="-8.66524217">
        <ele>3.0000000</ele>
        <time>2010-01-01T02:17:48Z</time>
      </trkpt>
      <trkpt lat="37.11031050" lon="-8.66524636">
        <ele>3.0000000</ele>
        <time>2010-01-01T02:17:48Z</time>
      </trkpt>
      <trkpt lat="37.11008000" lon="-8.66529000">
        <ele>3.0000000</ele>
        <time>2010-01-01T02:17:57Z</time>
      </trkpt>
      <trkpt lat="37.11009070" lon="-8.66539453">
        <ele>2.0000000</ele>
        <time>2010-01-01T02:18:00Z</time>
      </trkpt>
      <trkpt lat="37.11019460" lon="-8.66640527">
        <ele>1.0000000</ele>
        <time>2010-01-01T02:18:33Z</time>
      </trkpt>
      <trkpt lat="37.11020090" lon="-8.66646664">
        <ele>1.0000000</ele>
        <time>2010-01-01T02:18:35Z</time>
      </trkpt>
      <trkpt lat="37.11028960" lon="-8.66732921">
        <ele>2.0000000</ele>
        <time>2010-01-01T02:19:03Z</time>
      </trkpt>
      <trkpt lat="37.11030400" lon="-8.66746900">
        <ele>2.0000000</ele>
        <time>2010-01-01T02:19:07Z</time>
      </trkpt>
      <trkpt lat="37.11040170" lon="-8.66841984">
        <ele>2.0000000</ele>
        <time>2010-01-01T02:19:38Z</time>
      </trkpt>
      <trkpt lat="37.11041960" lon="-8.66859359">
        <ele>2.0000000</ele>
        <time>2010-01-01T02:19:43Z</time>
      </trkpt>
      <trkpt lat="37.11050180" lon="-8.66939379">
        <ele>2.0000000</ele>
        <time>2010-01-01T02:20:09Z</time>
      </trkpt>
      <trkpt lat="37.11051890" lon="-8.66955990">
        <ele>2.0000000</ele>
        <time>2010-01-01T02:20:14Z</time>
      </trkpt>
      <trkpt lat="37.11052000" lon="-8.66957000">
        <ele>2.0000000</ele>
        <time>2010-01-01T02:20:15Z</time>
      </trkpt>
      <trkpt lat="37.11052000" lon="-8.66962000">
        <ele>2.0000000</ele>
        <time>2010-01-01T02:20:16Z</time>
      </trkpt>
      <trkpt lat="37.11069000" lon="-8.66960000">
        <ele>2.0000000</ele>
        <time>2010-01-01T02:20:23Z</time>
      </trkpt>
      <trkpt lat="37.11081880" lon="-8.67047639">
        <ele>3.0000000</ele>
        <time>2010-01-01T02:20:52Z</time>
      </trkpt>
      <trkpt lat="37.11084000" lon="-8.67062000">
        <ele>3.0000000</ele>
        <time>2010-01-01T02:20:56Z</time>
      </trkpt>
      <trkpt lat="37.11088930" lon="-8.67073897">
        <ele>3.0000000</ele>
        <time>2010-01-01T02:21:01Z</time>
      </trkpt>
      <trkpt lat="37.11101000" lon="-8.67103000">
        <ele>2.0000000</ele>
        <time>2010-01-01T02:21:11Z</time>
      </trkpt>
      <trkpt lat="37.11113140" lon="-8.67124954">
        <ele>3.0000000</ele>
        <time>2010-01-01T02:21:20Z</time>
      </trkpt>
      <trkpt lat="37.11118650" lon="-8.67134913">
        <ele>3.0000000</ele>
        <time>2010-01-01T02:21:23Z</time>
      </trkpt>
      <trkpt lat="37.11127000" lon="-8.67150000">
        <ele>3.0000000</ele>
        <time>2010-01-01T02:21:29Z</time>
      </trkpt>
      <trkpt lat="37.11138000" lon="-8.67173000">
        <ele>3.0000000</ele>
        <time>2010-01-01T02:21:38Z</time>
      </trkpt>
      <trkpt lat="37.11143000" lon="-8.67169000">
        <ele>4.0000000</ele>
        <time>2010-01-01T02:21:40Z</time>
      </trkpt>
      <trkpt lat="37.11148000" lon="-8.67168000">
        <ele>4.0000000</ele>
        <time>2010-01-01T02:21:42Z</time>
      </trkpt>
      <trkpt lat="37.11156280" lon="-8.67171013">
        <ele>5.0000000</ele>
        <time>2010-01-01T02:21:46Z</time>
      </trkpt>
      <trkpt lat="37.11159000" lon="-8.67172000">
        <ele>5.0000000</ele>
        <time>2010-01-01T02:21:47Z</time>
      </trkpt>
      <trkpt lat="37.11164000" lon="-8.67180000">
        <ele>5.0000000</ele>
        <time>2010-01-01T02:21:50Z</time>
      </trkpt>
      <trkpt lat="37.11166000" lon="-8.67184000">
        <ele>5.0000000</ele>
        <time>2010-01-01T02:21:52Z</time>
      </trkpt>
      <trkpt lat="37.11167000" lon="-8.67193000">
        <ele>5.0000000</ele>
        <time>2010-01-01T02:21:54Z</time>
      </trkpt>
      <trkpt lat="37.11165000" lon="-8.67201000">
        <ele>4.0000000</ele>
        <time>2010-01-01T02:21:57Z</time>
      </trkpt>
      <trkpt lat="37.11159000" lon="-8.67210000">
        <ele>4.0000000</ele>
        <time>2010-01-01T02:22:01Z</time>
      </trkpt>
      <trkpt lat="37.11156390" lon="-8.67210945">
        <ele>4.0000000</ele>
        <time>2010-01-01T02:22:02Z</time>
      </trkpt>
      <trkpt lat="37.11148000" lon="-8.67214000">
        <ele>3.0000000</ele>
        <time>2010-01-01T02:22:05Z</time>
      </trkpt>
      <trkpt lat="37.11140000" lon="-8.67211000">
        <ele>3.0000000</ele>
        <time>2010-01-01T02:22:09Z</time>
      </trkpt>
      <trkpt lat="37.11135000" lon="-8.67205000">
        <ele>3.0000000</ele>
        <time>2010-01-01T02:22:12Z</time>
      </trkpt>
      <trkpt lat="37.11134180" lon="-8.67205893">
        <ele>3.0000000</ele>
        <time>2010-01-01T02:22:12Z</time>
      </trkpt>
      <trkpt lat="37.11124000" lon="-8.67217000">
        <ele>2.0000000</ele>
        <time>2010-01-01T02:22:17Z</time>
      </trkpt>
      <trkpt lat="37.11108350" lon="-8.67231206">
        <ele>1.0000000</ele>
        <time>2010-01-01T02:22:25Z</time>
      </trkpt>
      <trkpt lat="37.11095730" lon="-8.67242662">
        <ele>0.0000000</ele>
        <time>2010-01-01T02:22:31Z</time>
      </trkpt>
      <trkpt lat="37.11085340" lon="-8.67252095">
        <ele>-1.000000</ele>
        <time>2010-01-01T02:22:37Z</time>
      </trkpt>
      <trkpt lat="37.11073160" lon="-8.67263154">
        <ele>0.0000000</ele>
        <time>2010-01-01T02:22:43Z</time>
      </trkpt>
      <trkpt lat="37.11048890" lon="-8.67285185">
        <ele>2.0000000</ele>
        <time>2010-01-01T02:22:55Z</time>
      </trkpt>
      <trkpt lat="37.11048000" lon="-8.67286000">
        <ele>2.0000000</ele>
        <time>2010-01-01T02:22:55Z</time>
      </trkpt>
      <trkpt lat="37.11036430" lon="-8.67297344">
        <ele>4.0000000</ele>
        <time>2010-01-01T02:23:01Z</time>
      </trkpt>
      <trkpt lat="37.11009800" lon="-8.67323464">
        <ele>4.0000000</ele>
        <time>2010-01-01T02:23:14Z</time>
      </trkpt>
      <trkpt lat="37.10996000" lon="-8.67337000">
        <ele>3.0000000</ele>
        <time>2010-01-01T02:23:21Z</time>
      </trkpt>
      <trkpt lat="37.10990180" lon="-8.67339683">
        <ele>3.0000000</ele>
        <time>2010-01-01T02:23:24Z</time>
      </trkpt>
      <trkpt lat="37.10983000" lon="-8.67343000">
        <ele>2.0000000</ele>
        <time>2010-01-01T02:23:27Z</time>
      </trkpt>
      <trkpt lat="37.10968000" lon="-8.67339000">
        <ele>0.0000000</ele>
        <time>2010-01-01T02:23:33Z</time>
      </trkpt>
      <trkpt lat="37.10954270" lon="-8.67329139">
        <ele>0.0000000</ele>
        <time>2010-01-01T02:23:39Z</time>
      </trkpt>
      <trkpt lat="37.10948540" lon="-8.67325028">
        <ele>0.0000000</ele>
        <time>2010-01-01T02:23:42Z</time>
      </trkpt>
      <trkpt lat="37.10932730" lon="-8.67313665">
        <ele>1.0000000</ele>
        <time>2010-01-01T02:23:49Z</time>
      </trkpt>
      <trkpt lat="37.10913560" lon="-8.67299897">
        <ele>2.0000000</ele>
        <time>2010-01-01T02:23:58Z</time>
      </trkpt>
      <trkpt lat="37.10897000" lon="-8.67288000">
        <ele>2.0000000</ele>
        <time>2010-01-01T02:24:06Z</time>
      </trkpt>
      <trkpt lat="37.10890130" lon="-8.67284183">
        <ele>2.0000000</ele>
        <time>2010-01-01T02:24:09Z</time>
      </trkpt>
      <trkpt lat="37.10888000" lon="-8.67283000">
        <ele>2.0000000</ele>
        <time>2010-01-01T02:24:10Z</time>
      </trkpt>
      <trkpt lat="37.10877000" lon="-8.67281000">
        <ele>3.0000000</ele>
        <time>2010-01-01T02:24:14Z</time>
      </trkpt>
      <trkpt lat="37.10872670" lon="-8.67280025">
        <ele>3.0000000</ele>
        <time>2010-01-01T02:24:16Z</time>
      </trkpt>
      <trkpt lat="37.10845810" lon="-8.67295503">
        <ele>2.0000000</ele>
        <time>2010-01-01T02:24:28Z</time>
      </trkpt>
      <trkpt lat="37.10812560" lon="-8.67366883">
        <ele>-1.000000</ele>
        <time>2010-01-01T02:24:54Z</time>
      </trkpt>
      <trkpt lat="37.10789340" lon="-8.67416739">
        <ele>-2.000000</ele>
        <time>2010-01-01T02:25:13Z</time>
      </trkpt>
      <trkpt lat="37.10779210" lon="-8.67434841">
        <ele>-2.000000</ele>
        <time>2010-01-01T02:25:20Z</time>
      </trkpt>
      <trkpt lat="37.10779070" lon="-8.67435085">
        <ele>-2.000000</ele>
        <time>2010-01-01T02:25:20Z</time>
      </trkpt>
      <trkpt lat="37.10749120" lon="-8.67488622">
        <ele>1.0000000</ele>
        <time>2010-01-01T02:25:41Z</time>
      </trkpt>
      <trkpt lat="37.10742180" lon="-8.67501234">
        <ele>1.0000000</ele>
        <time>2010-01-01T02:25:46Z</time>
      </trkpt>
      <trkpt lat="37.10731630" lon="-8.67493345">
        <ele>1.0000000</ele>
        <time>2010-01-01T02:25:51Z</time>
      </trkpt>
      <trkpt lat="37.10720700" lon="-8.67485171">
        <ele>0.0000000</ele>
        <time>2010-01-01T02:25:56Z</time>
      </trkpt>
      <trkpt lat="37.10702260" lon="-8.67471380">
        <ele>0.0000000</ele>
        <time>2010-01-01T02:26:04Z</time>
      </trkpt>
      <trkpt lat="37.10669280" lon="-8.67446711">
        <ele>0.0000000</ele>
        <time>2010-01-01T02:26:20Z</time>
      </trkpt>
      <trkpt lat="37.10667000" lon="-8.67445000">
        <ele>0.0000000</ele>
        <time>2010-01-01T02:26:21Z</time>
      </trkpt>
      <trkpt lat="37.10663590" lon="-8.67442672">
        <ele>-1.000000</ele>
        <time>2010-01-01T02:26:22Z</time>
      </trkpt>
      <trkpt lat="37.10616710" lon="-8.67410584">
        <ele>1.0000000</ele>
        <time>2010-01-01T02:26:44Z</time>
      </trkpt>
      <trkpt lat="37.10579280" lon="-8.67384964">
        <ele>4.0000000</ele>
        <time>2010-01-01T02:27:01Z</time>
      </trkpt>
      <trkpt lat="37.10547660" lon="-8.67363318">
        <ele>4.0000000</ele>
        <time>2010-01-01T02:27:15Z</time>
      </trkpt>
      <trkpt lat="37.10512530" lon="-8.67339279">
        <ele>3.0000000</ele>
        <time>2010-01-01T02:27:31Z</time>
      </trkpt>
      <trkpt lat="37.10467370" lon="-8.67308366">
        <ele>3.0000000</ele>
        <time>2010-01-01T02:27:52Z</time>
      </trkpt>
      <trkpt lat="37.10456980" lon="-8.67301256">
        <ele>3.0000000</ele>
        <time>2010-01-01T02:27:56Z</time>
      </trkpt>
      <trkpt lat="37.10442000" lon="-8.67291000">
        <ele>4.0000000</ele>
        <time>2010-01-01T02:28:03Z</time>
      </trkpt>
      <trkpt lat="37.10400000" lon="-8.67264000">
        <ele>4.0000000</ele>
        <time>2010-01-01T02:28:22Z</time>
      </trkpt>
      <trkpt lat="37.10399990" lon="-8.67263995">
        <ele>4.0000000</ele>
        <time>2010-01-01T02:28:22Z</time>
      </trkpt>
      <trkpt lat="37.10394720" lon="-8.67259895">
        <ele>4.0000000</ele>
        <time>2010-01-01T02:28:25Z</time>
      </trkpt>
      <trkpt lat="37.10364000" lon="-8.67236000">
        <ele>2.0000000</ele>
        <time>2010-01-01T02:28:39Z</time>
      </trkpt>
      <trkpt lat="37.10342150" lon="-8.67221356">
        <ele>1.0000000</ele>
        <time>2010-01-01T02:28:49Z</time>
      </trkpt>
      <trkpt lat="37.10327910" lon="-8.67211809">
        <ele>1.0000000</ele>
        <time>2010-01-01T02:28:55Z</time>
      </trkpt>
      <trkpt lat="37.10282660" lon="-8.67181465">
        <ele>3.0000000</ele>
        <time>2010-01-01T02:29:16Z</time>
      </trkpt>
      <trkpt lat="37.10281260" lon="-8.67180527">
        <ele>3.0000000</ele>
        <time>2010-01-01T02:29:17Z</time>
      </trkpt>
      <trkpt lat="37.10276000" lon="-8.67177000">
        <ele>3.0000000</ele>
        <time>2010-01-01T02:29:19Z</time>
      </trkpt>
      <trkpt lat="37.10228000" lon="-8.67138000">
        <ele>3.0000000</ele>
        <time>2010-01-01T02:29:42Z</time>
      </trkpt>
      <trkpt lat="37.10227440" lon="-8.67137504">
        <ele>3.0000000</ele>
        <time>2010-01-01T02:29:42Z</time>
      </trkpt>
      <trkpt lat="37.10226090" lon="-8.67136303">
        <ele>3.0000000</ele>
        <time>2010-01-01T02:29:43Z</time>
      </trkpt>
      <trkpt lat="37.10175080" lon="-8.67090753">
        <ele>1.0000000</ele>
        <time>2010-01-01T02:30:08Z</time>
      </trkpt>
      <trkpt lat="37.10155670" lon="-8.67073424">
        <ele>2.0000000</ele>
        <time>2010-01-01T02:30:17Z</time>
      </trkpt>
      <trkpt lat="37.10144000" lon="-8.67063000">
        <ele>2.0000000</ele>
        <time>2010-01-01T02:30:23Z</time>
      </trkpt>
      <trkpt lat="37.10123190" lon="-8.67042193">
        <ele>2.0000000</ele>
        <time>2010-01-01T02:30:34Z</time>
      </trkpt>
      <trkpt lat="37.10104200" lon="-8.67023202">
        <ele>3.0000000</ele>
        <time>2010-01-01T02:30:44Z</time>
      </trkpt>
      <trkpt lat="37.10057180" lon="-8.66976183">
        <ele>4.0000000</ele>
        <time>2010-01-01T02:31:08Z</time>
      </trkpt>
      <trkpt lat="37.10047000" lon="-8.66966000">
        <ele>3.0000000</ele>
        <time>2010-01-01T02:31:13Z</time>
      </trkpt>
      <trkpt lat="37.10044000" lon="-8.66960000">
        <ele>3.0000000</ele>
        <time>2010-01-01T02:31:15Z</time>
      </trkpt>
      <trkpt lat="37.10021980" lon="-8.66940528">
        <ele>3.0000000</ele>
        <time>2010-01-01T02:31:26Z</time>
      </trkpt>
      <trkpt lat="37.09992000" lon="-8.66914000">
        <ele>4.0000000</ele>
        <time>2010-01-01T02:31:41Z</time>
      </trkpt>
      <trkpt lat="37.09984250" lon="-8.66910740">
        <ele>4.0000000</ele>
        <time>2010-01-01T02:31:44Z</time>
      </trkpt>
      <trkpt lat="37.09954000" lon="-8.66898000">
        <ele>3.0000000</ele>
        <time>2010-01-01T02:31:57Z</time>
      </trkpt>
      <trkpt lat="37.09924450" lon="-8.66890014">
        <ele>5.0000000</ele>
        <time>2010-01-01T02:32:09Z</time>
      </trkpt>
      <trkpt lat="37.09917000" lon="-8.66888000">
        <ele>5.0000000</ele>
        <time>2010-01-01T02:32:12Z</time>
      </trkpt>
      <trkpt lat="37.09898310" lon="-8.66881639">
        <ele>6.0000000</ele>
        <time>2010-01-01T02:32:20Z</time>
      </trkpt>
      <trkpt lat="37.09870000" lon="-8.66872000">
        <ele>7.0000000</ele>
        <time>2010-01-01T02:32:31Z</time>
      </trkpt>
      <trkpt lat="37.09847050" lon="-8.66870535">
        <ele>9.0000000</ele>
        <time>2010-01-01T02:32:41Z</time>
      </trkpt>
      <trkpt lat="37.09811700" lon="-8.66868278">
        <ele>13.000000</ele>
        <time>2010-01-01T02:32:55Z</time>
      </trkpt>
      <trkpt lat="37.09768040" lon="-8.66865492">
        <ele>14.000000</ele>
        <time>2010-01-01T02:33:12Z</time>
      </trkpt>
      <trkpt lat="37.09729000" lon="-8.66863000">
        <ele>17.000000</ele>
        <time>2010-01-01T02:33:28Z</time>
      </trkpt>
      <trkpt lat="37.09724630" lon="-8.66863174">
        <ele>17.000000</ele>
        <time>2010-01-01T02:33:30Z</time>
      </trkpt>
      <trkpt lat="37.09713760" lon="-8.66863609">
        <ele>19.000000</ele>
        <time>2010-01-01T02:33:34Z</time>
      </trkpt>
      <trkpt lat="37.09679000" lon="-8.66865000">
        <ele>21.000000</ele>
        <time>2010-01-01T02:33:48Z</time>
      </trkpt>
      <trkpt lat="37.09653000" lon="-8.66874000">
        <ele>22.000000</ele>
        <time>2010-01-01T02:33:59Z</time>
      </trkpt>
      <trkpt lat="37.09650270" lon="-8.66876045">
        <ele>23.000000</ele>
        <time>2010-01-01T02:34:00Z</time>
      </trkpt>
      <trkpt lat="37.09650250" lon="-8.66876056">
        <ele>23.000000</ele>
        <time>2010-01-01T02:34:00Z</time>
      </trkpt>
      <trkpt lat="37.09625000" lon="-8.66895000">
        <ele>25.000000</ele>
        <time>2010-01-01T02:34:12Z</time>
      </trkpt>
      <trkpt lat="37.09602610" lon="-8.66916552">
        <ele>27.000000</ele>
        <time>2010-01-01T02:34:23Z</time>
      </trkpt>
      <trkpt lat="37.09598000" lon="-8.66921000">
        <ele>27.000000</ele>
        <time>2010-01-01T02:34:25Z</time>
      </trkpt>
      <trkpt lat="37.09593870" lon="-8.66926501">
        <ele>28.000000</ele>
        <time>2010-01-01T02:34:28Z</time>
      </trkpt>
      <trkpt lat="37.09580000" lon="-8.66945000">
        <ele>30.000000</ele>
        <time>2010-01-01T02:34:36Z</time>
      </trkpt>
      <trkpt lat="37.09567000" lon="-8.66976000">
        <ele>34.000000</ele>
        <time>2010-01-01T02:34:47Z</time>
      </trkpt>
      <trkpt lat="37.09555000" lon="-8.67015000">
        <ele>35.000000</ele>
        <time>2010-01-01T02:35:00Z</time>
      </trkpt>
      <trkpt lat="37.09549000" lon="-8.67064000">
        <ele>35.000000</ele>
        <time>2010-01-01T02:35:16Z</time>
      </trkpt>
      <trkpt lat="37.09548480" lon="-8.67117397">
        <ele>34.000000</ele>
        <time>2010-01-01T02:35:33Z</time>
      </trkpt>
      <trkpt lat="37.09548470" lon="-8.67118919">
        <ele>34.000000</ele>
        <time>2010-01-01T02:35:34Z</time>
      </trkpt>
      <trkpt lat="37.09548190" lon="-8.67148098">
        <ele>32.000000</ele>
        <time>2010-01-01T02:35:43Z</time>
      </trkpt>
      <trkpt lat="37.09548000" lon="-8.67168000">
        <ele>32.000000</ele>
        <time>2010-01-01T02:35:49Z</time>
      </trkpt>
      <trkpt lat="37.09545000" lon="-8.67213000">
        <ele>32.000000</ele>
        <time>2010-01-01T02:36:04Z</time>
      </trkpt>
      <trkpt lat="37.09544710" lon="-8.67223070">
        <ele>32.000000</ele>
        <time>2010-01-01T02:36:07Z</time>
      </trkpt>
      <trkpt lat="37.09543000" lon="-8.67284000">
        <ele>35.000000</ele>
        <time>2010-01-01T02:36:27Z</time>
      </trkpt>
      <trkpt lat="37.09542680" lon="-8.67317236">
        <ele>38.000000</ele>
        <time>2010-01-01T02:36:37Z</time>
      </trkpt>
      <trkpt lat="37.09542660" lon="-8.67319150">
        <ele>38.000000</ele>
        <time>2010-01-01T02:36:38Z</time>
      </trkpt>
      <trkpt lat="37.09541750" lon="-8.67413597">
        <ele>41.000000</ele>
        <time>2010-01-01T02:37:08Z</time>
      </trkpt>
      <trkpt lat="37.09541420" lon="-8.67448246">
        <ele>42.000000</ele>
        <time>2010-01-01T02:37:19Z</time>
      </trkpt>
      <trkpt lat="37.09541300" lon="-8.67460727">
        <ele>42.000000</ele>
        <time>2010-01-01T02:37:23Z</time>
      </trkpt>
      <trkpt lat="37.09541750" lon="-8.67461103">
        <ele>42.000000</ele>
        <time>2010-01-01T02:37:23Z</time>
      </trkpt>
      <trkpt lat="37.09535000" lon="-8.67464000">
        <ele>43.000000</ele>
        <time>2010-01-01T02:37:26Z</time>
      </trkpt>
      <trkpt lat="37.09528000" lon="-8.67471000">
        <ele>43.000000</ele>
        <time>2010-01-01T02:37:30Z</time>
      </trkpt>
      <trkpt lat="37.09525300" lon="-8.67482699">
        <ele>44.000000</ele>
        <time>2010-01-01T02:37:33Z</time>
      </trkpt>
      <trkpt lat="37.09525040" lon="-8.67482185">
        <ele>44.000000</ele>
        <time>2010-01-01T02:37:34Z</time>
      </trkpt>
      <trkpt lat="37.09505770" lon="-8.67481899">
        <ele>44.000000</ele>
        <time>2010-01-01T02:37:41Z</time>
      </trkpt>
      <trkpt lat="37.09458980" lon="-8.67481207">
        <ele>46.000000</ele>
        <time>2010-01-01T02:38:00Z</time>
      </trkpt>
      <trkpt lat="37.09454690" lon="-8.67481143">
        <ele>46.000000</ele>
        <time>2010-01-01T02:38:02Z</time>
      </trkpt>
      <trkpt lat="37.09445000" lon="-8.67481000">
        <ele>47.000000</ele>
        <time>2010-01-01T02:38:06Z</time>
      </trkpt>
      <trkpt lat="37.09437540" lon="-8.67480457">
        <ele>47.000000</ele>
        <time>2010-01-01T02:38:09Z</time>
      </trkpt>
      <trkpt lat="37.09393320" lon="-8.67477241">
        <ele>48.000000</ele>
        <time>2010-01-01T02:38:26Z</time>
      </trkpt>
      <trkpt lat="37.09390000" lon="-8.67477000">
        <ele>48.000000</ele>
        <time>2010-01-01T02:38:28Z</time>
      </trkpt>
      <trkpt lat="37.09389560" lon="-8.67476753">
        <ele>48.000000</ele>
        <time>2010-01-01T02:38:28Z</time>
      </trkpt>
      <trkpt lat="37.09369000" lon="-8.67465000">
        <ele>49.000000</ele>
        <time>2010-01-01T02:38:37Z</time>
      </trkpt>
      <trkpt lat="37.09357920" lon="-8.67504196">
        <ele>49.000000</ele>
        <time>2010-01-01T02:38:50Z</time>
      </trkpt>
      <trkpt lat="37.09343000" lon="-8.67557000">
        <ele>49.000000</ele>
        <time>2010-01-01T02:39:08Z</time>
      </trkpt>
      <trkpt lat="37.09340470" lon="-8.67565184">
        <ele>49.000000</ele>
        <time>2010-01-01T02:39:11Z</time>
      </trkpt>
      <trkpt lat="37.09304360" lon="-8.67682380">
        <ele>49.000000</ele>
        <time>2010-01-01T02:39:51Z</time>
      </trkpt>
      <trkpt lat="37.09294000" lon="-8.67716000">
        <ele>50.000000</ele>
        <time>2010-01-01T02:40:03Z</time>
      </trkpt>
      <trkpt lat="37.09292320" lon="-8.67723273">
        <ele>50.000000</ele>
        <time>2010-01-01T02:40:05Z</time>
      </trkpt>
      <trkpt lat="37.09276510" lon="-8.67792061">
        <ele>55.000000</ele>
        <time>2010-01-01T02:40:28Z</time>
      </trkpt>
      <trkpt lat="37.09274000" lon="-8.67803000">
        <ele>58.000000</ele>
        <time>2010-01-01T02:40:32Z</time>
      </trkpt>
      <trkpt lat="37.09278000" lon="-8.67806000">
        <ele>59.000000</ele>
        <time>2010-01-01T02:40:33Z</time>
      </trkpt>
      <trkpt lat="37.09306170" lon="-8.67827165">
        <ele>64.000000</ele>
        <time>2010-01-01T02:40:47Z</time>
      </trkpt>
      <trkpt lat="37.09360410" lon="-8.67867904">
        <ele>61.000000</ele>
        <time>2010-01-01T02:41:12Z</time>
      </trkpt>
      <trkpt lat="37.09365360" lon="-8.67871623">
        <ele>62.000000</ele>
        <time>2010-01-01T02:41:14Z</time>
      </trkpt>
      <trkpt lat="37.09420100" lon="-8.67912743">
        <ele>63.000000</ele>
        <time>2010-01-01T02:41:40Z</time>
      </trkpt>
      <trkpt lat="37.09422480" lon="-8.67914529">
        <ele>63.000000</ele>
        <time>2010-01-01T02:41:41Z</time>
      </trkpt>
      <trkpt lat="37.09470040" lon="-8.67950255">
        <ele>66.000000</ele>
        <time>2010-01-01T02:42:03Z</time>
      </trkpt>
      <trkpt lat="37.09491000" lon="-8.67966000">
        <ele>62.000000</ele>
        <time>2010-01-01T02:42:13Z</time>
      </trkpt>
      <trkpt lat="37.09494570" lon="-8.67968532">
        <ele>61.000000</ele>
        <time>2010-01-01T02:42:14Z</time>
      </trkpt>
      <trkpt lat="37.09539530" lon="-8.68000355">
        <ele>57.000000</ele>
        <time>2010-01-01T02:42:35Z</time>
      </trkpt>
      <trkpt lat="37.09546740" lon="-8.68005462">
        <ele>56.000000</ele>
        <time>2010-01-01T02:42:38Z</time>
      </trkpt>
      <trkpt lat="37.09580000" lon="-8.68029000">
        <ele>56.000000</ele>
        <time>2010-01-01T02:42:54Z</time>
      </trkpt>
      <trkpt lat="37.09584740" lon="-8.68031074">
        <ele>56.000000</ele>
        <time>2010-01-01T02:42:56Z</time>
      </trkpt>
      <trkpt lat="37.09596000" lon="-8.68036000">
        <ele>55.000000</ele>
        <time>2010-01-01T02:43:00Z</time>
      </trkpt>
      <trkpt lat="37.09596000" lon="-8.68044000">
        <ele>56.000000</ele>
        <time>2010-01-01T02:43:03Z</time>
      </trkpt>
      <trkpt lat="37.09600000" lon="-8.68056000">
        <ele>57.000000</ele>
        <time>2010-01-01T02:43:07Z</time>
      </trkpt>
      <trkpt lat="37.09605000" lon="-8.68060000">
        <ele>57.000000</ele>
        <time>2010-01-01T02:43:10Z</time>
      </trkpt>
      <trkpt lat="37.09611000" lon="-8.68061000">
        <ele>57.000000</ele>
        <time>2010-01-01T02:43:12Z</time>
      </trkpt>
      <trkpt lat="37.09616000" lon="-8.68061000">
        <ele>57.000000</ele>
        <time>2010-01-01T02:43:14Z</time>
      </trkpt>
      <trkpt lat="37.09622490" lon="-8.68056363">
        <ele>56.000000</ele>
        <time>2010-01-01T02:43:17Z</time>
      </trkpt>
      <trkpt lat="37.09622780" lon="-8.68056153">
        <ele>56.000000</ele>
        <time>2010-01-01T02:43:17Z</time>
      </trkpt>
      <trkpt lat="37.09630000" lon="-8.68066000">
        <ele>56.000000</ele>
        <time>2010-01-01T02:43:21Z</time>
      </trkpt>
      <trkpt lat="37.09685000" lon="-8.68127000">
        <ele>57.000000</ele>
        <time>2010-01-01T02:43:51Z</time>
      </trkpt>
      <trkpt lat="37.09722000" lon="-8.68143000">
        <ele>55.000000</ele>
        <time>2010-01-01T02:44:06Z</time>
      </trkpt>
      <trkpt lat="37.09766000" lon="-8.68155000">
        <ele>46.000000</ele>
        <time>2010-01-01T02:44:24Z</time>
      </trkpt>
      <trkpt lat="37.09771580" lon="-8.68156809">
        <ele>46.000000</ele>
        <time>2010-01-01T02:44:27Z</time>
      </trkpt>
      <trkpt lat="37.09792670" lon="-8.68163640">
        <ele>46.000000</ele>
        <time>2010-01-01T02:44:36Z</time>
      </trkpt>
      <trkpt lat="37.09837000" lon="-8.68178000">
        <ele>48.000000</ele>
        <time>2010-01-01T02:44:54Z</time>
      </trkpt>
      <trkpt lat="37.09838900" lon="-8.68179303">
        <ele>47.000000</ele>
        <time>2010-01-01T02:44:55Z</time>
      </trkpt>
      <trkpt lat="37.09856000" lon="-8.68191000">
        <ele>47.000000</ele>
        <time>2010-01-01T02:45:02Z</time>
      </trkpt>
      <trkpt lat="37.09875000" lon="-8.68266000">
        <ele>45.000000</ele>
        <time>2010-01-01T02:45:28Z</time>
      </trkpt>
      <trkpt lat="37.09891140" lon="-8.68355861">
        <ele>43.000000</ele>
        <time>2010-01-01T02:45:57Z</time>
      </trkpt>
      <trkpt lat="37.09905000" lon="-8.68433000">
        <ele>46.000000</ele>
        <time>2010-01-01T02:46:22Z</time>
      </trkpt>
      <trkpt lat="37.09906600" lon="-8.68524113">
        <ele>46.000000</ele>
        <time>2010-01-01T02:46:51Z</time>
      </trkpt>
      <trkpt lat="37.09906800" lon="-8.68535358">
        <ele>47.000000</ele>
        <time>2010-01-01T02:46:55Z</time>
      </trkpt>
      <trkpt lat="37.09908000" lon="-8.68603000">
        <ele>46.000000</ele>
        <time>2010-01-01T02:47:17Z</time>
      </trkpt>
      <trkpt lat="37.09906000" lon="-8.68633000">
        <ele>47.000000</ele>
        <time>2010-01-01T02:47:26Z</time>
      </trkpt>
      <trkpt lat="37.09893000" lon="-8.68708000">
        <ele>42.000000</ele>
        <time>2010-01-01T02:47:51Z</time>
      </trkpt>
      <trkpt lat="37.09891000" lon="-8.68736000">
        <ele>42.000000</ele>
        <time>2010-01-01T02:48:00Z</time>
      </trkpt>
      <trkpt lat="37.09902530" lon="-8.68790957">
        <ele>40.000000</ele>
        <time>2010-01-01T02:48:18Z</time>
      </trkpt>
      <trkpt lat="37.09903510" lon="-8.68795606">
        <ele>39.000000</ele>
        <time>2010-01-01T02:48:19Z</time>
      </trkpt>
      <trkpt lat="37.09908000" lon="-8.68817000">
        <ele>38.000000</ele>
        <time>2010-01-01T02:48:26Z</time>
      </trkpt>
      <trkpt lat="37.09913550" lon="-8.68824899">
        <ele>38.000000</ele>
        <time>2010-01-01T02:48:30Z</time>
      </trkpt>
      <trkpt lat="37.09920000" lon="-8.68834000">
        <ele>38.000000</ele>
        <time>2010-01-01T02:48:34Z</time>
      </trkpt>
      <trkpt lat="37.09937000" lon="-8.68886000">
        <ele>35.000000</ele>
        <time>2010-01-01T02:48:52Z</time>
      </trkpt>
      <trkpt lat="37.09939000" lon="-8.68906000">
        <ele>33.000000</ele>
        <time>2010-01-01T02:48:58Z</time>
      </trkpt>
      <trkpt lat="37.09937200" lon="-8.68991984">
        <ele>31.000000</ele>
        <time>2010-01-01T02:49:25Z</time>
      </trkpt>
      <trkpt lat="37.09936590" lon="-8.69021202">
        <ele>32.000000</ele>
        <time>2010-01-01T02:49:35Z</time>
      </trkpt>
      <trkpt lat="37.09934000" lon="-8.69145000">
        <ele>33.000000</ele>
        <time>2010-01-01T02:50:14Z</time>
      </trkpt>
      <trkpt lat="37.09922000" lon="-8.69216000">
        <ele>34.000000</ele>
        <time>2010-01-01T02:50:38Z</time>
      </trkpt>
      <trkpt lat="37.09916890" lon="-8.69232096">
        <ele>34.000000</ele>
        <time>2010-01-01T02:50:43Z</time>
      </trkpt>
      <trkpt lat="37.09902000" lon="-8.69279000">
        <ele>35.000000</ele>
        <time>2010-01-01T02:50:59Z</time>
      </trkpt>
      <trkpt lat="37.09900080" lon="-8.69286908">
        <ele>35.000000</ele>
        <time>2010-01-01T02:51:02Z</time>
      </trkpt>
      <trkpt lat="37.09866000" lon="-8.69428000">
        <ele>40.000000</ele>
        <time>2010-01-01T02:51:49Z</time>
      </trkpt>
      <trkpt lat="37.09862290" lon="-8.69496676">
        <ele>42.000000</ele>
        <time>2010-01-01T02:52:11Z</time>
      </trkpt>
      <trkpt lat="37.09860400" lon="-8.69531905">
        <ele>42.000000</ele>
        <time>2010-01-01T02:52:22Z</time>
      </trkpt>
      <trkpt lat="37.09857000" lon="-8.69595000">
        <ele>43.000000</ele>
        <time>2010-01-01T02:52:42Z</time>
      </trkpt>
      <trkpt lat="37.09817540" lon="-8.69709900">
        <ele>47.000000</ele>
        <time>2010-01-01T02:53:22Z</time>
      </trkpt>
      <trkpt lat="37.09816880" lon="-8.69711832">
        <ele>48.000000</ele>
        <time>2010-01-01T02:53:23Z</time>
      </trkpt>
      <trkpt lat="37.09800000" lon="-8.69761000">
        <ele>47.000000</ele>
        <time>2010-01-01T02:53:40Z</time>
      </trkpt>
      <trkpt lat="37.09788000" lon="-8.69830000">
        <ele>48.000000</ele>
        <time>2010-01-01T02:54:03Z</time>
      </trkpt>
      <trkpt lat="37.09785000" lon="-8.69903000">
        <ele>49.000000</ele>
        <time>2010-01-01T02:54:26Z</time>
      </trkpt>
      <trkpt lat="37.09785000" lon="-8.69966000">
        <ele>51.000000</ele>
        <time>2010-01-01T02:54:46Z</time>
      </trkpt>
      <trkpt lat="37.09787200" lon="-8.69980517">
        <ele>51.000000</ele>
        <time>2010-01-01T02:54:51Z</time>
      </trkpt>
      <trkpt lat="37.09787840" lon="-8.69984719">
        <ele>51.000000</ele>
        <time>2010-01-01T02:54:52Z</time>
      </trkpt>
      <trkpt lat="37.09792000" lon="-8.70012000">
        <ele>50.000000</ele>
        <time>2010-01-01T02:55:01Z</time>
      </trkpt>
      <trkpt lat="37.09815000" lon="-8.70087000">
        <ele>49.000000</ele>
        <time>2010-01-01T02:55:27Z</time>
      </trkpt>
      <trkpt lat="37.09825000" lon="-8.70137000">
        <ele>51.000000</ele>
        <time>2010-01-01T02:55:43Z</time>
      </trkpt>
      <trkpt lat="37.09829710" lon="-8.70182818">
        <ele>51.000000</ele>
        <time>2010-01-01T02:55:58Z</time>
      </trkpt>
      <trkpt lat="37.09832000" lon="-8.70205000">
        <ele>51.000000</ele>
        <time>2010-01-01T02:56:05Z</time>
      </trkpt>
      <trkpt lat="37.09835100" lon="-8.70217127">
        <ele>51.000000</ele>
        <time>2010-01-01T02:56:09Z</time>
      </trkpt>
      <trkpt lat="37.09862000" lon="-8.70322000">
        <ele>55.000000</ele>
        <time>2010-01-01T02:56:44Z</time>
      </trkpt>
      <trkpt lat="37.09868000" lon="-8.70371000">
        <ele>58.000000</ele>
        <time>2010-01-01T02:57:00Z</time>
      </trkpt>
      <trkpt lat="37.09868730" lon="-8.70407991">
        <ele>60.000000</ele>
        <time>2010-01-01T02:57:12Z</time>
      </trkpt>
      <trkpt lat="37.09869490" lon="-8.70446468">
        <ele>61.000000</ele>
        <time>2010-01-01T02:57:24Z</time>
      </trkpt>
      <trkpt lat="37.09871000" lon="-8.70522000">
        <ele>64.000000</ele>
        <time>2010-01-01T02:57:48Z</time>
      </trkpt>
      <trkpt lat="37.09873000" lon="-8.70547000">
        <ele>65.000000</ele>
        <time>2010-01-01T02:57:56Z</time>
      </trkpt>
      <trkpt lat="37.09876330" lon="-8.70559751">
        <ele>65.000000</ele>
        <time>2010-01-01T02:58:01Z</time>
      </trkpt>
      <trkpt lat="37.09878000" lon="-8.70576000">
        <ele>65.000000</ele>
        <time>2010-01-01T02:58:06Z</time>
      </trkpt>
      <trkpt lat="37.09878000" lon="-8.70595000">
        <ele>65.000000</ele>
        <time>2010-01-01T02:58:12Z</time>
      </trkpt>
      <trkpt lat="37.09886000" lon="-8.70629000">
        <ele>65.000000</ele>
        <time>2010-01-01T02:58:23Z</time>
      </trkpt>
      <trkpt lat="37.09887410" lon="-8.70633981">
        <ele>65.000000</ele>
        <time>2010-01-01T02:58:25Z</time>
      </trkpt>
      <trkpt lat="37.09903000" lon="-8.70689000">
        <ele>68.000000</ele>
        <time>2010-01-01T02:58:44Z</time>
      </trkpt>
      <trkpt lat="37.09926970" lon="-8.70745772">
        <ele>69.000000</ele>
        <time>2010-01-01T02:59:04Z</time>
      </trkpt>
      <trkpt lat="37.09971000" lon="-8.70850000">
        <ele>67.000000</ele>
        <time>2010-01-01T02:59:42Z</time>
      </trkpt>
      <trkpt lat="37.09972840" lon="-8.70853988">
        <ele>67.000000</ele>
        <time>2010-01-01T02:59:43Z</time>
      </trkpt>
      <trkpt lat="37.09991220" lon="-8.70893708">
        <ele>67.000000</ele>
        <time>2010-01-01T02:59:58Z</time>
      </trkpt>
      <trkpt lat="37.10002000" lon="-8.70917000">
        <ele>67.000000</ele>
        <time>2010-01-01T03:00:06Z</time>
      </trkpt>
      <trkpt lat="37.10005000" lon="-8.70948000">
        <ele>67.000000</ele>
        <time>2010-01-01T03:00:16Z</time>
      </trkpt>
      <trkpt lat="37.10039990" lon="-8.71005139">
        <ele>59.000000</ele>
        <time>2010-01-01T03:00:39Z</time>
      </trkpt>
      <trkpt lat="37.10054000" lon="-8.71028000">
        <ele>57.000000</ele>
        <time>2010-01-01T03:00:49Z</time>
      </trkpt>
      <trkpt lat="37.10065790" lon="-8.71075164">
        <ele>59.000000</ele>
        <time>2010-01-01T03:01:04Z</time>
      </trkpt>
      <trkpt lat="37.10076000" lon="-8.71116000">
        <ele>56.000000</ele>
        <time>2010-01-01T03:01:18Z</time>
      </trkpt>
      <trkpt lat="37.10084000" lon="-8.71187000">
        <ele>51.000000</ele>
        <time>2010-01-01T03:01:41Z</time>
      </trkpt>
      <trkpt lat="37.10084790" lon="-8.71198939">
        <ele>50.000000</ele>
        <time>2010-01-01T03:01:45Z</time>
      </trkpt>
      <trkpt lat="37.10090000" lon="-8.71277000">
        <ele>49.000000</ele>
        <time>2010-01-01T03:02:10Z</time>
      </trkpt>
      <trkpt lat="37.10087910" lon="-8.71313881">
        <ele>46.000000</ele>
        <time>2010-01-01T03:02:22Z</time>
      </trkpt>
      <trkpt lat="37.10087000" lon="-8.71330000">
        <ele>45.000000</ele>
        <time>2010-01-01T03:02:27Z</time>
      </trkpt>
      <trkpt lat="37.10084570" lon="-8.71357610">
        <ele>43.000000</ele>
        <time>2010-01-01T03:02:36Z</time>
      </trkpt>
      <trkpt lat="37.10082000" lon="-8.71387000">
        <ele>43.000000</ele>
        <time>2010-01-01T03:02:45Z</time>
      </trkpt>
      <trkpt lat="37.10074000" lon="-8.71425000">
        <ele>43.000000</ele>
        <time>2010-01-01T03:02:58Z</time>
      </trkpt>
      <trkpt lat="37.10057000" lon="-8.71438000">
        <ele>43.000000</ele>
        <time>2010-01-01T03:03:06Z</time>
      </trkpt>
      <trkpt lat="37.10023000" lon="-8.71457000">
        <ele>45.000000</ele>
        <time>2010-01-01T03:03:20Z</time>
      </trkpt>
      <trkpt lat="37.09969000" lon="-8.71496000">
        <ele>43.000000</ele>
        <time>2010-01-01T03:03:45Z</time>
      </trkpt>
      <trkpt lat="37.09929510" lon="-8.71526478">
        <ele>41.000000</ele>
        <time>2010-01-01T03:04:04Z</time>
      </trkpt>
      <trkpt lat="37.09917080" lon="-8.71536078">
        <ele>41.000000</ele>
        <time>2010-01-01T03:04:10Z</time>
      </trkpt>
      <trkpt lat="37.09912560" lon="-8.71539561">
        <ele>41.000000</ele>
        <time>2010-01-01T03:04:12Z</time>
      </trkpt>
      <trkpt lat="37.09884570" lon="-8.71561171">
        <ele>43.000000</ele>
        <time>2010-01-01T03:04:25Z</time>
      </trkpt>
      <trkpt lat="37.09871840" lon="-8.71570994">
        <ele>43.000000</ele>
        <time>2010-01-01T03:04:31Z</time>
      </trkpt>
      <trkpt lat="37.09855000" lon="-8.71584000">
        <ele>43.000000</ele>
        <time>2010-01-01T03:04:39Z</time>
      </trkpt>
      <trkpt lat="37.09835030" lon="-8.71611948">
        <ele>43.000000</ele>
        <time>2010-01-01T03:04:51Z</time>
      </trkpt>
      <trkpt lat="37.09843610" lon="-8.71630590">
        <ele>43.000000</ele>
        <time>2010-01-01T03:04:58Z</time>
      </trkpt>
      <trkpt lat="37.09853000" lon="-8.71651000">
        <ele>43.000000</ele>
        <time>2010-01-01T03:05:05Z</time>
      </trkpt>
      <trkpt lat="37.09867000" lon="-8.71697000">
        <ele>42.000000</ele>
        <time>2010-01-01T03:05:21Z</time>
      </trkpt>
      <trkpt lat="37.09882000" lon="-8.71739000">
        <ele>36.000000</ele>
        <time>2010-01-01T03:05:36Z</time>
      </trkpt>
      <trkpt lat="37.09910000" lon="-8.71776000">
        <ele>35.000000</ele>
        <time>2010-01-01T03:05:52Z</time>
      </trkpt>
      <trkpt lat="37.09902000" lon="-8.71785000">
        <ele>34.000000</ele>
        <time>2010-01-01T03:05:56Z</time>
      </trkpt>
      <trkpt lat="37.09902000" lon="-8.71784000">
        <ele>34.000000</ele>
        <time>2010-01-01T03:05:57Z</time>
      </trkpt>
      <trkpt lat="37.09813000" lon="-8.71881000">
        <ele>27.000000</ele>
        <time>2010-01-01T03:06:44Z</time>
      </trkpt>
      <trkpt lat="37.09718000" lon="-8.71959000">
        <ele>27.000000</ele>
        <time>2010-01-01T03:07:29Z</time>
      </trkpt>
      <trkpt lat="37.09660020" lon="-8.72012358">
        <ele>24.000000</ele>
        <time>2010-01-01T03:07:58Z</time>
      </trkpt>
      <trkpt lat="37.09605000" lon="-8.72063000">
        <ele>22.000000</ele>
        <time>2010-01-01T03:08:25Z</time>
      </trkpt>
      <trkpt lat="37.09567000" lon="-8.72110000">
        <ele>20.000000</ele>
        <time>2010-01-01T03:08:47Z</time>
      </trkpt>
      <trkpt lat="37.09511000" lon="-8.72197581">
        <ele>18.000000</ele>
        <time>2010-01-01T03:09:23Z</time>
      </trkpt>
      <trkpt lat="37.09442090" lon="-8.72305368">
        <ele>18.000000</ele>
        <time>2010-01-01T03:10:07Z</time>
      </trkpt>
      <trkpt lat="37.09411000" lon="-8.72354000">
        <ele>19.000000</ele>
        <time>2010-01-01T03:10:27Z</time>
      </trkpt>
      <trkpt lat="37.09373150" lon="-8.72401786">
        <ele>22.000000</ele>
        <time>2010-01-01T03:10:48Z</time>
      </trkpt>
      <trkpt lat="37.09241190" lon="-8.72568387">
        <ele>27.000000</ele>
        <time>2010-01-01T03:12:03Z</time>
      </trkpt>
      <trkpt lat="37.09232000" lon="-8.72580000">
        <ele>27.000000</ele>
        <time>2010-01-01T03:12:08Z</time>
      </trkpt>
      <trkpt lat="37.09169000" lon="-8.72657000">
        <ele>25.000000</ele>
        <time>2010-01-01T03:12:44Z</time>
      </trkpt>
      <trkpt lat="37.09136000" lon="-8.72702000">
        <ele>29.000000</ele>
        <time>2010-01-01T03:13:03Z</time>
      </trkpt>
      <trkpt lat="37.09172890" lon="-8.72728586">
        <ele>34.000000</ele>
        <time>2010-01-01T03:13:20Z</time>
      </trkpt>
      <trkpt lat="37.09105800" lon="-8.72820332">
        <ele>35.000000</ele>
        <time>2010-01-01T03:14:00Z</time>
      </trkpt>
      <trkpt lat="37.09047330" lon="-8.72900293">
        <ele>37.000000</ele>
        <time>2010-01-01T03:14:35Z</time>
      </trkpt>
      <trkpt lat="37.09041090" lon="-8.72908830">
        <ele>37.000000</ele>
        <time>2010-01-01T03:14:38Z</time>
      </trkpt>
      <trkpt lat="37.08998300" lon="-8.73037576">
        <ele>39.000000</ele>
        <time>2010-01-01T03:15:23Z</time>
      </trkpt>
      <trkpt lat="37.08969200" lon="-8.73078346">
        <ele>40.000000</ele>
        <time>2010-01-01T03:15:40Z</time>
      </trkpt>
      <trkpt lat="37.08899020" lon="-8.73209238">
        <ele>47.000000</ele>
        <time>2010-01-01T03:16:31Z</time>
      </trkpt>
      <trkpt lat="37.08818570" lon="-8.73413085">
        <ele>43.000000</ele>
        <time>2010-01-01T03:17:43Z</time>
      </trkpt>
      <trkpt lat="37.08792900" lon="-8.73468875">
        <ele>42.000000</ele>
        <time>2010-01-01T03:18:04Z</time>
      </trkpt>
      <trkpt lat="37.08786990" lon="-8.73480430">
        <ele>41.000000</ele>
        <time>2010-01-01T03:18:08Z</time>
      </trkpt>
      <trkpt lat="37.08779620" lon="-8.73494842">
        <ele>40.000000</ele>
        <time>2010-01-01T03:18:14Z</time>
      </trkpt>
      <trkpt lat="37.08739340" lon="-8.73573651">
        <ele>43.000000</ele>
        <time>2010-01-01T03:18:44Z</time>
      </trkpt>
      <trkpt lat="37.08718570" lon="-8.73614285">
        <ele>43.000000</ele>
        <time>2010-01-01T03:18:59Z</time>
      </trkpt>
      <trkpt lat="37.08686000" lon="-8.73678000">
        <ele>47.000000</ele>
        <time>2010-01-01T03:19:23Z</time>
      </trkpt>
      <trkpt lat="37.08685620" lon="-8.73686240">
        <ele>47.000000</ele>
        <time>2010-01-01T03:19:26Z</time>
      </trkpt>
      <trkpt lat="37.08685610" lon="-8.73686402">
        <ele>47.000000</ele>
        <time>2010-01-01T03:19:26Z</time>
      </trkpt>
      <trkpt lat="37.08685000" lon="-8.73700000">
        <ele>48.000000</ele>
        <time>2010-01-01T03:19:30Z</time>
      </trkpt>
      <trkpt lat="37.08678000" lon="-8.73710000">
        <ele>48.000000</ele>
        <time>2010-01-01T03:19:34Z</time>
      </trkpt>
      <trkpt lat="37.08670000" lon="-8.73713000">
        <ele>47.000000</ele>
        <time>2010-01-01T03:19:38Z</time>
      </trkpt>
      <trkpt lat="37.08671000" lon="-8.73713000">
        <ele>47.000000</ele>
        <time>2010-01-01T03:19:38Z</time>
      </trkpt>
      <trkpt lat="37.08620000" lon="-8.73721000">
        <ele>43.000000</ele>
        <time>2010-01-01T03:19:59Z</time>
      </trkpt>
      <trkpt lat="37.08607170" lon="-8.73726104">
        <ele>42.000000</ele>
        <time>2010-01-01T03:20:04Z</time>
      </trkpt>
      <trkpt lat="37.08517000" lon="-8.73762000">
        <ele>39.000000</ele>
        <time>2010-01-01T03:20:42Z</time>
      </trkpt>
      <trkpt lat="37.08496000" lon="-8.73766000">
        <ele>38.000000</ele>
        <time>2010-01-01T03:20:50Z</time>
      </trkpt>
      <trkpt lat="37.08456000" lon="-8.73718000">
        <ele>32.000000</ele>
        <time>2010-01-01T03:21:13Z</time>
      </trkpt>
      <trkpt lat="37.08452690" lon="-8.73713278">
        <ele>32.000000</ele>
        <time>2010-01-01T03:21:15Z</time>
      </trkpt>
      <trkpt lat="37.08442000" lon="-8.73698000">
        <ele>30.000000</ele>
        <time>2010-01-01T03:21:21Z</time>
      </trkpt>
      <trkpt lat="37.08432000" lon="-8.73688000">
        <ele>28.000000</ele>
        <time>2010-01-01T03:21:26Z</time>
      </trkpt>
      <trkpt lat="37.08422840" lon="-8.73682330">
        <ele>28.000000</ele>
        <time>2010-01-01T03:21:30Z</time>
      </trkpt>
      <trkpt lat="37.08411000" lon="-8.73675000">
        <ele>26.000000</ele>
        <time>2010-01-01T03:21:36Z</time>
      </trkpt>
      <trkpt lat="37.08405000" lon="-8.73672000">
        <ele>25.000000</ele>
        <time>2010-01-01T03:21:38Z</time>
      </trkpt>
      <trkpt lat="37.08390000" lon="-8.73685000">
        <ele>23.000000</ele>
        <time>2010-01-01T03:21:46Z</time>
      </trkpt>
      <trkpt lat="37.08337000" lon="-8.73764000">
        <ele>21.000000</ele>
        <time>2010-01-01T03:22:18Z</time>
      </trkpt>
      <trkpt lat="37.08325000" lon="-8.73786000">
        <ele>20.000000</ele>
        <time>2010-01-01T03:22:27Z</time>
      </trkpt>
      <trkpt lat="37.08306590" lon="-8.73832493">
        <ele>20.000000</ele>
        <time>2010-01-01T03:22:44Z</time>
      </trkpt>
      <trkpt lat="37.08306000" lon="-8.73834000">
        <ele>20.000000</ele>
        <time>2010-01-01T03:22:44Z</time>
      </trkpt>
      <trkpt lat="37.08284000" lon="-8.73900000">
        <ele>21.000000</ele>
        <time>2010-01-01T03:23:07Z</time>
      </trkpt>
      <trkpt lat="37.08284000" lon="-8.73899000">
        <ele>21.000000</ele>
        <time>2010-01-01T03:23:07Z</time>
      </trkpt>
      <trkpt lat="37.08283000" lon="-8.73903000">
        <ele>21.000000</ele>
        <time>2010-01-01T03:23:09Z</time>
      </trkpt>
      <trkpt lat="37.08285000" lon="-8.73920000">
        <ele>21.000000</ele>
        <time>2010-01-01T03:23:14Z</time>
      </trkpt>
      <trkpt lat="37.08295000" lon="-8.73938000">
        <ele>22.000000</ele>
        <time>2010-01-01T03:23:21Z</time>
      </trkpt>
      <trkpt lat="37.08309000" lon="-8.73953000">
        <ele>24.000000</ele>
        <time>2010-01-01T03:23:28Z</time>
      </trkpt>
      <trkpt lat="37.08304000" lon="-8.73961000">
        <ele>23.000000</ele>
        <time>2010-01-01T03:23:32Z</time>
      </trkpt>
      <trkpt lat="37.08296000" lon="-8.73978000">
        <ele>23.000000</ele>
        <time>2010-01-01T03:23:38Z</time>
      </trkpt>
      <trkpt lat="37.08276800" lon="-8.73986345">
        <ele>22.000000</ele>
        <time>2010-01-01T03:23:46Z</time>
      </trkpt>
      <trkpt lat="37.08273000" lon="-8.73988000">
        <ele>22.000000</ele>
        <time>2010-01-01T03:23:48Z</time>
      </trkpt>
      <trkpt lat="37.08260000" lon="-8.74005000">
        <ele>23.000000</ele>
        <time>2010-01-01T03:23:55Z</time>
      </trkpt>
      <trkpt lat="37.08258030" lon="-8.74008856">
        <ele>23.000000</ele>
        <time>2010-01-01T03:23:57Z</time>
      </trkpt>
      <trkpt lat="37.08233000" lon="-8.74058000">
        <ele>24.000000</ele>
        <time>2010-01-01T03:24:15Z</time>
      </trkpt>
      <trkpt lat="37.08225000" lon="-8.74080000">
        <ele>24.000000</ele>
        <time>2010-01-01T03:24:23Z</time>
      </trkpt>
      <trkpt lat="37.08205000" lon="-8.74058000">
        <ele>22.000000</ele>
        <time>2010-01-01T03:24:34Z</time>
      </trkpt>
      <trkpt lat="37.08189000" lon="-8.74053000">
        <ele>21.000000</ele>
        <time>2010-01-01T03:24:40Z</time>
      </trkpt>
      <trkpt lat="37.08179000" lon="-8.74054000">
        <ele>20.000000</ele>
        <time>2010-01-01T03:24:44Z</time>
      </trkpt>
      <trkpt lat="37.08148000" lon="-8.74116000">
        <ele>18.000000</ele>
        <time>2010-01-01T03:25:08Z</time>
      </trkpt>
      <trkpt lat="37.08141750" lon="-8.74123714">
        <ele>19.000000</ele>
        <time>2010-01-01T03:25:11Z</time>
      </trkpt>
      <trkpt lat="37.08131000" lon="-8.74137000">
        <ele>19.000000</ele>
        <time>2010-01-01T03:25:17Z</time>
      </trkpt>
      <trkpt lat="37.08123000" lon="-8.74167000">
        <ele>20.000000</ele>
        <time>2010-01-01T03:25:27Z</time>
      </trkpt>
      <trkpt lat="37.08088380" lon="-8.74260122">
        <ele>24.000000</ele>
        <time>2010-01-01T03:26:00Z</time>
      </trkpt>
      <trkpt lat="37.08086910" lon="-8.74264079">
        <ele>24.000000</ele>
        <time>2010-01-01T03:26:02Z</time>
      </trkpt>
      <trkpt lat="37.08081000" lon="-8.74280000">
        <ele>24.000000</ele>
        <time>2010-01-01T03:26:07Z</time>
      </trkpt>
      <trkpt lat="37.08041000" lon="-8.74349000">
        <ele>22.000000</ele>
        <time>2010-01-01T03:26:34Z</time>
      </trkpt>
      <trkpt lat="37.07963190" lon="-8.74438589">
        <ele>21.000000</ele>
        <time>2010-01-01T03:27:17Z</time>
      </trkpt>
      <trkpt lat="37.07958290" lon="-8.74444232">
        <ele>21.000000</ele>
        <time>2010-01-01T03:27:19Z</time>
      </trkpt>
      <trkpt lat="37.07942000" lon="-8.74463000">
        <ele>21.000000</ele>
        <time>2010-01-01T03:27:28Z</time>
      </trkpt>
      <trkpt lat="37.07926690" lon="-8.74485054">
        <ele>21.000000</ele>
        <time>2010-01-01T03:27:38Z</time>
      </trkpt>
      <trkpt lat="37.07917350" lon="-8.74498499">
        <ele>21.000000</ele>
        <time>2010-01-01T03:27:43Z</time>
      </trkpt>
      <trkpt lat="37.07901800" lon="-8.74520910">
        <ele>22.000000</ele>
        <time>2010-01-01T03:27:53Z</time>
      </trkpt>
      <trkpt lat="37.07894060" lon="-8.74532058">
        <ele>23.000000</ele>
        <time>2010-01-01T03:27:57Z</time>
      </trkpt>
      <trkpt lat="37.07883000" lon="-8.74548000">
        <ele>25.000000</ele>
        <time>2010-01-01T03:28:04Z</time>
      </trkpt>
      <trkpt lat="37.07871540" lon="-8.74568887">
        <ele>26.000000</ele>
        <time>2010-01-01T03:28:12Z</time>
      </trkpt>
      <trkpt lat="37.07871530" lon="-8.74568905">
        <ele>26.000000</ele>
        <time>2010-01-01T03:28:12Z</time>
      </trkpt>
      <trkpt lat="37.07863370" lon="-8.74581801">
        <ele>26.000000</ele>
        <time>2010-01-01T03:28:18Z</time>
      </trkpt>
      <trkpt lat="37.07826000" lon="-8.74636000">
        <ele>25.000000</ele>
        <time>2010-01-01T03:28:40Z</time>
      </trkpt>
      <trkpt lat="37.07834000" lon="-8.74661000">
        <ele>29.000000</ele>
        <time>2010-01-01T03:28:49Z</time>
      </trkpt>
      <trkpt lat="37.07860000" lon="-8.74728000">
        <ele>34.000000</ele>
        <time>2010-01-01T03:29:13Z</time>
      </trkpt>
      <trkpt lat="37.07835190" lon="-8.74784604">
        <ele>36.000000</ele>
        <time>2010-01-01T03:29:33Z</time>
      </trkpt>
      <trkpt lat="37.07830800" lon="-8.74794619">
        <ele>36.000000</ele>
        <time>2010-01-01T03:29:37Z</time>
      </trkpt>
      <trkpt lat="37.07821000" lon="-8.74817000">
        <ele>36.000000</ele>
        <time>2010-01-01T03:29:45Z</time>
      </trkpt>
      <trkpt lat="37.07824000" lon="-8.74836000">
        <ele>36.000000</ele>
        <time>2010-01-01T03:29:51Z</time>
      </trkpt>
      <trkpt lat="37.07831000" lon="-8.74841000">
        <ele>37.000000</ele>
        <time>2010-01-01T03:29:55Z</time>
      </trkpt>
      <trkpt lat="37.07881000" lon="-8.74875000">
        <ele>44.000000</ele>
        <time>2010-01-01T03:30:17Z</time>
      </trkpt>
      <trkpt lat="37.07880000" lon="-8.75019000">
        <ele>61.000000</ele>
        <time>2010-01-01T03:31:03Z</time>
      </trkpt>
      <trkpt lat="37.07866440" lon="-8.75049007">
        <ele>62.000000</ele>
        <time>2010-01-01T03:31:14Z</time>
      </trkpt>
      <trkpt lat="37.07854140" lon="-8.75076259">
        <ele>61.000000</ele>
        <time>2010-01-01T03:31:24Z</time>
      </trkpt>
      <trkpt lat="37.07852000" lon="-8.75081000">
        <ele>61.000000</ele>
        <time>2010-01-01T03:31:26Z</time>
      </trkpt>
      <trkpt lat="37.07822000" lon="-8.75156000">
        <ele>59.000000</ele>
        <time>2010-01-01T03:31:53Z</time>
      </trkpt>
      <trkpt lat="37.07802000" lon="-8.75193000">
        <ele>61.000000</ele>
        <time>2010-01-01T03:32:07Z</time>
      </trkpt>
      <trkpt lat="37.07818000" lon="-8.75199000">
        <ele>62.000000</ele>
        <time>2010-01-01T03:32:14Z</time>
      </trkpt>
      <trkpt lat="37.07853150" lon="-8.75222096">
        <ele>62.000000</ele>
        <time>2010-01-01T03:32:30Z</time>
      </trkpt>
      <trkpt lat="37.07915400" lon="-8.75262997">
        <ele>65.000000</ele>
        <time>2010-01-01T03:32:58Z</time>
      </trkpt>
      <trkpt lat="37.08048070" lon="-8.75350170">
        <ele>63.000000</ele>
        <time>2010-01-01T03:33:58Z</time>
      </trkpt>
      <trkpt lat="37.08133700" lon="-8.75406440">
        <ele>59.000000</ele>
        <time>2010-01-01T03:34:37Z</time>
      </trkpt>
      <trkpt lat="37.08305000" lon="-8.75519000">
        <ele>54.000000</ele>
        <time>2010-01-01T03:35:54Z</time>
      </trkpt>
      <trkpt lat="37.08317000" lon="-8.75527000">
        <ele>54.000000</ele>
        <time>2010-01-01T03:36:00Z</time>
      </trkpt>
      <trkpt lat="37.08172020" lon="-8.75813277">
        <ele>42.000000</ele>
        <time>2010-01-01T03:37:48Z</time>
      </trkpt>
      <trkpt lat="37.08159000" lon="-8.75839000">
        <ele>41.000000</ele>
        <time>2010-01-01T03:37:58Z</time>
      </trkpt>
      <trkpt lat="37.08144000" lon="-8.75857000">
        <ele>40.000000</ele>
        <time>2010-01-01T03:38:06Z</time>
      </trkpt>
      <trkpt lat="37.08124000" lon="-8.75874000">
        <ele>39.000000</ele>
        <time>2010-01-01T03:38:16Z</time>
      </trkpt>
      <trkpt lat="37.08001000" lon="-8.75959000">
        <ele>37.000000</ele>
        <time>2010-01-01T03:39:12Z</time>
      </trkpt>
      <trkpt lat="37.07976000" lon="-8.75987000">
        <ele>37.000000</ele>
        <time>2010-01-01T03:39:25Z</time>
      </trkpt>
      <trkpt lat="37.07952200" lon="-8.76030920">
        <ele>38.000000</ele>
        <time>2010-01-01T03:39:42Z</time>
      </trkpt>
      <trkpt lat="37.07861410" lon="-8.76198487">
        <ele>34.000000</ele>
        <time>2010-01-01T03:40:47Z</time>
      </trkpt>
      <trkpt lat="37.07842850" lon="-8.76232744">
        <ele>35.000000</ele>
        <time>2010-01-01T03:41:00Z</time>
      </trkpt>
      <trkpt lat="37.07827000" lon="-8.76262000">
        <ele>34.000000</ele>
        <time>2010-01-01T03:41:11Z</time>
      </trkpt>
      <trkpt lat="37.07823850" lon="-8.76268823">
        <ele>33.000000</ele>
        <time>2010-01-01T03:41:14Z</time>
      </trkpt>
      <trkpt lat="37.07815000" lon="-8.76288000">
        <ele>33.000000</ele>
        <time>2010-01-01T03:41:21Z</time>
      </trkpt>
      <trkpt lat="37.07742000" lon="-8.76537000">
        <ele>31.000000</ele>
        <time>2010-01-01T03:42:46Z</time>
      </trkpt>
      <trkpt lat="37.07716130" lon="-8.76596255">
        <ele>30.000000</ele>
        <time>2010-01-01T03:43:07Z</time>
      </trkpt>
      <trkpt lat="37.07656000" lon="-8.76734000">
        <ele>28.000000</ele>
        <time>2010-01-01T03:43:57Z</time>
      </trkpt>
      <trkpt lat="37.07620950" lon="-8.76869191">
        <ele>32.000000</ele>
        <time>2010-01-01T03:44:43Z</time>
      </trkpt>
      <trkpt lat="37.07614000" lon="-8.76896000">
        <ele>32.000000</ele>
        <time>2010-01-01T03:44:52Z</time>
      </trkpt>
      <trkpt lat="37.07602270" lon="-8.76936125">
        <ele>31.000000</ele>
        <time>2010-01-01T03:45:05Z</time>
      </trkpt>
      <trkpt lat="37.07595000" lon="-8.76961000">
        <ele>31.000000</ele>
        <time>2010-01-01T03:45:14Z</time>
      </trkpt>
      <trkpt lat="37.07529860" lon="-8.77073840">
        <ele>34.000000</ele>
        <time>2010-01-01T03:45:58Z</time>
      </trkpt>
      <trkpt lat="37.07477760" lon="-8.77164078">
        <ele>34.000000</ele>
        <time>2010-01-01T03:46:34Z</time>
      </trkpt>
      <trkpt lat="37.07468000" lon="-8.77181000">
        <ele>35.000000</ele>
        <time>2010-01-01T03:46:41Z</time>
      </trkpt>
      <trkpt lat="37.07464700" lon="-8.77191839">
        <ele>36.000000</ele>
        <time>2010-01-01T03:46:44Z</time>
      </trkpt>
      <trkpt lat="37.07462560" lon="-8.77198841">
        <ele>36.000000</ele>
        <time>2010-01-01T03:46:47Z</time>
      </trkpt>
      <trkpt lat="37.07462270" lon="-8.77199812">
        <ele>36.000000</ele>
        <time>2010-01-01T03:46:47Z</time>
      </trkpt>
      <trkpt lat="37.07462260" lon="-8.77199836">
        <ele>36.000000</ele>
        <time>2010-01-01T03:46:47Z</time>
      </trkpt>
      <trkpt lat="37.07459730" lon="-8.77207126">
        <ele>36.000000</ele>
        <time>2010-01-01T03:46:50Z</time>
      </trkpt>
      <trkpt lat="37.07453000" lon="-8.77229000">
        <ele>36.000000</ele>
        <time>2010-01-01T03:46:57Z</time>
      </trkpt>
      <trkpt lat="37.07450480" lon="-8.77238899">
        <ele>35.000000</ele>
        <time>2010-01-01T03:47:00Z</time>
      </trkpt>
      <trkpt lat="37.07446570" lon="-8.77254317">
        <ele>35.000000</ele>
        <time>2010-01-01T03:47:06Z</time>
      </trkpt>
      <trkpt lat="37.07437000" lon="-8.77292000">
        <ele>34.000000</ele>
        <time>2010-01-01T03:47:18Z</time>
      </trkpt>
      <trkpt lat="37.07423000" lon="-8.77335000">
        <ele>33.000000</ele>
        <time>2010-01-01T03:47:33Z</time>
      </trkpt>
      <trkpt lat="37.07404000" lon="-8.77375000">
        <ele>33.000000</ele>
        <time>2010-01-01T03:47:48Z</time>
      </trkpt>
      <trkpt lat="37.07393260" lon="-8.77401252">
        <ele>34.000000</ele>
        <time>2010-01-01T03:47:57Z</time>
      </trkpt>
      <trkpt lat="37.07386000" lon="-8.77419000">
        <ele>36.000000</ele>
        <time>2010-01-01T03:48:04Z</time>
      </trkpt>
      <trkpt lat="37.07366450" lon="-8.77460528">
        <ele>35.000000</ele>
        <time>2010-01-01T03:48:19Z</time>
      </trkpt>
      <trkpt lat="37.07354000" lon="-8.77487000">
        <ele>33.000000</ele>
        <time>2010-01-01T03:48:29Z</time>
      </trkpt>
      <trkpt lat="37.07353800" lon="-8.77488099">
        <ele>33.000000</ele>
        <time>2010-01-01T03:48:29Z</time>
      </trkpt>
      <trkpt lat="37.07353650" lon="-8.77488933">
        <ele>33.000000</ele>
        <time>2010-01-01T03:48:30Z</time>
      </trkpt>
      <trkpt lat="37.07345990" lon="-8.77532387">
        <ele>32.000000</ele>
        <time>2010-01-01T03:48:44Z</time>
      </trkpt>
      <trkpt lat="37.07325900" lon="-8.77608878">
        <ele>30.000000</ele>
        <time>2010-01-01T03:49:09Z</time>
      </trkpt>
      <trkpt lat="37.07320620" lon="-8.77628985">
        <ele>30.000000</ele>
        <time>2010-01-01T03:49:16Z</time>
      </trkpt>
      <trkpt lat="37.07315190" lon="-8.77649631">
        <ele>31.000000</ele>
        <time>2010-01-01T03:49:23Z</time>
      </trkpt>
      <trkpt lat="37.07315260" lon="-8.77649953">
        <ele>31.000000</ele>
        <time>2010-01-01T03:49:23Z</time>
      </trkpt>
      <trkpt lat="37.07313000" lon="-8.77658000">
        <ele>32.000000</ele>
        <time>2010-01-01T03:49:26Z</time>
      </trkpt>
      <trkpt lat="37.07297280" lon="-8.77702192">
        <ele>34.000000</ele>
        <time>2010-01-01T03:49:41Z</time>
      </trkpt>
      <trkpt lat="37.07297000" lon="-8.77703000">
        <ele>34.000000</ele>
        <time>2010-01-01T03:49:42Z</time>
      </trkpt>
      <trkpt lat="37.07257000" lon="-8.77788000">
        <ele>39.000000</ele>
        <time>2010-01-01T03:50:13Z</time>
      </trkpt>
      <trkpt lat="37.07252000" lon="-8.77810000">
        <ele>39.000000</ele>
        <time>2010-01-01T03:50:21Z</time>
      </trkpt>
      <trkpt lat="37.07248220" lon="-8.77868007">
        <ele>41.000000</ele>
        <time>2010-01-01T03:50:39Z</time>
      </trkpt>
      <trkpt lat="37.07246620" lon="-8.77892739">
        <ele>42.000000</ele>
        <time>2010-01-01T03:50:47Z</time>
      </trkpt>
      <trkpt lat="37.07239000" lon="-8.78010000">
        <ele>46.000000</ele>
        <time>2010-01-01T03:51:25Z</time>
      </trkpt>
      <trkpt lat="37.07238260" lon="-8.78014370">
        <ele>46.000000</ele>
        <time>2010-01-01T03:51:26Z</time>
      </trkpt>
      <trkpt lat="37.07234440" lon="-8.78036985">
        <ele>46.000000</ele>
        <time>2010-01-01T03:51:33Z</time>
      </trkpt>
      <trkpt lat="37.07226000" lon="-8.78087000">
        <ele>46.000000</ele>
        <time>2010-01-01T03:51:50Z</time>
      </trkpt>
      <trkpt lat="37.07201870" lon="-8.78157637">
        <ele>49.000000</ele>
        <time>2010-01-01T03:52:14Z</time>
      </trkpt>
      <trkpt lat="37.07191490" lon="-8.78188015">
        <ele>49.000000</ele>
        <time>2010-01-01T03:52:25Z</time>
      </trkpt>
      <trkpt lat="37.07151590" lon="-8.78304805">
        <ele>48.000000</ele>
        <time>2010-01-01T03:53:05Z</time>
      </trkpt>
      <trkpt lat="37.07138820" lon="-8.78342196">
        <ele>48.000000</ele>
        <time>2010-01-01T03:53:18Z</time>
      </trkpt>
      <trkpt lat="37.07116000" lon="-8.78409000">
        <ele>47.000000</ele>
        <time>2010-01-01T03:53:42Z</time>
      </trkpt>
      <trkpt lat="37.07081870" lon="-8.78514245">
        <ele>46.000000</ele>
        <time>2010-01-01T03:54:18Z</time>
      </trkpt>
      <trkpt lat="37.07066700" lon="-8.78561059">
        <ele>46.000000</ele>
        <time>2010-01-01T03:54:34Z</time>
      </trkpt>
      <trkpt lat="37.07033000" lon="-8.78665000">
        <ele>45.000000</ele>
        <time>2010-01-01T03:55:10Z</time>
      </trkpt>
      <trkpt lat="37.07033230" lon="-8.78673322">
        <ele>44.000000</ele>
        <time>2010-01-01T03:55:13Z</time>
      </trkpt>
      <trkpt lat="37.07034000" lon="-8.78701000">
        <ele>43.000000</ele>
        <time>2010-01-01T03:55:21Z</time>
      </trkpt>
      <trkpt lat="37.07040430" lon="-8.78719230">
        <ele>43.000000</ele>
        <time>2010-01-01T03:55:28Z</time>
      </trkpt>
      <trkpt lat="37.07046000" lon="-8.78735000">
        <ele>42.000000</ele>
        <time>2010-01-01T03:55:33Z</time>
      </trkpt>
      <trkpt lat="37.07114680" lon="-8.78873056">
        <ele>34.000000</ele>
        <time>2010-01-01T03:56:25Z</time>
      </trkpt>
      <trkpt lat="37.07116030" lon="-8.78875784">
        <ele>34.000000</ele>
        <time>2010-01-01T03:56:26Z</time>
      </trkpt>
      <trkpt lat="37.07145000" lon="-8.78934000">
        <ele>34.000000</ele>
        <time>2010-01-01T03:56:48Z</time>
      </trkpt>
      <trkpt lat="37.07146690" lon="-8.78941607">
        <ele>34.000000</ele>
        <time>2010-01-01T03:56:51Z</time>
      </trkpt>
      <trkpt lat="37.07153520" lon="-8.78972355">
        <ele>33.000000</ele>
        <time>2010-01-01T03:57:01Z</time>
      </trkpt>
      <trkpt lat="37.07164180" lon="-8.79020336">
        <ele>33.000000</ele>
        <time>2010-01-01T03:57:17Z</time>
      </trkpt>
      <trkpt lat="37.07165000" lon="-8.79024000">
        <ele>33.000000</ele>
        <time>2010-01-01T03:57:18Z</time>
      </trkpt>
      <trkpt lat="37.07167150" lon="-8.79040895">
        <ele>33.000000</ele>
        <time>2010-01-01T03:57:23Z</time>
      </trkpt>
      <trkpt lat="37.07170770" lon="-8.79069399">
        <ele>33.000000</ele>
        <time>2010-01-01T03:57:33Z</time>
      </trkpt>
      <trkpt lat="37.07172000" lon="-8.79079000">
        <ele>32.000000</ele>
        <time>2010-01-01T03:57:36Z</time>
      </trkpt>
      <trkpt lat="37.07172000" lon="-8.79094285">
        <ele>32.000000</ele>
        <time>2010-01-01T03:57:41Z</time>
      </trkpt>
      <trkpt lat="37.07172000" lon="-8.79094805">
        <ele>32.000000</ele>
        <time>2010-01-01T03:57:41Z</time>
      </trkpt>
      <trkpt lat="37.07172000" lon="-8.79121602">
        <ele>30.000000</ele>
        <time>2010-01-01T03:57:49Z</time>
      </trkpt>
      <trkpt lat="37.07172000" lon="-8.79124653">
        <ele>30.000000</ele>
        <time>2010-01-01T03:57:50Z</time>
      </trkpt>
      <trkpt lat="37.07172000" lon="-8.79125000">
        <ele>30.000000</ele>
        <time>2010-01-01T03:57:51Z</time>
      </trkpt>
      <trkpt lat="37.07173890" lon="-8.79127559">
        <ele>30.000000</ele>
        <time>2010-01-01T03:57:52Z</time>
      </trkpt>
      <trkpt lat="37.07173900" lon="-8.79127567">
        <ele>30.000000</ele>
        <time>2010-01-01T03:57:52Z</time>
      </trkpt>
      <trkpt lat="37.07192920" lon="-8.79153207">
        <ele>29.000000</ele>
        <time>2010-01-01T03:58:03Z</time>
      </trkpt>
      <trkpt lat="37.07195000" lon="-8.79156000">
        <ele>29.000000</ele>
        <time>2010-01-01T03:58:04Z</time>
      </trkpt>
      <trkpt lat="37.07224430" lon="-8.79182821">
        <ele>31.000000</ele>
        <time>2010-01-01T03:58:19Z</time>
      </trkpt>
      <trkpt lat="37.07240000" lon="-8.79197000">
        <ele>32.000000</ele>
        <time>2010-01-01T03:58:26Z</time>
      </trkpt>
      <trkpt lat="37.07242710" lon="-8.79198451">
        <ele>32.000000</ele>
        <time>2010-01-01T03:58:28Z</time>
      </trkpt>
      <trkpt lat="37.07274480" lon="-8.79215431">
        <ele>30.000000</ele>
        <time>2010-01-01T03:58:41Z</time>
      </trkpt>
      <trkpt lat="37.07298000" lon="-8.79228000">
        <ele>30.000000</ele>
        <time>2010-01-01T03:58:52Z</time>
      </trkpt>
      <trkpt lat="37.07303110" lon="-8.79230364">
        <ele>30.000000</ele>
        <time>2010-01-01T03:58:54Z</time>
      </trkpt>
      <trkpt lat="37.07319550" lon="-8.79237972">
        <ele>30.000000</ele>
        <time>2010-01-01T03:59:01Z</time>
      </trkpt>
      <trkpt lat="37.07357440" lon="-8.79255502">
        <ele>31.000000</ele>
        <time>2010-01-01T03:59:17Z</time>
      </trkpt>
      <trkpt lat="37.07365000" lon="-8.79259000">
        <ele>32.000000</ele>
        <time>2010-01-01T03:59:20Z</time>
      </trkpt>
      <trkpt lat="37.07379700" lon="-8.79263523">
        <ele>33.000000</ele>
        <time>2010-01-01T03:59:26Z</time>
      </trkpt>
      <trkpt lat="37.07404000" lon="-8.79271000">
        <ele>34.000000</ele>
        <time>2010-01-01T03:59:36Z</time>
      </trkpt>
      <trkpt lat="37.07421890" lon="-8.79280892">
        <ele>35.000000</ele>
        <time>2010-01-01T03:59:44Z</time>
      </trkpt>
      <trkpt lat="37.07433690" lon="-8.79287411">
        <ele>35.000000</ele>
        <time>2010-01-01T03:59:49Z</time>
      </trkpt>
      <trkpt lat="37.07442000" lon="-8.79292000">
        <ele>35.000000</ele>
        <time>2010-01-01T03:59:53Z</time>
      </trkpt>
      <trkpt lat="37.07464690" lon="-8.79309963">
        <ele>36.000000</ele>
        <time>2010-01-01T04:00:04Z</time>
      </trkpt>
      <trkpt lat="37.07476330" lon="-8.79319183">
        <ele>36.000000</ele>
        <time>2010-01-01T04:00:09Z</time>
      </trkpt>
      <trkpt lat="37.07514000" lon="-8.79349000">
        <ele>37.000000</ele>
        <time>2010-01-01T04:00:27Z</time>
      </trkpt>
      <trkpt lat="37.07518570" lon="-8.79357013">
        <ele>38.000000</ele>
        <time>2010-01-01T04:00:30Z</time>
      </trkpt>
      <trkpt lat="37.07519850" lon="-8.79359246">
        <ele>38.000000</ele>
        <time>2010-01-01T04:00:31Z</time>
      </trkpt>
      <trkpt lat="37.07530000" lon="-8.79377000">
        <ele>39.000000</ele>
        <time>2010-01-01T04:00:38Z</time>
      </trkpt>
      <trkpt lat="37.07552000" lon="-8.79407000">
        <ele>40.000000</ele>
        <time>2010-01-01T04:00:51Z</time>
      </trkpt>
      <trkpt lat="37.07557990" lon="-8.79418984">
        <ele>41.000000</ele>
        <time>2010-01-01T04:00:55Z</time>
      </trkpt>
      <trkpt lat="37.07562000" lon="-8.79427000">
        <ele>42.000000</ele>
        <time>2010-01-01T04:00:59Z</time>
      </trkpt>
      <trkpt lat="37.07565620" lon="-8.79447062">
        <ele>44.000000</ele>
        <time>2010-01-01T04:01:05Z</time>
      </trkpt>
      <trkpt lat="37.07575340" lon="-8.79500834">
        <ele>43.000000</ele>
        <time>2010-01-01T04:01:23Z</time>
      </trkpt>
      <trkpt lat="37.07575370" lon="-8.79501025">
        <ele>43.000000</ele>
        <time>2010-01-01T04:01:23Z</time>
      </trkpt>
      <trkpt lat="37.07577000" lon="-8.79510000">
        <ele>43.000000</ele>
        <time>2010-01-01T04:01:26Z</time>
      </trkpt>
      <trkpt lat="37.07578510" lon="-8.79538760">
        <ele>40.000000</ele>
        <time>2010-01-01T04:01:35Z</time>
      </trkpt>
      <trkpt lat="37.07579870" lon="-8.79564667">
        <ele>37.000000</ele>
        <time>2010-01-01T04:01:43Z</time>
      </trkpt>
      <trkpt lat="37.07581000" lon="-8.79586000">
        <ele>34.000000</ele>
        <time>2010-01-01T04:01:50Z</time>
      </trkpt>
      <trkpt lat="37.07581020" lon="-8.79587778">
        <ele>34.000000</ele>
        <time>2010-01-01T04:01:51Z</time>
      </trkpt>
      <trkpt lat="37.07581490" lon="-8.79620371">
        <ele>28.000000</ele>
        <time>2010-01-01T04:02:01Z</time>
      </trkpt>
      <trkpt lat="37.07581750" lon="-8.79638766">
        <ele>24.000000</ele>
        <time>2010-01-01T04:02:07Z</time>
      </trkpt>
      <trkpt lat="37.07581800" lon="-8.79642644">
        <ele>23.000000</ele>
        <time>2010-01-01T04:02:08Z</time>
      </trkpt>
      <trkpt lat="37.07581840" lon="-8.79645149">
        <ele>23.000000</ele>
        <time>2010-01-01T04:02:09Z</time>
      </trkpt>
      <trkpt lat="37.07582000" lon="-8.79656000">
        <ele>21.000000</ele>
        <time>2010-01-01T04:02:12Z</time>
      </trkpt>
      <trkpt lat="37.07579390" lon="-8.79665651">
        <ele>19.000000</ele>
        <time>2010-01-01T04:02:16Z</time>
      </trkpt>
      <trkpt lat="37.07575250" lon="-8.79680961">
        <ele>17.000000</ele>
        <time>2010-01-01T04:02:21Z</time>
      </trkpt>
      <trkpt lat="37.07573700" lon="-8.79686679">
        <ele>16.000000</ele>
        <time>2010-01-01T04:02:23Z</time>
      </trkpt>
      <trkpt lat="37.07573700" lon="-8.79686704">
        <ele>16.000000</ele>
        <time>2010-01-01T04:02:23Z</time>
      </trkpt>
      <trkpt lat="37.07570870" lon="-8.79695570">
        <ele>15.000000</ele>
        <time>2010-01-01T04:02:26Z</time>
      </trkpt>
      <trkpt lat="37.07566000" lon="-8.79711000">
        <ele>12.000000</ele>
        <time>2010-01-01T04:02:31Z</time>
      </trkpt>
      <trkpt lat="37.07555000" lon="-8.79721000">
        <ele>10.000000</ele>
        <time>2010-01-01T04:02:37Z</time>
      </trkpt>
      <trkpt lat="37.07539740" lon="-8.79730325">
        <ele>11.000000</ele>
        <time>2010-01-01T04:02:43Z</time>
      </trkpt>
      <trkpt lat="37.07537000" lon="-8.79732000">
        <ele>10.000000</ele>
        <time>2010-01-01T04:02:45Z</time>
      </trkpt>
      <trkpt lat="37.07499000" lon="-8.79783000">
        <ele>7.0000000</ele>
        <time>2010-01-01T04:03:07Z</time>
      </trkpt>
      <trkpt lat="37.07471790" lon="-8.79836316">
        <ele>9.0000000</ele>
        <time>2010-01-01T04:03:27Z</time>
      </trkpt>
      <trkpt lat="37.07468260" lon="-8.79843240">
        <ele>10.000000</ele>
        <time>2010-01-01T04:03:30Z</time>
      </trkpt>
      <trkpt lat="37.07449000" lon="-8.79881000">
        <ele>7.0000000</ele>
        <time>2010-01-01T04:03:44Z</time>
      </trkpt>
      <trkpt lat="37.07444000" lon="-8.79902000">
        <ele>4.0000000</ele>
        <time>2010-01-01T04:03:51Z</time>
      </trkpt>
      <trkpt lat="37.07431780" lon="-8.79914983">
        <ele>6.0000000</ele>
        <time>2010-01-01T04:03:57Z</time>
      </trkpt>
      <trkpt lat="37.07428000" lon="-8.79919000">
        <ele>7.0000000</ele>
        <time>2010-01-01T04:03:59Z</time>
      </trkpt>
      <trkpt lat="37.07422000" lon="-8.79938000">
        <ele>7.0000000</ele>
        <time>2010-01-01T04:04:06Z</time>
      </trkpt>
      <trkpt lat="37.07417000" lon="-8.79996000">
        <ele>8.0000000</ele>
        <time>2010-01-01T04:04:25Z</time>
      </trkpt>
      <trkpt lat="37.07418170" lon="-8.80017804">
        <ele>7.0000000</ele>
        <time>2010-01-01T04:04:32Z</time>
      </trkpt>
      <trkpt lat="37.07421000" lon="-8.80070000">
        <ele>6.0000000</ele>
        <time>2010-01-01T04:04:48Z</time>
      </trkpt>
      <trkpt lat="37.07421610" lon="-8.80073826">
        <ele>6.0000000</ele>
        <time>2010-01-01T04:04:49Z</time>
      </trkpt>
      <trkpt lat="37.07428990" lon="-8.80119722">
        <ele>6.0000000</ele>
        <time>2010-01-01T04:05:04Z</time>
      </trkpt>
      <trkpt lat="37.07430000" lon="-8.80126000">
        <ele>7.0000000</ele>
        <time>2010-01-01T04:05:06Z</time>
      </trkpt>
      <trkpt lat="37.07449930" lon="-8.80221987">
        <ele>11.000000</ele>
        <time>2010-01-01T04:05:38Z</time>
      </trkpt>
      <trkpt lat="37.07457000" lon="-8.80256000">
        <ele>12.000000</ele>
        <time>2010-01-01T04:05:49Z</time>
      </trkpt>
      <trkpt lat="37.07457410" lon="-8.80261550">
        <ele>12.000000</ele>
        <time>2010-01-01T04:05:51Z</time>
      </trkpt>
      <trkpt lat="37.07460000" lon="-8.80296000">
        <ele>10.000000</ele>
        <time>2010-01-01T04:06:02Z</time>
      </trkpt>
      <trkpt lat="37.07459000" lon="-8.80337000">
        <ele>9.0000000</ele>
        <time>2010-01-01T04:06:15Z</time>
      </trkpt>
      <trkpt lat="37.07444630" lon="-8.80380093">
        <ele>9.0000000</ele>
        <time>2010-01-01T04:06:30Z</time>
      </trkpt>
      <trkpt lat="37.07444250" lon="-8.80381247">
        <ele>9.0000000</ele>
        <time>2010-01-01T04:06:31Z</time>
      </trkpt>
      <trkpt lat="37.07442000" lon="-8.80388000">
        <ele>8.0000000</ele>
        <time>2010-01-01T04:06:33Z</time>
      </trkpt>
      <trkpt lat="37.07429000" lon="-8.80405000">
        <ele>8.0000000</ele>
        <time>2010-01-01T04:06:40Z</time>
      </trkpt>
      <trkpt lat="37.07368190" lon="-8.80455427">
        <ele>9.0000000</ele>
        <time>2010-01-01T04:07:10Z</time>
      </trkpt>
      <trkpt lat="37.07347000" lon="-8.80473000">
        <ele>9.0000000</ele>
        <time>2010-01-01T04:07:20Z</time>
      </trkpt>
      <trkpt lat="37.07345260" lon="-8.80474290">
        <ele>10.000000</ele>
        <time>2010-01-01T04:07:21Z</time>
      </trkpt>
      <trkpt lat="37.07304000" lon="-8.80505000">
        <ele>12.000000</ele>
        <time>2010-01-01T04:07:40Z</time>
      </trkpt>
      <trkpt lat="37.07275000" lon="-8.80536000">
        <ele>10.000000</ele>
        <time>2010-01-01T04:07:55Z</time>
      </trkpt>
      <trkpt lat="37.07273520" lon="-8.80538545">
        <ele>10.000000</ele>
        <time>2010-01-01T04:07:56Z</time>
      </trkpt>
      <trkpt lat="37.07257000" lon="-8.80567000">
        <ele>10.000000</ele>
        <time>2010-01-01T04:08:07Z</time>
      </trkpt>
      <trkpt lat="37.07251000" lon="-8.80589000">
        <ele>7.0000000</ele>
        <time>2010-01-01T04:08:15Z</time>
      </trkpt>
      <trkpt lat="37.07271000" lon="-8.80597000">
        <ele>5.0000000</ele>
        <time>2010-01-01T04:08:23Z</time>
      </trkpt>
      <trkpt lat="37.07289000" lon="-8.80615000">
        <ele>3.0000000</ele>
        <time>2010-01-01T04:08:32Z</time>
      </trkpt>
      <trkpt lat="37.07291640" lon="-8.80618090">
        <ele>3.0000000</ele>
        <time>2010-01-01T04:08:34Z</time>
      </trkpt>
      <trkpt lat="37.07301000" lon="-8.80629000">
        <ele>3.0000000</ele>
        <time>2010-01-01T04:08:39Z</time>
      </trkpt>
      <trkpt lat="37.07326150" lon="-8.80664402">
        <ele>3.0000000</ele>
        <time>2010-01-01T04:08:54Z</time>
      </trkpt>
      <trkpt lat="37.07328000" lon="-8.80667000">
        <ele>4.0000000</ele>
        <time>2010-01-01T04:08:55Z</time>
      </trkpt>
      <trkpt lat="37.07345000" lon="-8.80721000">
        <ele>4.0000000</ele>
        <time>2010-01-01T04:09:14Z</time>
      </trkpt>
      <trkpt lat="37.07344420" lon="-8.80744267">
        <ele>4.0000000</ele>
        <time>2010-01-01T04:09:21Z</time>
      </trkpt>
      <trkpt lat="37.07343000" lon="-8.80802000">
        <ele>8.0000000</ele>
        <time>2010-01-01T04:09:40Z</time>
      </trkpt>
      <trkpt lat="37.07340860" lon="-8.80820895">
        <ele>8.0000000</ele>
        <time>2010-01-01T04:09:46Z</time>
      </trkpt>
      <trkpt lat="37.07338620" lon="-8.80840646">
        <ele>8.0000000</ele>
        <time>2010-01-01T04:09:52Z</time>
      </trkpt>
      <trkpt lat="37.07329440" lon="-8.80921779">
        <ele>5.0000000</ele>
        <time>2010-01-01T04:10:18Z</time>
      </trkpt>
      <trkpt lat="37.07325000" lon="-8.80961000">
        <ele>5.0000000</ele>
        <time>2010-01-01T04:10:31Z</time>
      </trkpt>
      <trkpt lat="37.07323520" lon="-8.80984358">
        <ele>5.0000000</ele>
        <time>2010-01-01T04:10:38Z</time>
      </trkpt>
      <trkpt lat="37.07317060" lon="-8.81087006">
        <ele>4.0000000</ele>
        <time>2010-01-01T04:11:11Z</time>
      </trkpt>
      <trkpt lat="37.07317000" lon="-8.81088000">
        <ele>4.0000000</ele>
        <time>2010-01-01T04:11:12Z</time>
      </trkpt>
      <trkpt lat="37.07313200" lon="-8.81124761">
        <ele>3.0000000</ele>
        <time>2010-01-01T04:11:23Z</time>
      </trkpt>
      <trkpt lat="37.07306470" lon="-8.81190028">
        <ele>3.0000000</ele>
        <time>2010-01-01T04:11:44Z</time>
      </trkpt>
      <trkpt lat="37.07302010" lon="-8.81233294">
        <ele>3.0000000</ele>
        <time>2010-01-01T04:11:58Z</time>
      </trkpt>
      <trkpt lat="37.07299130" lon="-8.81261175">
        <ele>3.0000000</ele>
        <time>2010-01-01T04:12:07Z</time>
      </trkpt>
      <trkpt lat="37.07297080" lon="-8.81281123">
        <ele>4.0000000</ele>
        <time>2010-01-01T04:12:14Z</time>
      </trkpt>
      <trkpt lat="37.07294600" lon="-8.81305150">
        <ele>8.0000000</ele>
        <time>2010-01-01T04:12:22Z</time>
      </trkpt>
      <trkpt lat="37.07294470" lon="-8.81306366">
        <ele>8.0000000</ele>
        <time>2010-01-01T04:12:22Z</time>
      </trkpt>
      <trkpt lat="37.07294190" lon="-8.81309152">
        <ele>9.0000000</ele>
        <time>2010-01-01T04:12:23Z</time>
      </trkpt>
      <trkpt lat="37.07294180" lon="-8.81309157">
        <ele>9.0000000</ele>
        <time>2010-01-01T04:12:23Z</time>
      </trkpt>
      <trkpt lat="37.07293820" lon="-8.81311583">
        <ele>10.000000</ele>
        <time>2010-01-01T04:12:24Z</time>
      </trkpt>
      <trkpt lat="37.07293380" lon="-8.81315568">
        <ele>11.000000</ele>
        <time>2010-01-01T04:12:25Z</time>
      </trkpt>
      <trkpt lat="37.07293000" lon="-8.81319000">
        <ele>12.000000</ele>
        <time>2010-01-01T04:12:26Z</time>
      </trkpt>
      <trkpt lat="37.07281500" lon="-8.81316762">
        <ele>12.000000</ele>
        <time>2010-01-01T04:12:31Z</time>
      </trkpt>
      <trkpt lat="37.07217370" lon="-8.81304275">
        <ele>9.0000000</ele>
        <time>2010-01-01T04:12:57Z</time>
      </trkpt>
      <trkpt lat="37.07210930" lon="-8.81303022">
        <ele>9.0000000</ele>
        <time>2010-01-01T04:12:59Z</time>
      </trkpt>
      <trkpt lat="37.07180000" lon="-8.81297000">
        <ele>6.0000000</ele>
        <time>2010-01-01T04:13:12Z</time>
      </trkpt>
      <trkpt lat="37.07160110" lon="-8.81292263">
        <ele>4.0000000</ele>
        <time>2010-01-01T04:13:20Z</time>
      </trkpt>
      <trkpt lat="37.07155420" lon="-8.81291146">
        <ele>4.0000000</ele>
        <time>2010-01-01T04:13:22Z</time>
      </trkpt>
      <trkpt lat="37.07097360" lon="-8.81277313">
        <ele>2.0000000</ele>
        <time>2010-01-01T04:13:45Z</time>
      </trkpt>
      <trkpt lat="37.07055120" lon="-8.81267250">
        <ele>5.0000000</ele>
        <time>2010-01-01T04:14:03Z</time>
      </trkpt>
      <trkpt lat="37.07034370" lon="-8.81262307">
        <ele>5.0000000</ele>
        <time>2010-01-01T04:14:11Z</time>
      </trkpt>
      <trkpt lat="37.06938940" lon="-8.81239572">
        <ele>2.0000000</ele>
        <time>2010-01-01T04:14:50Z</time>
      </trkpt>
      <trkpt lat="37.06932250" lon="-8.81237980">
        <ele>2.0000000</ele>
        <time>2010-01-01T04:14:53Z</time>
      </trkpt>
      <trkpt lat="37.06832520" lon="-8.81214220">
        <ele>3.0000000</ele>
        <time>2010-01-01T04:15:33Z</time>
      </trkpt>
      <trkpt lat="37.06819400" lon="-8.81211096">
        <ele>3.0000000</ele>
        <time>2010-01-01T04:15:39Z</time>
      </trkpt>
      <trkpt lat="37.06819000" lon="-8.81211000">
        <ele>4.0000000</ele>
        <time>2010-01-01T04:15:39Z</time>
      </trkpt>
      <trkpt lat="37.06736250" lon="-8.81188680">
        <ele>6.0000000</ele>
        <time>2010-01-01T04:16:13Z</time>
      </trkpt>
      <trkpt lat="37.06717280" lon="-8.81183562">
        <ele>7.0000000</ele>
        <time>2010-01-01T04:16:21Z</time>
      </trkpt>
      <trkpt lat="37.06667000" lon="-8.81170000">
        <ele>12.000000</ele>
        <time>2010-01-01T04:16:41Z</time>
      </trkpt>
      <trkpt lat="37.06652870" lon="-8.81168370">
        <ele>14.000000</ele>
        <time>2010-01-01T04:16:47Z</time>
      </trkpt>
      <trkpt lat="37.06615880" lon="-8.81164102">
        <ele>19.000000</ele>
        <time>2010-01-01T04:17:02Z</time>
      </trkpt>
      <trkpt lat="37.06589000" lon="-8.81161000">
        <ele>17.000000</ele>
        <time>2010-01-01T04:17:12Z</time>
      </trkpt>
      <trkpt lat="37.06579820" lon="-8.81171323">
        <ele>16.000000</ele>
        <time>2010-01-01T04:17:17Z</time>
      </trkpt>
      <trkpt lat="37.06575780" lon="-8.81175864">
        <ele>15.000000</ele>
        <time>2010-01-01T04:17:20Z</time>
      </trkpt>
      <trkpt lat="37.06575780" lon="-8.81175870">
        <ele>15.000000</ele>
        <time>2010-01-01T04:17:20Z</time>
      </trkpt>
      <trkpt lat="37.06572080" lon="-8.81179281">
        <ele>14.000000</ele>
        <time>2010-01-01T04:17:21Z</time>
      </trkpt>
      <trkpt lat="37.06568000" lon="-8.81185000">
        <ele>13.000000</ele>
        <time>2010-01-01T04:17:24Z</time>
      </trkpt>
      <trkpt lat="37.06568000" lon="-8.81200763">
        <ele>13.000000</ele>
        <time>2010-01-01T04:17:29Z</time>
      </trkpt>
      <trkpt lat="37.06568000" lon="-8.81212266">
        <ele>12.000000</ele>
        <time>2010-01-01T04:17:33Z</time>
      </trkpt>
      <trkpt lat="37.06568000" lon="-8.81220000">
        <ele>12.000000</ele>
        <time>2010-01-01T04:17:35Z</time>
      </trkpt>
      <trkpt lat="37.06574740" lon="-8.81228093">
        <ele>14.000000</ele>
        <time>2010-01-01T04:17:39Z</time>
      </trkpt>
      <trkpt lat="37.06583000" lon="-8.81238000">
        <ele>17.000000</ele>
        <time>2010-01-01T04:17:43Z</time>
      </trkpt>
      <trkpt lat="37.06586680" lon="-8.81240166">
        <ele>18.000000</ele>
        <time>2010-01-01T04:17:45Z</time>
      </trkpt>
      <trkpt lat="37.06587740" lon="-8.81240792">
        <ele>18.000000</ele>
        <time>2010-01-01T04:17:45Z</time>
      </trkpt>
      <trkpt lat="37.06596770" lon="-8.81246100">
        <ele>21.000000</ele>
        <time>2010-01-01T04:17:49Z</time>
      </trkpt>
      <trkpt lat="37.06600000" lon="-8.81248000">
        <ele>23.000000</ele>
        <time>2010-01-01T04:17:51Z</time>
      </trkpt>
      <trkpt lat="37.06608400" lon="-8.81249940">
        <ele>26.000000</ele>
        <time>2010-01-01T04:17:54Z</time>
      </trkpt>
      <trkpt lat="37.06611560" lon="-8.81250669">
        <ele>27.000000</ele>
        <time>2010-01-01T04:17:56Z</time>
      </trkpt>
      <trkpt lat="37.06622240" lon="-8.81253134">
        <ele>29.000000</ele>
        <time>2010-01-01T04:18:00Z</time>
      </trkpt>
      <trkpt lat="37.06625640" lon="-8.81253917">
        <ele>30.000000</ele>
        <time>2010-01-01T04:18:01Z</time>
      </trkpt>
      <trkpt lat="37.06634220" lon="-8.81255898">
        <ele>32.000000</ele>
        <time>2010-01-01T04:18:05Z</time>
      </trkpt>
      <trkpt lat="37.06642820" lon="-8.81257881">
        <ele>33.000000</ele>
        <time>2010-01-01T04:18:08Z</time>
      </trkpt>
      <trkpt lat="37.06652610" lon="-8.81260142">
        <ele>34.000000</ele>
        <time>2010-01-01T04:18:12Z</time>
      </trkpt>
      <trkpt lat="37.06658320" lon="-8.81261460">
        <ele>35.000000</ele>
        <time>2010-01-01T04:18:15Z</time>
      </trkpt>
      <trkpt lat="37.06665000" lon="-8.81263000">
        <ele>36.000000</ele>
        <time>2010-01-01T04:18:17Z</time>
      </trkpt>
      <trkpt lat="37.06665280" lon="-8.81263172">
        <ele>36.000000</ele>
        <time>2010-01-01T04:18:17Z</time>
      </trkpt>
      <trkpt lat="37.06674130" lon="-8.81268557">
        <ele>37.000000</ele>
        <time>2010-01-01T04:18:21Z</time>
      </trkpt>
      <trkpt lat="37.06681950" lon="-8.81273318">
        <ele>39.000000</ele>
        <time>2010-01-01T04:18:25Z</time>
      </trkpt>
      <trkpt lat="37.06692410" lon="-8.81279688">
        <ele>41.000000</ele>
        <time>2010-01-01T04:18:30Z</time>
      </trkpt>
      <trkpt lat="37.06699340" lon="-8.81283906">
        <ele>41.000000</ele>
        <time>2010-01-01T04:18:33Z</time>
      </trkpt>
      <trkpt lat="37.06706880" lon="-8.81288494">
        <ele>41.000000</ele>
        <time>2010-01-01T04:18:36Z</time>
      </trkpt>
      <trkpt lat="37.06711000" lon="-8.81291000">
        <ele>42.000000</ele>
        <time>2010-01-01T04:18:38Z</time>
      </trkpt>
      <trkpt lat="37.06723790" lon="-8.81301623">
        <ele>43.000000</ele>
        <time>2010-01-01T04:18:44Z</time>
      </trkpt>
      <trkpt lat="37.06726210" lon="-8.81303633">
        <ele>43.000000</ele>
        <time>2010-01-01T04:18:45Z</time>
      </trkpt>
      <trkpt lat="37.06736160" lon="-8.81311897">
        <ele>43.000000</ele>
        <time>2010-01-01T04:18:50Z</time>
      </trkpt>
      <trkpt lat="37.06736980" lon="-8.81312579">
        <ele>43.000000</ele>
        <time>2010-01-01T04:18:50Z</time>
      </trkpt>
      <trkpt lat="37.06748310" lon="-8.81321990">
        <ele>43.000000</ele>
        <time>2010-01-01T04:18:56Z</time>
      </trkpt>
      <trkpt lat="37.06748810" lon="-8.81322409">
        <ele>43.000000</ele>
        <time>2010-01-01T04:18:56Z</time>
      </trkpt>
      <trkpt lat="37.06760180" lon="-8.81331850">
        <ele>42.000000</ele>
        <time>2010-01-01T04:19:01Z</time>
      </trkpt>
      <trkpt lat="37.06762650" lon="-8.81333902">
        <ele>42.000000</ele>
        <time>2010-01-01T04:19:03Z</time>
      </trkpt>
      <trkpt lat="37.06770000" lon="-8.81340000">
        <ele>42.000000</ele>
        <time>2010-01-01T04:19:06Z</time>
      </trkpt>
      <trkpt lat="37.06772510" lon="-8.81343265">
        <ele>42.000000</ele>
        <time>2010-01-01T04:19:08Z</time>
      </trkpt>
      <trkpt lat="37.06772660" lon="-8.81343459">
        <ele>42.000000</ele>
        <time>2010-01-01T04:19:08Z</time>
      </trkpt>
      <trkpt lat="37.06781590" lon="-8.81355071">
        <ele>44.000000</ele>
        <time>2010-01-01T04:19:13Z</time>
      </trkpt>
      <trkpt lat="37.06784770" lon="-8.81359205">
        <ele>44.000000</ele>
        <time>2010-01-01T04:19:15Z</time>
      </trkpt>
      <trkpt lat="37.06790000" lon="-8.81366000">
        <ele>44.000000</ele>
        <time>2010-01-01T04:19:18Z</time>
      </trkpt>
      <trkpt lat="37.06790890" lon="-8.81368608">
        <ele>44.000000</ele>
        <time>2010-01-01T04:19:19Z</time>
      </trkpt>
      <trkpt lat="37.06792600" lon="-8.81373563">
        <ele>45.000000</ele>
        <time>2010-01-01T04:19:20Z</time>
      </trkpt>
      <trkpt lat="37.06796660" lon="-8.81385362">
        <ele>45.000000</ele>
        <time>2010-01-01T04:19:24Z</time>
      </trkpt>
      <trkpt lat="37.06798070" lon="-8.81389443">
        <ele>45.000000</ele>
        <time>2010-01-01T04:19:26Z</time>
      </trkpt>
      <trkpt lat="37.06804110" lon="-8.81406989">
        <ele>46.000000</ele>
        <time>2010-01-01T04:19:32Z</time>
      </trkpt>
      <trkpt lat="37.06805310" lon="-8.81410491">
        <ele>46.000000</ele>
        <time>2010-01-01T04:19:33Z</time>
      </trkpt>
      <trkpt lat="37.06809020" lon="-8.81421263">
        <ele>48.000000</ele>
        <time>2010-01-01T04:19:37Z</time>
      </trkpt>
      <trkpt lat="37.06811000" lon="-8.81427000">
        <ele>49.000000</ele>
        <time>2010-01-01T04:19:39Z</time>
      </trkpt>
      <trkpt lat="37.06813370" lon="-8.81429377">
        <ele>49.000000</ele>
        <time>2010-01-01T04:19:40Z</time>
      </trkpt>
      <trkpt lat="37.06824220" lon="-8.81440228">
        <ele>49.000000</ele>
        <time>2010-01-01T04:19:46Z</time>
      </trkpt>
      <trkpt lat="37.06825340" lon="-8.81441344">
        <ele>49.000000</ele>
        <time>2010-01-01T04:19:46Z</time>
      </trkpt>
      <trkpt lat="37.06829000" lon="-8.81445000">
        <ele>49.000000</ele>
        <time>2010-01-01T04:19:48Z</time>
      </trkpt>
      <trkpt lat="37.06834110" lon="-8.81447301">
        <ele>49.000000</ele>
        <time>2010-01-01T04:19:50Z</time>
      </trkpt>
      <trkpt lat="37.06840610" lon="-8.81450225">
        <ele>49.000000</ele>
        <time>2010-01-01T04:19:53Z</time>
      </trkpt>
      <trkpt lat="37.06843510" lon="-8.81451532">
        <ele>50.000000</ele>
        <time>2010-01-01T04:19:54Z</time>
      </trkpt>
      <trkpt lat="37.06849000" lon="-8.81454000">
        <ele>50.000000</ele>
        <time>2010-01-01T04:19:57Z</time>
      </trkpt>
      <trkpt lat="37.06855010" lon="-8.81454546">
        <ele>50.000000</ele>
        <time>2010-01-01T04:19:59Z</time>
      </trkpt>
      <trkpt lat="37.06857590" lon="-8.81454781">
        <ele>50.000000</ele>
        <time>2010-01-01T04:20:00Z</time>
      </trkpt>
      <trkpt lat="37.06870390" lon="-8.81455944">
        <ele>51.000000</ele>
        <time>2010-01-01T04:20:05Z</time>
      </trkpt>
      <trkpt lat="37.06871000" lon="-8.81456000">
        <ele>51.000000</ele>
        <time>2010-01-01T04:20:05Z</time>
      </trkpt>
      <trkpt lat="37.06874950" lon="-8.81454920">
        <ele>52.000000</ele>
        <time>2010-01-01T04:20:07Z</time>
      </trkpt>
      <trkpt lat="37.06882000" lon="-8.81453000">
        <ele>52.000000</ele>
        <time>2010-01-01T04:20:10Z</time>
      </trkpt>
      <trkpt lat="37.06886390" lon="-8.81449040">
        <ele>52.000000</ele>
        <time>2010-01-01T04:20:12Z</time>
      </trkpt>
      <trkpt lat="37.06891150" lon="-8.81444756">
        <ele>52.000000</ele>
        <time>2010-01-01T04:20:14Z</time>
      </trkpt>
      <trkpt lat="37.06901000" lon="-8.81435892">
        <ele>50.000000</ele>
        <time>2010-01-01T04:20:19Z</time>
      </trkpt>
      <trkpt lat="37.06904730" lon="-8.81432538">
        <ele>49.000000</ele>
        <time>2010-01-01T04:20:21Z</time>
      </trkpt>
      <trkpt lat="37.06912000" lon="-8.81426000">
        <ele>48.000000</ele>
        <time>2010-01-01T04:20:25Z</time>
      </trkpt>
      <trkpt lat="37.06913910" lon="-8.81425495">
        <ele>48.000000</ele>
        <time>2010-01-01T04:20:26Z</time>
      </trkpt>
      <trkpt lat="37.06921360" lon="-8.81423534">
        <ele>47.000000</ele>
        <time>2010-01-01T04:20:29Z</time>
      </trkpt>
      <trkpt lat="37.06927230" lon="-8.81421991">
        <ele>46.000000</ele>
        <time>2010-01-01T04:20:31Z</time>
      </trkpt>
      <trkpt lat="37.06931000" lon="-8.81421000">
        <ele>46.000000</ele>
        <time>2010-01-01T04:20:33Z</time>
      </trkpt>
      <trkpt lat="37.06937060" lon="-8.81422325">
        <ele>46.000000</ele>
        <time>2010-01-01T04:20:35Z</time>
      </trkpt>
      <trkpt lat="37.06939650" lon="-8.81422892">
        <ele>46.000000</ele>
        <time>2010-01-01T04:20:36Z</time>
      </trkpt>
      <trkpt lat="37.06944980" lon="-8.81424058">
        <ele>46.000000</ele>
        <time>2010-01-01T04:20:38Z</time>
      </trkpt>
      <trkpt lat="37.06956780" lon="-8.81426640">
        <ele>46.000000</ele>
        <time>2010-01-01T04:20:43Z</time>
      </trkpt>
      <trkpt lat="37.06961250" lon="-8.81427617">
        <ele>46.000000</ele>
        <time>2010-01-01T04:20:45Z</time>
      </trkpt>
      <trkpt lat="37.06963000" lon="-8.81428000">
        <ele>46.000000</ele>
        <time>2010-01-01T04:20:46Z</time>
      </trkpt>
      <trkpt lat="37.06970170" lon="-8.81433810">
        <ele>47.000000</ele>
        <time>2010-01-01T04:20:49Z</time>
      </trkpt>
      <trkpt lat="37.06975380" lon="-8.81438029">
        <ele>48.000000</ele>
        <time>2010-01-01T04:20:51Z</time>
      </trkpt>
      <trkpt lat="37.06984000" lon="-8.81445000">
        <ele>48.000000</ele>
        <time>2010-01-01T04:20:56Z</time>
      </trkpt>
      <trkpt lat="37.06986250" lon="-8.81454030">
        <ele>50.000000</ele>
        <time>2010-01-01T04:20:59Z</time>
      </trkpt>
      <trkpt lat="37.06988540" lon="-8.81463183">
        <ele>51.000000</ele>
        <time>2010-01-01T04:21:02Z</time>
      </trkpt>
      <trkpt lat="37.06993000" lon="-8.81481000">
        <ele>52.000000</ele>
        <time>2010-01-01T04:21:08Z</time>
      </trkpt>
      <trkpt lat="37.06993060" lon="-8.81482683">
        <ele>52.000000</ele>
        <time>2010-01-01T04:21:08Z</time>
      </trkpt>
      <trkpt lat="37.06993700" lon="-8.81499984">
        <ele>54.000000</ele>
        <time>2010-01-01T04:21:14Z</time>
      </trkpt>
      <trkpt lat="37.06994250" lon="-8.81514869">
        <ele>54.000000</ele>
        <time>2010-01-01T04:21:18Z</time>
      </trkpt>
      <trkpt lat="37.06994790" lon="-8.81529507">
        <ele>54.000000</ele>
        <time>2010-01-01T04:21:23Z</time>
      </trkpt>
      <trkpt lat="37.06995590" lon="-8.81551134">
        <ele>55.000000</ele>
        <time>2010-01-01T04:21:30Z</time>
      </trkpt>
      <trkpt lat="37.06995990" lon="-8.81561768">
        <ele>56.000000</ele>
        <time>2010-01-01T04:21:33Z</time>
      </trkpt>
      <trkpt lat="37.06996000" lon="-8.81562000">
        <ele>56.000000</ele>
        <time>2010-01-01T04:21:33Z</time>
      </trkpt>
      <trkpt lat="37.06996740" lon="-8.81574855">
        <ele>57.000000</ele>
        <time>2010-01-01T04:21:38Z</time>
      </trkpt>
      <trkpt lat="37.06997790" lon="-8.81593194">
        <ele>59.000000</ele>
        <time>2010-01-01T04:21:43Z</time>
      </trkpt>
      <trkpt lat="37.06998390" lon="-8.81603431">
        <ele>60.000000</ele>
        <time>2010-01-01T04:21:47Z</time>
      </trkpt>
      <trkpt lat="37.06999640" lon="-8.81625156">
        <ele>61.000000</ele>
        <time>2010-01-01T04:21:54Z</time>
      </trkpt>
      <trkpt lat="37.07000120" lon="-8.81633412">
        <ele>61.000000</ele>
        <time>2010-01-01T04:21:56Z</time>
      </trkpt>
      <trkpt lat="37.07001100" lon="-8.81650452">
        <ele>61.000000</ele>
        <time>2010-01-01T04:22:02Z</time>
      </trkpt>
      <trkpt lat="37.07001310" lon="-8.81654091">
        <ele>61.000000</ele>
        <time>2010-01-01T04:22:03Z</time>
      </trkpt>
      <trkpt lat="37.07002000" lon="-8.81666000">
        <ele>60.000000</ele>
        <time>2010-01-01T04:22:07Z</time>
      </trkpt>
      <trkpt lat="37.07002500" lon="-8.81676641">
        <ele>60.000000</ele>
        <time>2010-01-01T04:22:10Z</time>
      </trkpt>
      <trkpt lat="37.07002500" lon="-8.81676652">
        <ele>60.000000</ele>
        <time>2010-01-01T04:22:10Z</time>
      </trkpt>
      <trkpt lat="37.07003110" lon="-8.81689464">
        <ele>60.000000</ele>
        <time>2010-01-01T04:22:14Z</time>
      </trkpt>
      <trkpt lat="37.07003540" lon="-8.81698485">
        <ele>60.000000</ele>
        <time>2010-01-01T04:22:17Z</time>
      </trkpt>
      <trkpt lat="37.07003630" lon="-8.81700338">
        <ele>60.000000</ele>
        <time>2010-01-01T04:22:18Z</time>
      </trkpt>
      <trkpt lat="37.07003910" lon="-8.81706164">
        <ele>60.000000</ele>
        <time>2010-01-01T04:22:20Z</time>
      </trkpt>
      <trkpt lat="37.07004000" lon="-8.81708000">
        <ele>60.000000</ele>
        <time>2010-01-01T04:22:20Z</time>
      </trkpt>
      <trkpt lat="37.07004600" lon="-8.81717323">
        <ele>60.000000</ele>
        <time>2010-01-01T04:22:23Z</time>
      </trkpt>
      <trkpt lat="37.07005200" lon="-8.81726578">
        <ele>59.000000</ele>
        <time>2010-01-01T04:22:26Z</time>
      </trkpt>
      <trkpt lat="37.07005340" lon="-8.81728776">
        <ele>59.000000</ele>
        <time>2010-01-01T04:22:27Z</time>
      </trkpt>
      <trkpt lat="37.07005670" lon="-8.81733824">
        <ele>59.000000</ele>
        <time>2010-01-01T04:22:28Z</time>
      </trkpt>
      <trkpt lat="37.07007630" lon="-8.81764264">
        <ele>57.000000</ele>
        <time>2010-01-01T04:22:38Z</time>
      </trkpt>
      <trkpt lat="37.07007900" lon="-8.81768297">
        <ele>56.000000</ele>
        <time>2010-01-01T04:22:40Z</time>
      </trkpt>
      <trkpt lat="37.07009430" lon="-8.81792089">
        <ele>54.000000</ele>
        <time>2010-01-01T04:22:47Z</time>
      </trkpt>
      <trkpt lat="37.07010520" lon="-8.81808828">
        <ele>52.000000</ele>
        <time>2010-01-01T04:22:53Z</time>
      </trkpt>
      <trkpt lat="37.07011770" lon="-8.81828172">
        <ele>50.000000</ele>
        <time>2010-01-01T04:22:59Z</time>
      </trkpt>
      <trkpt lat="37.07012550" lon="-8.81840242">
        <ele>49.000000</ele>
        <time>2010-01-01T04:23:03Z</time>
      </trkpt>
      <trkpt lat="37.07014240" lon="-8.81866338">
        <ele>49.000000</ele>
        <time>2010-01-01T04:23:11Z</time>
      </trkpt>
      <trkpt lat="37.07014980" lon="-8.81877793">
        <ele>49.000000</ele>
        <time>2010-01-01T04:23:15Z</time>
      </trkpt>
      <trkpt lat="37.07016430" lon="-8.81900338">
        <ele>50.000000</ele>
        <time>2010-01-01T04:23:22Z</time>
      </trkpt>
      <trkpt lat="37.07017000" lon="-8.81909000">
        <ele>50.000000</ele>
        <time>2010-01-01T04:23:25Z</time>
      </trkpt>
      <trkpt lat="37.07015490" lon="-8.81915221">
        <ele>50.000000</ele>
        <time>2010-01-01T04:23:27Z</time>
      </trkpt>
      <trkpt lat="37.07011170" lon="-8.81933091">
        <ele>50.000000</ele>
        <time>2010-01-01T04:23:33Z</time>
      </trkpt>
      <trkpt lat="37.07007010" lon="-8.81950289">
        <ele>49.000000</ele>
        <time>2010-01-01T04:23:38Z</time>
      </trkpt>
      <trkpt lat="37.07002340" lon="-8.81969573">
        <ele>49.000000</ele>
        <time>2010-01-01T04:23:45Z</time>
      </trkpt>
      <trkpt lat="37.07002000" lon="-8.81971000">
        <ele>49.000000</ele>
        <time>2010-01-01T04:23:45Z</time>
      </trkpt>
      <trkpt lat="37.06998170" lon="-8.81980184">
        <ele>49.000000</ele>
        <time>2010-01-01T04:23:49Z</time>
      </trkpt>
      <trkpt lat="37.06985740" lon="-8.82010016">
        <ele>49.000000</ele>
        <time>2010-01-01T04:23:59Z</time>
      </trkpt>
      <trkpt lat="37.06982660" lon="-8.82017401">
        <ele>49.000000</ele>
        <time>2010-01-01T04:24:02Z</time>
      </trkpt>
      <trkpt lat="37.06982000" lon="-8.82019000">
        <ele>49.000000</ele>
        <time>2010-01-01T04:24:03Z</time>
      </trkpt>
      <trkpt lat="37.06966410" lon="-8.82039291">
        <ele>48.000000</ele>
        <time>2010-01-01T04:24:12Z</time>
      </trkpt>
      <trkpt lat="37.06965810" lon="-8.82040069">
        <ele>48.000000</ele>
        <time>2010-01-01T04:24:12Z</time>
      </trkpt>
      <trkpt lat="37.06956770" lon="-8.82051844">
        <ele>46.000000</ele>
        <time>2010-01-01T04:24:17Z</time>
      </trkpt>
      <trkpt lat="37.06942370" lon="-8.82070592">
        <ele>44.000000</ele>
        <time>2010-01-01T04:24:25Z</time>
      </trkpt>
      <trkpt lat="37.06936540" lon="-8.82078189">
        <ele>44.000000</ele>
        <time>2010-01-01T04:24:29Z</time>
      </trkpt>
      <trkpt lat="37.06922890" lon="-8.82095966">
        <ele>42.000000</ele>
        <time>2010-01-01T04:24:37Z</time>
      </trkpt>
      <trkpt lat="37.06910710" lon="-8.82111817">
        <ele>41.000000</ele>
        <time>2010-01-01T04:24:44Z</time>
      </trkpt>
      <trkpt lat="37.06900050" lon="-8.82125700">
        <ele>40.000000</ele>
        <time>2010-01-01T04:24:50Z</time>
      </trkpt>
      <trkpt lat="37.06891010" lon="-8.82137465">
        <ele>39.000000</ele>
        <time>2010-01-01T04:24:55Z</time>
      </trkpt>
      <trkpt lat="37.06886000" lon="-8.82144000">
        <ele>38.000000</ele>
        <time>2010-01-01T04:24:58Z</time>
      </trkpt>
      <trkpt lat="37.06882250" lon="-8.82151169">
        <ele>38.000000</ele>
        <time>2010-01-01T04:25:01Z</time>
      </trkpt>
      <trkpt lat="37.06870500" lon="-8.82173648">
        <ele>37.000000</ele>
        <time>2010-01-01T04:25:09Z</time>
      </trkpt>
      <trkpt lat="37.06870020" lon="-8.82174566">
        <ele>37.000000</ele>
        <time>2010-01-01T04:25:10Z</time>
      </trkpt>
      <trkpt lat="37.06863000" lon="-8.82188000">
        <ele>35.000000</ele>
        <time>2010-01-01T04:25:15Z</time>
      </trkpt>
      <trkpt lat="37.06862330" lon="-8.82201917">
        <ele>34.000000</ele>
        <time>2010-01-01T04:25:19Z</time>
      </trkpt>
      <trkpt lat="37.06862160" lon="-8.82205480">
        <ele>34.000000</ele>
        <time>2010-01-01T04:25:20Z</time>
      </trkpt>
      <trkpt lat="37.06862000" lon="-8.82209000">
        <ele>34.000000</ele>
        <time>2010-01-01T04:25:22Z</time>
      </trkpt>
      <trkpt lat="37.06866740" lon="-8.82227718">
        <ele>33.000000</ele>
        <time>2010-01-01T04:25:28Z</time>
      </trkpt>
      <trkpt lat="37.06866920" lon="-8.82228447">
        <ele>32.000000</ele>
        <time>2010-01-01T04:25:28Z</time>
      </trkpt>
      <trkpt lat="37.06873910" lon="-8.82256051">
        <ele>32.000000</ele>
        <time>2010-01-01T04:25:37Z</time>
      </trkpt>
      <trkpt lat="37.06875130" lon="-8.82260860">
        <ele>32.000000</ele>
        <time>2010-01-01T04:25:39Z</time>
      </trkpt>
      <trkpt lat="37.06880130" lon="-8.82280596">
        <ele>35.000000</ele>
        <time>2010-01-01T04:25:46Z</time>
      </trkpt>
      <trkpt lat="37.06881000" lon="-8.82284000">
        <ele>36.000000</ele>
        <time>2010-01-01T04:25:47Z</time>
      </trkpt>
      <trkpt lat="37.06880020" lon="-8.82286172">
        <ele>36.000000</ele>
        <time>2010-01-01T04:25:47Z</time>
      </trkpt>
      <trkpt lat="37.06872000" lon="-8.82304000">
        <ele>39.000000</ele>
        <time>2010-01-01T04:25:54Z</time>
      </trkpt>
      <trkpt lat="37.06862740" lon="-8.82310363">
        <ele>38.000000</ele>
        <time>2010-01-01T04:25:58Z</time>
      </trkpt>
      <trkpt lat="37.06856500" lon="-8.82314650">
        <ele>38.000000</ele>
        <time>2010-01-01T04:26:01Z</time>
      </trkpt>
      <trkpt lat="37.06853420" lon="-8.82316770">
        <ele>39.000000</ele>
        <time>2010-01-01T04:26:02Z</time>
      </trkpt>
      <trkpt lat="37.06842520" lon="-8.82324264">
        <ele>39.000000</ele>
        <time>2010-01-01T04:26:07Z</time>
      </trkpt>
      <trkpt lat="37.06840000" lon="-8.82326000">
        <ele>39.000000</ele>
        <time>2010-01-01T04:26:09Z</time>
      </trkpt>
      <trkpt lat="37.06829230" lon="-8.82326000">
        <ele>38.000000</ele>
        <time>2010-01-01T04:26:13Z</time>
      </trkpt>
      <trkpt lat="37.06822300" lon="-8.82326000">
        <ele>37.000000</ele>
        <time>2010-01-01T04:26:16Z</time>
      </trkpt>
      <trkpt lat="37.06821000" lon="-8.82326000">
        <ele>37.000000</ele>
        <time>2010-01-01T04:26:16Z</time>
      </trkpt>
      <trkpt lat="37.06811210" lon="-8.82321107">
        <ele>35.000000</ele>
        <time>2010-01-01T04:26:20Z</time>
      </trkpt>
      <trkpt lat="37.06807990" lon="-8.82319496">
        <ele>35.000000</ele>
        <time>2010-01-01T04:26:22Z</time>
      </trkpt>
      <trkpt lat="37.06796600" lon="-8.82313803">
        <ele>34.000000</ele>
        <time>2010-01-01T04:26:27Z</time>
      </trkpt>
      <trkpt lat="37.06794030" lon="-8.82312515">
        <ele>33.000000</ele>
        <time>2010-01-01T04:26:28Z</time>
      </trkpt>
      <trkpt lat="37.06781080" lon="-8.82306041">
        <ele>32.000000</ele>
        <time>2010-01-01T04:26:33Z</time>
      </trkpt>
      <trkpt lat="37.06781000" lon="-8.82306000">
        <ele>32.000000</ele>
        <time>2010-01-01T04:26:33Z</time>
      </trkpt>
      <trkpt lat="37.06770740" lon="-8.82303202">
        <ele>31.000000</ele>
        <time>2010-01-01T04:26:38Z</time>
      </trkpt>
      <trkpt lat="37.06764380" lon="-8.82301467">
        <ele>30.000000</ele>
        <time>2010-01-01T04:26:40Z</time>
      </trkpt>
      <trkpt lat="37.06752180" lon="-8.82298142">
        <ele>29.000000</ele>
        <time>2010-01-01T04:26:45Z</time>
      </trkpt>
      <trkpt lat="37.06748000" lon="-8.82297000">
        <ele>28.000000</ele>
        <time>2010-01-01T04:26:47Z</time>
      </trkpt>
      <trkpt lat="37.06742910" lon="-8.82298241">
        <ele>28.000000</ele>
        <time>2010-01-01T04:26:49Z</time>
      </trkpt>
      <trkpt lat="37.06733470" lon="-8.82300542">
        <ele>27.000000</ele>
        <time>2010-01-01T04:26:53Z</time>
      </trkpt>
      <trkpt lat="37.06724610" lon="-8.82302704">
        <ele>26.000000</ele>
        <time>2010-01-01T04:26:56Z</time>
      </trkpt>
      <trkpt lat="37.06716280" lon="-8.82304734">
        <ele>25.000000</ele>
        <time>2010-01-01T04:27:00Z</time>
      </trkpt>
      <trkpt lat="37.06707000" lon="-8.82307000">
        <ele>24.000000</ele>
        <time>2010-01-01T04:27:04Z</time>
      </trkpt>
      <trkpt lat="37.06701780" lon="-8.82310567">
        <ele>24.000000</ele>
        <time>2010-01-01T04:27:06Z</time>
      </trkpt>
      <trkpt lat="37.06692170" lon="-8.82317145">
        <ele>23.000000</ele>
        <time>2010-01-01T04:27:10Z</time>
      </trkpt>
      <trkpt lat="37.06688000" lon="-8.82320000">
        <ele>23.000000</ele>
        <time>2010-01-01T04:27:12Z</time>
      </trkpt>
      <trkpt lat="37.06685280" lon="-8.82323178">
        <ele>23.000000</ele>
        <time>2010-01-01T04:27:14Z</time>
      </trkpt>
      <trkpt lat="37.06675720" lon="-8.82334390">
        <ele>21.000000</ele>
        <time>2010-01-01T04:27:19Z</time>
      </trkpt>
      <trkpt lat="37.06669090" lon="-8.82342160">
        <ele>20.000000</ele>
        <time>2010-01-01T04:27:23Z</time>
      </trkpt>
      <trkpt lat="37.06668600" lon="-8.82342738">
        <ele>20.000000</ele>
        <time>2010-01-01T04:27:23Z</time>
      </trkpt>
      <trkpt lat="37.06663620" lon="-8.82348580">
        <ele>20.000000</ele>
        <time>2010-01-01T04:27:26Z</time>
      </trkpt>
      <trkpt lat="37.06661390" lon="-8.82351197">
        <ele>20.000000</ele>
        <time>2010-01-01T04:27:27Z</time>
      </trkpt>
      <trkpt lat="37.06660660" lon="-8.82352049">
        <ele>20.000000</ele>
        <time>2010-01-01T04:27:27Z</time>
      </trkpt>
      <trkpt lat="37.06659000" lon="-8.82354000">
        <ele>19.000000</ele>
        <time>2010-01-01T04:27:28Z</time>
      </trkpt>
      <trkpt lat="37.06654770" lon="-8.82361188">
        <ele>19.000000</ele>
        <time>2010-01-01T04:27:31Z</time>
      </trkpt>
      <trkpt lat="37.06652970" lon="-8.82364245">
        <ele>18.000000</ele>
        <time>2010-01-01T04:27:32Z</time>
      </trkpt>
      <trkpt lat="37.06649490" lon="-8.82370160">
        <ele>17.000000</ele>
        <time>2010-01-01T04:27:35Z</time>
      </trkpt>
      <trkpt lat="37.06649000" lon="-8.82371000">
        <ele>17.000000</ele>
        <time>2010-01-01T04:27:35Z</time>
      </trkpt>
      <trkpt lat="37.06647660" lon="-8.82373585">
        <ele>17.000000</ele>
        <time>2010-01-01T04:27:36Z</time>
      </trkpt>
      <trkpt lat="37.06640480" lon="-8.82387527">
        <ele>15.000000</ele>
        <time>2010-01-01T04:27:41Z</time>
      </trkpt>
      <trkpt lat="37.06639930" lon="-8.82388590">
        <ele>15.000000</ele>
        <time>2010-01-01T04:27:42Z</time>
      </trkpt>
      <trkpt lat="37.06636020" lon="-8.82396182">
        <ele>15.000000</ele>
        <time>2010-01-01T04:27:45Z</time>
      </trkpt>
      <trkpt lat="37.06632000" lon="-8.82404000">
        <ele>14.000000</ele>
        <time>2010-01-01T04:27:48Z</time>
      </trkpt>
      <trkpt lat="37.06631630" lon="-8.82405646">
        <ele>14.000000</ele>
        <time>2010-01-01T04:27:48Z</time>
      </trkpt>
      <trkpt lat="37.06629700" lon="-8.82414397">
        <ele>14.000000</ele>
        <time>2010-01-01T04:27:51Z</time>
      </trkpt>
      <trkpt lat="37.06628250" lon="-8.82420977">
        <ele>14.000000</ele>
        <time>2010-01-01T04:27:53Z</time>
      </trkpt>
      <trkpt lat="37.06625340" lon="-8.82434199">
        <ele>13.000000</ele>
        <time>2010-01-01T04:27:58Z</time>
      </trkpt>
      <trkpt lat="37.06623700" lon="-8.82441625">
        <ele>12.000000</ele>
        <time>2010-01-01T04:28:00Z</time>
      </trkpt>
      <trkpt lat="37.06621920" lon="-8.82449721">
        <ele>12.000000</ele>
        <time>2010-01-01T04:28:03Z</time>
      </trkpt>
      <trkpt lat="37.06621340" lon="-8.82452376">
        <ele>11.000000</ele>
        <time>2010-01-01T04:28:04Z</time>
      </trkpt>
      <trkpt lat="37.06619730" lon="-8.82459661">
        <ele>11.000000</ele>
        <time>2010-01-01T04:28:06Z</time>
      </trkpt>
      <trkpt lat="37.06619250" lon="-8.82461848">
        <ele>11.000000</ele>
        <time>2010-01-01T04:28:07Z</time>
      </trkpt>
      <trkpt lat="37.06618740" lon="-8.82463540">
        <ele>10.000000</ele>
        <time>2010-01-01T04:28:07Z</time>
      </trkpt>
      <trkpt lat="37.06618000" lon="-8.82468000">
        <ele>10.000000</ele>
        <time>2010-01-01T04:28:09Z</time>
      </trkpt>
      <trkpt lat="37.06607750" lon="-8.82462364">
        <ele>9.0000000</ele>
        <time>2010-01-01T04:28:13Z</time>
      </trkpt>
      <trkpt lat="37.06595930" lon="-8.82455862">
        <ele>8.0000000</ele>
        <time>2010-01-01T04:28:18Z</time>
      </trkpt>
      <trkpt lat="37.06578000" lon="-8.82446000">
        <ele>6.0000000</ele>
        <time>2010-01-01T04:28:26Z</time>
      </trkpt>
      <trkpt lat="37.06573310" lon="-8.82445279">
        <ele>6.0000000</ele>
        <time>2010-01-01T04:28:28Z</time>
      </trkpt>
      <trkpt lat="37.06565000" lon="-8.82444000">
        <ele>6.0000000</ele>
        <time>2010-01-01T04:28:31Z</time>
      </trkpt>
      <trkpt lat="37.06560000" lon="-8.82458000">
        <ele>6.0000000</ele>
        <time>2010-01-01T04:28:36Z</time>
      </trkpt>
      <trkpt lat="37.06557150" lon="-8.82479839">
        <ele>7.0000000</ele>
        <time>2010-01-01T04:28:43Z</time>
      </trkpt>
      <trkpt lat="37.06557000" lon="-8.82481000">
        <ele>7.0000000</ele>
        <time>2010-01-01T04:28:44Z</time>
      </trkpt>
      <trkpt lat="37.06554040" lon="-8.82490279">
        <ele>7.0000000</ele>
        <time>2010-01-01T04:28:47Z</time>
      </trkpt>
      <trkpt lat="37.06552880" lon="-8.82493947">
        <ele>7.0000000</ele>
        <time>2010-01-01T04:28:48Z</time>
      </trkpt>
      <trkpt lat="37.06551570" lon="-8.82498061">
        <ele>7.0000000</ele>
        <time>2010-01-01T04:28:50Z</time>
      </trkpt>
      <trkpt lat="37.06550810" lon="-8.82500444">
        <ele>7.0000000</ele>
        <time>2010-01-01T04:28:50Z</time>
      </trkpt>
      <trkpt lat="37.06550800" lon="-8.82500480">
        <ele>7.0000000</ele>
        <time>2010-01-01T04:28:50Z</time>
      </trkpt>
      <trkpt lat="37.06549350" lon="-8.82503621">
        <ele>7.0000000</ele>
        <time>2010-01-01T04:28:52Z</time>
      </trkpt>
      <trkpt lat="37.06546000" lon="-8.82512000">
        <ele>8.0000000</ele>
        <time>2010-01-01T04:28:55Z</time>
      </trkpt>
      <trkpt lat="37.06551000" lon="-8.82518000">
        <ele>8.0000000</ele>
        <time>2010-01-01T04:28:57Z</time>
      </trkpt>
      <trkpt lat="37.06570670" lon="-8.82525869">
        <ele>9.0000000</ele>
        <time>2010-01-01T04:29:06Z</time>
      </trkpt>
      <trkpt lat="37.06581000" lon="-8.82530000">
        <ele>9.0000000</ele>
        <time>2010-01-01T04:29:10Z</time>
      </trkpt>
      <trkpt lat="37.06582000" lon="-8.82519000">
        <ele>8.0000000</ele>
        <time>2010-01-01T04:29:14Z</time>
      </trkpt>
      <trkpt lat="37.06593650" lon="-8.82525657">
        <ele>8.0000000</ele>
        <time>2010-01-01T04:29:19Z</time>
      </trkpt>
      <trkpt lat="37.06603000" lon="-8.82531000">
        <ele>8.0000000</ele>
        <time>2010-01-01T04:29:23Z</time>
      </trkpt>
      <trkpt lat="37.06614000" lon="-8.82552000">
        <ele>7.0000000</ele>
        <time>2010-01-01T04:29:31Z</time>
      </trkpt>
      <trkpt lat="37.06612320" lon="-8.82568106">
        <ele>8.0000000</ele>
        <time>2010-01-01T04:29:36Z</time>
      </trkpt>
      <trkpt lat="37.06609800" lon="-8.82592408">
        <ele>11.000000</ele>
        <time>2010-01-01T04:29:44Z</time>
      </trkpt>
      <trkpt lat="37.06607000" lon="-8.82619349">
        <ele>16.000000</ele>
        <time>2010-01-01T04:29:53Z</time>
      </trkpt>
      <trkpt lat="37.06606000" lon="-8.82629000">
        <ele>17.000000</ele>
        <time>2010-01-01T04:29:56Z</time>
      </trkpt>
      <trkpt lat="37.06606000" lon="-8.82632273">
        <ele>17.000000</ele>
        <time>2010-01-01T04:29:57Z</time>
      </trkpt>
      <trkpt lat="37.06606000" lon="-8.82680215">
        <ele>22.000000</ele>
        <time>2010-01-01T04:30:12Z</time>
      </trkpt>
      <trkpt lat="37.06606000" lon="-8.82706686">
        <ele>25.000000</ele>
        <time>2010-01-01T04:30:20Z</time>
      </trkpt>
      <trkpt lat="37.06606000" lon="-8.82743907">
        <ele>29.000000</ele>
        <time>2010-01-01T04:30:32Z</time>
      </trkpt>
      <trkpt lat="37.06606000" lon="-8.82748052">
        <ele>30.000000</ele>
        <time>2010-01-01T04:30:34Z</time>
      </trkpt>
      <trkpt lat="37.06606000" lon="-8.82759000">
        <ele>31.000000</ele>
        <time>2010-01-01T04:30:37Z</time>
      </trkpt>
      <trkpt lat="37.06603230" lon="-8.82789003">
        <ele>34.000000</ele>
        <time>2010-01-01T04:30:47Z</time>
      </trkpt>
      <trkpt lat="37.06599320" lon="-8.82831493">
        <ele>38.000000</ele>
        <time>2010-01-01T04:31:00Z</time>
      </trkpt>
      <trkpt lat="37.06599000" lon="-8.82835000">
        <ele>38.000000</ele>
        <time>2010-01-01T04:31:02Z</time>
      </trkpt>
      <trkpt lat="37.06597610" lon="-8.82859403">
        <ele>42.000000</ele>
        <time>2010-01-01T04:31:09Z</time>
      </trkpt>
      <trkpt lat="37.06596000" lon="-8.82888000">
        <ele>47.000000</ele>
        <time>2010-01-01T04:31:19Z</time>
      </trkpt>
      <trkpt lat="37.06596560" lon="-8.82901079">
        <ele>49.000000</ele>
        <time>2010-01-01T04:31:23Z</time>
      </trkpt>
      <trkpt lat="37.06597000" lon="-8.82911000">
        <ele>51.000000</ele>
        <time>2010-01-01T04:31:26Z</time>
      </trkpt>
      <trkpt lat="37.06600000" lon="-8.82927000">
        <ele>54.000000</ele>
        <time>2010-01-01T04:31:31Z</time>
      </trkpt>
      <trkpt lat="37.06601930" lon="-8.82931120">
        <ele>55.000000</ele>
        <time>2010-01-01T04:31:33Z</time>
      </trkpt>
      <trkpt lat="37.06608000" lon="-8.82944000">
        <ele>58.000000</ele>
        <time>2010-01-01T04:31:37Z</time>
      </trkpt>
      <trkpt lat="37.06618480" lon="-8.82955354">
        <ele>60.000000</ele>
        <time>2010-01-01T04:31:43Z</time>
      </trkpt>
      <trkpt lat="37.06632000" lon="-8.82970000">
        <ele>63.000000</ele>
        <time>2010-01-01T04:31:50Z</time>
      </trkpt>
      <trkpt lat="37.06637590" lon="-8.82973811">
        <ele>63.000000</ele>
        <time>2010-01-01T04:31:53Z</time>
      </trkpt>
      <trkpt lat="37.06643030" lon="-8.82977526">
        <ele>64.000000</ele>
        <time>2010-01-01T04:31:55Z</time>
      </trkpt>
      <trkpt lat="37.06654000" lon="-8.82985000">
        <ele>65.000000</ele>
        <time>2010-01-01T04:32:00Z</time>
      </trkpt>
      <trkpt lat="37.06674350" lon="-8.82994824">
        <ele>67.000000</ele>
        <time>2010-01-01T04:32:09Z</time>
      </trkpt>
      <trkpt lat="37.06683000" lon="-8.82999000">
        <ele>68.000000</ele>
        <time>2010-01-01T04:32:13Z</time>
      </trkpt>
      <trkpt lat="37.06689660" lon="-8.83003704">
        <ele>69.000000</ele>
        <time>2010-01-01T04:32:16Z</time>
      </trkpt>
      <trkpt lat="37.06700000" lon="-8.83011000">
        <ele>69.000000</ele>
        <time>2010-01-01T04:32:20Z</time>
      </trkpt>
      <trkpt lat="37.06703590" lon="-8.83016079">
        <ele>70.000000</ele>
        <time>2010-01-01T04:32:23Z</time>
      </trkpt>
      <trkpt lat="37.06706930" lon="-8.83020794">
        <ele>70.000000</ele>
        <time>2010-01-01T04:32:25Z</time>
      </trkpt>
      <trkpt lat="37.06717000" lon="-8.83035000">
        <ele>71.000000</ele>
        <time>2010-01-01T04:32:31Z</time>
      </trkpt>
      <trkpt lat="37.06738000" lon="-8.83058162">
        <ele>70.000000</ele>
        <time>2010-01-01T04:32:42Z</time>
      </trkpt>
      <trkpt lat="37.06742340" lon="-8.83062948">
        <ele>70.000000</ele>
        <time>2010-01-01T04:32:44Z</time>
      </trkpt>
      <trkpt lat="37.06762360" lon="-8.83085033">
        <ele>69.000000</ele>
        <time>2010-01-01T04:32:55Z</time>
      </trkpt>
      <trkpt lat="37.06779270" lon="-8.83103678">
        <ele>69.000000</ele>
        <time>2010-01-01T04:33:04Z</time>
      </trkpt>
      <trkpt lat="37.06802500" lon="-8.83129292">
        <ele>68.000000</ele>
        <time>2010-01-01T04:33:16Z</time>
      </trkpt>
      <trkpt lat="37.06815450" lon="-8.83143578">
        <ele>67.000000</ele>
        <time>2010-01-01T04:33:23Z</time>
      </trkpt>
      <trkpt lat="37.06836540" lon="-8.83166834">
        <ele>67.000000</ele>
        <time>2010-01-01T04:33:34Z</time>
      </trkpt>
      <trkpt lat="37.06847860" lon="-8.83179320">
        <ele>67.000000</ele>
        <time>2010-01-01T04:33:40Z</time>
      </trkpt>
      <trkpt lat="37.06865440" lon="-8.83198712">
        <ele>68.000000</ele>
        <time>2010-01-01T04:33:50Z</time>
      </trkpt>
      <trkpt lat="37.06873530" lon="-8.83207635">
        <ele>68.000000</ele>
        <time>2010-01-01T04:33:54Z</time>
      </trkpt>
      <trkpt lat="37.06892000" lon="-8.83228000">
        <ele>67.000000</ele>
        <time>2010-01-01T04:34:04Z</time>
      </trkpt>
      <trkpt lat="37.06898610" lon="-8.83234030">
        <ele>68.000000</ele>
        <time>2010-01-01T04:34:07Z</time>
      </trkpt>
      <trkpt lat="37.06901750" lon="-8.83236890">
        <ele>68.000000</ele>
        <time>2010-01-01T04:34:09Z</time>
      </trkpt>
      <trkpt lat="37.06924150" lon="-8.83257317">
        <ele>69.000000</ele>
        <time>2010-01-01T04:34:20Z</time>
      </trkpt>
      <trkpt lat="37.06933030" lon="-8.83265414">
        <ele>69.000000</ele>
        <time>2010-01-01T04:34:24Z</time>
      </trkpt>
      <trkpt lat="37.06947670" lon="-8.83278759">
        <ele>69.000000</ele>
        <time>2010-01-01T04:34:32Z</time>
      </trkpt>
      <trkpt lat="37.06953690" lon="-8.83284248">
        <ele>69.000000</ele>
        <time>2010-01-01T04:34:35Z</time>
      </trkpt>
      <trkpt lat="37.06976570" lon="-8.83305110">
        <ele>68.000000</ele>
        <time>2010-01-01T04:34:46Z</time>
      </trkpt>
      <trkpt lat="37.06982460" lon="-8.83310486">
        <ele>68.000000</ele>
        <time>2010-01-01T04:34:49Z</time>
      </trkpt>
      <trkpt lat="37.07009690" lon="-8.83335308">
        <ele>68.000000</ele>
        <time>2010-01-01T04:35:02Z</time>
      </trkpt>
      <trkpt lat="37.07019910" lon="-8.83344624">
        <ele>68.000000</ele>
        <time>2010-01-01T04:35:07Z</time>
      </trkpt>
      <trkpt lat="37.07028000" lon="-8.83352000">
        <ele>68.000000</ele>
        <time>2010-01-01T04:35:11Z</time>
      </trkpt>
      <trkpt lat="37.07037050" lon="-8.83371499">
        <ele>67.000000</ele>
        <time>2010-01-01T04:35:19Z</time>
      </trkpt>
      <trkpt lat="37.07041000" lon="-8.83380000">
        <ele>67.000000</ele>
        <time>2010-01-01T04:35:22Z</time>
      </trkpt>
      <trkpt lat="37.07040940" lon="-8.83385850">
        <ele>67.000000</ele>
        <time>2010-01-01T04:35:24Z</time>
      </trkpt>
      <trkpt lat="37.07040790" lon="-8.83401637">
        <ele>67.000000</ele>
        <time>2010-01-01T04:35:29Z</time>
      </trkpt>
      <trkpt lat="37.07040540" lon="-8.83428577">
        <ele>68.000000</ele>
        <time>2010-01-01T04:35:37Z</time>
      </trkpt>
      <trkpt lat="37.07040510" lon="-8.83432255">
        <ele>68.000000</ele>
        <time>2010-01-01T04:35:38Z</time>
      </trkpt>
      <trkpt lat="37.07040330" lon="-8.83450709">
        <ele>68.000000</ele>
        <time>2010-01-01T04:35:44Z</time>
      </trkpt>
      <trkpt lat="37.07040230" lon="-8.83461690">
        <ele>68.000000</ele>
        <time>2010-01-01T04:35:48Z</time>
      </trkpt>
      <trkpt lat="37.07040000" lon="-8.83486799">
        <ele>68.000000</ele>
        <time>2010-01-01T04:35:56Z</time>
      </trkpt>
      <trkpt lat="37.07039880" lon="-8.83499672">
        <ele>68.000000</ele>
        <time>2010-01-01T04:36:00Z</time>
      </trkpt>
      <trkpt lat="37.07039780" lon="-8.83510183">
        <ele>68.000000</ele>
        <time>2010-01-01T04:36:03Z</time>
      </trkpt>
      <trkpt lat="37.07039660" lon="-8.83522888">
        <ele>68.000000</ele>
        <time>2010-01-01T04:36:07Z</time>
      </trkpt>
      <trkpt lat="37.07039440" lon="-8.83545752">
        <ele>69.000000</ele>
        <time>2010-01-01T04:36:15Z</time>
      </trkpt>
      <trkpt lat="37.07039280" lon="-8.83563145">
        <ele>69.000000</ele>
        <time>2010-01-01T04:36:20Z</time>
      </trkpt>
      <trkpt lat="37.07039060" lon="-8.83587070">
        <ele>69.000000</ele>
        <time>2010-01-01T04:36:28Z</time>
      </trkpt>
      <trkpt lat="37.07038880" lon="-8.83605634">
        <ele>70.000000</ele>
        <time>2010-01-01T04:36:34Z</time>
      </trkpt>
      <trkpt lat="37.07038760" lon="-8.83619004">
        <ele>70.000000</ele>
        <time>2010-01-01T04:36:38Z</time>
      </trkpt>
      <trkpt lat="37.07038600" lon="-8.83635839">
        <ele>70.000000</ele>
        <time>2010-01-01T04:36:43Z</time>
      </trkpt>
      <trkpt lat="37.07038500" lon="-8.83646113">
        <ele>70.000000</ele>
        <time>2010-01-01T04:36:47Z</time>
      </trkpt>
      <trkpt lat="37.07038420" lon="-8.83654618">
        <ele>70.000000</ele>
        <time>2010-01-01T04:36:49Z</time>
      </trkpt>
      <trkpt lat="37.07038360" lon="-8.83661859">
        <ele>70.000000</ele>
        <time>2010-01-01T04:36:52Z</time>
      </trkpt>
      <trkpt lat="37.07038190" lon="-8.83679152">
        <ele>71.000000</ele>
        <time>2010-01-01T04:36:57Z</time>
      </trkpt>
      <trkpt lat="37.07038180" lon="-8.83680561">
        <ele>71.000000</ele>
        <time>2010-01-01T04:36:58Z</time>
      </trkpt>
      <trkpt lat="37.07038120" lon="-8.83687486">
        <ele>71.000000</ele>
        <time>2010-01-01T04:37:00Z</time>
      </trkpt>
      <trkpt lat="37.07037990" lon="-8.83700448">
        <ele>71.000000</ele>
        <time>2010-01-01T04:37:04Z</time>
      </trkpt>
      <trkpt lat="37.07037900" lon="-8.83710836">
        <ele>71.000000</ele>
        <time>2010-01-01T04:37:07Z</time>
      </trkpt>
      <trkpt lat="37.07037780" lon="-8.83722953">
        <ele>72.000000</ele>
        <time>2010-01-01T04:37:11Z</time>
      </trkpt>
      <trkpt lat="37.07037680" lon="-8.83733785">
        <ele>72.000000</ele>
        <time>2010-01-01T04:37:15Z</time>
      </trkpt>
      <trkpt lat="37.07037610" lon="-8.83741606">
        <ele>73.000000</ele>
        <time>2010-01-01T04:37:17Z</time>
      </trkpt>
      <trkpt lat="37.07037500" lon="-8.83752760">
        <ele>73.000000</ele>
        <time>2010-01-01T04:37:21Z</time>
      </trkpt>
      <trkpt lat="37.07037420" lon="-8.83761480">
        <ele>73.000000</ele>
        <time>2010-01-01T04:37:24Z</time>
      </trkpt>
      <trkpt lat="37.07037310" lon="-8.83773208">
        <ele>73.000000</ele>
        <time>2010-01-01T04:37:27Z</time>
      </trkpt>
      <trkpt lat="37.07037240" lon="-8.83780539">
        <ele>72.000000</ele>
        <time>2010-01-01T04:37:30Z</time>
      </trkpt>
      <trkpt lat="37.07037130" lon="-8.83792629">
        <ele>71.000000</ele>
        <time>2010-01-01T04:37:33Z</time>
      </trkpt>
      <trkpt lat="37.07037120" lon="-8.83793749">
        <ele>71.000000</ele>
        <time>2010-01-01T04:37:34Z</time>
      </trkpt>
      <trkpt lat="37.07037000" lon="-8.83807000">
        <ele>70.000000</ele>
        <time>2010-01-01T04:37:38Z</time>
      </trkpt>
      <trkpt lat="37.07037900" lon="-8.83809793">
        <ele>69.000000</ele>
        <time>2010-01-01T04:37:39Z</time>
      </trkpt>
      <trkpt lat="37.07037970" lon="-8.83809995">
        <ele>69.000000</ele>
        <time>2010-01-01T04:37:39Z</time>
      </trkpt>
      <trkpt lat="37.07041950" lon="-8.83822219">
        <ele>68.000000</ele>
        <time>2010-01-01T04:37:43Z</time>
      </trkpt>
      <trkpt lat="37.07043820" lon="-8.83827958">
        <ele>67.000000</ele>
        <time>2010-01-01T04:37:45Z</time>
      </trkpt>
      <trkpt lat="37.07046820" lon="-8.83837165">
        <ele>66.000000</ele>
        <time>2010-01-01T04:37:48Z</time>
      </trkpt>
      <trkpt lat="37.07049400" lon="-8.83845100">
        <ele>64.000000</ele>
        <time>2010-01-01T04:37:51Z</time>
      </trkpt>
      <trkpt lat="37.07051000" lon="-8.83850000">
        <ele>63.000000</ele>
        <time>2010-01-01T04:37:53Z</time>
      </trkpt>
      <trkpt lat="37.07055460" lon="-8.83856211">
        <ele>61.000000</ele>
        <time>2010-01-01T04:37:56Z</time>
      </trkpt>
      <trkpt lat="37.07058510" lon="-8.83860440">
        <ele>61.000000</ele>
        <time>2010-01-01T04:37:57Z</time>
      </trkpt>
      <trkpt lat="37.07065310" lon="-8.83869893">
        <ele>59.000000</ele>
        <time>2010-01-01T04:38:01Z</time>
      </trkpt>
      <trkpt lat="37.07068110" lon="-8.83873786">
        <ele>59.000000</ele>
        <time>2010-01-01T04:38:03Z</time>
      </trkpt>
      <trkpt lat="37.07074380" lon="-8.83882498">
        <ele>58.000000</ele>
        <time>2010-01-01T04:38:07Z</time>
      </trkpt>
      <trkpt lat="37.07075500" lon="-8.83884057">
        <ele>57.000000</ele>
        <time>2010-01-01T04:38:08Z</time>
      </trkpt>
      <trkpt lat="37.07082060" lon="-8.83893174">
        <ele>56.000000</ele>
        <time>2010-01-01T04:38:11Z</time>
      </trkpt>
      <trkpt lat="37.07084590" lon="-8.83896698">
        <ele>56.000000</ele>
        <time>2010-01-01T04:38:13Z</time>
      </trkpt>
      <trkpt lat="37.07087470" lon="-8.83900700">
        <ele>56.000000</ele>
        <time>2010-01-01T04:38:15Z</time>
      </trkpt>
      <trkpt lat="37.07089700" lon="-8.83903799">
        <ele>55.000000</ele>
        <time>2010-01-01T04:38:16Z</time>
      </trkpt>
      <trkpt lat="37.07096670" lon="-8.83913487">
        <ele>55.000000</ele>
        <time>2010-01-01T04:38:20Z</time>
      </trkpt>
      <trkpt lat="37.07100430" lon="-8.83918719">
        <ele>54.000000</ele>
        <time>2010-01-01T04:38:22Z</time>
      </trkpt>
      <trkpt lat="37.07102720" lon="-8.83921896">
        <ele>54.000000</ele>
        <time>2010-01-01T04:38:24Z</time>
      </trkpt>
      <trkpt lat="37.07107520" lon="-8.83928562">
        <ele>54.000000</ele>
        <time>2010-01-01T04:38:27Z</time>
      </trkpt>
      <trkpt lat="37.07109110" lon="-8.83930784">
        <ele>54.000000</ele>
        <time>2010-01-01T04:38:28Z</time>
      </trkpt>
      <trkpt lat="37.07114220" lon="-8.83937879">
        <ele>53.000000</ele>
        <time>2010-01-01T04:38:31Z</time>
      </trkpt>
      <trkpt lat="37.07118540" lon="-8.83943893">
        <ele>52.000000</ele>
        <time>2010-01-01T04:38:33Z</time>
      </trkpt>
      <trkpt lat="37.07119350" lon="-8.83945011">
        <ele>52.000000</ele>
        <time>2010-01-01T04:38:34Z</time>
      </trkpt>
      <trkpt lat="37.07128500" lon="-8.83957730">
        <ele>51.000000</ele>
        <time>2010-01-01T04:38:39Z</time>
      </trkpt>
      <trkpt lat="37.07129280" lon="-8.83958818">
        <ele>51.000000</ele>
        <time>2010-01-01T04:38:40Z</time>
      </trkpt>
      <trkpt lat="37.07134730" lon="-8.83966395">
        <ele>50.000000</ele>
        <time>2010-01-01T04:38:43Z</time>
      </trkpt>
      <trkpt lat="37.07135450" lon="-8.83967395">
        <ele>50.000000</ele>
        <time>2010-01-01T04:38:43Z</time>
      </trkpt>
      <trkpt lat="37.07138750" lon="-8.83971981">
        <ele>50.000000</ele>
        <time>2010-01-01T04:38:45Z</time>
      </trkpt>
      <trkpt lat="37.07142660" lon="-8.83977414">
        <ele>49.000000</ele>
        <time>2010-01-01T04:38:48Z</time>
      </trkpt>
      <trkpt lat="37.07148790" lon="-8.83985929">
        <ele>49.000000</ele>
        <time>2010-01-01T04:38:51Z</time>
      </trkpt>
      <trkpt lat="37.07150330" lon="-8.83988074">
        <ele>49.000000</ele>
        <time>2010-01-01T04:38:52Z</time>
      </trkpt>
      <trkpt lat="37.07151000" lon="-8.83989000">
        <ele>49.000000</ele>
        <time>2010-01-01T04:38:53Z</time>
      </trkpt>
      <trkpt lat="37.07156890" lon="-8.83996365">
        <ele>49.000000</ele>
        <time>2010-01-01T04:38:56Z</time>
      </trkpt>
      <trkpt lat="37.07161840" lon="-8.84002550">
        <ele>49.000000</ele>
        <time>2010-01-01T04:38:59Z</time>
      </trkpt>
      <trkpt lat="37.07165520" lon="-8.84007151">
        <ele>48.000000</ele>
        <time>2010-01-01T04:39:01Z</time>
      </trkpt>
      <trkpt lat="37.07170430" lon="-8.84013296">
        <ele>48.000000</ele>
        <time>2010-01-01T04:39:04Z</time>
      </trkpt>
      <trkpt lat="37.07176780" lon="-8.84021236">
        <ele>47.000000</ele>
        <time>2010-01-01T04:39:07Z</time>
      </trkpt>
      <trkpt lat="37.07181090" lon="-8.84026614">
        <ele>47.000000</ele>
        <time>2010-01-01T04:39:10Z</time>
      </trkpt>
      <trkpt lat="37.07185060" lon="-8.84031577">
        <ele>47.000000</ele>
        <time>2010-01-01T04:39:12Z</time>
      </trkpt>
      <trkpt lat="37.07189560" lon="-8.84037205">
        <ele>46.000000</ele>
        <time>2010-01-01T04:39:14Z</time>
      </trkpt>
      <trkpt lat="37.07194610" lon="-8.84043522">
        <ele>45.000000</ele>
        <time>2010-01-01T04:39:17Z</time>
      </trkpt>
      <trkpt lat="37.07199370" lon="-8.84049470">
        <ele>45.000000</ele>
        <time>2010-01-01T04:39:20Z</time>
      </trkpt>
      <trkpt lat="37.07206700" lon="-8.84058632">
        <ele>44.000000</ele>
        <time>2010-01-01T04:39:24Z</time>
      </trkpt>
      <trkpt lat="37.07207720" lon="-8.84059902">
        <ele>44.000000</ele>
        <time>2010-01-01T04:39:25Z</time>
      </trkpt>
      <trkpt lat="37.07214800" lon="-8.84068750">
        <ele>44.000000</ele>
        <time>2010-01-01T04:39:29Z</time>
      </trkpt>
      <trkpt lat="37.07216550" lon="-8.84070942">
        <ele>44.000000</ele>
        <time>2010-01-01T04:39:30Z</time>
      </trkpt>
      <trkpt lat="37.07223030" lon="-8.84079046">
        <ele>44.000000</ele>
        <time>2010-01-01T04:39:33Z</time>
      </trkpt>
      <trkpt lat="37.07226150" lon="-8.84082942">
        <ele>44.000000</ele>
        <time>2010-01-01T04:39:35Z</time>
      </trkpt>
      <trkpt lat="37.07233730" lon="-8.84092418">
        <ele>43.000000</ele>
        <time>2010-01-01T04:39:39Z</time>
      </trkpt>
      <trkpt lat="37.07235660" lon="-8.84094830">
        <ele>43.000000</ele>
        <time>2010-01-01T04:39:41Z</time>
      </trkpt>
      <trkpt lat="37.07241890" lon="-8.84102616">
        <ele>43.000000</ele>
        <time>2010-01-01T04:39:44Z</time>
      </trkpt>
      <trkpt lat="37.07243000" lon="-8.84104000">
        <ele>43.000000</ele>
        <time>2010-01-01T04:39:45Z</time>
      </trkpt>
      <trkpt lat="37.07243480" lon="-8.84104454">
        <ele>43.000000</ele>
        <time>2010-01-01T04:39:45Z</time>
      </trkpt>
      <trkpt lat="37.07251810" lon="-8.84112221">
        <ele>43.000000</ele>
        <time>2010-01-01T04:39:49Z</time>
      </trkpt>
      <trkpt lat="37.07256450" lon="-8.84116545">
        <ele>42.000000</ele>
        <time>2010-01-01T04:39:51Z</time>
      </trkpt>
      <trkpt lat="37.07260260" lon="-8.84120105">
        <ele>42.000000</ele>
        <time>2010-01-01T04:39:53Z</time>
      </trkpt>
      <trkpt lat="37.07266160" lon="-8.84125605">
        <ele>42.000000</ele>
        <time>2010-01-01T04:39:56Z</time>
      </trkpt>
      <trkpt lat="37.07273200" lon="-8.84132164">
        <ele>42.000000</ele>
        <time>2010-01-01T04:40:00Z</time>
      </trkpt>
      <trkpt lat="37.07274990" lon="-8.84133841">
        <ele>42.000000</ele>
        <time>2010-01-01T04:40:01Z</time>
      </trkpt>
      <trkpt lat="37.07276810" lon="-8.84135538">
        <ele>42.000000</ele>
        <time>2010-01-01T04:40:02Z</time>
      </trkpt>
      <trkpt lat="37.07284340" lon="-8.84142553">
        <ele>42.000000</ele>
        <time>2010-01-01T04:40:05Z</time>
      </trkpt>
      <trkpt lat="37.07284410" lon="-8.84142618">
        <ele>42.000000</ele>
        <time>2010-01-01T04:40:05Z</time>
      </trkpt>
      <trkpt lat="37.07294150" lon="-8.84151706">
        <ele>42.000000</ele>
        <time>2010-01-01T04:40:10Z</time>
      </trkpt>
      <trkpt lat="37.07295200" lon="-8.84152683">
        <ele>42.000000</ele>
        <time>2010-01-01T04:40:11Z</time>
      </trkpt>
      <trkpt lat="37.07301530" lon="-8.84158588">
        <ele>42.000000</ele>
        <time>2010-01-01T04:40:14Z</time>
      </trkpt>
      <trkpt lat="37.07307600" lon="-8.84164250">
        <ele>43.000000</ele>
        <time>2010-01-01T04:40:17Z</time>
      </trkpt>
      <trkpt lat="37.07312530" lon="-8.84168843">
        <ele>43.000000</ele>
        <time>2010-01-01T04:40:19Z</time>
      </trkpt>
      <trkpt lat="37.07318540" lon="-8.84174454">
        <ele>43.000000</ele>
        <time>2010-01-01T04:40:22Z</time>
      </trkpt>
      <trkpt lat="37.07323060" lon="-8.84178664">
        <ele>43.000000</ele>
        <time>2010-01-01T04:40:25Z</time>
      </trkpt>
      <trkpt lat="37.07328650" lon="-8.84183878">
        <ele>44.000000</ele>
        <time>2010-01-01T04:40:27Z</time>
      </trkpt>
      <trkpt lat="37.07332000" lon="-8.84187000">
        <ele>44.000000</ele>
        <time>2010-01-01T04:40:29Z</time>
      </trkpt>
      <trkpt lat="37.07332370" lon="-8.84187375">
        <ele>44.000000</ele>
        <time>2010-01-01T04:40:29Z</time>
      </trkpt>
      <trkpt lat="37.07336670" lon="-8.84191673">
        <ele>44.000000</ele>
        <time>2010-01-01T04:40:32Z</time>
      </trkpt>
      <trkpt lat="37.07340790" lon="-8.84195794">
        <ele>44.000000</ele>
        <time>2010-01-01T04:40:34Z</time>
      </trkpt>
      <trkpt lat="37.07341000" lon="-8.84196000">
        <ele>44.000000</ele>
        <time>2010-01-01T04:40:34Z</time>
      </trkpt>
      <trkpt lat="37.07340790" lon="-8.84197506">
        <ele>44.000000</ele>
        <time>2010-01-01T04:40:34Z</time>
      </trkpt>
      <trkpt lat="37.07339510" lon="-8.84206969">
        <ele>44.000000</ele>
        <time>2010-01-01T04:40:37Z</time>
      </trkpt>
      <trkpt lat="37.07338950" lon="-8.84211140">
        <ele>44.000000</ele>
        <time>2010-01-01T04:40:39Z</time>
      </trkpt>
      <trkpt lat="37.07337220" lon="-8.84223957">
        <ele>44.000000</ele>
        <time>2010-01-01T04:40:43Z</time>
      </trkpt>
      <trkpt lat="37.07336550" lon="-8.84228889">
        <ele>43.000000</ele>
        <time>2010-01-01T04:40:44Z</time>
      </trkpt>
      <trkpt lat="37.07334690" lon="-8.84242625">
        <ele>43.000000</ele>
        <time>2010-01-01T04:40:49Z</time>
      </trkpt>
      <trkpt lat="37.07333800" lon="-8.84249236">
        <ele>43.000000</ele>
        <time>2010-01-01T04:40:51Z</time>
      </trkpt>
      <trkpt lat="37.07331900" lon="-8.84263328">
        <ele>42.000000</ele>
        <time>2010-01-01T04:40:56Z</time>
      </trkpt>
      <trkpt lat="37.07331790" lon="-8.84264106">
        <ele>42.000000</ele>
        <time>2010-01-01T04:40:56Z</time>
      </trkpt>
      <trkpt lat="37.07331000" lon="-8.84270000">
        <ele>42.000000</ele>
        <time>2010-01-01T04:40:58Z</time>
      </trkpt>
      <trkpt lat="37.07330970" lon="-8.84273046">
        <ele>42.000000</ele>
        <time>2010-01-01T04:40:59Z</time>
      </trkpt>
      <trkpt lat="37.07330940" lon="-8.84277924">
        <ele>42.000000</ele>
        <time>2010-01-01T04:41:00Z</time>
      </trkpt>
      <trkpt lat="37.07330940" lon="-8.84278043">
        <ele>42.000000</ele>
        <time>2010-01-01T04:41:00Z</time>
      </trkpt>
      <trkpt lat="37.07330890" lon="-8.84284110">
        <ele>42.000000</ele>
        <time>2010-01-01T04:41:02Z</time>
      </trkpt>
      <trkpt lat="37.07330890" lon="-8.84285361">
        <ele>42.000000</ele>
        <time>2010-01-01T04:41:03Z</time>
      </trkpt>
      <trkpt lat="37.07330860" lon="-8.84288421">
        <ele>42.000000</ele>
        <time>2010-01-01T04:41:04Z</time>
      </trkpt>
      <trkpt lat="37.07330780" lon="-8.84299844">
        <ele>42.000000</ele>
        <time>2010-01-01T04:41:07Z</time>
      </trkpt>
      <trkpt lat="37.07330770" lon="-8.84301880">
        <ele>42.000000</ele>
        <time>2010-01-01T04:41:08Z</time>
      </trkpt>
      <trkpt lat="37.07330750" lon="-8.84304172">
        <ele>42.000000</ele>
        <time>2010-01-01T04:41:09Z</time>
      </trkpt>
      <trkpt lat="37.07330680" lon="-8.84313816">
        <ele>42.000000</ele>
        <time>2010-01-01T04:41:12Z</time>
      </trkpt>
      <trkpt lat="37.07330650" lon="-8.84317819">
        <ele>42.000000</ele>
        <time>2010-01-01T04:41:13Z</time>
      </trkpt>
      <trkpt lat="37.07330480" lon="-8.84342749">
        <ele>41.000000</ele>
        <time>2010-01-01T04:41:21Z</time>
      </trkpt>
      <trkpt lat="37.07330360" lon="-8.84358250">
        <ele>40.000000</ele>
        <time>2010-01-01T04:41:26Z</time>
      </trkpt>
      <trkpt lat="37.07330310" lon="-8.84366263">
        <ele>40.000000</ele>
        <time>2010-01-01T04:41:28Z</time>
      </trkpt>
      <trkpt lat="37.07330140" lon="-8.84389737">
        <ele>38.000000</ele>
        <time>2010-01-01T04:41:36Z</time>
      </trkpt>
      <trkpt lat="37.07330070" lon="-8.84400077">
        <ele>37.000000</ele>
        <time>2010-01-01T04:41:39Z</time>
      </trkpt>
      <trkpt lat="37.07330000" lon="-8.84410000">
        <ele>37.000000</ele>
        <time>2010-01-01T04:41:42Z</time>
      </trkpt>
      <trkpt lat="37.07330250" lon="-8.84411680">
        <ele>37.000000</ele>
        <time>2010-01-01T04:41:43Z</time>
      </trkpt>
      <trkpt lat="37.07333570" lon="-8.84433526">
        <ele>35.000000</ele>
        <time>2010-01-01T04:41:50Z</time>
      </trkpt>
      <trkpt lat="37.07335200" lon="-8.84444276">
        <ele>34.000000</ele>
        <time>2010-01-01T04:41:54Z</time>
      </trkpt>
      <trkpt lat="37.07337350" lon="-8.84458461">
        <ele>32.000000</ele>
        <time>2010-01-01T04:41:58Z</time>
      </trkpt>
      <trkpt lat="37.07339780" lon="-8.84474465">
        <ele>30.000000</ele>
        <time>2010-01-01T04:42:03Z</time>
      </trkpt>
      <trkpt lat="37.07341640" lon="-8.84486729">
        <ele>30.000000</ele>
        <time>2010-01-01T04:42:07Z</time>
      </trkpt>
      <trkpt lat="37.07344510" lon="-8.84505616">
        <ele>29.000000</ele>
        <time>2010-01-01T04:42:13Z</time>
      </trkpt>
      <trkpt lat="37.07346230" lon="-8.84516961">
        <ele>29.000000</ele>
        <time>2010-01-01T04:42:17Z</time>
      </trkpt>
      <trkpt lat="37.07348080" lon="-8.84529162">
        <ele>28.000000</ele>
        <time>2010-01-01T04:42:21Z</time>
      </trkpt>
      <trkpt lat="37.07350720" lon="-8.84546598">
        <ele>27.000000</ele>
        <time>2010-01-01T04:42:27Z</time>
      </trkpt>
      <trkpt lat="37.07351570" lon="-8.84552193">
        <ele>27.000000</ele>
        <time>2010-01-01T04:42:29Z</time>
      </trkpt>
      <trkpt lat="37.07354850" lon="-8.84573795">
        <ele>27.000000</ele>
        <time>2010-01-01T04:42:36Z</time>
      </trkpt>
      <trkpt lat="37.07355530" lon="-8.84578272">
        <ele>26.000000</ele>
        <time>2010-01-01T04:42:37Z</time>
      </trkpt>
      <trkpt lat="37.07358830" lon="-8.84599981">
        <ele>25.000000</ele>
        <time>2010-01-01T04:42:44Z</time>
      </trkpt>
      <trkpt lat="37.07359730" lon="-8.84605920">
        <ele>25.000000</ele>
        <time>2010-01-01T04:42:46Z</time>
      </trkpt>
      <trkpt lat="37.07362060" lon="-8.84621286">
        <ele>24.000000</ele>
        <time>2010-01-01T04:42:51Z</time>
      </trkpt>
      <trkpt lat="37.07362280" lon="-8.84622761">
        <ele>24.000000</ele>
        <time>2010-01-01T04:42:52Z</time>
      </trkpt>
      <trkpt lat="37.07364300" lon="-8.84636067">
        <ele>24.000000</ele>
        <time>2010-01-01T04:42:56Z</time>
      </trkpt>
      <trkpt lat="37.07364690" lon="-8.84638631">
        <ele>24.000000</ele>
        <time>2010-01-01T04:42:57Z</time>
      </trkpt>
      <trkpt lat="37.07365490" lon="-8.84643901">
        <ele>24.000000</ele>
        <time>2010-01-01T04:42:58Z</time>
      </trkpt>
      <trkpt lat="37.07366470" lon="-8.84650385">
        <ele>24.000000</ele>
        <time>2010-01-01T04:43:01Z</time>
      </trkpt>
      <trkpt lat="37.07366500" lon="-8.84650536">
        <ele>24.000000</ele>
        <time>2010-01-01T04:43:01Z</time>
      </trkpt>
      <trkpt lat="37.07367100" lon="-8.84654483">
        <ele>24.000000</ele>
        <time>2010-01-01T04:43:02Z</time>
      </trkpt>
      <trkpt lat="37.07368580" lon="-8.84664261">
        <ele>24.000000</ele>
        <time>2010-01-01T04:43:05Z</time>
      </trkpt>
      <trkpt lat="37.07368590" lon="-8.84664324">
        <ele>24.000000</ele>
        <time>2010-01-01T04:43:05Z</time>
      </trkpt>
      <trkpt lat="37.07369000" lon="-8.84667000">
        <ele>25.000000</ele>
        <time>2010-01-01T04:43:06Z</time>
      </trkpt>
      <trkpt lat="37.07366350" lon="-8.84668986">
        <ele>25.000000</ele>
        <time>2010-01-01T04:43:07Z</time>
      </trkpt>
      <trkpt lat="37.07366320" lon="-8.84669005">
        <ele>25.000000</ele>
        <time>2010-01-01T04:43:07Z</time>
      </trkpt>
      <trkpt lat="37.07366350" lon="-8.84668986">
        <ele>25.000000</ele>
        <time>2010-01-01T04:43:07Z</time>
      </trkpt>
      <trkpt lat="37.07364470" lon="-8.84671144">
        <ele>25.000000</ele>
        <time>2010-01-01T04:43:08Z</time>
      </trkpt>
      <trkpt lat="37.07362000" lon="-8.84673000">
        <ele>25.000000</ele>
        <time>2010-01-01T04:43:09Z</time>
      </trkpt>
      <trkpt lat="37.07337930" lon="-8.84673572">
        <ele>25.000000</ele>
        <time>2010-01-01T04:43:19Z</time>
      </trkpt>
      <trkpt lat="37.07320000" lon="-8.84674000">
        <ele>24.000000</ele>
        <time>2010-01-01T04:43:26Z</time>
      </trkpt>
      <trkpt lat="37.07319460" lon="-8.84675535">
        <ele>24.000000</ele>
        <time>2010-01-01T04:43:27Z</time>
      </trkpt>
      <trkpt lat="37.07307000" lon="-8.84711000">
        <ele>26.000000</ele>
        <time>2010-01-01T04:43:39Z</time>
      </trkpt>
      <trkpt lat="37.07265280" lon="-8.84781914">
        <ele>27.000000</ele>
        <time>2010-01-01T04:44:07Z</time>
      </trkpt>
      <trkpt lat="37.07248380" lon="-8.84810638">
        <ele>28.000000</ele>
        <time>2010-01-01T04:44:19Z</time>
      </trkpt>
      <trkpt lat="37.07232780" lon="-8.84837169">
        <ele>28.000000</ele>
        <time>2010-01-01T04:44:29Z</time>
      </trkpt>
      <trkpt lat="37.07227000" lon="-8.84847000">
        <ele>27.000000</ele>
        <time>2010-01-01T04:44:33Z</time>
      </trkpt>
      <trkpt lat="37.07197720" lon="-8.84916938">
        <ele>25.000000</ele>
        <time>2010-01-01T04:44:58Z</time>
      </trkpt>
      <trkpt lat="37.07191000" lon="-8.84933000">
        <ele>25.000000</ele>
        <time>2010-01-01T04:45:04Z</time>
      </trkpt>
      <trkpt lat="37.07186670" lon="-8.84965673">
        <ele>26.000000</ele>
        <time>2010-01-01T04:45:15Z</time>
      </trkpt>
      <trkpt lat="37.07182000" lon="-8.85001000">
        <ele>28.000000</ele>
        <time>2010-01-01T04:45:26Z</time>
      </trkpt>
      <trkpt lat="37.07163610" lon="-8.85019383">
        <ele>30.000000</ele>
        <time>2010-01-01T04:45:35Z</time>
      </trkpt>
      <trkpt lat="37.07148500" lon="-8.85034498">
        <ele>32.000000</ele>
        <time>2010-01-01T04:45:43Z</time>
      </trkpt>
      <trkpt lat="37.07101570" lon="-8.85081424">
        <ele>35.000000</ele>
        <time>2010-01-01T04:46:07Z</time>
      </trkpt>
      <trkpt lat="37.07090000" lon="-8.85093000">
        <ele>35.000000</ele>
        <time>2010-01-01T04:46:13Z</time>
      </trkpt>
      <trkpt lat="37.07071000" lon="-8.85124000">
        <ele>36.000000</ele>
        <time>2010-01-01T04:46:26Z</time>
      </trkpt>
      <trkpt lat="37.07054150" lon="-8.85138442">
        <ele>36.000000</ele>
        <time>2010-01-01T04:46:34Z</time>
      </trkpt>
      <trkpt lat="37.07050840" lon="-8.85141272">
        <ele>37.000000</ele>
        <time>2010-01-01T04:46:35Z</time>
      </trkpt>
      <trkpt lat="37.06992240" lon="-8.85191508">
        <ele>39.000000</ele>
        <time>2010-01-01T04:47:04Z</time>
      </trkpt>
      <trkpt lat="37.06963520" lon="-8.85216119">
        <ele>39.000000</ele>
        <time>2010-01-01T04:47:18Z</time>
      </trkpt>
      <trkpt lat="37.06959000" lon="-8.85220000">
        <ele>39.000000</ele>
        <time>2010-01-01T04:47:20Z</time>
      </trkpt>
      <trkpt lat="37.06926270" lon="-8.85270830">
        <ele>43.000000</ele>
        <time>2010-01-01T04:47:41Z</time>
      </trkpt>
      <trkpt lat="37.06912000" lon="-8.85293000">
        <ele>43.000000</ele>
        <time>2010-01-01T04:47:50Z</time>
      </trkpt>
      <trkpt lat="37.06901270" lon="-8.85301549">
        <ele>43.000000</ele>
        <time>2010-01-01T04:47:55Z</time>
      </trkpt>
      <trkpt lat="37.06866950" lon="-8.85328903">
        <ele>43.000000</ele>
        <time>2010-01-01T04:48:11Z</time>
      </trkpt>
      <trkpt lat="37.06847020" lon="-8.85344791">
        <ele>44.000000</ele>
        <time>2010-01-01T04:48:21Z</time>
      </trkpt>
      <trkpt lat="37.06843000" lon="-8.85348000">
        <ele>44.000000</ele>
        <time>2010-01-01T04:48:23Z</time>
      </trkpt>
      <trkpt lat="37.06821000" lon="-8.85381000">
        <ele>42.000000</ele>
        <time>2010-01-01T04:48:36Z</time>
      </trkpt>
      <trkpt lat="37.06809000" lon="-8.85428000">
        <ele>39.000000</ele>
        <time>2010-01-01T04:48:52Z</time>
      </trkpt>
      <trkpt lat="37.06804000" lon="-8.85476000">
        <ele>34.000000</ele>
        <time>2010-01-01T04:49:08Z</time>
      </trkpt>
      <trkpt lat="37.06803930" lon="-8.85479276">
        <ele>34.000000</ele>
        <time>2010-01-01T04:49:09Z</time>
      </trkpt>
      <trkpt lat="37.06803000" lon="-8.85529000">
        <ele>28.000000</ele>
        <time>2010-01-01T04:49:25Z</time>
      </trkpt>
      <trkpt lat="37.06801590" lon="-8.85535331">
        <ele>27.000000</ele>
        <time>2010-01-01T04:49:27Z</time>
      </trkpt>
      <trkpt lat="37.06801000" lon="-8.85538000">
        <ele>27.000000</ele>
        <time>2010-01-01T04:49:28Z</time>
      </trkpt>
      <trkpt lat="37.06801360" lon="-8.85559558">
        <ele>27.000000</ele>
        <time>2010-01-01T04:49:34Z</time>
      </trkpt>
      <trkpt lat="37.06801730" lon="-8.85581464">
        <ele>26.000000</ele>
        <time>2010-01-01T04:49:41Z</time>
      </trkpt>
      <trkpt lat="37.06802000" lon="-8.85597000">
        <ele>24.000000</ele>
        <time>2010-01-01T04:49:46Z</time>
      </trkpt>
      <trkpt lat="37.06768050" lon="-8.85655841">
        <ele>19.000000</ele>
        <time>2010-01-01T04:50:10Z</time>
      </trkpt>
      <trkpt lat="37.06757000" lon="-8.85675000">
        <ele>19.000000</ele>
        <time>2010-01-01T04:50:17Z</time>
      </trkpt>
      <trkpt lat="37.06748430" lon="-8.85683949">
        <ele>19.000000</ele>
        <time>2010-01-01T04:50:22Z</time>
      </trkpt>
      <trkpt lat="37.06735000" lon="-8.85698000">
        <ele>18.000000</ele>
        <time>2010-01-01T04:50:29Z</time>
      </trkpt>
      <trkpt lat="37.06719080" lon="-8.85719485">
        <ele>17.000000</ele>
        <time>2010-01-01T04:50:38Z</time>
      </trkpt>
      <trkpt lat="37.06715000" lon="-8.85725000">
        <ele>17.000000</ele>
        <time>2010-01-01T04:50:40Z</time>
      </trkpt>
      <trkpt lat="37.06710000" lon="-8.85734000">
        <ele>17.000000</ele>
        <time>2010-01-01T04:50:44Z</time>
      </trkpt>
      <trkpt lat="37.06711000" lon="-8.85751000">
        <ele>16.000000</ele>
        <time>2010-01-01T04:50:49Z</time>
      </trkpt>
      <trkpt lat="37.06719130" lon="-8.85761071">
        <ele>16.000000</ele>
        <time>2010-01-01T04:50:54Z</time>
      </trkpt>
      <trkpt lat="37.06727150" lon="-8.85771001">
        <ele>16.000000</ele>
        <time>2010-01-01T04:50:58Z</time>
      </trkpt>
      <trkpt lat="37.06732000" lon="-8.85777000">
        <ele>16.000000</ele>
        <time>2010-01-01T04:51:01Z</time>
      </trkpt>
      <trkpt lat="37.06733550" lon="-8.85783384">
        <ele>16.000000</ele>
        <time>2010-01-01T04:51:03Z</time>
      </trkpt>
      <trkpt lat="37.06741000" lon="-8.85814000">
        <ele>16.000000</ele>
        <time>2010-01-01T04:51:14Z</time>
      </trkpt>
      <trkpt lat="37.06748000" lon="-8.85848000">
        <ele>18.000000</ele>
        <time>2010-01-01T04:51:25Z</time>
      </trkpt>
      <trkpt lat="37.06748770" lon="-8.85874430">
        <ele>20.000000</ele>
        <time>2010-01-01T04:51:33Z</time>
      </trkpt>
      <trkpt lat="37.06748790" lon="-8.85875130">
        <ele>21.000000</ele>
        <time>2010-01-01T04:51:33Z</time>
      </trkpt>
      <trkpt lat="37.06749000" lon="-8.85882000">
        <ele>21.000000</ele>
        <time>2010-01-01T04:51:36Z</time>
      </trkpt>
      <trkpt lat="37.06736000" lon="-8.85985000">
        <ele>35.000000</ele>
        <time>2010-01-01T04:52:09Z</time>
      </trkpt>
      <trkpt lat="37.06736980" lon="-8.85989039">
        <ele>35.000000</ele>
        <time>2010-01-01T04:52:10Z</time>
      </trkpt>
      <trkpt lat="37.06737200" lon="-8.85989954">
        <ele>35.000000</ele>
        <time>2010-01-01T04:52:11Z</time>
      </trkpt>
      <trkpt lat="37.06745000" lon="-8.86022000">
        <ele>35.000000</ele>
        <time>2010-01-01T04:52:21Z</time>
      </trkpt>
      <trkpt lat="37.06752020" lon="-8.86031363">
        <ele>35.000000</ele>
        <time>2010-01-01T04:52:25Z</time>
      </trkpt>
      <trkpt lat="37.06769000" lon="-8.86054000">
        <ele>36.000000</ele>
        <time>2010-01-01T04:52:35Z</time>
      </trkpt>
      <trkpt lat="37.06768000" lon="-8.86083000">
        <ele>37.000000</ele>
        <time>2010-01-01T04:52:45Z</time>
      </trkpt>
      <trkpt lat="37.06761000" lon="-8.86109000">
        <ele>38.000000</ele>
        <time>2010-01-01T04:52:53Z</time>
      </trkpt>
      <trkpt lat="37.06757820" lon="-8.86112516">
        <ele>39.000000</ele>
        <time>2010-01-01T04:52:55Z</time>
      </trkpt>
      <trkpt lat="37.06754350" lon="-8.86116359">
        <ele>39.000000</ele>
        <time>2010-01-01T04:52:57Z</time>
      </trkpt>
      <trkpt lat="37.06724410" lon="-8.86149535">
        <ele>43.000000</ele>
        <time>2010-01-01T04:53:13Z</time>
      </trkpt>
      <trkpt lat="37.06724000" lon="-8.86150000">
        <ele>43.000000</ele>
        <time>2010-01-01T04:53:13Z</time>
      </trkpt>
      <trkpt lat="37.06703000" lon="-8.86172000">
        <ele>44.000000</ele>
        <time>2010-01-01T04:53:24Z</time>
      </trkpt>
      <trkpt lat="37.06696730" lon="-8.86184521">
        <ele>45.000000</ele>
        <time>2010-01-01T04:53:29Z</time>
      </trkpt>
      <trkpt lat="37.06687690" lon="-8.86202606">
        <ele>47.000000</ele>
        <time>2010-01-01T04:53:36Z</time>
      </trkpt>
      <trkpt lat="37.06687000" lon="-8.86204000">
        <ele>47.000000</ele>
        <time>2010-01-01T04:53:36Z</time>
      </trkpt>
      <trkpt lat="37.06678870" lon="-8.86241228">
        <ele>50.000000</ele>
        <time>2010-01-01T04:53:48Z</time>
      </trkpt>
      <trkpt lat="37.06668430" lon="-8.86289109">
        <ele>54.000000</ele>
        <time>2010-01-01T04:54:04Z</time>
      </trkpt>
      <trkpt lat="37.06663000" lon="-8.86314000">
        <ele>57.000000</ele>
        <time>2010-01-01T04:54:13Z</time>
      </trkpt>
      <trkpt lat="37.06658270" lon="-8.86334922">
        <ele>59.000000</ele>
        <time>2010-01-01T04:54:19Z</time>
      </trkpt>
      <trkpt lat="37.06657260" lon="-8.86339405">
        <ele>60.000000</ele>
        <time>2010-01-01T04:54:21Z</time>
      </trkpt>
      <trkpt lat="37.06649370" lon="-8.86374326">
        <ele>63.000000</ele>
        <time>2010-01-01T04:54:33Z</time>
      </trkpt>
      <trkpt lat="37.06647860" lon="-8.86381021">
        <ele>63.000000</ele>
        <time>2010-01-01T04:54:35Z</time>
      </trkpt>
      <trkpt lat="37.06646010" lon="-8.86389213">
        <ele>63.000000</ele>
        <time>2010-01-01T04:54:38Z</time>
      </trkpt>
      <trkpt lat="37.06635000" lon="-8.86438000">
        <ele>64.000000</ele>
        <time>2010-01-01T04:54:54Z</time>
      </trkpt>
      <trkpt lat="37.06631780" lon="-8.86444571">
        <ele>64.000000</ele>
        <time>2010-01-01T04:54:56Z</time>
      </trkpt>
      <trkpt lat="37.06625220" lon="-8.86458001">
        <ele>65.000000</ele>
        <time>2010-01-01T04:55:01Z</time>
      </trkpt>
      <trkpt lat="37.06608920" lon="-8.86491364">
        <ele>67.000000</ele>
        <time>2010-01-01T04:55:14Z</time>
      </trkpt>
      <trkpt lat="37.06604400" lon="-8.86500619">
        <ele>67.000000</ele>
        <time>2010-01-01T04:55:17Z</time>
      </trkpt>
      <trkpt lat="37.06603610" lon="-8.86502237">
        <ele>67.000000</ele>
        <time>2010-01-01T04:55:18Z</time>
      </trkpt>
      <trkpt lat="37.06592000" lon="-8.86526000">
        <ele>67.000000</ele>
        <time>2010-01-01T04:55:27Z</time>
      </trkpt>
      <trkpt lat="37.06590000" lon="-8.86551000">
        <ele>67.000000</ele>
        <time>2010-01-01T04:55:35Z</time>
      </trkpt>
      <trkpt lat="37.06592130" lon="-8.86561186">
        <ele>67.000000</ele>
        <time>2010-01-01T04:55:38Z</time>
      </trkpt>
      <trkpt lat="37.06596400" lon="-8.86581612">
        <ele>67.000000</ele>
        <time>2010-01-01T04:55:45Z</time>
      </trkpt>
      <trkpt lat="37.06599000" lon="-8.86594000">
        <ele>67.000000</ele>
        <time>2010-01-01T04:55:49Z</time>
      </trkpt>
      <trkpt lat="37.06611770" lon="-8.86624396">
        <ele>67.000000</ele>
        <time>2010-01-01T04:56:00Z</time>
      </trkpt>
      <trkpt lat="37.06616690" lon="-8.86636112">
        <ele>67.000000</ele>
        <time>2010-01-01T04:56:04Z</time>
      </trkpt>
      <trkpt lat="37.06628000" lon="-8.86663000">
        <ele>66.000000</ele>
        <time>2010-01-01T04:56:14Z</time>
      </trkpt>
      <trkpt lat="37.06633220" lon="-8.86678061">
        <ele>65.000000</ele>
        <time>2010-01-01T04:56:19Z</time>
      </trkpt>
      <trkpt lat="37.06636210" lon="-8.86686706">
        <ele>65.000000</ele>
        <time>2010-01-01T04:56:22Z</time>
      </trkpt>
      <trkpt lat="37.06651940" lon="-8.86732066">
        <ele>62.000000</ele>
        <time>2010-01-01T04:56:38Z</time>
      </trkpt>
      <trkpt lat="37.06654000" lon="-8.86738000">
        <ele>62.000000</ele>
        <time>2010-01-01T04:56:40Z</time>
      </trkpt>
      <trkpt lat="37.06658100" lon="-8.86756463">
        <ele>60.000000</ele>
        <time>2010-01-01T04:56:46Z</time>
      </trkpt>
      <trkpt lat="37.06660000" lon="-8.86765000">
        <ele>59.000000</ele>
        <time>2010-01-01T04:56:49Z</time>
      </trkpt>
      <trkpt lat="37.06656590" lon="-8.86778636">
        <ele>58.000000</ele>
        <time>2010-01-01T04:56:53Z</time>
      </trkpt>
      <trkpt lat="37.06650000" lon="-8.86805000">
        <ele>57.000000</ele>
        <time>2010-01-01T04:57:02Z</time>
      </trkpt>
      <trkpt lat="37.06649150" lon="-8.86806792">
        <ele>57.000000</ele>
        <time>2010-01-01T04:57:03Z</time>
      </trkpt>
      <trkpt lat="37.06641000" lon="-8.86824000">
        <ele>56.000000</ele>
        <time>2010-01-01T04:57:09Z</time>
      </trkpt>
      <trkpt lat="37.06641000" lon="-8.86843247">
        <ele>54.000000</ele>
        <time>2010-01-01T04:57:15Z</time>
      </trkpt>
      <trkpt lat="37.06641000" lon="-8.86850000">
        <ele>53.000000</ele>
        <time>2010-01-01T04:57:18Z</time>
      </trkpt>
      <trkpt lat="37.06651190" lon="-8.86872653">
        <ele>52.000000</ele>
        <time>2010-01-01T04:57:26Z</time>
      </trkpt>
      <trkpt lat="37.06659000" lon="-8.86890000">
        <ele>50.000000</ele>
        <time>2010-01-01T04:57:32Z</time>
      </trkpt>
      <trkpt lat="37.06672580" lon="-8.86904124">
        <ele>50.000000</ele>
        <time>2010-01-01T04:57:39Z</time>
      </trkpt>
      <trkpt lat="37.06680370" lon="-8.86912229">
        <ele>50.000000</ele>
        <time>2010-01-01T04:57:43Z</time>
      </trkpt>
      <trkpt lat="37.06684000" lon="-8.86916000">
        <ele>50.000000</ele>
        <time>2010-01-01T04:57:45Z</time>
      </trkpt>
      <trkpt lat="37.06702270" lon="-8.86932618">
        <ele>48.000000</ele>
        <time>2010-01-01T04:57:54Z</time>
      </trkpt>
      <trkpt lat="37.06702590" lon="-8.86932905">
        <ele>48.000000</ele>
        <time>2010-01-01T04:57:54Z</time>
      </trkpt>
      <trkpt lat="37.06713610" lon="-8.86942921">
        <ele>47.000000</ele>
        <time>2010-01-01T04:58:00Z</time>
      </trkpt>
      <trkpt lat="37.06723050" lon="-8.86951506">
        <ele>46.000000</ele>
        <time>2010-01-01T04:58:05Z</time>
      </trkpt>
      <trkpt lat="37.06724200" lon="-8.86952547">
        <ele>46.000000</ele>
        <time>2010-01-01T04:58:05Z</time>
      </trkpt>
      <trkpt lat="37.06728000" lon="-8.86956000">
        <ele>46.000000</ele>
        <time>2010-01-01T04:58:07Z</time>
      </trkpt>
      <trkpt lat="37.06735480" lon="-8.86979064">
        <ele>46.000000</ele>
        <time>2010-01-01T04:58:15Z</time>
      </trkpt>
      <trkpt lat="37.06739480" lon="-8.86991368">
        <ele>46.000000</ele>
        <time>2010-01-01T04:58:19Z</time>
      </trkpt>
      <trkpt lat="37.06748280" lon="-8.87018484">
        <ele>46.000000</ele>
        <time>2010-01-01T04:58:29Z</time>
      </trkpt>
      <trkpt lat="37.06750490" lon="-8.87025273">
        <ele>46.000000</ele>
        <time>2010-01-01T04:58:31Z</time>
      </trkpt>
      <trkpt lat="37.06750750" lon="-8.87026090">
        <ele>46.000000</ele>
        <time>2010-01-01T04:58:31Z</time>
      </trkpt>
      <trkpt lat="37.06753000" lon="-8.87033000">
        <ele>46.000000</ele>
        <time>2010-01-01T04:58:34Z</time>
      </trkpt>
      <trkpt lat="37.06755930" lon="-8.87055526">
        <ele>46.000000</ele>
        <time>2010-01-01T04:58:41Z</time>
      </trkpt>
      <trkpt lat="37.06758560" lon="-8.87075654">
        <ele>45.000000</ele>
        <time>2010-01-01T04:58:47Z</time>
      </trkpt>
      <trkpt lat="37.06760380" lon="-8.87089627">
        <ele>44.000000</ele>
        <time>2010-01-01T04:58:52Z</time>
      </trkpt>
      <trkpt lat="37.06762000" lon="-8.87102000">
        <ele>44.000000</ele>
        <time>2010-01-01T04:58:56Z</time>
      </trkpt>
      <trkpt lat="37.06769880" lon="-8.87111791">
        <ele>43.000000</ele>
        <time>2010-01-01T04:59:00Z</time>
      </trkpt>
      <trkpt lat="37.06785380" lon="-8.87131051">
        <ele>42.000000</ele>
        <time>2010-01-01T04:59:09Z</time>
      </trkpt>
      <trkpt lat="37.06790420" lon="-8.87137313">
        <ele>42.000000</ele>
        <time>2010-01-01T04:59:12Z</time>
      </trkpt>
      <trkpt lat="37.06795000" lon="-8.87143000">
        <ele>42.000000</ele>
        <time>2010-01-01T04:59:15Z</time>
      </trkpt>
      <trkpt lat="37.06802370" lon="-8.87162665">
        <ele>43.000000</ele>
        <time>2010-01-01T04:59:21Z</time>
      </trkpt>
      <trkpt lat="37.06802460" lon="-8.87162895">
        <ele>43.000000</ele>
        <time>2010-01-01T04:59:22Z</time>
      </trkpt>
      <trkpt lat="37.06807000" lon="-8.87175000">
        <ele>42.000000</ele>
        <time>2010-01-01T04:59:26Z</time>
      </trkpt>
      <trkpt lat="37.06808790" lon="-8.87176838">
        <ele>42.000000</ele>
        <time>2010-01-01T04:59:27Z</time>
      </trkpt>
      <trkpt lat="37.06808890" lon="-8.87176940">
        <ele>42.000000</ele>
        <time>2010-01-01T04:59:27Z</time>
      </trkpt>
      <trkpt lat="37.06809500" lon="-8.87177568">
        <ele>42.000000</ele>
        <time>2010-01-01T04:59:27Z</time>
      </trkpt>
      <trkpt lat="37.06833440" lon="-8.87202142">
        <ele>42.000000</ele>
        <time>2010-01-01T04:59:40Z</time>
      </trkpt>
      <trkpt lat="37.06845000" lon="-8.87214000">
        <ele>41.000000</ele>
        <time>2010-01-01T04:59:45Z</time>
      </trkpt>
      <trkpt lat="37.06856230" lon="-8.87212432">
        <ele>42.000000</ele>
        <time>2010-01-01T04:59:50Z</time>
      </trkpt>
      <trkpt lat="37.06872210" lon="-8.87210202">
        <ele>43.000000</ele>
        <time>2010-01-01T04:59:56Z</time>
      </trkpt>
      <trkpt lat="37.06888000" lon="-8.87208000">
        <ele>44.000000</ele>
        <time>2010-01-01T05:00:03Z</time>
      </trkpt>
      <trkpt lat="37.06902500" lon="-8.87212835">
        <ele>44.000000</ele>
        <time>2010-01-01T05:00:09Z</time>
      </trkpt>
      <trkpt lat="37.06918840" lon="-8.87218280">
        <ele>44.000000</ele>
        <time>2010-01-01T05:00:16Z</time>
      </trkpt>
      <trkpt lat="37.06921000" lon="-8.87219000">
        <ele>44.000000</ele>
        <time>2010-01-01T05:00:16Z</time>
      </trkpt>
      <trkpt lat="37.06941140" lon="-8.87219000">
        <ele>46.000000</ele>
        <time>2010-01-01T05:00:25Z</time>
      </trkpt>
      <trkpt lat="37.06963000" lon="-8.87219000">
        <ele>47.000000</ele>
        <time>2010-01-01T05:00:33Z</time>
      </trkpt>
      <trkpt lat="37.06972870" lon="-8.87221177">
        <ele>48.000000</ele>
        <time>2010-01-01T05:00:37Z</time>
      </trkpt>
      <trkpt lat="37.07006480" lon="-8.87228591">
        <ele>48.000000</ele>
        <time>2010-01-01T05:00:51Z</time>
      </trkpt>
      <trkpt lat="37.07011870" lon="-8.87229781">
        <ele>48.000000</ele>
        <time>2010-01-01T05:00:53Z</time>
      </trkpt>
      <trkpt lat="37.07031000" lon="-8.87234000">
        <ele>49.000000</ele>
        <time>2010-01-01T05:01:01Z</time>
      </trkpt>
      <trkpt lat="37.07038700" lon="-8.87239615">
        <ele>49.000000</ele>
        <time>2010-01-01T05:01:04Z</time>
      </trkpt>
      <trkpt lat="37.07055420" lon="-8.87251812">
        <ele>49.000000</ele>
        <time>2010-01-01T05:01:12Z</time>
      </trkpt>
      <trkpt lat="37.07079000" lon="-8.87269000">
        <ele>50.000000</ele>
        <time>2010-01-01T05:01:23Z</time>
      </trkpt>
      <trkpt lat="37.07089690" lon="-8.87268756">
        <ele>51.000000</ele>
        <time>2010-01-01T05:01:27Z</time>
      </trkpt>
      <trkpt lat="37.07093010" lon="-8.87268681">
        <ele>51.000000</ele>
        <time>2010-01-01T05:01:29Z</time>
      </trkpt>
      <trkpt lat="37.07123000" lon="-8.87268000">
        <ele>54.000000</ele>
        <time>2010-01-01T05:01:41Z</time>
      </trkpt>
      <trkpt lat="37.07131970" lon="-8.87265306">
        <ele>54.000000</ele>
        <time>2010-01-01T05:01:44Z</time>
      </trkpt>
      <trkpt lat="37.07143200" lon="-8.87261937">
        <ele>55.000000</ele>
        <time>2010-01-01T05:01:49Z</time>
      </trkpt>
      <trkpt lat="37.07173000" lon="-8.87253000">
        <ele>55.000000</ele>
        <time>2010-01-01T05:02:01Z</time>
      </trkpt>
      <trkpt lat="37.07183260" lon="-8.87252566">
        <ele>54.000000</ele>
        <time>2010-01-01T05:02:05Z</time>
      </trkpt>
      <trkpt lat="37.07217370" lon="-8.87251124">
        <ele>53.000000</ele>
        <time>2010-01-01T05:02:19Z</time>
      </trkpt>
      <trkpt lat="37.07217490" lon="-8.87251120">
        <ele>53.000000</ele>
        <time>2010-01-01T05:02:19Z</time>
      </trkpt>
      <trkpt lat="37.07244000" lon="-8.87250000">
        <ele>52.000000</ele>
        <time>2010-01-01T05:02:30Z</time>
      </trkpt>
      <trkpt lat="37.07247550" lon="-8.87257281">
        <ele>52.000000</ele>
        <time>2010-01-01T05:02:33Z</time>
      </trkpt>
      <trkpt lat="37.07254360" lon="-8.87271241">
        <ele>51.000000</ele>
        <time>2010-01-01T05:02:38Z</time>
      </trkpt>
      <trkpt lat="37.07281930" lon="-8.87327775">
        <ele>48.000000</ele>
        <time>2010-01-01T05:02:59Z</time>
      </trkpt>
      <trkpt lat="37.07284000" lon="-8.87332000">
        <ele>48.000000</ele>
        <time>2010-01-01T05:03:00Z</time>
      </trkpt>
      <trkpt lat="37.07289250" lon="-8.87335775">
        <ele>48.000000</ele>
        <time>2010-01-01T05:03:03Z</time>
      </trkpt>
      <trkpt lat="37.07316700" lon="-8.87355503">
        <ele>48.000000</ele>
        <time>2010-01-01T05:03:16Z</time>
      </trkpt>
      <trkpt lat="37.07331850" lon="-8.87366397">
        <ele>48.000000</ele>
        <time>2010-01-01T05:03:23Z</time>
      </trkpt>
      <trkpt lat="37.07348000" lon="-8.87378000">
        <ele>49.000000</ele>
        <time>2010-01-01T05:03:30Z</time>
      </trkpt>
      <trkpt lat="37.07350170" lon="-8.87381154">
        <ele>49.000000</ele>
        <time>2010-01-01T05:03:31Z</time>
      </trkpt>
      <trkpt lat="37.07365640" lon="-8.87403556">
        <ele>50.000000</ele>
        <time>2010-01-01T05:03:41Z</time>
      </trkpt>
      <trkpt lat="37.07374910" lon="-8.87416974">
        <ele>50.000000</ele>
        <time>2010-01-01T05:03:46Z</time>
      </trkpt>
      <trkpt lat="37.07377000" lon="-8.87420000">
        <ele>50.000000</ele>
        <time>2010-01-01T05:03:48Z</time>
      </trkpt>
      <trkpt lat="37.07373000" lon="-8.87470000">
        <ele>52.000000</ele>
        <time>2010-01-01T05:04:04Z</time>
      </trkpt>
      <trkpt lat="37.07366090" lon="-8.87494568">
        <ele>56.000000</ele>
        <time>2010-01-01T05:04:12Z</time>
      </trkpt>
      <trkpt lat="37.07364000" lon="-8.87502000">
        <ele>58.000000</ele>
        <time>2010-01-01T05:04:15Z</time>
      </trkpt>
      <trkpt lat="37.07354000" lon="-8.87516000">
        <ele>61.000000</ele>
        <time>2010-01-01T05:04:21Z</time>
      </trkpt>
      <trkpt lat="37.07370000" lon="-8.87506000">
        <ele>59.000000</ele>
        <time>2010-01-01T05:04:28Z</time>
      </trkpt>
      <trkpt lat="37.07371000" lon="-8.87506000">
        <ele>59.000000</ele>
        <time>2010-01-01T05:04:28Z</time>
      </trkpt>
      <trkpt lat="37.07376170" lon="-8.87503412">
        <ele>58.000000</ele>
        <time>2010-01-01T05:04:30Z</time>
      </trkpt>
      <trkpt lat="37.07379000" lon="-8.87502000">
        <ele>58.000000</ele>
        <time>2010-01-01T05:04:32Z</time>
      </trkpt>
      <trkpt lat="37.07384540" lon="-8.87501347">
        <ele>58.000000</ele>
        <time>2010-01-01T05:04:34Z</time>
      </trkpt>
      <trkpt lat="37.07395200" lon="-8.87500093">
        <ele>58.000000</ele>
        <time>2010-01-01T05:04:38Z</time>
      </trkpt>
      <trkpt lat="37.07397700" lon="-8.87499799">
        <ele>58.000000</ele>
        <time>2010-01-01T05:04:39Z</time>
      </trkpt>
      <trkpt lat="37.07405810" lon="-8.87498845">
        <ele>59.000000</ele>
        <time>2010-01-01T05:04:42Z</time>
      </trkpt>
      <trkpt lat="37.07408200" lon="-8.87498564">
        <ele>59.000000</ele>
        <time>2010-01-01T05:04:43Z</time>
      </trkpt>
      <trkpt lat="37.07413000" lon="-8.87498000">
        <ele>60.000000</ele>
        <time>2010-01-01T05:04:45Z</time>
      </trkpt>
      <trkpt lat="37.07435980" lon="-8.87502117">
        <ele>60.000000</ele>
        <time>2010-01-01T05:04:55Z</time>
      </trkpt>
      <trkpt lat="37.07445730" lon="-8.87503862">
        <ele>60.000000</ele>
        <time>2010-01-01T05:04:59Z</time>
      </trkpt>
      <trkpt lat="37.07468430" lon="-8.87507928">
        <ele>59.000000</ele>
        <time>2010-01-01T05:05:08Z</time>
      </trkpt>
      <trkpt lat="37.07480000" lon="-8.87510000">
        <ele>58.000000</ele>
        <time>2010-01-01T05:05:12Z</time>
      </trkpt>
      <trkpt lat="37.07481310" lon="-8.87510505">
        <ele>58.000000</ele>
        <time>2010-01-01T05:05:13Z</time>
      </trkpt>
      <trkpt lat="37.07498370" lon="-8.87517066">
        <ele>58.000000</ele>
        <time>2010-01-01T05:05:20Z</time>
      </trkpt>
      <trkpt lat="37.07506000" lon="-8.87520000">
        <ele>58.000000</ele>
        <time>2010-01-01T05:05:23Z</time>
      </trkpt>
      <trkpt lat="37.07514060" lon="-8.87526448">
        <ele>58.000000</ele>
        <time>2010-01-01T05:05:27Z</time>
      </trkpt>
      <trkpt lat="37.07516000" lon="-8.87528000">
        <ele>58.000000</ele>
        <time>2010-01-01T05:05:28Z</time>
      </trkpt>
      <trkpt lat="37.07526780" lon="-8.87542100">
        <ele>60.000000</ele>
        <time>2010-01-01T05:05:34Z</time>
      </trkpt>
      <trkpt lat="37.07529000" lon="-8.87545000">
        <ele>61.000000</ele>
        <time>2010-01-01T05:05:36Z</time>
      </trkpt>
      <trkpt lat="37.07537000" lon="-8.87551000">
        <ele>62.000000</ele>
        <time>2010-01-01T05:05:39Z</time>
      </trkpt>
      <trkpt lat="37.07549920" lon="-8.87550319">
        <ele>62.000000</ele>
        <time>2010-01-01T05:05:44Z</time>
      </trkpt>
      <trkpt lat="37.07551950" lon="-8.87550212">
        <ele>62.000000</ele>
        <time>2010-01-01T05:05:45Z</time>
      </trkpt>
      <trkpt lat="37.07556000" lon="-8.87550000">
        <ele>62.000000</ele>
        <time>2010-01-01T05:05:47Z</time>
      </trkpt>
      <trkpt lat="37.07574000" lon="-8.87552000">
        <ele>63.000000</ele>
        <time>2010-01-01T05:05:54Z</time>
      </trkpt>
      <trkpt lat="37.07582800" lon="-8.87556043">
        <ele>65.000000</ele>
        <time>2010-01-01T05:05:58Z</time>
      </trkpt>
      <trkpt lat="37.07596320" lon="-8.87562258">
        <ele>65.000000</ele>
        <time>2010-01-01T05:06:04Z</time>
      </trkpt>
      <trkpt lat="37.07611000" lon="-8.87569000">
        <ele>66.000000</ele>
        <time>2010-01-01T05:06:10Z</time>
      </trkpt>
      <trkpt lat="37.07624100" lon="-8.87570235">
        <ele>66.000000</ele>
        <time>2010-01-01T05:06:15Z</time>
      </trkpt>
      <trkpt lat="37.07636160" lon="-8.87571374">
        <ele>65.000000</ele>
        <time>2010-01-01T05:06:20Z</time>
      </trkpt>
      <trkpt lat="37.07648940" lon="-8.87572579">
        <ele>65.000000</ele>
        <time>2010-01-01T05:06:25Z</time>
      </trkpt>
      <trkpt lat="37.07664000" lon="-8.87574000">
        <ele>65.000000</ele>
        <time>2010-01-01T05:06:31Z</time>
      </trkpt>
      <trkpt lat="37.07665860" lon="-8.87574877">
        <ele>65.000000</ele>
        <time>2010-01-01T05:06:32Z</time>
      </trkpt>
      <trkpt lat="37.07673530" lon="-8.87578485">
        <ele>65.000000</ele>
        <time>2010-01-01T05:06:35Z</time>
      </trkpt>
      <trkpt lat="37.07681000" lon="-8.87582000">
        <ele>65.000000</ele>
        <time>2010-01-01T05:06:38Z</time>
      </trkpt>
      <trkpt lat="37.07693000" lon="-8.87594000">
        <ele>66.000000</ele>
        <time>2010-01-01T05:06:45Z</time>
      </trkpt>
      <trkpt lat="37.07697610" lon="-8.87602257">
        <ele>66.000000</ele>
        <time>2010-01-01T05:06:48Z</time>
      </trkpt>
      <trkpt lat="37.07712000" lon="-8.87628000">
        <ele>68.000000</ele>
        <time>2010-01-01T05:06:58Z</time>
      </trkpt>
      <trkpt lat="37.07724360" lon="-8.87641250">
        <ele>70.000000</ele>
        <time>2010-01-01T05:07:04Z</time>
      </trkpt>
      <trkpt lat="37.07726830" lon="-8.87643897">
        <ele>71.000000</ele>
        <time>2010-01-01T05:07:06Z</time>
      </trkpt>
      <trkpt lat="37.07740000" lon="-8.87658000">
        <ele>73.000000</ele>
        <time>2010-01-01T05:07:13Z</time>
      </trkpt>
      <trkpt lat="37.07741060" lon="-8.87660403">
        <ele>74.000000</ele>
        <time>2010-01-01T05:07:13Z</time>
      </trkpt>
      <trkpt lat="37.07745860" lon="-8.87671271">
        <ele>76.000000</ele>
        <time>2010-01-01T05:07:17Z</time>
      </trkpt>
      <trkpt lat="37.07759000" lon="-8.87701000">
        <ele>80.000000</ele>
        <time>2010-01-01T05:07:28Z</time>
      </trkpt>
      <trkpt lat="37.07779360" lon="-8.87723907">
        <ele>82.000000</ele>
        <time>2010-01-01T05:07:39Z</time>
      </trkpt>
      <trkpt lat="37.07781690" lon="-8.87726534">
        <ele>83.000000</ele>
        <time>2010-01-01T05:07:41Z</time>
      </trkpt>
      <trkpt lat="37.07799240" lon="-8.87746278">
        <ele>89.000000</ele>
        <time>2010-01-01T05:07:50Z</time>
      </trkpt>
      <trkpt lat="37.07811090" lon="-8.87759610">
        <ele>91.000000</ele>
        <time>2010-01-01T05:07:56Z</time>
      </trkpt>
      <trkpt lat="37.07815000" lon="-8.87764000">
        <ele>92.000000</ele>
        <time>2010-01-01T05:07:58Z</time>
      </trkpt>
      <trkpt lat="37.07820000" lon="-8.87774000">
        <ele>94.000000</ele>
        <time>2010-01-01T05:08:02Z</time>
      </trkpt>
      <trkpt lat="37.07819000" lon="-8.87781000">
        <ele>95.000000</ele>
        <time>2010-01-01T05:08:04Z</time>
      </trkpt>
      <trkpt lat="37.07811000" lon="-8.87786000">
        <ele>96.000000</ele>
        <time>2010-01-01T05:08:08Z</time>
      </trkpt>
      <trkpt lat="37.07804000" lon="-8.87794000">
        <ele>97.000000</ele>
        <time>2010-01-01T05:08:12Z</time>
      </trkpt>
      <trkpt lat="37.07802000" lon="-8.87801000">
        <ele>98.000000</ele>
        <time>2010-01-01T05:08:14Z</time>
      </trkpt>
      <trkpt lat="37.07806000" lon="-8.87812000">
        <ele>99.000000</ele>
        <time>2010-01-01T05:08:18Z</time>
      </trkpt>
      <trkpt lat="37.07807800" lon="-8.87814730">
        <ele>100.00000</ele>
        <time>2010-01-01T05:08:19Z</time>
      </trkpt>
      <trkpt lat="37.07826390" lon="-8.87842890">
        <ele>101.00000</ele>
        <time>2010-01-01T05:08:31Z</time>
      </trkpt>
      <trkpt lat="37.07839510" lon="-8.87862754">
        <ele>100.00000</ele>
        <time>2010-01-01T05:08:39Z</time>
      </trkpt>
      <trkpt lat="37.07841000" lon="-8.87865000">
        <ele>100.00000</ele>
        <time>2010-01-01T05:08:40Z</time>
      </trkpt>
      <trkpt lat="37.07851850" lon="-8.87876530">
        <ele>101.00000</ele>
        <time>2010-01-01T05:08:46Z</time>
      </trkpt>
      <trkpt lat="37.07857000" lon="-8.87882000">
        <ele>101.00000</ele>
        <time>2010-01-01T05:08:48Z</time>
      </trkpt>
      <trkpt lat="37.07862720" lon="-8.87886294">
        <ele>102.00000</ele>
        <time>2010-01-01T05:08:51Z</time>
      </trkpt>
      <trkpt lat="37.07869000" lon="-8.87891000">
        <ele>103.00000</ele>
        <time>2010-01-01T05:08:54Z</time>
      </trkpt>
      <trkpt lat="37.07880000" lon="-8.87917000">
        <ele>106.00000</ele>
        <time>2010-01-01T05:09:03Z</time>
      </trkpt>
      <trkpt lat="37.07881470" lon="-8.87919100">
        <ele>106.00000</ele>
        <time>2010-01-01T05:09:04Z</time>
      </trkpt>
      <trkpt lat="37.07883630" lon="-8.87922190">
        <ele>106.00000</ele>
        <time>2010-01-01T05:09:06Z</time>
      </trkpt>
      <trkpt lat="37.07894000" lon="-8.87937000">
        <ele>106.00000</ele>
        <time>2010-01-01T05:09:12Z</time>
      </trkpt>
      <trkpt lat="37.07897940" lon="-8.87939186">
        <ele>106.00000</ele>
        <time>2010-01-01T05:09:14Z</time>
      </trkpt>
      <trkpt lat="37.07916310" lon="-8.87949356">
        <ele>106.00000</ele>
        <time>2010-01-01T05:09:22Z</time>
      </trkpt>
      <trkpt lat="37.07937440" lon="-8.87961060">
        <ele>105.00000</ele>
        <time>2010-01-01T05:09:31Z</time>
      </trkpt>
      <trkpt lat="37.07946170" lon="-8.87965897">
        <ele>105.00000</ele>
        <time>2010-01-01T05:09:35Z</time>
      </trkpt>
      <trkpt lat="37.07959000" lon="-8.87973000">
        <ele>105.00000</ele>
        <time>2010-01-01T05:09:40Z</time>
      </trkpt>
      <trkpt lat="37.07961900" lon="-8.87978470">
        <ele>105.00000</ele>
        <time>2010-01-01T05:09:42Z</time>
      </trkpt>
      <trkpt lat="37.07969050" lon="-8.87991921">
        <ele>105.00000</ele>
        <time>2010-01-01T05:09:48Z</time>
      </trkpt>
      <trkpt lat="37.07976000" lon="-8.88005000">
        <ele>105.00000</ele>
        <time>2010-01-01T05:09:53Z</time>
      </trkpt>
      <trkpt lat="37.07981000" lon="-8.88037000">
        <ele>105.00000</ele>
        <time>2010-01-01T05:10:03Z</time>
      </trkpt>
      <trkpt lat="37.07981210" lon="-8.88040389">
        <ele>105.00000</ele>
        <time>2010-01-01T05:10:04Z</time>
      </trkpt>
      <trkpt lat="37.07981260" lon="-8.88041285">
        <ele>105.00000</ele>
        <time>2010-01-01T05:10:04Z</time>
      </trkpt>
      <trkpt lat="37.07983880" lon="-8.88083098">
        <ele>104.00000</ele>
        <time>2010-01-01T05:10:18Z</time>
      </trkpt>
      <trkpt lat="37.07985990" lon="-8.88116885">
        <ele>104.00000</ele>
        <time>2010-01-01T05:10:29Z</time>
      </trkpt>
      <trkpt lat="37.07987290" lon="-8.88137771">
        <ele>103.00000</ele>
        <time>2010-01-01T05:10:35Z</time>
      </trkpt>
      <trkpt lat="37.07988000" lon="-8.88149000">
        <ele>102.00000</ele>
        <time>2010-01-01T05:10:39Z</time>
      </trkpt>
      <trkpt lat="37.07990410" lon="-8.88158999">
        <ele>102.00000</ele>
        <time>2010-01-01T05:10:42Z</time>
      </trkpt>
      <trkpt lat="37.07995000" lon="-8.88178000">
        <ele>100.00000</ele>
        <time>2010-01-01T05:10:49Z</time>
      </trkpt>
      <trkpt lat="37.08001480" lon="-8.88182741">
        <ele>99.000000</ele>
        <time>2010-01-01T05:10:52Z</time>
      </trkpt>
      <trkpt lat="37.08016850" lon="-8.88193974">
        <ele>96.000000</ele>
        <time>2010-01-01T05:10:59Z</time>
      </trkpt>
      <trkpt lat="37.08021000" lon="-8.88197000">
        <ele>96.000000</ele>
        <time>2010-01-01T05:11:01Z</time>
      </trkpt>
      <trkpt lat="37.08021410" lon="-8.88197234">
        <ele>96.000000</ele>
        <time>2010-01-01T05:11:01Z</time>
      </trkpt>
      <trkpt lat="37.08022460" lon="-8.88197822">
        <ele>95.000000</ele>
        <time>2010-01-01T05:11:01Z</time>
      </trkpt>
      <trkpt lat="37.08046000" lon="-8.88211000">
        <ele>92.000000</ele>
        <time>2010-01-01T05:11:12Z</time>
      </trkpt>
      <trkpt lat="37.08046210" lon="-8.88211187">
        <ele>92.000000</ele>
        <time>2010-01-01T05:11:12Z</time>
      </trkpt>
      <trkpt lat="37.08056970" lon="-8.88220654">
        <ele>91.000000</ele>
        <time>2010-01-01T05:11:17Z</time>
      </trkpt>
      <trkpt lat="37.08063040" lon="-8.88225996">
        <ele>90.000000</ele>
        <time>2010-01-01T05:11:20Z</time>
      </trkpt>
      <trkpt lat="37.08071000" lon="-8.88233000">
        <ele>89.000000</ele>
        <time>2010-01-01T05:11:24Z</time>
      </trkpt>
      <trkpt lat="37.08091730" lon="-8.88263097">
        <ele>88.000000</ele>
        <time>2010-01-01T05:11:37Z</time>
      </trkpt>
      <trkpt lat="37.08099220" lon="-8.88273968">
        <ele>88.000000</ele>
        <time>2010-01-01T05:11:41Z</time>
      </trkpt>
      <trkpt lat="37.08102000" lon="-8.88278000">
        <ele>87.000000</ele>
        <time>2010-01-01T05:11:43Z</time>
      </trkpt>
      <trkpt lat="37.08111590" lon="-8.88301295">
        <ele>87.000000</ele>
        <time>2010-01-01T05:11:51Z</time>
      </trkpt>
      <trkpt lat="37.08126470" lon="-8.88337427">
        <ele>86.000000</ele>
        <time>2010-01-01T05:12:04Z</time>
      </trkpt>
      <trkpt lat="37.08128980" lon="-8.88343534">
        <ele>86.000000</ele>
        <time>2010-01-01T05:12:06Z</time>
      </trkpt>
      <trkpt lat="37.08137000" lon="-8.88363000">
        <ele>86.000000</ele>
        <time>2010-01-01T05:12:13Z</time>
      </trkpt>
      <trkpt lat="37.08138690" lon="-8.88383363">
        <ele>86.000000</ele>
        <time>2010-01-01T05:12:20Z</time>
      </trkpt>
      <trkpt lat="37.08140000" lon="-8.88399000">
        <ele>87.000000</ele>
        <time>2010-01-01T05:12:25Z</time>
      </trkpt>
      <trkpt lat="37.08136370" lon="-8.88408677">
        <ele>86.000000</ele>
        <time>2010-01-01T05:12:28Z</time>
      </trkpt>
      <trkpt lat="37.08131180" lon="-8.88422515">
        <ele>85.000000</ele>
        <time>2010-01-01T05:12:33Z</time>
      </trkpt>
      <trkpt lat="37.08131000" lon="-8.88423000">
        <ele>85.000000</ele>
        <time>2010-01-01T05:12:33Z</time>
      </trkpt>
      <trkpt lat="37.08126920" lon="-8.88444710">
        <ele>84.000000</ele>
        <time>2010-01-01T05:12:41Z</time>
      </trkpt>
      <trkpt lat="37.08125000" lon="-8.88455000">
        <ele>84.000000</ele>
        <time>2010-01-01T05:12:44Z</time>
      </trkpt>
      <trkpt lat="37.08128340" lon="-8.88484282">
        <ele>83.000000</ele>
        <time>2010-01-01T05:12:53Z</time>
      </trkpt>
      <trkpt lat="37.08129000" lon="-8.88490000">
        <ele>83.000000</ele>
        <time>2010-01-01T05:12:55Z</time>
      </trkpt>
      <trkpt lat="37.08126220" lon="-8.88496657">
        <ele>83.000000</ele>
        <time>2010-01-01T05:12:58Z</time>
      </trkpt>
      <trkpt lat="37.08124000" lon="-8.88502000">
        <ele>82.000000</ele>
        <time>2010-01-01T05:13:00Z</time>
      </trkpt>
      <trkpt lat="37.08106000" lon="-8.88523000">
        <ele>82.000000</ele>
        <time>2010-01-01T05:13:09Z</time>
      </trkpt>
      <trkpt lat="37.08100530" lon="-8.88527059">
        <ele>82.000000</ele>
        <time>2010-01-01T05:13:12Z</time>
      </trkpt>
      <trkpt lat="37.08078970" lon="-8.88543076">
        <ele>81.000000</ele>
        <time>2010-01-01T05:13:22Z</time>
      </trkpt>
      <trkpt lat="37.08078650" lon="-8.88543316">
        <ele>81.000000</ele>
        <time>2010-01-01T05:13:22Z</time>
      </trkpt>
      <trkpt lat="37.08071000" lon="-8.88549000">
        <ele>80.000000</ele>
        <time>2010-01-01T05:13:26Z</time>
      </trkpt>
      <trkpt lat="37.08060560" lon="-8.88562369">
        <ele>79.000000</ele>
        <time>2010-01-01T05:13:32Z</time>
      </trkpt>
      <trkpt lat="37.08039000" lon="-8.88590000">
        <ele>77.000000</ele>
        <time>2010-01-01T05:13:44Z</time>
      </trkpt>
      <trkpt lat="37.08037870" lon="-8.88591003">
        <ele>77.000000</ele>
        <time>2010-01-01T05:13:45Z</time>
      </trkpt>
      <trkpt lat="37.08029610" lon="-8.88598401">
        <ele>76.000000</ele>
        <time>2010-01-01T05:13:49Z</time>
      </trkpt>
      <trkpt lat="37.08020000" lon="-8.88607000">
        <ele>76.000000</ele>
        <time>2010-01-01T05:13:53Z</time>
      </trkpt>
      <trkpt lat="37.07997720" lon="-8.88623708">
        <ele>76.000000</ele>
        <time>2010-01-01T05:14:04Z</time>
      </trkpt>
      <trkpt lat="37.07993680" lon="-8.88626734">
        <ele>76.000000</ele>
        <time>2010-01-01T05:14:06Z</time>
      </trkpt>
      <trkpt lat="37.07984000" lon="-8.88634000">
        <ele>75.000000</ele>
        <time>2010-01-01T05:14:10Z</time>
      </trkpt>
      <trkpt lat="37.07962930" lon="-8.88656688">
        <ele>74.000000</ele>
        <time>2010-01-01T05:14:21Z</time>
      </trkpt>
      <trkpt lat="37.07958000" lon="-8.88662000">
        <ele>73.000000</ele>
        <time>2010-01-01T05:14:24Z</time>
      </trkpt>
      <trkpt lat="37.07957850" lon="-8.88662320">
        <ele>73.000000</ele>
        <time>2010-01-01T05:14:24Z</time>
      </trkpt>
      <trkpt lat="37.07946000" lon="-8.88688000">
        <ele>71.000000</ele>
        <time>2010-01-01T05:14:33Z</time>
      </trkpt>
      <trkpt lat="37.07941570" lon="-8.88729121">
        <ele>68.000000</ele>
        <time>2010-01-01T05:14:47Z</time>
      </trkpt>
      <trkpt lat="37.07941150" lon="-8.88732983">
        <ele>68.000000</ele>
        <time>2010-01-01T05:14:48Z</time>
      </trkpt>
      <trkpt lat="37.07940830" lon="-8.88735970">
        <ele>68.000000</ele>
        <time>2010-01-01T05:14:49Z</time>
      </trkpt>
      <trkpt lat="37.07939830" lon="-8.88745234">
        <ele>68.000000</ele>
        <time>2010-01-01T05:14:52Z</time>
      </trkpt>
      <trkpt lat="37.07939830" lon="-8.88745253">
        <ele>68.000000</ele>
        <time>2010-01-01T05:14:52Z</time>
      </trkpt>
      <trkpt lat="37.07939000" lon="-8.88753000">
        <ele>68.000000</ele>
        <time>2010-01-01T05:14:54Z</time>
      </trkpt>
      <trkpt lat="37.07939060" lon="-8.88753529">
        <ele>68.000000</ele>
        <time>2010-01-01T05:14:55Z</time>
      </trkpt>
      <trkpt lat="37.07941830" lon="-8.88760636">
        <ele>68.000000</ele>
        <time>2010-01-01T05:14:57Z</time>
      </trkpt>
      <trkpt lat="37.07943740" lon="-8.88765536">
        <ele>67.000000</ele>
        <time>2010-01-01T05:14:59Z</time>
      </trkpt>
      <trkpt lat="37.07949000" lon="-8.88779000">
        <ele>67.000000</ele>
        <time>2010-01-01T05:15:04Z</time>
      </trkpt>
      <trkpt lat="37.07961000" lon="-8.88799000">
        <ele>67.000000</ele>
        <time>2010-01-01T05:15:12Z</time>
      </trkpt>
      <trkpt lat="37.08012000" lon="-8.88868000">
        <ele>67.000000</ele>
        <time>2010-01-01T05:15:42Z</time>
      </trkpt>
      <trkpt lat="37.08071000" lon="-8.88937000">
        <ele>65.000000</ele>
        <time>2010-01-01T05:16:14Z</time>
      </trkpt>
      <trkpt lat="37.08093000" lon="-8.88948000">
        <ele>61.000000</ele>
        <time>2010-01-01T05:16:23Z</time>
      </trkpt>
      <trkpt lat="37.08124830" lon="-8.88957394">
        <ele>59.000000</ele>
        <time>2010-01-01T05:16:37Z</time>
      </trkpt>
      <trkpt lat="37.08215000" lon="-8.88984000">
        <ele>59.000000</ele>
        <time>2010-01-01T05:17:14Z</time>
      </trkpt>
      <trkpt lat="37.08229000" lon="-8.88987000">
        <ele>59.000000</ele>
        <time>2010-01-01T05:17:19Z</time>
      </trkpt>
      <trkpt lat="37.08281000" lon="-8.88990000">
        <ele>59.000000</ele>
        <time>2010-01-01T05:17:40Z</time>
      </trkpt>
      <trkpt lat="37.08291000" lon="-8.88980000">
        <ele>60.000000</ele>
        <time>2010-01-01T05:17:45Z</time>
      </trkpt>
      <trkpt lat="37.08296930" lon="-8.88978939">
        <ele>60.000000</ele>
        <time>2010-01-01T05:17:48Z</time>
      </trkpt>
      <trkpt lat="37.08319000" lon="-8.88975000">
        <ele>61.000000</ele>
        <time>2010-01-01T05:17:57Z</time>
      </trkpt>
      <trkpt lat="37.08404000" lon="-8.88969000">
        <ele>67.000000</ele>
        <time>2010-01-01T05:18:31Z</time>
      </trkpt>
      <trkpt lat="37.08405000" lon="-8.88974000">
        <ele>67.000000</ele>
        <time>2010-01-01T05:18:32Z</time>
      </trkpt>
      <trkpt lat="37.08406000" lon="-8.88998000">
        <ele>66.000000</ele>
        <time>2010-01-01T05:18:40Z</time>
      </trkpt>
      <trkpt lat="37.08419000" lon="-8.89080000">
        <ele>60.000000</ele>
        <time>2010-01-01T05:19:07Z</time>
      </trkpt>
      <trkpt lat="37.08429000" lon="-8.89102000">
        <ele>59.000000</ele>
        <time>2010-01-01T05:19:15Z</time>
      </trkpt>
      <trkpt lat="37.08460000" lon="-8.89193000">
        <ele>64.000000</ele>
        <time>2010-01-01T05:19:46Z</time>
      </trkpt>
      <trkpt lat="37.08492000" lon="-8.89219000">
        <ele>66.000000</ele>
        <time>2010-01-01T05:20:02Z</time>
      </trkpt>
      <trkpt lat="37.08522000" lon="-8.89250000">
        <ele>65.000000</ele>
        <time>2010-01-01T05:20:17Z</time>
      </trkpt>
      <trkpt lat="37.08554000" lon="-8.89302000">
        <ele>67.000000</ele>
        <time>2010-01-01T05:20:38Z</time>
      </trkpt>
      <trkpt lat="37.08568270" lon="-8.89331385">
        <ele>64.000000</ele>
        <time>2010-01-01T05:20:49Z</time>
      </trkpt>
      <trkpt lat="37.08588000" lon="-8.89372000">
        <ele>61.000000</ele>
        <time>2010-01-01T05:21:04Z</time>
      </trkpt>
      <trkpt lat="37.08613000" lon="-8.89404000">
        <ele>61.000000</ele>
        <time>2010-01-01T05:21:19Z</time>
      </trkpt>
      <trkpt lat="37.08633000" lon="-8.89423000">
        <ele>65.000000</ele>
        <time>2010-01-01T05:21:29Z</time>
      </trkpt>
      <trkpt lat="37.08639000" lon="-8.89444000">
        <ele>67.000000</ele>
        <time>2010-01-01T05:21:36Z</time>
      </trkpt>
      <trkpt lat="37.08636000" lon="-8.89460000">
        <ele>69.000000</ele>
        <time>2010-01-01T05:21:41Z</time>
      </trkpt>
      <trkpt lat="37.08616000" lon="-8.89513000">
        <ele>69.000000</ele>
        <time>2010-01-01T05:22:00Z</time>
      </trkpt>
      <trkpt lat="37.08614000" lon="-8.89536000">
        <ele>70.000000</ele>
        <time>2010-01-01T05:22:07Z</time>
      </trkpt>
      <trkpt lat="37.08616000" lon="-8.89564000">
        <ele>69.000000</ele>
        <time>2010-01-01T05:22:16Z</time>
      </trkpt>
      <trkpt lat="37.08629000" lon="-8.89586000">
        <ele>69.000000</ele>
        <time>2010-01-01T05:22:25Z</time>
      </trkpt>
      <trkpt lat="37.08663000" lon="-8.89605000">
        <ele>71.000000</ele>
        <time>2010-01-01T05:22:40Z</time>
      </trkpt>
      <trkpt lat="37.08684000" lon="-8.89626000">
        <ele>73.000000</ele>
        <time>2010-01-01T05:22:51Z</time>
      </trkpt>
      <trkpt lat="37.08722000" lon="-8.89688000">
        <ele>75.000000</ele>
        <time>2010-01-01T05:23:15Z</time>
      </trkpt>
      <trkpt lat="37.08735000" lon="-8.89737000">
        <ele>73.000000</ele>
        <time>2010-01-01T05:23:32Z</time>
      </trkpt>
      <trkpt lat="37.08781000" lon="-8.89831000">
        <ele>75.000000</ele>
        <time>2010-01-01T05:24:07Z</time>
      </trkpt>
      <trkpt lat="37.08781000" lon="-8.89855000">
        <ele>75.000000</ele>
        <time>2010-01-01T05:24:15Z</time>
      </trkpt>
      <trkpt lat="37.08765000" lon="-8.89890000">
        <ele>76.000000</ele>
        <time>2010-01-01T05:24:28Z</time>
      </trkpt>
      <trkpt lat="37.08763000" lon="-8.89916000">
        <ele>76.000000</ele>
        <time>2010-01-01T05:24:36Z</time>
      </trkpt>
      <trkpt lat="37.08763600" lon="-8.89918340">
        <ele>77.000000</ele>
        <time>2010-01-01T05:24:37Z</time>
      </trkpt>
      <trkpt lat="37.08778000" lon="-8.89974000">
        <ele>81.000000</ele>
        <time>2010-01-01T05:24:56Z</time>
      </trkpt>
      <trkpt lat="37.08781000" lon="-8.89998000">
        <ele>82.000000</ele>
        <time>2010-01-01T05:25:03Z</time>
      </trkpt>
      <trkpt lat="37.08788000" lon="-8.90028000">
        <ele>82.000000</ele>
        <time>2010-01-01T05:25:13Z</time>
      </trkpt>
      <trkpt lat="37.08799000" lon="-8.90056000">
        <ele>82.000000</ele>
        <time>2010-01-01T05:25:23Z</time>
      </trkpt>
      <trkpt lat="37.08829000" lon="-8.90104000">
        <ele>80.000000</ele>
        <time>2010-01-01T05:25:43Z</time>
      </trkpt>
      <trkpt lat="37.08832000" lon="-8.90147000">
        <ele>79.000000</ele>
        <time>2010-01-01T05:25:57Z</time>
      </trkpt>
      <trkpt lat="37.08838000" lon="-8.90172000">
        <ele>77.000000</ele>
        <time>2010-01-01T05:26:05Z</time>
      </trkpt>
      <trkpt lat="37.08842000" lon="-8.90205000">
        <ele>76.000000</ele>
        <time>2010-01-01T05:26:16Z</time>
      </trkpt>
      <trkpt lat="37.08837000" lon="-8.90239000">
        <ele>76.000000</ele>
        <time>2010-01-01T05:26:27Z</time>
      </trkpt>
      <trkpt lat="37.08824000" lon="-8.90267000">
        <ele>76.000000</ele>
        <time>2010-01-01T05:26:37Z</time>
      </trkpt>
      <trkpt lat="37.08732000" lon="-8.90417000">
        <ele>77.000000</ele>
        <time>2010-01-01T05:27:37Z</time>
      </trkpt>
      <trkpt lat="37.08713000" lon="-8.90439000">
        <ele>77.000000</ele>
        <time>2010-01-01T05:27:48Z</time>
      </trkpt>
      <trkpt lat="37.08698000" lon="-8.90477000">
        <ele>79.000000</ele>
        <time>2010-01-01T05:28:01Z</time>
      </trkpt>
      <trkpt lat="37.08635060" lon="-8.90581608">
        <ele>81.000000</ele>
        <time>2010-01-01T05:28:43Z</time>
      </trkpt>
      <trkpt lat="37.08624000" lon="-8.90600000">
        <ele>81.000000</ele>
        <time>2010-01-01T05:28:50Z</time>
      </trkpt>
      <trkpt lat="37.08615000" lon="-8.90620000">
        <ele>80.000000</ele>
        <time>2010-01-01T05:28:58Z</time>
      </trkpt>
      <trkpt lat="37.08606070" lon="-8.90656157">
        <ele>80.000000</ele>
        <time>2010-01-01T05:29:10Z</time>
      </trkpt>
      <trkpt lat="37.08595000" lon="-8.90701000">
        <ele>80.000000</ele>
        <time>2010-01-01T05:29:25Z</time>
      </trkpt>
      <trkpt lat="37.08581000" lon="-8.90722000">
        <ele>81.000000</ele>
        <time>2010-01-01T05:29:34Z</time>
      </trkpt>
      <trkpt lat="37.08560000" lon="-8.90793000">
        <ele>84.000000</ele>
        <time>2010-01-01T05:29:58Z</time>
      </trkpt>
      <trkpt lat="37.08549000" lon="-8.90927000">
        <ele>82.000000</ele>
        <time>2010-01-01T05:30:41Z</time>
      </trkpt>
      <trkpt lat="37.08523000" lon="-8.90985000">
        <ele>83.000000</ele>
        <time>2010-01-01T05:31:02Z</time>
      </trkpt>
      <trkpt lat="37.08519000" lon="-8.90973000">
        <ele>83.000000</ele>
        <time>2010-01-01T05:31:06Z</time>
      </trkpt>
      <trkpt lat="37.08485000" lon="-8.90882000">
        <ele>83.000000</ele>
        <time>2010-01-01T05:31:38Z</time>
      </trkpt>
      <trkpt lat="37.08461000" lon="-8.90837000">
        <ele>80.000000</ele>
        <time>2010-01-01T05:31:56Z</time>
      </trkpt>
      <trkpt lat="37.08431000" lon="-8.90806000">
        <ele>82.000000</ele>
        <time>2010-01-01T05:32:11Z</time>
      </trkpt>
      <trkpt lat="37.08400000" lon="-8.90783000">
        <ele>83.000000</ele>
        <time>2010-01-01T05:32:26Z</time>
      </trkpt>
      <trkpt lat="37.08374000" lon="-8.90771000">
        <ele>83.000000</ele>
        <time>2010-01-01T05:32:37Z</time>
      </trkpt>
      <trkpt lat="37.08270000" lon="-8.90750000">
        <ele>81.000000</ele>
        <time>2010-01-01T05:33:19Z</time>
      </trkpt>
      <trkpt lat="37.08254000" lon="-8.90761000">
        <ele>81.000000</ele>
        <time>2010-01-01T05:33:26Z</time>
      </trkpt>
      <trkpt lat="37.08243000" lon="-8.90773000">
        <ele>82.000000</ele>
        <time>2010-01-01T05:33:32Z</time>
      </trkpt>
      <trkpt lat="37.08160000" lon="-8.91041000">
        <ele>81.000000</ele>
        <time>2010-01-01T05:35:04Z</time>
      </trkpt>
      <trkpt lat="37.08138000" lon="-8.91097000">
        <ele>78.000000</ele>
        <time>2010-01-01T05:35:24Z</time>
      </trkpt>
      <trkpt lat="37.08124000" lon="-8.91119000">
        <ele>76.000000</ele>
        <time>2010-01-01T05:35:33Z</time>
      </trkpt>
      <trkpt lat="37.08108000" lon="-8.91131000">
        <ele>74.000000</ele>
        <time>2010-01-01T05:35:40Z</time>
      </trkpt>
      <trkpt lat="37.08101000" lon="-8.91130000">
        <ele>74.000000</ele>
        <time>2010-01-01T05:35:43Z</time>
      </trkpt>
      <trkpt lat="37.08094000" lon="-8.91133000">
        <ele>73.000000</ele>
        <time>2010-01-01T05:35:46Z</time>
      </trkpt>
      <trkpt lat="37.08089000" lon="-8.91138000">
        <ele>73.000000</ele>
        <time>2010-01-01T05:35:48Z</time>
      </trkpt>
      <trkpt lat="37.08086000" lon="-8.91146000">
        <ele>73.000000</ele>
        <time>2010-01-01T05:35:51Z</time>
      </trkpt>
      <trkpt lat="37.08085000" lon="-8.91154000">
        <ele>73.000000</ele>
        <time>2010-01-01T05:35:54Z</time>
      </trkpt>
      <trkpt lat="37.08067000" lon="-8.91181000">
        <ele>73.000000</ele>
        <time>2010-01-01T05:36:05Z</time>
      </trkpt>
      <trkpt lat="37.07875790" lon="-8.91344084">
        <ele>72.000000</ele>
        <time>2010-01-01T05:37:38Z</time>
      </trkpt>
      <trkpt lat="37.07830500" lon="-8.91382709">
        <ele>74.000000</ele>
        <time>2010-01-01T05:38:00Z</time>
      </trkpt>
      <trkpt lat="37.07662080" lon="-8.91526343">
        <ele>81.000000</ele>
        <time>2010-01-01T05:39:21Z</time>
      </trkpt>
      <trkpt lat="37.07598000" lon="-8.91581000">
        <ele>84.000000</ele>
        <time>2010-01-01T05:39:52Z</time>
      </trkpt>
      <trkpt lat="37.07546000" lon="-8.91627000">
        <ele>88.000000</ele>
        <time>2010-01-01T05:40:18Z</time>
      </trkpt>
      <trkpt lat="37.07453000" lon="-8.91738000">
        <ele>90.000000</ele>
        <time>2010-01-01T05:41:09Z</time>
      </trkpt>
      <trkpt lat="37.07430000" lon="-8.91753000">
        <ele>92.000000</ele>
        <time>2010-01-01T05:41:19Z</time>
      </trkpt>
      <trkpt lat="37.07427690" lon="-8.91753697">
        <ele>92.000000</ele>
        <time>2010-01-01T05:41:20Z</time>
      </trkpt>
      <trkpt lat="37.07235000" lon="-8.91812000">
        <ele>90.000000</ele>
        <time>2010-01-01T05:42:40Z</time>
      </trkpt>
      <trkpt lat="37.07200000" lon="-8.91831000">
        <ele>90.000000</ele>
        <time>2010-01-01T05:42:55Z</time>
      </trkpt>
      <trkpt lat="37.06990000" lon="-8.91980000">
        <ele>84.000000</ele>
        <time>2010-01-01T05:44:32Z</time>
      </trkpt>
      <trkpt lat="37.06983000" lon="-8.91989000">
        <ele>84.000000</ele>
        <time>2010-01-01T05:44:36Z</time>
      </trkpt>
      <trkpt lat="37.06921000" lon="-8.92042000">
        <ele>82.000000</ele>
        <time>2010-01-01T05:45:06Z</time>
      </trkpt>
      <trkpt lat="37.06907960" lon="-8.92053729">
        <ele>81.000000</ele>
        <time>2010-01-01T05:45:12Z</time>
      </trkpt>
      <trkpt lat="37.06887600" lon="-8.92072040">
        <ele>80.000000</ele>
        <time>2010-01-01T05:45:22Z</time>
      </trkpt>
      <trkpt lat="37.06682000" lon="-8.92257000">
        <ele>74.000000</ele>
        <time>2010-01-01T05:47:03Z</time>
      </trkpt>
      <trkpt lat="37.06646000" lon="-8.92284000">
        <ele>73.000000</ele>
        <time>2010-01-01T05:47:20Z</time>
      </trkpt>
      <trkpt lat="37.06612000" lon="-8.92296000">
        <ele>71.000000</ele>
        <time>2010-01-01T05:47:34Z</time>
      </trkpt>
      <trkpt lat="37.06539000" lon="-8.92303000">
        <ele>68.000000</ele>
        <time>2010-01-01T05:48:04Z</time>
      </trkpt>
      <trkpt lat="37.06389000" lon="-8.92308000">
        <ele>62.000000</ele>
        <time>2010-01-01T05:49:04Z</time>
      </trkpt>
      <trkpt lat="37.06290400" lon="-8.92308508">
        <ele>62.000000</ele>
        <time>2010-01-01T05:49:43Z</time>
      </trkpt>
      <trkpt lat="37.06195000" lon="-8.92309000">
        <ele>60.000000</ele>
        <time>2010-01-01T05:50:21Z</time>
      </trkpt>
      <trkpt lat="37.06150980" lon="-8.92310333">
        <ele>61.000000</ele>
        <time>2010-01-01T05:50:39Z</time>
      </trkpt>
      <trkpt lat="37.06096000" lon="-8.92312000">
        <ele>64.000000</ele>
        <time>2010-01-01T05:51:01Z</time>
      </trkpt>
      <trkpt lat="37.06053000" lon="-8.92318000">
        <ele>64.000000</ele>
        <time>2010-01-01T05:51:18Z</time>
      </trkpt>
      <trkpt lat="37.05707000" lon="-8.92444000">
        <ele>67.000000</ele>
        <time>2010-01-01T05:53:43Z</time>
      </trkpt>
      <trkpt lat="37.05671000" lon="-8.92447000">
        <ele>67.000000</ele>
        <time>2010-01-01T05:53:57Z</time>
      </trkpt>
      <trkpt lat="37.05631000" lon="-8.92446000">
        <ele>65.000000</ele>
        <time>2010-01-01T05:54:13Z</time>
      </trkpt>
      <trkpt lat="37.05610750" lon="-8.92444056">
        <ele>64.000000</ele>
        <time>2010-01-01T05:54:21Z</time>
      </trkpt>
      <trkpt lat="37.05513520" lon="-8.92434722">
        <ele>66.000000</ele>
        <time>2010-01-01T05:55:00Z</time>
      </trkpt>
      <trkpt lat="37.05381000" lon="-8.92422000">
        <ele>62.000000</ele>
        <time>2010-01-01T05:55:53Z</time>
      </trkpt>
      <trkpt lat="37.05371000" lon="-8.92421000">
        <ele>62.000000</ele>
        <time>2010-01-01T05:55:57Z</time>
      </trkpt>
      <trkpt lat="37.05342000" lon="-8.92438000">
        <ele>60.000000</ele>
        <time>2010-01-01T05:56:10Z</time>
      </trkpt>
      <trkpt lat="37.05314000" lon="-8.92466000">
        <ele>58.000000</ele>
        <time>2010-01-01T05:56:25Z</time>
      </trkpt>
      <trkpt lat="37.05299000" lon="-8.92470000">
        <ele>58.000000</ele>
        <time>2010-01-01T05:56:31Z</time>
      </trkpt>
      <trkpt lat="37.05298000" lon="-8.92480000">
        <ele>58.000000</ele>
        <time>2010-01-01T05:56:34Z</time>
      </trkpt>
      <trkpt lat="37.05244000" lon="-8.92526000">
        <ele>55.000000</ele>
        <time>2010-01-01T05:57:00Z</time>
      </trkpt>
      <trkpt lat="37.05070000" lon="-8.92689000">
        <ele>50.000000</ele>
        <time>2010-01-01T05:58:27Z</time>
      </trkpt>
      <trkpt lat="37.05059000" lon="-8.92678000">
        <ele>49.000000</ele>
        <time>2010-01-01T05:58:33Z</time>
      </trkpt>
      <trkpt lat="37.04966980" lon="-8.92764222">
        <ele>52.000000</ele>
        <time>2010-01-01T05:59:19Z</time>
      </trkpt>
      <trkpt lat="37.04916000" lon="-8.92812000">
        <ele>50.000000</ele>
        <time>2010-01-01T05:59:44Z</time>
      </trkpt>
      <trkpt lat="37.04871000" lon="-8.92848000">
        <ele>52.000000</ele>
        <time>2010-01-01T06:00:06Z</time>
      </trkpt>
      <trkpt lat="37.04829380" lon="-8.92875745">
        <ele>53.000000</ele>
        <time>2010-01-01T06:00:24Z</time>
      </trkpt>
      <trkpt lat="37.04811000" lon="-8.92888000">
        <ele>52.000000</ele>
        <time>2010-01-01T06:00:33Z</time>
      </trkpt>
      <trkpt lat="37.04735000" lon="-8.92924000">
        <ele>49.000000</ele>
        <time>2010-01-01T06:01:05Z</time>
      </trkpt>
      <trkpt lat="37.04275520" lon="-8.93112137">
        <ele>41.000000</ele>
        <time>2010-01-01T06:04:19Z</time>
      </trkpt>
      <trkpt lat="37.03949310" lon="-8.93245697">
        <ele>43.000000</ele>
        <time>2010-01-01T06:06:36Z</time>
      </trkpt>
      <trkpt lat="37.03595940" lon="-8.93390359">
        <ele>38.000000</ele>
        <time>2010-01-01T06:09:05Z</time>
      </trkpt>
      <trkpt lat="37.03118000" lon="-8.93586000">
        <ele>36.000000</ele>
        <time>2010-01-01T06:12:26Z</time>
      </trkpt>
      <trkpt lat="37.03026000" lon="-8.93621000">
        <ele>33.000000</ele>
        <time>2010-01-01T06:13:05Z</time>
      </trkpt>
      <trkpt lat="37.02927350" lon="-8.93651614">
        <ele>33.000000</ele>
        <time>2010-01-01T06:13:45Z</time>
      </trkpt>
      <trkpt lat="37.02707000" lon="-8.93720000">
        <ele>30.000000</ele>
        <time>2010-01-01T06:15:16Z</time>
      </trkpt>
      <trkpt lat="37.02620640" lon="-8.93745643">
        <ele>30.000000</ele>
        <time>2010-01-01T06:15:52Z</time>
      </trkpt>
      <trkpt lat="37.02542000" lon="-8.93769000">
        <ele>27.000000</ele>
        <time>2010-01-01T06:16:24Z</time>
      </trkpt>
      <trkpt lat="37.02461000" lon="-8.93781000">
        <ele>25.000000</ele>
        <time>2010-01-01T06:16:57Z</time>
      </trkpt>
      <trkpt lat="37.02363340" lon="-8.93777573">
        <ele>26.000000</ele>
        <time>2010-01-01T06:17:36Z</time>
      </trkpt>
      <trkpt lat="37.02290000" lon="-8.93775000">
        <ele>21.000000</ele>
        <time>2010-01-01T06:18:05Z</time>
      </trkpt>
      <trkpt lat="37.02239000" lon="-8.93785000">
        <ele>19.000000</ele>
        <time>2010-01-01T06:18:26Z</time>
      </trkpt>
      <trkpt lat="37.02165000" lon="-8.93820000">
        <ele>16.000000</ele>
        <time>2010-01-01T06:18:58Z</time>
      </trkpt>
      <trkpt lat="37.01891000" lon="-8.93954000">
        <ele>12.000000</ele>
        <time>2010-01-01T06:20:55Z</time>
      </trkpt>
      <trkpt lat="37.01859920" lon="-8.93968742">
        <ele>10.000000</ele>
        <time>2010-01-01T06:21:09Z</time>
      </trkpt>
      <trkpt lat="37.01620580" lon="-8.94082301">
        <ele>11.000000</ele>
        <time>2010-01-01T06:22:51Z</time>
      </trkpt>
      <trkpt lat="37.01201800" lon="-8.94280976">
        <ele>17.000000</ele>
        <time>2010-01-01T06:25:50Z</time>
      </trkpt>
      <trkpt lat="37.01187000" lon="-8.94288000">
        <ele>17.000000</ele>
        <time>2010-01-01T06:25:57Z</time>
      </trkpt>
      <trkpt lat="37.00993000" lon="-8.94386000">
        <ele>28.000000</ele>
        <time>2010-01-01T06:27:20Z</time>
      </trkpt>
      <trkpt lat="37.00988000" lon="-8.94387000">
        <ele>28.000000</ele>
        <time>2010-01-01T06:27:22Z</time>
      </trkpt>
      <trkpt lat="37.00787000" lon="-8.94483000">
        <ele>31.000000</ele>
        <time>2010-01-01T06:28:49Z</time>
      </trkpt>
      <trkpt lat="37.00784000" lon="-8.94476000">
        <ele>31.000000</ele>
        <time>2010-01-01T06:28:51Z</time>
      </trkpt>
      <trkpt lat="37.00779000" lon="-8.94471000">
        <ele>32.000000</ele>
        <time>2010-01-01T06:28:54Z</time>
      </trkpt>
      <trkpt lat="37.00774000" lon="-8.94468000">
        <ele>31.000000</ele>
        <time>2010-01-01T06:28:56Z</time>
      </trkpt>
      <trkpt lat="37.00767000" lon="-8.94468000">
        <ele>30.000000</ele>
        <time>2010-01-01T06:28:59Z</time>
      </trkpt>
      <trkpt lat="37.00762000" lon="-8.94470000">
        <ele>30.000000</ele>
        <time>2010-01-01T06:29:01Z</time>
      </trkpt>
      <trkpt lat="37.00757000" lon="-8.94474000">
        <ele>29.000000</ele>
        <time>2010-01-01T06:29:03Z</time>
      </trkpt>
      <trkpt lat="37.00753000" lon="-8.94482000">
        <ele>29.000000</ele>
        <time>2010-01-01T06:29:06Z</time>
      </trkpt>
      <trkpt lat="37.00753000" lon="-8.94481000">
        <ele>29.000000</ele>
        <time>2010-01-01T06:29:07Z</time>
      </trkpt>
      <trkpt lat="37.00751000" lon="-8.94491000">
        <ele>29.000000</ele>
        <time>2010-01-01T06:29:10Z</time>
      </trkpt>
      <trkpt lat="37.00752000" lon="-8.94499000">
        <ele>29.000000</ele>
        <time>2010-01-01T06:29:12Z</time>
      </trkpt>
      <trkpt lat="37.00755000" lon="-8.94505000">
        <ele>29.000000</ele>
        <time>2010-01-01T06:29:15Z</time>
      </trkpt>
      <trkpt lat="37.00760000" lon="-8.94510000">
        <ele>29.000000</ele>
        <time>2010-01-01T06:29:17Z</time>
      </trkpt>
      <trkpt lat="37.00769000" lon="-8.94514000">
        <ele>29.000000</ele>
        <time>2010-01-01T06:29:21Z</time>
      </trkpt>
      <trkpt lat="37.00775000" lon="-8.94513000">
        <ele>29.000000</ele>
        <time>2010-01-01T06:29:23Z</time>
      </trkpt>
      <trkpt lat="37.00804000" lon="-8.94600000">
        <ele>29.000000</ele>
        <time>2010-01-01T06:29:54Z</time>
      </trkpt>
      <trkpt lat="37.00827000" lon="-8.94654000">
        <ele>28.000000</ele>
        <time>2010-01-01T06:30:13Z</time>
      </trkpt>
      <trkpt lat="37.00910000" lon="-8.94797000">
        <ele>30.000000</ele>
        <time>2010-01-01T06:31:10Z</time>
      </trkpt>
      <trkpt lat="37.00935000" lon="-8.94828000">
        <ele>26.000000</ele>
        <time>2010-01-01T06:31:24Z</time>
      </trkpt>
      <trkpt lat="37.00966000" lon="-8.94861000">
        <ele>22.000000</ele>
        <time>2010-01-01T06:31:40Z</time>
      </trkpt>
      <trkpt lat="37.01006000" lon="-8.94899000">
        <ele>22.000000</ele>
        <time>2010-01-01T06:32:00Z</time>
      </trkpt>
      <trkpt lat="37.01202150" lon="-8.95066504">
        <ele>20.000000</ele>
        <time>2010-01-01T06:33:35Z</time>
      </trkpt>
      <trkpt lat="37.01675940" lon="-8.95471125">
        <ele>22.000000</ele>
        <time>2010-01-01T06:37:25Z</time>
      </trkpt>
      <trkpt lat="37.01780000" lon="-8.95560000">
        <ele>22.000000</ele>
        <time>2010-01-01T06:38:15Z</time>
      </trkpt>
      <trkpt lat="37.01791460" lon="-8.95569009">
        <ele>22.000000</ele>
        <time>2010-01-01T06:38:21Z</time>
      </trkpt>
      <trkpt lat="37.02524170" lon="-8.96144687">
        <ele>38.000000</ele>
        <time>2010-01-01T06:44:07Z</time>
      </trkpt>
      <trkpt lat="37.02718000" lon="-8.96297000">
        <ele>42.000000</ele>
        <time>2010-01-01T06:45:38Z</time>
      </trkpt>
      <trkpt lat="37.02734000" lon="-8.96311000">
        <ele>42.000000</ele>
        <time>2010-01-01T06:45:46Z</time>
      </trkpt>
      <trkpt lat="37.02755000" lon="-8.96355000">
        <ele>40.000000</ele>
        <time>2010-01-01T06:46:03Z</time>
      </trkpt>
      <trkpt lat="37.02758000" lon="-8.96381000">
        <ele>40.000000</ele>
        <time>2010-01-01T06:46:11Z</time>
      </trkpt>
      <trkpt lat="37.02767000" lon="-8.96899000">
        <ele>45.000000</ele>
        <time>2010-01-01T06:48:57Z</time>
      </trkpt>
      <trkpt lat="37.02752000" lon="-8.97145000">
        <ele>45.000000</ele>
        <time>2010-01-01T06:50:15Z</time>
      </trkpt>
      <trkpt lat="37.02722000" lon="-8.97526000">
        <ele>48.000000</ele>
        <time>2010-01-01T06:52:18Z</time>
      </trkpt>
      <trkpt lat="37.02724000" lon="-8.97596000">
        <ele>46.000000</ele>
        <time>2010-01-01T06:52:40Z</time>
      </trkpt>
      <trkpt lat="37.02825000" lon="-8.98161000">
        <ele>50.000000</ele>
        <time>2010-01-01T06:55:45Z</time>
      </trkpt>
      <trkpt lat="37.02827000" lon="-8.98183000">
        <ele>51.000000</ele>
        <time>2010-01-01T06:55:52Z</time>
      </trkpt>
      <trkpt lat="37.02823000" lon="-8.98361000">
        <ele>53.000000</ele>
        <time>2010-01-01T06:56:49Z</time>
      </trkpt>
      <trkpt lat="37.02819000" lon="-8.98392000">
        <ele>52.000000</ele>
        <time>2010-01-01T06:56:59Z</time>
      </trkpt>
      <trkpt lat="37.02812000" lon="-8.98410000">
        <ele>51.000000</ele>
        <time>2010-01-01T06:57:06Z</time>
      </trkpt>
      <trkpt lat="37.02806100" lon="-8.98424376">
        <ele>50.000000</ele>
        <time>2010-01-01T06:57:11Z</time>
      </trkpt>
      <trkpt lat="37.02535000" lon="-8.99085000">
        <ele>58.000000</ele>
        <time>2010-01-01T07:01:08Z</time>
      </trkpt>
      <trkpt lat="37.02409000" lon="-8.99386000">
        <ele>61.000000</ele>
        <time>2010-01-01T07:02:57Z</time>
      </trkpt>
      <trkpt lat="37.02393230" lon="-8.99420947">
        <ele>59.000000</ele>
        <time>2010-01-01T07:03:10Z</time>
      </trkpt>
      <trkpt lat="37.02386000" lon="-8.99437000">
        <ele>59.000000</ele>
        <time>2010-01-01T07:03:16Z</time>
      </trkpt>
      <trkpt lat="37.02352450" lon="-8.99499177">
        <ele>49.000000</ele>
        <time>2010-01-01T07:03:40Z</time>
      </trkpt>
    </trkseg>
  </trk>
</gpx>
